<?xml version='1.0' encoding='UTF-8'?><gpx version="1.1" creator="JPX - https://github.com/jenetics/jpx" xmlns="http://www.topografix.com/GPX/1/1"><trk><trkseg><trkpt lat="45.594800018265374" lon="8.623268425758143"><ele>228.0</ele><time>2026-04-11T13:47:42.999Z</time></trkpt><trkpt lat="45.59476021145739" lon="8.623179918859542"><ele>228.0</ele><time>2026-04-11T13:47:44.999Z</time></trkpt><trkpt lat="45.5947281805457" lon="8.623059998051474"><ele>228.0</ele><time>2026-04-11T13:47:47.999Z</time></trkpt><trkpt lat="45.59471373240613" lon="8.622911215979306"><ele>228.0</ele><time>2026-04-11T13:47:48.999Z</time></trkpt><trkpt lat="45.59471594905752" lon="8.62270546227282"><ele>228.0</ele><time>2026-04-11T13:47:49.999Z</time></trkpt><trkpt lat="45.59472173051688" lon="8.622472451649987"><ele>227.33333333333331</ele><time>2026-04-11T13:47:50.999Z</time></trkpt><trkpt lat="45.59471769940677" lon="8.622225856029573"><ele>226.66666666666666</ele><time>2026-04-11T13:47:51.999Z</time></trkpt><trkpt lat="45.59471630729303" lon="8.621998410858096"><ele>226.0</ele><time>2026-04-11T13:47:52.999Z</time></trkpt><trkpt lat="45.59471948448626" lon="8.621773553600361"><ele>226.0</ele><time>2026-04-11T13:47:53.999Z</time></trkpt><trkpt lat="45.59471209429267" lon="8.621562948041136"><ele>226.0</ele><time>2026-04-11T13:47:54.999Z</time></trkpt><trkpt lat="45.59470609350616" lon="8.621372165603011"><ele>226.0</ele><time>2026-04-11T13:47:55.999Z</time></trkpt><trkpt lat="45.594702706644604" lon="8.621191751877006"><ele>226.0</ele><time>2026-04-11T13:47:56.999Z</time></trkpt><trkpt lat="45.59469968223396" lon="8.621000000524147"><ele>226.5</ele><time>2026-04-11T13:47:57.999Z</time></trkpt><trkpt lat="45.59469616434348" lon="8.62078930302932"><ele>227.0</ele><time>2026-04-11T13:47:58.999Z</time></trkpt><trkpt lat="45.59469354691332" lon="8.620584659077634"><ele>227.5</ele><time>2026-04-11T13:47:59.999Z</time></trkpt><trkpt lat="45.59468838791477" lon="8.620379188563799"><ele>228.0</ele><time>2026-04-11T13:48:00.999Z</time></trkpt><trkpt lat="45.59468460598687" lon="8.620183304869297"><ele>228.0</ele><time>2026-04-11T13:48:01.999Z</time></trkpt><trkpt lat="45.59468143233525" lon="8.619996193764264"><ele>228.0</ele><time>2026-04-11T13:48:02.999Z</time></trkpt><trkpt lat="45.59467888948743" lon="8.61980610407374"><ele>228.0</ele><time>2026-04-11T13:48:03.999Z</time></trkpt><trkpt lat="45.5946751778046" lon="8.619615255025455"><ele>228.0</ele><time>2026-04-11T13:48:04.999Z</time></trkpt><trkpt lat="45.5946712906208" lon="8.619418063526368"><ele>228.0</ele><time>2026-04-11T13:48:05.999Z</time></trkpt><trkpt lat="45.59466182238721" lon="8.619225762218571"><ele>228.0</ele><time>2026-04-11T13:48:06.999Z</time></trkpt><trkpt lat="45.59465874033108" lon="8.619036345736136"><ele>228.0</ele><time>2026-04-11T13:48:07.999Z</time></trkpt><trkpt lat="45.59465776368191" lon="8.618842622057416"><ele>228.0</ele><time>2026-04-11T13:48:08.999Z</time></trkpt><trkpt lat="45.59465549645716" lon="8.6186493679839"><ele>227.75</ele><time>2026-04-11T13:48:09.999Z</time></trkpt><trkpt lat="45.594652348065694" lon="8.618454798243521"><ele>227.5</ele><time>2026-04-11T13:48:10.999Z</time></trkpt><trkpt lat="45.5946480461813" lon="8.618260841087139"><ele>227.25</ele><time>2026-04-11T13:48:11.999Z</time></trkpt><trkpt lat="45.594644178920966" lon="8.618069306819082"><ele>227.0</ele><time>2026-04-11T13:48:12.999Z</time></trkpt><trkpt lat="45.59463913153322" lon="8.617869492559185"><ele>226.33333333333334</ele><time>2026-04-11T13:48:13.999Z</time></trkpt><trkpt lat="45.59463358435354" lon="8.617656898273278"><ele>225.66666666666669</ele><time>2026-04-11T13:48:14.999Z</time></trkpt><trkpt lat="45.594626893602666" lon="8.617441435363563"><ele>225.0</ele><time>2026-04-11T13:48:15.999Z</time></trkpt><trkpt lat="45.59461603688341" lon="8.617222796999958"><ele>225.0</ele><time>2026-04-11T13:48:16.999Z</time></trkpt><trkpt lat="45.59459655487124" lon="8.617000398752396"><ele>225.0</ele><time>2026-04-11T13:48:17.999Z</time></trkpt><trkpt lat="45.5945716451119" lon="8.616785909212028"><ele>225.0</ele><time>2026-04-11T13:48:18.999Z</time></trkpt><trkpt lat="45.59454473777532" lon="8.616566867386727"><ele>225.0</ele><time>2026-04-11T13:48:19.999Z</time></trkpt><trkpt lat="45.594512307462665" lon="8.61636730012405"><ele>225.0</ele><time>2026-04-11T13:48:20.999Z</time></trkpt><trkpt lat="45.5944846255643" lon="8.616170842909614"><ele>225.0</ele><time>2026-04-11T13:48:21.999Z</time></trkpt><trkpt lat="45.594457096981756" lon="8.615984997449504"><ele>225.0</ele><time>2026-04-11T13:48:22.999Z</time></trkpt><trkpt lat="45.5944265957375" lon="8.615801809107818"><ele>225.2</ele><time>2026-04-11T13:48:23.999Z</time></trkpt><trkpt lat="45.59440263011231" lon="8.615635742969001"><ele>225.4</ele><time>2026-04-11T13:48:24.999Z</time></trkpt><trkpt lat="45.59438214579911" lon="8.615513317073843"><ele>225.60000000000002</ele><time>2026-04-11T13:48:25.999Z</time></trkpt><trkpt lat="45.594366345059946" lon="8.615423611254341"><ele>225.8</ele><time>2026-04-11T13:48:26.999Z</time></trkpt><trkpt lat="45.59435288412157" lon="8.615334518979505"><ele>226.0</ele><time>2026-04-11T13:48:27.999Z</time></trkpt><trkpt lat="45.59431919129775" lon="8.615141426319092"><ele>226.0</ele><time>2026-04-11T13:48:29.999Z</time></trkpt><trkpt lat="45.59428550244925" lon="8.614995589945327"><ele>226.0</ele><time>2026-04-11T13:48:30.999Z</time></trkpt><trkpt lat="45.594247846044354" lon="8.614780492816717"><ele>226.0</ele><time>2026-04-11T13:48:31.999Z</time></trkpt><trkpt lat="45.59416893531997" lon="8.614506641875833"><ele>226.33333333333331</ele><time>2026-04-11T13:48:32.999Z</time></trkpt><trkpt lat="45.59408022284076" lon="8.61422425093024"><ele>226.66666666666669</ele><time>2026-04-11T13:48:33.999Z</time></trkpt><trkpt lat="45.5939816344223" lon="8.613946192916856"><ele>227.0</ele><time>2026-04-11T13:48:34.999Z</time></trkpt><trkpt lat="45.59388397069689" lon="8.61368138632732"><ele>226.0</ele><time>2026-04-11T13:48:35.999Z</time></trkpt><trkpt lat="45.59379305448906" lon="8.613413737818403"><ele>225.0</ele><time>2026-04-11T13:48:36.999Z</time></trkpt><trkpt lat="45.593706619009296" lon="8.613141468239924"><ele>224.0</ele><time>2026-04-11T13:48:37.999Z</time></trkpt><trkpt lat="45.59362307568782" lon="8.612860789359853"><ele>223.66666666666669</ele><time>2026-04-11T13:48:38.999Z</time></trkpt><trkpt lat="45.59354267457371" lon="8.612574828004195"><ele>223.33333333333331</ele><time>2026-04-11T13:48:39.999Z</time></trkpt><trkpt lat="45.593467105916474" lon="8.612286754622597"><ele>223.0</ele><time>2026-04-11T13:48:40.999Z</time></trkpt><trkpt lat="45.59339185528192" lon="8.61199662979817"><ele>223.0</ele><time>2026-04-11T13:48:41.999Z</time></trkpt><trkpt lat="45.593311311519535" lon="8.611706058811464"><ele>223.0</ele><time>2026-04-11T13:48:42.999Z</time></trkpt><trkpt lat="45.59323404825008" lon="8.611420958959002"><ele>223.0</ele><time>2026-04-11T13:48:43.999Z</time></trkpt><trkpt lat="45.593155625398786" lon="8.611132486192101"><ele>222.66666666666666</ele><time>2026-04-11T13:48:44.999Z</time></trkpt><trkpt lat="45.59307963738971" lon="8.610846535090023"><ele>222.33333333333331</ele><time>2026-04-11T13:48:45.999Z</time></trkpt><trkpt lat="45.59300343817501" lon="8.61056271287992"><ele>222.0</ele><time>2026-04-11T13:48:46.999Z</time></trkpt><trkpt lat="45.59292382395369" lon="8.610275607162883"><ele>222.0</ele><time>2026-04-11T13:48:47.999Z</time></trkpt><trkpt lat="45.592846674342574" lon="8.609991652183014"><ele>222.0</ele><time>2026-04-11T13:48:48.999Z</time></trkpt><trkpt lat="45.59277531789002" lon="8.609703824658961"><ele>222.0</ele><time>2026-04-11T13:48:49.999Z</time></trkpt><trkpt lat="45.59270575397567" lon="8.609411687425151"><ele>222.0</ele><time>2026-04-11T13:48:50.999Z</time></trkpt><trkpt lat="45.592644094228234" lon="8.60911455810021"><ele>222.0</ele><time>2026-04-11T13:48:51.999Z</time></trkpt><trkpt lat="45.59259197989476" lon="8.608814951649622"><ele>222.0</ele><time>2026-04-11T13:48:52.999Z</time></trkpt><trkpt lat="45.59254560645514" lon="8.608512866105904"><ele>222.66666666666669</ele><time>2026-04-11T13:48:53.999Z</time></trkpt><trkpt lat="45.59250615199277" lon="8.60821572942744"><ele>223.33333333333334</ele><time>2026-04-11T13:48:54.999Z</time></trkpt><trkpt lat="45.592469018073665" lon="8.607910573383057"><ele>224.0</ele><time>2026-04-11T13:48:55.999Z</time></trkpt><trkpt lat="45.59243490756494" lon="8.607600372999496"><ele>224.33333333333334</ele><time>2026-04-11T13:48:56.999Z</time></trkpt><trkpt lat="45.59239927439485" lon="8.6072971917506"><ele>224.66666666666669</ele><time>2026-04-11T13:48:57.999Z</time></trkpt><trkpt lat="45.59236614806504" lon="8.606998159934351"><ele>225.0</ele><time>2026-04-11T13:48:58.999Z</time></trkpt><trkpt lat="45.59233091735847" lon="8.606691770285913"><ele>225.33333333333331</ele><time>2026-04-11T13:48:59.999Z</time></trkpt><trkpt lat="45.59229228055392" lon="8.60638975443673"><ele>225.66666666666666</ele><time>2026-04-11T13:49:00.999Z</time></trkpt><trkpt lat="45.59225560895649" lon="8.606088277114615"><ele>226.0</ele><time>2026-04-11T13:49:01.999Z</time></trkpt><trkpt lat="45.59221874018978" lon="8.605782171417713"><ele>226.0</ele><time>2026-04-11T13:49:02.999Z</time></trkpt><trkpt lat="45.59218422576049" lon="8.605478809380928"><ele>226.0</ele><time>2026-04-11T13:49:03.999Z</time></trkpt><trkpt lat="45.59215270018731" lon="8.605179537647624"><ele>226.0</ele><time>2026-04-11T13:49:04.999Z</time></trkpt><trkpt lat="45.59211844956853" lon="8.604871213193674"><ele>226.0</ele><time>2026-04-11T13:49:05.999Z</time></trkpt><trkpt lat="45.59208140377659" lon="8.60456556264984"><ele>226.0</ele><time>2026-04-11T13:49:06.999Z</time></trkpt><trkpt lat="45.59204298378414" lon="8.604260523293709"><ele>226.0</ele><time>2026-04-11T13:49:07.999Z</time></trkpt><trkpt lat="45.5920051241883" lon="8.60395508932876"><ele>226.0</ele><time>2026-04-11T13:49:08.999Z</time></trkpt><trkpt lat="45.59196985026202" lon="8.603652283803829"><ele>226.0</ele><time>2026-04-11T13:49:09.999Z</time></trkpt><trkpt lat="45.591931458889526" lon="8.603351511880552"><ele>226.0</ele><time>2026-04-11T13:49:10.999Z</time></trkpt><trkpt lat="45.59189495420567" lon="8.603047729756979"><ele>226.0</ele><time>2026-04-11T13:49:11.999Z</time></trkpt><trkpt lat="45.59185795832306" lon="8.60274578779681"><ele>226.0</ele><time>2026-04-11T13:49:12.999Z</time></trkpt><trkpt lat="45.59182132379175" lon="8.602441367271764"><ele>226.0</ele><time>2026-04-11T13:49:13.999Z</time></trkpt><trkpt lat="45.591784516137416" lon="8.602137548939156"><ele>226.66666666666666</ele><time>2026-04-11T13:49:14.999Z</time></trkpt><trkpt lat="45.591749800794666" lon="8.601836980229155"><ele>227.33333333333331</ele><time>2026-04-11T13:49:15.999Z</time></trkpt><trkpt lat="45.59171477233202" lon="8.601531054716812"><ele>228.0</ele><time>2026-04-11T13:49:16.999Z</time></trkpt><trkpt lat="45.591676352041986" lon="8.601224083668356"><ele>228.0</ele><time>2026-04-11T13:49:17.999Z</time></trkpt><trkpt lat="45.59163413769305" lon="8.600923620419719"><ele>228.0</ele><time>2026-04-11T13:49:18.999Z</time></trkpt><trkpt lat="45.591584007671074" lon="8.60063217517649"><ele>228.0</ele><time>2026-04-11T13:49:19.999Z</time></trkpt><trkpt lat="45.591526628714924" lon="8.600339624069338"><ele>227.66666666666669</ele><time>2026-04-11T13:49:20.999Z</time></trkpt><trkpt lat="45.591468348935784" lon="8.600044867611695"><ele>227.33333333333334</ele><time>2026-04-11T13:49:21.999Z</time></trkpt><trkpt lat="45.591412030529035" lon="8.599745406629612"><ele>227.0</ele><time>2026-04-11T13:49:22.999Z</time></trkpt><trkpt lat="45.591359396262845" lon="8.599454159521658"><ele>227.0</ele><time>2026-04-11T13:49:23.999Z</time></trkpt><trkpt lat="45.59130670655548" lon="8.599157840825386"><ele>227.0</ele><time>2026-04-11T13:49:24.999Z</time></trkpt><trkpt lat="45.59124880262928" lon="8.598854879980713"><ele>227.0</ele><time>2026-04-11T13:49:25.999Z</time></trkpt><trkpt lat="45.59119757191509" lon="8.598565932034456"><ele>227.0</ele><time>2026-04-11T13:49:26.999Z</time></trkpt><trkpt lat="45.591139141284124" lon="8.598265906677861"><ele>227.0</ele><time>2026-04-11T13:49:27.999Z</time></trkpt><trkpt lat="45.59108599349809" lon="8.59797711473218"><ele>227.0</ele><time>2026-04-11T13:49:28.999Z</time></trkpt><trkpt lat="45.591029808829155" lon="8.597677805951"><ele>226.33333333333334</ele><time>2026-04-11T13:49:29.999Z</time></trkpt><trkpt lat="45.59096987013506" lon="8.597382571776347"><ele>225.66666666666669</ele><time>2026-04-11T13:49:30.999Z</time></trkpt><trkpt lat="45.59090056527522" lon="8.597099106262148"><ele>225.0</ele><time>2026-04-11T13:49:31.999Z</time></trkpt><trkpt lat="45.59081255960576" lon="8.596819791688361"><ele>225.0</ele><time>2026-04-11T13:49:32.999Z</time></trkpt><trkpt lat="45.59071447442872" lon="8.596549325341106"><ele>225.0</ele><time>2026-04-11T13:49:33.999Z</time></trkpt><trkpt lat="45.59060395519906" lon="8.596283541463281"><ele>225.0</ele><time>2026-04-11T13:49:34.999Z</time></trkpt><trkpt lat="45.59048293673661" lon="8.596028836999865"><ele>225.0</ele><time>2026-04-11T13:49:35.999Z</time></trkpt><trkpt lat="45.590361456953346" lon="8.595782798645724"><ele>225.0</ele><time>2026-04-11T13:49:36.999Z</time></trkpt><trkpt lat="45.590237589563536" lon="8.595528417723367"><ele>225.0</ele><time>2026-04-11T13:49:37.999Z</time></trkpt><trkpt lat="45.59011912672034" lon="8.595275302689215"><ele>225.0</ele><time>2026-04-11T13:49:38.999Z</time></trkpt><trkpt lat="45.590002616173244" lon="8.595019471694131"><ele>225.0</ele><time>2026-04-11T13:49:39.999Z</time></trkpt><trkpt lat="45.58988513298503" lon="8.594764875179035"><ele>225.0</ele><time>2026-04-11T13:49:40.999Z</time></trkpt><trkpt lat="45.589764781513665" lon="8.594508833721342"><ele>225.66666666666669</ele><time>2026-04-11T13:49:41.999Z</time></trkpt><trkpt lat="45.58964418858397" lon="8.594249626080071"><ele>226.33333333333334</ele><time>2026-04-11T13:49:42.999Z</time></trkpt><trkpt lat="45.58952515029734" lon="8.593995050961842"><ele>227.0</ele><time>2026-04-11T13:49:43.999Z</time></trkpt><trkpt lat="45.58941066891011" lon="8.593742077241371"><ele>225.0</ele><time>2026-04-11T13:49:44.999Z</time></trkpt><trkpt lat="45.589293835792624" lon="8.593484338606528"><ele>223.0</ele><time>2026-04-11T13:49:45.999Z</time></trkpt><trkpt lat="45.58917790482944" lon="8.593220836298057"><ele>221.0</ele><time>2026-04-11T13:49:46.999Z</time></trkpt><trkpt lat="45.58906838514633" lon="8.5929533669264"><ele>220.0</ele><time>2026-04-11T13:49:47.999Z</time></trkpt><trkpt lat="45.588971410823724" lon="8.59268309678686"><ele>219.0</ele><time>2026-04-11T13:49:48.999Z</time></trkpt><trkpt lat="45.58888194199567" lon="8.592405886995708"><ele>218.0</ele><time>2026-04-11T13:49:49.999Z</time></trkpt><trkpt lat="45.588797381501635" lon="8.592120318224833"><ele>217.0</ele><time>2026-04-11T13:49:50.999Z</time></trkpt><trkpt lat="45.588716906364674" lon="8.591836212336476"><ele>216.0</ele><time>2026-04-11T13:49:51.999Z</time></trkpt><trkpt lat="45.58863533200431" lon="8.591547566253421"><ele>215.0</ele><time>2026-04-11T13:49:52.999Z</time></trkpt><trkpt lat="45.58855319853284" lon="8.591267540064997"><ele>214.33333333333334</ele><time>2026-04-11T13:49:53.999Z</time></trkpt><trkpt lat="45.588468810317366" lon="8.590984014000444"><ele>213.66666666666669</ele><time>2026-04-11T13:49:54.999Z</time></trkpt><trkpt lat="45.588383975911746" lon="8.590703614771488"><ele>213.0</ele><time>2026-04-11T13:49:55.999Z</time></trkpt><trkpt lat="45.58829730416329" lon="8.590418492897854"><ele>213.0</ele><time>2026-04-11T13:49:56.999Z</time></trkpt><trkpt lat="45.588215973565944" lon="8.59013514553946"><ele>213.0</ele><time>2026-04-11T13:49:57.999Z</time></trkpt><trkpt lat="45.5881369201638" lon="8.58985342615542"><ele>213.0</ele><time>2026-04-11T13:49:58.999Z</time></trkpt><trkpt lat="45.588054489736265" lon="8.58956825993601"><ele>212.66666666666669</ele><time>2026-04-11T13:49:59.999Z</time></trkpt><trkpt lat="45.58797326900333" lon="8.589288505808439"><ele>212.33333333333334</ele><time>2026-04-11T13:50:00.999Z</time></trkpt><trkpt lat="45.58788988632085" lon="8.589005202661195"><ele>212.0</ele><time>2026-04-11T13:50:02Z</time></trkpt><trkpt lat="45.58780501593562" lon="8.588719766111913"><ele>212.0</ele><time>2026-04-11T13:50:03Z</time></trkpt><trkpt lat="45.58772067303419" lon="8.58843411340354"><ele>212.0</ele><time>2026-04-11T13:50:04Z</time></trkpt><trkpt lat="45.58763940389202" lon="8.588150241998584"><ele>212.0</ele><time>2026-04-11T13:50:05Z</time></trkpt><trkpt lat="45.587562249668366" lon="8.587870829278268"><ele>212.0</ele><time>2026-04-11T13:50:06Z</time></trkpt><trkpt lat="45.58747917517302" lon="8.587586846931956"><ele>212.0</ele><time>2026-04-11T13:50:07Z</time></trkpt><trkpt lat="45.58739439758816" lon="8.587306105254704"><ele>212.0</ele><time>2026-04-11T13:50:08Z</time></trkpt><trkpt lat="45.58730772946935" lon="8.587028063243698"><ele>211.66666666666669</ele><time>2026-04-11T13:50:09Z</time></trkpt><trkpt lat="45.587215188745716" lon="8.586753184955711"><ele>211.33333333333331</ele><time>2026-04-11T13:50:10Z</time></trkpt><trkpt lat="45.587110550200876" lon="8.586482444018744"><ele>211.0</ele><time>2026-04-11T13:50:11Z</time></trkpt><trkpt lat="45.586997267551666" lon="8.586222839848139"><ele>211.0</ele><time>2026-04-11T13:50:12Z</time></trkpt><trkpt lat="45.5868765902759" lon="8.585973919270241"><ele>211.0</ele><time>2026-04-11T13:50:13Z</time></trkpt><trkpt lat="45.58675013142451" lon="8.58573049240516"><ele>211.0</ele><time>2026-04-11T13:50:14Z</time></trkpt><trkpt lat="45.586612317309054" lon="8.585491922446773"><ele>211.66666666666666</ele><time>2026-04-11T13:50:15Z</time></trkpt><trkpt lat="45.58648449808734" lon="8.58525299055783"><ele>212.33333333333331</ele><time>2026-04-11T13:50:16Z</time></trkpt><trkpt lat="45.586369927568605" lon="8.58502454518969"><ele>213.0</ele><time>2026-04-11T13:50:17Z</time></trkpt><trkpt lat="45.58625884611177" lon="8.584794050764316"><ele>212.66666666666669</ele><time>2026-04-11T13:50:18Z</time></trkpt><trkpt lat="45.58617730066495" lon="8.584567516407906"><ele>212.33333333333334</ele><time>2026-04-11T13:50:19Z</time></trkpt><trkpt lat="45.58611860155668" lon="8.58433211155399"><ele>212.0</ele><time>2026-04-11T13:50:19.999Z</time></trkpt><trkpt lat="45.586070118637394" lon="8.58409003578975"><ele>212.0</ele><time>2026-04-11T13:50:20.999Z</time></trkpt><trkpt lat="45.58603089344965" lon="8.583869415785935"><ele>212.0</ele><time>2026-04-11T13:50:21.999Z</time></trkpt><trkpt lat="45.58598109834765" lon="8.58365289315754"><ele>212.0</ele><time>2026-04-11T13:50:22.999Z</time></trkpt><trkpt lat="45.58593069806717" lon="8.583460134117773"><ele>212.0</ele><time>2026-04-11T13:50:23.999Z</time></trkpt><trkpt lat="45.58588555171881" lon="8.583279741022132"><ele>212.0</ele><time>2026-04-11T13:50:24.999Z</time></trkpt><trkpt lat="45.5858303828009" lon="8.583124405922556"><ele>212.0</ele><time>2026-04-11T13:50:25.999Z</time></trkpt><trkpt lat="45.58575230649279" lon="8.582999218315502"><ele>212.0</ele><time>2026-04-11T13:50:26.999Z</time></trkpt><trkpt lat="45.5856708949413" lon="8.582898208472068"><ele>212.00000000000003</ele><time>2026-04-11T13:50:27.999Z</time></trkpt><trkpt lat="45.58559788363261" lon="8.58279723584736"><ele>212.0</ele><time>2026-04-11T13:50:28.999Z</time></trkpt><trkpt lat="45.58556337393508" lon="8.582683033828465"><ele>212.0</ele><time>2026-04-11T13:50:29.999Z</time></trkpt><trkpt lat="45.58551190408104" lon="8.582627101470203"><ele>212.0</ele><time>2026-04-11T13:50:30.999Z</time></trkpt><trkpt lat="45.585456241131" lon="8.582570451691941"><ele>212.00000000000003</ele><time>2026-04-11T13:50:31.999Z</time></trkpt><trkpt lat="45.585384428175935" lon="8.582498275714896"><ele>212.0</ele><time>2026-04-11T13:50:32.999Z</time></trkpt><trkpt lat="45.58530764554056" lon="8.5824007025591"><ele>212.25</ele><time>2026-04-11T13:50:33.999Z</time></trkpt><trkpt lat="45.585193482218955" lon="8.582353050090111"><ele>212.5</ele><time>2026-04-11T13:50:34.999Z</time></trkpt><trkpt lat="45.585085387117076" lon="8.582280625280744"><ele>212.75</ele><time>2026-04-11T13:50:35.999Z</time></trkpt><trkpt lat="45.584976405120024" lon="8.582190038437084"><ele>213.0</ele><time>2026-04-11T13:50:36.999Z</time></trkpt><trkpt lat="45.58487640884688" lon="8.582083303417571"><ele>213.25</ele><time>2026-04-11T13:50:37.999Z</time></trkpt><trkpt lat="45.58477035938254" lon="8.581970451507418"><ele>213.5</ele><time>2026-04-11T13:50:38.999Z</time></trkpt><trkpt lat="45.58466574867934" lon="8.581859510916773"><ele>213.75</ele><time>2026-04-11T13:50:39.999Z</time></trkpt><trkpt lat="45.58456088672183" lon="8.58174903722882"><ele>214.0</ele><time>2026-04-11T13:50:40.999Z</time></trkpt><trkpt lat="45.584457046832725" lon="8.581640084419885"><ele>214.0</ele><time>2026-04-11T13:50:41.999Z</time></trkpt><trkpt lat="45.5843576778734" lon="8.581521176367481"><ele>214.0</ele><time>2026-04-11T13:50:42.999Z</time></trkpt><trkpt lat="45.58426138677781" lon="8.581399939288731"><ele>214.0</ele><time>2026-04-11T13:50:43.999Z</time></trkpt><trkpt lat="45.58416463169744" lon="8.581276392126547"><ele>214.0</ele><time>2026-04-11T13:50:44.999Z</time></trkpt><trkpt lat="45.584068537463644" lon="8.581157166735892"><ele>214.0</ele><time>2026-04-11T13:50:45.999Z</time></trkpt><trkpt lat="45.58396093637566" lon="8.581028710110948"><ele>214.0</ele><time>2026-04-11T13:50:46.999Z</time></trkpt><trkpt lat="45.583836298592736" lon="8.580883804446541"><ele>214.0</ele><time>2026-04-11T13:50:47.999Z</time></trkpt><trkpt lat="45.583722621689276" lon="8.580750418334778"><ele>214.0</ele><time>2026-04-11T13:50:48.999Z</time></trkpt><trkpt lat="45.58360927871483" lon="8.58060561373934"><ele>213.66666666666666</ele><time>2026-04-11T13:50:49.999Z</time></trkpt><trkpt lat="45.583498674019886" lon="8.580452001655"><ele>213.33333333333331</ele><time>2026-04-11T13:50:50.999Z</time></trkpt><trkpt lat="45.583391505193326" lon="8.580287316212344"><ele>213.0</ele><time>2026-04-11T13:50:51.999Z</time></trkpt><trkpt lat="45.58328973254592" lon="8.580123884559598"><ele>212.66666666666669</ele><time>2026-04-11T13:50:52.999Z</time></trkpt><trkpt lat="45.58319341346503" lon="8.579956106949936"><ele>212.33333333333334</ele><time>2026-04-11T13:50:53.999Z</time></trkpt><trkpt lat="45.58310302272196" lon="8.579783605857607"><ele>212.0</ele><time>2026-04-11T13:50:54.999Z</time></trkpt><trkpt lat="45.583013671477566" lon="8.579608114732437"><ele>211.33333333333334</ele><time>2026-04-11T13:50:55.999Z</time></trkpt><trkpt lat="45.582921805334095" lon="8.579431264191692"><ele>210.66666666666669</ele><time>2026-04-11T13:50:56.999Z</time></trkpt><trkpt lat="45.58282907303571" lon="8.57925951567569"><ele>210.0</ele><time>2026-04-11T13:50:57.999Z</time></trkpt><trkpt lat="45.58273648051975" lon="8.579091322917028"><ele>210.0</ele><time>2026-04-11T13:50:58.999Z</time></trkpt><trkpt lat="45.58264493359615" lon="8.578920699044097"><ele>210.0</ele><time>2026-04-11T13:50:59.999Z</time></trkpt><trkpt lat="45.58255339440347" lon="8.578743636915094"><ele>210.0</ele><time>2026-04-11T13:51:00.999Z</time></trkpt><trkpt lat="45.58246193295289" lon="8.578561659788827"><ele>210.33333333333331</ele><time>2026-04-11T13:51:01.999Z</time></trkpt><trkpt lat="45.582370923232475" lon="8.578386108704994"><ele>210.66666666666666</ele><time>2026-04-11T13:51:02.999Z</time></trkpt><trkpt lat="45.58228114693344" lon="8.578211125814834"><ele>211.0</ele><time>2026-04-11T13:51:03.999Z</time></trkpt><trkpt lat="45.582191123210634" lon="8.578035454040563"><ele>211.0</ele><time>2026-04-11T13:51:04.999Z</time></trkpt><trkpt lat="45.58209511942387" lon="8.57785582405289"><ele>211.0</ele><time>2026-04-11T13:51:05.999Z</time></trkpt><trkpt lat="45.58200270435338" lon="8.57769054933795"><ele>211.0</ele><time>2026-04-11T13:51:06.999Z</time></trkpt><trkpt lat="45.58190875744363" lon="8.577511641990771"><ele>211.0</ele><time>2026-04-11T13:51:07.999Z</time></trkpt><trkpt lat="45.58181401501502" lon="8.577329580616174"><ele>211.0</ele><time>2026-04-11T13:51:08.999Z</time></trkpt><trkpt lat="45.581721123669354" lon="8.577131715185955"><ele>211.0</ele><time>2026-04-11T13:51:09.999Z</time></trkpt><trkpt lat="45.58152988042327" lon="8.576708234267917"><ele>211.0</ele><time>2026-04-11T13:51:11.999Z</time></trkpt><trkpt lat="45.581429523095515" lon="8.576508486890349"><ele>211.0</ele><time>2026-04-11T13:51:12.999Z</time></trkpt><trkpt lat="45.581325761011385" lon="8.57627424941492"><ele>211.0</ele><time>2026-04-11T13:51:13.999Z</time></trkpt><trkpt lat="45.5811740606497" lon="8.576123923310131"><ele>210.33333333333331</ele><time>2026-04-11T13:51:15.999Z</time></trkpt><trkpt lat="45.581082888355745" lon="8.575946394387547"><ele>209.66666666666669</ele><time>2026-04-11T13:51:16.999Z</time></trkpt><trkpt lat="45.580989743435985" lon="8.5757718719066"><ele>209.0</ele><time>2026-04-11T13:51:17.999Z</time></trkpt><trkpt lat="45.580898633520626" lon="8.575603021826128"><ele>209.0</ele><time>2026-04-11T13:51:18.999Z</time></trkpt><trkpt lat="45.58080634470934" lon="8.575430234230256"><ele>209.0</ele><time>2026-04-11T13:51:19.999Z</time></trkpt><trkpt lat="45.58071366035833" lon="8.575253512135436"><ele>209.0</ele><time>2026-04-11T13:51:20.999Z</time></trkpt><trkpt lat="45.58062302761449" lon="8.575077703967303"><ele>209.33333333333334</ele><time>2026-04-11T13:51:21.999Z</time></trkpt><trkpt lat="45.58053256753086" lon="8.574903555082477"><ele>209.66666666666669</ele><time>2026-04-11T13:51:22.999Z</time></trkpt><trkpt lat="45.58044641870236" lon="8.574723870719229"><ele>210.0</ele><time>2026-04-11T13:51:23.999Z</time></trkpt><trkpt lat="45.580348662243" lon="8.574541911236402"><ele>210.33333333333331</ele><time>2026-04-11T13:51:24.999Z</time></trkpt><trkpt lat="45.58024000855147" lon="8.574343105825418"><ele>210.66666666666666</ele><time>2026-04-11T13:51:25.999Z</time></trkpt><trkpt lat="45.58012086843906" lon="8.574118010388936"><ele>211.0</ele><time>2026-04-11T13:51:26.999Z</time></trkpt><trkpt lat="45.58000707533044" lon="8.573906757466931"><ele>211.0</ele><time>2026-04-11T13:51:27.999Z</time></trkpt><trkpt lat="45.579896315450256" lon="8.573699125496393"><ele>211.0</ele><time>2026-04-11T13:51:28.999Z</time></trkpt><trkpt lat="45.579782310015496" lon="8.573477170819995"><ele>211.0</ele><time>2026-04-11T13:51:29.999Z</time></trkpt><trkpt lat="45.57966914690623" lon="8.573252722514741"><ele>211.0</ele><time>2026-04-11T13:51:30.999Z</time></trkpt><trkpt lat="45.579551413234014" lon="8.57302412721154"><ele>211.0</ele><time>2026-04-11T13:51:31.999Z</time></trkpt><trkpt lat="45.57943091725071" lon="8.57279803989161"><ele>211.0</ele><time>2026-04-11T13:51:32.999Z</time></trkpt><trkpt lat="45.57930297987405" lon="8.572563714278557"><ele>211.0</ele><time>2026-04-11T13:51:33.999Z</time></trkpt><trkpt lat="45.5791836219716" lon="8.572328421335088"><ele>211.0</ele><time>2026-04-11T13:51:34.999Z</time></trkpt><trkpt lat="45.579065701164915" lon="8.572095443128614"><ele>211.0</ele><time>2026-04-11T13:51:35.999Z</time></trkpt><trkpt lat="45.57896295965203" lon="8.571883334890469"><ele>211.0</ele><time>2026-04-11T13:51:36.999Z</time></trkpt><trkpt lat="45.57887929946818" lon="8.571682392432976"><ele>211.0</ele><time>2026-04-11T13:51:37.999Z</time></trkpt><trkpt lat="45.5788023900967" lon="8.571489209451258"><ele>211.0</ele><time>2026-04-11T13:51:38.999Z</time></trkpt><trkpt lat="45.57870982976224" lon="8.571270423025739"><ele>211.0</ele><time>2026-04-11T13:51:39.999Z</time></trkpt><trkpt lat="45.57861772062848" lon="8.571045667120691"><ele>211.0</ele><time>2026-04-11T13:51:40.999Z</time></trkpt><trkpt lat="45.578533980455845" lon="8.570813024057289"><ele>211.0</ele><time>2026-04-11T13:51:41.999Z</time></trkpt><trkpt lat="45.578450338852214" lon="8.570570160479273"><ele>211.33333333333331</ele><time>2026-04-11T13:51:43Z</time></trkpt><trkpt lat="45.578370204548264" lon="8.570318536597432"><ele>211.66666666666669</ele><time>2026-04-11T13:51:44Z</time></trkpt><trkpt lat="45.57828948341225" lon="8.570059770261887"><ele>212.0</ele><time>2026-04-11T13:51:45Z</time></trkpt><trkpt lat="45.57821126662022" lon="8.569791037292786"><ele>212.0</ele><time>2026-04-11T13:51:46Z</time></trkpt><trkpt lat="45.57813363253411" lon="8.569518768693351"><ele>212.0</ele><time>2026-04-11T13:51:47Z</time></trkpt><trkpt lat="45.578047156536314" lon="8.569242574526136"><ele>212.0</ele><time>2026-04-11T13:51:48Z</time></trkpt><trkpt lat="45.57796100104148" lon="8.568959095719064"><ele>211.66666666666669</ele><time>2026-04-11T13:51:49Z</time></trkpt><trkpt lat="45.5778765585595" lon="8.568674927136437"><ele>211.33333333333331</ele><time>2026-04-11T13:51:50Z</time></trkpt><trkpt lat="45.57779158673218" lon="8.568389696840189"><ele>211.0</ele><time>2026-04-11T13:51:51Z</time></trkpt><trkpt lat="45.577708432441696" lon="8.568112344757912"><ele>210.33333333333331</ele><time>2026-04-11T13:51:52Z</time></trkpt><trkpt lat="45.577625961120674" lon="8.567828420738703"><ele>209.66666666666669</ele><time>2026-04-11T13:51:53Z</time></trkpt><trkpt lat="45.577543904419514" lon="8.567560773170918"><ele>209.0</ele><time>2026-04-11T13:51:54Z</time></trkpt><trkpt lat="45.57746406248501" lon="8.567297876571761"><ele>209.0</ele><time>2026-04-11T13:51:55Z</time></trkpt><trkpt lat="45.57737915620024" lon="8.567014203180268"><ele>209.0</ele><time>2026-04-11T13:51:56Z</time></trkpt><trkpt lat="45.577297329546234" lon="8.566747724701878"><ele>209.0</ele><time>2026-04-11T13:51:57Z</time></trkpt><trkpt lat="45.577217777609015" lon="8.56648956953326"><ele>209.0</ele><time>2026-04-11T13:51:58Z</time></trkpt><trkpt lat="45.577145608884145" lon="8.566246088809514"><ele>209.0</ele><time>2026-04-11T13:51:59Z</time></trkpt><trkpt lat="45.57707632093184" lon="8.566020460441464"><ele>209.0</ele><time>2026-04-11T13:52:00Z</time></trkpt><trkpt lat="45.57700538723384" lon="8.565798016155908"><ele>209.66666666666669</ele><time>2026-04-11T13:52:01Z</time></trkpt><trkpt lat="45.57694622023179" lon="8.56556626851958"><ele>210.33333333333331</ele><time>2026-04-11T13:52:02Z</time></trkpt><trkpt lat="45.576893436204216" lon="8.565362447293873"><ele>211.0</ele><time>2026-04-11T13:52:03Z</time></trkpt><trkpt lat="45.57684663514128" lon="8.56515618387394"><ele>211.0</ele><time>2026-04-11T13:52:04Z</time></trkpt><trkpt lat="45.57680276155201" lon="8.564937812244333"><ele>211.0</ele><time>2026-04-11T13:52:05Z</time></trkpt><trkpt lat="45.57676274220327" lon="8.564731900400037"><ele>211.0</ele><time>2026-04-11T13:52:06Z</time></trkpt><trkpt lat="45.57673046169305" lon="8.564538098726164"><ele>211.0</ele><time>2026-04-11T13:52:07Z</time></trkpt><trkpt lat="45.57671960910475" lon="8.56435828096224"><ele>211.5</ele><time>2026-04-11T13:52:08Z</time></trkpt><trkpt lat="45.57668070484693" lon="8.564193753565961"><ele>212.0</ele><time>2026-04-11T13:52:09Z</time></trkpt><trkpt lat="45.576663594482135" lon="8.564032681434304"><ele>212.5</ele><time>2026-04-11T13:52:10Z</time></trkpt><trkpt lat="45.57663765005987" lon="8.56387709823901"><ele>213.0</ele><time>2026-04-11T13:52:11Z</time></trkpt><trkpt lat="45.57660959576413" lon="8.563732209972029"><ele>213.25</ele><time>2026-04-11T13:52:12Z</time></trkpt><trkpt lat="45.576594331423856" lon="8.563580830222383"><ele>213.5</ele><time>2026-04-11T13:52:13Z</time></trkpt><trkpt lat="45.57657000125641" lon="8.56342005345495"><ele>213.75</ele><time>2026-04-11T13:52:14Z</time></trkpt><trkpt lat="45.57654564288372" lon="8.563250636847044"><ele>214.0</ele><time>2026-04-11T13:52:15Z</time></trkpt><trkpt lat="45.57652126250417" lon="8.563089580287176"><ele>214.0</ele><time>2026-04-11T13:52:16Z</time></trkpt><trkpt lat="45.57649693150372" lon="8.562932805885373"><ele>213.99999999999997</ele><time>2026-04-11T13:52:17Z</time></trkpt><trkpt lat="45.57647173647522" lon="8.562778101780976"><ele>213.99999999999997</ele><time>2026-04-11T13:52:18Z</time></trkpt><trkpt lat="45.5764500722467" lon="8.562629897526676"><ele>214.0</ele><time>2026-04-11T13:52:19Z</time></trkpt><trkpt lat="45.576431364718566" lon="8.562492093351256"><ele>214.0</ele><time>2026-04-11T13:52:20Z</time></trkpt><trkpt lat="45.57640840191197" lon="8.562356502265583"><ele>214.0</ele><time>2026-04-11T13:52:21Z</time></trkpt><trkpt lat="45.57638205021542" lon="8.562207012059867"><ele>213.99999999999997</ele><time>2026-04-11T13:52:22Z</time></trkpt><trkpt lat="45.57636190168338" lon="8.562059568042601"><ele>213.99999999999997</ele><time>2026-04-11T13:52:23Z</time></trkpt><trkpt lat="45.576328113469316" lon="8.561907032424667"><ele>214.0</ele><time>2026-04-11T13:52:24Z</time></trkpt><trkpt lat="45.576295939256376" lon="8.561757945050141"><ele>214.0</ele><time>2026-04-11T13:52:25Z</time></trkpt><trkpt lat="45.57625697090188" lon="8.561606025479525"><ele>214.0</ele><time>2026-04-11T13:52:26Z</time></trkpt><trkpt lat="45.5762067957477" lon="8.561453090881509"><ele>214.0</ele><time>2026-04-11T13:52:27Z</time></trkpt><trkpt lat="45.5761480603499" lon="8.561311990827157"><ele>214.0</ele><time>2026-04-11T13:52:28Z</time></trkpt><trkpt lat="45.57608751922969" lon="8.561162424373924"><ele>214.0</ele><time>2026-04-11T13:52:29Z</time></trkpt><trkpt lat="45.57601676016221" lon="8.56101501001325"><ele>214.0</ele><time>2026-04-11T13:52:30Z</time></trkpt><trkpt lat="45.57594678449181" lon="8.560869287939958"><ele>214.0</ele><time>2026-04-11T13:52:31Z</time></trkpt><trkpt lat="45.575876743106306" lon="8.5607199548533"><ele>214.0</ele><time>2026-04-11T13:52:32Z</time></trkpt><trkpt lat="45.575806931586214" lon="8.560569773989297"><ele>214.0</ele><time>2026-04-11T13:52:33Z</time></trkpt><trkpt lat="45.57571690949213" lon="8.560387342695421"><ele>213.66666666666666</ele><time>2026-04-11T13:52:34Z</time></trkpt><trkpt lat="45.57562320206496" lon="8.560200848003158"><ele>213.33333333333331</ele><time>2026-04-11T13:52:35Z</time></trkpt><trkpt lat="45.575550870401116" lon="8.560013386904748"><ele>213.0</ele><time>2026-04-11T13:52:36Z</time></trkpt><trkpt lat="45.57546181155255" lon="8.559826661860207"><ele>213.0</ele><time>2026-04-11T13:52:37Z</time></trkpt><trkpt lat="45.5753949118246" lon="8.559686396150738"><ele>213.0</ele><time>2026-04-11T13:52:38Z</time></trkpt><trkpt lat="45.57533880319059" lon="8.559569241970506"><ele>213.0</ele><time>2026-04-11T13:52:39Z</time></trkpt><trkpt lat="45.575280074152225" lon="8.559468279020738"><ele>213.0</ele><time>2026-04-11T13:52:40Z</time></trkpt><trkpt lat="45.575229750815154" lon="8.559351686818989"><ele>213.0</ele><time>2026-04-11T13:52:41Z</time></trkpt><trkpt lat="45.575178455897195" lon="8.55924250787735"><ele>213.2</ele><time>2026-04-11T13:52:42Z</time></trkpt><trkpt lat="45.57512051663224" lon="8.559123493308293"><ele>213.4</ele><time>2026-04-11T13:52:43Z</time></trkpt><trkpt lat="45.57505958802593" lon="8.558998702375149"><ele>213.59999999999997</ele><time>2026-04-11T13:52:44Z</time></trkpt><trkpt lat="45.57499516895165" lon="8.558870917356826"><ele>213.79999999999998</ele><time>2026-04-11T13:52:45Z</time></trkpt><trkpt lat="45.57493002980345" lon="8.558727553400692"><ele>214.0</ele><time>2026-04-11T13:52:46Z</time></trkpt><trkpt lat="45.574873679613845" lon="8.558588694663447"><ele>214.0</ele><time>2026-04-11T13:52:47Z</time></trkpt><trkpt lat="45.57481644290443" lon="8.558459054414746"><ele>213.99999999999997</ele><time>2026-04-11T13:52:48Z</time></trkpt><trkpt lat="45.57476664352931" lon="8.558336297935847"><ele>213.99999999999997</ele><time>2026-04-11T13:52:49Z</time></trkpt><trkpt lat="45.57471615335816" lon="8.558209462045031"><ele>214.0</ele><time>2026-04-11T13:52:50Z</time></trkpt><trkpt lat="45.57466305915283" lon="8.558078096241518"><ele>214.0</ele><time>2026-04-11T13:52:51Z</time></trkpt><trkpt lat="45.57461272077756" lon="8.557943857261227"><ele>213.99999999999997</ele><time>2026-04-11T13:52:52Z</time></trkpt><trkpt lat="45.57456644589403" lon="8.557815281689276"><ele>214.0</ele><time>2026-04-11T13:52:53Z</time></trkpt><trkpt lat="45.57451999253504" lon="8.557691901515076"><ele>214.0</ele><time>2026-04-11T13:52:54Z</time></trkpt><trkpt lat="45.574475828528904" lon="8.557571584909297"><ele>214.0</ele><time>2026-04-11T13:52:54.999Z</time></trkpt><trkpt lat="45.57444100220523" lon="8.557470902754384"><ele>213.99999999999997</ele><time>2026-04-11T13:52:55.999Z</time></trkpt><trkpt lat="45.57440649699811" lon="8.557375052912677"><ele>214.0</ele><time>2026-04-11T13:52:56.999Z</time></trkpt><trkpt lat="45.5743722576166" lon="8.557282641900688"><ele>213.83333333333331</ele><time>2026-04-11T13:52:57.999Z</time></trkpt><trkpt lat="45.57434170314966" lon="8.55720340532997"><ele>213.66666666666666</ele><time>2026-04-11T13:52:58.999Z</time></trkpt><trkpt lat="45.57431327192974" lon="8.557121754455725"><ele>213.5</ele><time>2026-04-11T13:52:59.999Z</time></trkpt><trkpt lat="45.574288359025545" lon="8.557038090976462"><ele>213.33333333333331</ele><time>2026-04-11T13:53:00.999Z</time></trkpt><trkpt lat="45.57423123631738" lon="8.55689973421446"><ele>213.16666666666666</ele><time>2026-04-11T13:53:02.999Z</time></trkpt><trkpt lat="45.574191026491356" lon="8.55674989605079"><ele>213.0</ele><time>2026-04-11T13:53:04.999Z</time></trkpt><trkpt lat="45.57414667825967" lon="8.556615676645123"><ele>213.0</ele><time>2026-04-11T13:53:06.999Z</time></trkpt><trkpt lat="45.5741050519256" lon="8.556490674709593"><ele>213.0</ele><time>2026-04-11T13:53:08.999Z</time></trkpt><trkpt lat="45.574066103830404" lon="8.556373702152527"><ele>213.0</ele><time>2026-04-11T13:53:10.999Z</time></trkpt><trkpt lat="45.57403047461312" lon="8.556266697166915"><ele>213.0</ele><time>2026-04-11T13:53:12.999Z</time></trkpt><trkpt lat="45.57398547807663" lon="8.556179288882667"><ele>213.0</ele><time>2026-04-11T13:53:14.999Z</time></trkpt><trkpt lat="45.57395555713206" lon="8.556082200013998"><ele>213.0</ele><time>2026-04-11T13:53:15.999Z</time></trkpt><trkpt lat="45.573937361006806" lon="8.555979084261901"><ele>213.2</ele><time>2026-04-11T13:53:16.999Z</time></trkpt><trkpt lat="45.57390188344762" lon="8.555873073617896"><ele>213.4</ele><time>2026-04-11T13:53:17.999Z</time></trkpt><trkpt lat="45.57385620735635" lon="8.5557714355321"><ele>213.59999999999997</ele><time>2026-04-11T13:53:18.999Z</time></trkpt><trkpt lat="45.5737987976864" lon="8.555654988726639"><ele>213.79999999999998</ele><time>2026-04-11T13:53:19.999Z</time></trkpt><trkpt lat="45.573742181308674" lon="8.555524684023235"><ele>214.0</ele><time>2026-04-11T13:53:20.999Z</time></trkpt><trkpt lat="45.57368913333648" lon="8.555382877741994"><ele>214.39999999999998</ele><time>2026-04-11T13:53:21.999Z</time></trkpt><trkpt lat="45.57364349146834" lon="8.555236154757885"><ele>214.79999999999998</ele><time>2026-04-11T13:53:22.999Z</time></trkpt><trkpt lat="45.5735949142867" lon="8.55510435647962"><ele>215.20000000000002</ele><time>2026-04-11T13:53:23.999Z</time></trkpt><trkpt lat="45.57353868521254" lon="8.554968021246973"><ele>215.60000000000002</ele><time>2026-04-11T13:53:24.999Z</time></trkpt><trkpt lat="45.57347897046233" lon="8.554836414845543"><ele>216.0</ele><time>2026-04-11T13:53:25.999Z</time></trkpt><trkpt lat="45.57343375650584" lon="8.554713797046837"><ele>216.0</ele><time>2026-04-11T13:53:26.999Z</time></trkpt><trkpt lat="45.573370907785836" lon="8.554567963578428"><ele>216.0</ele><time>2026-04-11T13:53:27.999Z</time></trkpt><trkpt lat="45.57329140014701" lon="8.554365056390951"><ele>216.0</ele><time>2026-04-11T13:53:28.999Z</time></trkpt><trkpt lat="45.57322345229707" lon="8.55415842870021"><ele>216.0</ele><time>2026-04-11T13:53:29.999Z</time></trkpt><trkpt lat="45.57316025002922" lon="8.553990730453261"><ele>215.75</ele><time>2026-04-11T13:53:30.999Z</time></trkpt><trkpt lat="45.57310762969935" lon="8.553832158487648"><ele>215.5</ele><time>2026-04-11T13:53:31.999Z</time></trkpt><trkpt lat="45.57303785680447" lon="8.553694821035107"><ele>215.25</ele><time>2026-04-11T13:53:32.999Z</time></trkpt><trkpt lat="45.57297692953086" lon="8.553560178862755"><ele>215.0</ele><time>2026-04-11T13:53:33.999Z</time></trkpt><trkpt lat="45.572912316610676" lon="8.553433739334737"><ele>214.8</ele><time>2026-04-11T13:53:34.999Z</time></trkpt><trkpt lat="45.57285625834715" lon="8.553326073193324"><ele>214.6</ele><time>2026-04-11T13:53:35.999Z</time></trkpt><trkpt lat="45.572797077316196" lon="8.553218427139601"><ele>214.39999999999998</ele><time>2026-04-11T13:53:36.999Z</time></trkpt><trkpt lat="45.572744200886426" lon="8.553086002975167"><ele>214.2</ele><time>2026-04-11T13:53:37.999Z</time></trkpt><trkpt lat="45.57269519219508" lon="8.552937890762978"><ele>214.0</ele><time>2026-04-11T13:53:38.999Z</time></trkpt><trkpt lat="45.57264321102613" lon="8.55278206905175"><ele>214.0</ele><time>2026-04-11T13:53:39.999Z</time></trkpt><trkpt lat="45.57260263216465" lon="8.552621576135907"><ele>214.0</ele><time>2026-04-11T13:53:40.999Z</time></trkpt><trkpt lat="45.57256559166614" lon="8.552435509888074"><ele>214.0</ele><time>2026-04-11T13:53:41.999Z</time></trkpt><trkpt lat="45.5725226961316" lon="8.552250790232872"><ele>214.0</ele><time>2026-04-11T13:53:42.999Z</time></trkpt><trkpt lat="45.57248435084901" lon="8.552054816851173"><ele>213.0</ele><time>2026-04-11T13:53:43.999Z</time></trkpt><trkpt lat="45.57243751489131" lon="8.551856233652531"><ele>212.0</ele><time>2026-04-11T13:53:44.999Z</time></trkpt><trkpt lat="45.57238400523467" lon="8.551656705889172"><ele>211.0</ele><time>2026-04-11T13:53:45.999Z</time></trkpt><trkpt lat="45.57233221906593" lon="8.551455658415716"><ele>210.0</ele><time>2026-04-11T13:53:46.999Z</time></trkpt><trkpt lat="45.57227204899431" lon="8.55125329096116"><ele>210.0</ele><time>2026-04-11T13:53:47.999Z</time></trkpt><trkpt lat="45.572194734656364" lon="8.551059057953635"><ele>210.0</ele><time>2026-04-11T13:53:48.999Z</time></trkpt><trkpt lat="45.5720990035798" lon="8.550888098852726"><ele>210.0</ele><time>2026-04-11T13:53:49.999Z</time></trkpt><trkpt lat="45.572013292084556" lon="8.550706680281145"><ele>209.5</ele><time>2026-04-11T13:53:50.999Z</time></trkpt><trkpt lat="45.571960192162784" lon="8.550530353789124"><ele>209.0</ele><time>2026-04-11T13:53:51.999Z</time></trkpt><trkpt lat="45.57186090612412" lon="8.550372709671835"><ele>208.5</ele><time>2026-04-11T13:53:52.999Z</time></trkpt><trkpt lat="45.571783413360464" lon="8.550182119331033"><ele>208.0</ele><time>2026-04-11T13:53:53.999Z</time></trkpt><trkpt lat="45.57171847941404" lon="8.549966598914823"><ele>208.0</ele><time>2026-04-11T13:53:54.999Z</time></trkpt><trkpt lat="45.571611548199975" lon="8.549776161450216"><ele>208.0</ele><time>2026-04-11T13:53:55.999Z</time></trkpt><trkpt lat="45.57150945152722" lon="8.54956837038322"><ele>208.0</ele><time>2026-04-11T13:53:56.999Z</time></trkpt><trkpt lat="45.57142324069993" lon="8.549328153487718"><ele>208.33333333333331</ele><time>2026-04-11T13:53:57.999Z</time></trkpt><trkpt lat="45.571346182911654" lon="8.549078737207815"><ele>208.66666666666669</ele><time>2026-04-11T13:53:58.999Z</time></trkpt><trkpt lat="45.57128441066635" lon="8.54880467239292"><ele>209.0</ele><time>2026-04-11T13:53:59.999Z</time></trkpt><trkpt lat="45.571234077773184" lon="8.548515944507912"><ele>208.33333333333334</ele><time>2026-04-11T13:54:00.999Z</time></trkpt><trkpt lat="45.571186889572715" lon="8.548220702085219"><ele>207.66666666666669</ele><time>2026-04-11T13:54:01.999Z</time></trkpt><trkpt lat="45.57113916924954" lon="8.547922449490345"><ele>207.0</ele><time>2026-04-11T13:54:02.999Z</time></trkpt><trkpt lat="45.57108729201883" lon="8.547605130560024"><ele>207.0</ele><time>2026-04-11T13:54:03.999Z</time></trkpt><trkpt lat="45.571034173923934" lon="8.547261415235427"><ele>207.0</ele><time>2026-04-11T13:54:04.999Z</time></trkpt><trkpt lat="45.57098581927569" lon="8.54692183722754"><ele>207.33333333333331</ele><time>2026-04-11T13:54:06Z</time></trkpt><trkpt lat="45.57094556045542" lon="8.546615123634345"><ele>207.66666666666666</ele><time>2026-04-11T13:54:07Z</time></trkpt><trkpt lat="45.57086908429741" lon="8.546333913097149"><ele>208.0</ele><time>2026-04-11T13:54:08Z</time></trkpt><trkpt lat="45.57077958751763" lon="8.546071763248355"><ele>208.0</ele><time>2026-04-11T13:54:09Z</time></trkpt><trkpt lat="45.57064147023848" lon="8.545823415917633"><ele>208.0</ele><time>2026-04-11T13:54:10Z</time></trkpt><trkpt lat="45.57050220856388" lon="8.545558323386812"><ele>207.5</ele><time>2026-04-11T13:54:11Z</time></trkpt><trkpt lat="45.57026926890395" lon="8.545111498152325"><ele>207.0</ele><time>2026-04-11T13:54:12Z</time></trkpt><trkpt lat="45.570082725637405" lon="8.544784323340103"><ele>206.5</ele><time>2026-04-11T13:54:13Z</time></trkpt><trkpt lat="45.5699035765712" lon="8.544432438243364"><ele>206.0</ele><time>2026-04-11T13:54:14Z</time></trkpt><trkpt lat="45.56971971599649" lon="8.544078318043608"><ele>206.0</ele><time>2026-04-11T13:54:15Z</time></trkpt><trkpt lat="45.56954708292182" lon="8.543738172883945"><ele>206.0</ele><time>2026-04-11T13:54:16Z</time></trkpt><trkpt lat="45.56938360509593" lon="8.543427348625144"><ele>207.0</ele><time>2026-04-11T13:54:17Z</time></trkpt><trkpt lat="45.5692372883599" lon="8.54314157376849"><ele>208.0</ele><time>2026-04-11T13:54:18Z</time></trkpt><trkpt lat="45.56911423858227" lon="8.542883757243345"><ele>207.66666666666666</ele><time>2026-04-11T13:54:19Z</time></trkpt><trkpt lat="45.56900773230263" lon="8.54264683955236"><ele>207.33333333333331</ele><time>2026-04-11T13:54:20Z</time></trkpt><trkpt lat="45.5688913387673" lon="8.542441932803722"><ele>207.0</ele><time>2026-04-11T13:54:21Z</time></trkpt><trkpt lat="45.56875510413956" lon="8.54227987655685"><ele>207.33333333333331</ele><time>2026-04-11T13:54:22Z</time></trkpt><trkpt lat="45.56860631344966" lon="8.542115730147218"><ele>207.66666666666666</ele><time>2026-04-11T13:54:23Z</time></trkpt><trkpt lat="45.568514656326684" lon="8.541881323769022"><ele>208.0</ele><time>2026-04-11T13:54:24Z</time></trkpt><trkpt lat="45.56843029094359" lon="8.541640112582956"><ele>208.66666666666666</ele><time>2026-04-11T13:54:25Z</time></trkpt><trkpt lat="45.56833963750581" lon="8.541421114919512"><ele>209.33333333333331</ele><time>2026-04-11T13:54:26Z</time></trkpt><trkpt lat="45.568267688992" lon="8.541214958117656"><ele>210.0</ele><time>2026-04-11T13:54:27Z</time></trkpt><trkpt lat="45.568199348592316" lon="8.541036801773796"><ele>210.2</ele><time>2026-04-11T13:54:28Z</time></trkpt><trkpt lat="45.56814406644388" lon="8.540879110839738"><ele>210.4</ele><time>2026-04-11T13:54:29Z</time></trkpt><trkpt lat="45.568102332080215" lon="8.540755877209477"><ele>210.60000000000002</ele><time>2026-04-11T13:54:30Z</time></trkpt><trkpt lat="45.56805145262862" lon="8.540612894690112"><ele>210.8</ele><time>2026-04-11T13:54:32Z</time></trkpt><trkpt lat="45.568014236931155" lon="8.540516412265788"><ele>211.0</ele><time>2026-04-11T13:54:34Z</time></trkpt><trkpt lat="45.5679729907449" lon="8.540411062654309"><ele>211.16666666666666</ele><time>2026-04-11T13:54:37Z</time></trkpt><trkpt lat="45.56794339401351" lon="8.540322109995193"><ele>211.33333333333331</ele><time>2026-04-11T13:54:40Z</time></trkpt><trkpt lat="45.56790937477104" lon="8.54024167164175"><ele>211.5</ele><time>2026-04-11T13:54:44Z</time></trkpt><trkpt lat="45.56788579312803" lon="8.540149309623738"><ele>211.66666666666669</ele><time>2026-04-11T13:55:00Z</time></trkpt><trkpt lat="45.56784502733782" lon="8.540009847544884"><ele>211.83333333333334</ele><time>2026-04-11T13:55:02Z</time></trkpt><trkpt lat="45.567865952772294" lon="8.539905102222816"><ele>212.0</ele><time>2026-04-11T13:55:03Z</time></trkpt><trkpt lat="45.567933695258894" lon="8.539826826147259"><ele>212.0</ele><time>2026-04-11T13:55:03.999Z</time></trkpt><trkpt lat="45.56803178945909" lon="8.539702954487103"><ele>212.0</ele><time>2026-04-11T13:55:04.999Z</time></trkpt><trkpt lat="45.56815793037889" lon="8.539526007385183"><ele>212.0</ele><time>2026-04-11T13:55:05.999Z</time></trkpt><trkpt lat="45.56830300018724" lon="8.53934699439897"><ele>211.33333333333334</ele><time>2026-04-11T13:55:06.999Z</time></trkpt><trkpt lat="45.56845450734364" lon="8.539163474697272"><ele>210.66666666666669</ele><time>2026-04-11T13:55:07.999Z</time></trkpt><trkpt lat="45.568607199028385" lon="8.53897947174856"><ele>210.0</ele><time>2026-04-11T13:55:08.999Z</time></trkpt><trkpt lat="45.568750865307365" lon="8.538772068616309"><ele>209.66666666666669</ele><time>2026-04-11T13:55:09.999Z</time></trkpt><trkpt lat="45.56890732685011" lon="8.538566778428219"><ele>209.33333333333334</ele><time>2026-04-11T13:55:10.999Z</time></trkpt><trkpt lat="45.56907089240212" lon="8.538364768310778"><ele>209.0</ele><time>2026-04-11T13:55:11.999Z</time></trkpt><trkpt lat="45.56921499439314" lon="8.53815013237373"><ele>209.0</ele><time>2026-04-11T13:55:12.999Z</time></trkpt><trkpt lat="45.56932103712868" lon="8.537897359172918"><ele>209.0</ele><time>2026-04-11T13:55:13.999Z</time></trkpt><trkpt lat="45.56942615750179" lon="8.537638077480349"><ele>209.0</ele><time>2026-04-11T13:55:14.999Z</time></trkpt><trkpt lat="45.56952714915491" lon="8.537377876860296"><ele>207.5</ele><time>2026-04-11T13:55:15.999Z</time></trkpt><trkpt lat="45.5694374415051" lon="8.536989046229003"><ele>206.0</ele><time>2026-04-11T13:55:16.999Z</time></trkpt><trkpt lat="45.56939908734996" lon="8.536662784335867"><ele>206.0</ele><time>2026-04-11T13:55:17.999Z</time></trkpt><trkpt lat="45.569326998620376" lon="8.5363453324448"><ele>206.0</ele><time>2026-04-11T13:55:18.999Z</time></trkpt><trkpt lat="45.56924522732783" lon="8.536021652456874"><ele>206.0</ele><time>2026-04-11T13:55:19.999Z</time></trkpt><trkpt lat="45.569175146803495" lon="8.535681265478402"><ele>206.0</ele><time>2026-04-11T13:55:20.999Z</time></trkpt><trkpt lat="45.56910313028846" lon="8.535337350952505"><ele>206.0</ele><time>2026-04-11T13:55:21.999Z</time></trkpt><trkpt lat="45.569047323428364" lon="8.534994353961164"><ele>206.0</ele><time>2026-04-11T13:55:22.999Z</time></trkpt><trkpt lat="45.56903406730845" lon="8.534662198161211"><ele>207.5</ele><time>2026-04-11T13:55:23.999Z</time></trkpt><trkpt lat="45.56905477782392" lon="8.534328472132914"><ele>209.0</ele><time>2026-04-11T13:55:24.999Z</time></trkpt><trkpt lat="45.569102002675805" lon="8.533996804317978"><ele>208.5</ele><time>2026-04-11T13:55:25.999Z</time></trkpt><trkpt lat="45.56918477372949" lon="8.533654917462941"><ele>208.0</ele><time>2026-04-11T13:55:26.999Z</time></trkpt><trkpt lat="45.56928327102164" lon="8.533312776465177"><ele>208.0</ele><time>2026-04-11T13:55:27.999Z</time></trkpt><trkpt lat="45.56938274245319" lon="8.532962886020282"><ele>208.0</ele><time>2026-04-11T13:55:28.999Z</time></trkpt><trkpt lat="45.569475077988486" lon="8.532607630852118"><ele>208.0</ele><time>2026-04-11T13:55:29.999Z</time></trkpt><trkpt lat="45.56956787253545" lon="8.532253691725986"><ele>208.0</ele><time>2026-04-11T13:55:30.999Z</time></trkpt><trkpt lat="45.56965400915582" lon="8.531930439844576"><ele>208.0</ele><time>2026-04-11T13:55:31.999Z</time></trkpt><trkpt lat="45.56973840852926" lon="8.531624396797207"><ele>208.0</ele><time>2026-04-11T13:55:32.999Z</time></trkpt><trkpt lat="45.56981836627257" lon="8.531335518251332"><ele>208.0</ele><time>2026-04-11T13:55:33.999Z</time></trkpt><trkpt lat="45.569894309317206" lon="8.53103749057697"><ele>208.33333333333331</ele><time>2026-04-11T13:55:34.999Z</time></trkpt><trkpt lat="45.569987650962275" lon="8.530766364017458"><ele>208.66666666666669</ele><time>2026-04-11T13:55:35.999Z</time></trkpt><trkpt lat="45.57014136704643" lon="8.53053645936227"><ele>209.0</ele><time>2026-04-11T13:55:36.999Z</time></trkpt><trkpt lat="45.57025645876423" lon="8.530265493366594"><ele>209.0</ele><time>2026-04-11T13:55:37.999Z</time></trkpt><trkpt lat="45.57036545089029" lon="8.529980012789752"><ele>209.0</ele><time>2026-04-11T13:55:38.999Z</time></trkpt><trkpt lat="45.57048748496654" lon="8.529688143915877"><ele>209.5</ele><time>2026-04-11T13:55:39.999Z</time></trkpt><trkpt lat="45.57061327051566" lon="8.529399425285538"><ele>210.0</ele><time>2026-04-11T13:55:40.999Z</time></trkpt><trkpt lat="45.57073829472793" lon="8.52911104471986"><ele>210.0</ele><time>2026-04-11T13:55:41.999Z</time></trkpt><trkpt lat="45.57085501697561" lon="8.52884666860934"><ele>210.0</ele><time>2026-04-11T13:55:42.999Z</time></trkpt><trkpt lat="45.570957256734005" lon="8.528599575207716"><ele>210.0</ele><time>2026-04-11T13:55:43.999Z</time></trkpt><trkpt lat="45.57107802825184" lon="8.52836015296659"><ele>210.0</ele><time>2026-04-11T13:55:44.999Z</time></trkpt><trkpt lat="45.571192410706395" lon="8.528094093551852"><ele>210.0</ele><time>2026-04-11T13:55:45.999Z</time></trkpt><trkpt lat="45.571298011854346" lon="8.52781075815134"><ele>210.0</ele><time>2026-04-11T13:55:46.999Z</time></trkpt><trkpt lat="45.57141935103161" lon="8.527530906692158"><ele>210.0</ele><time>2026-04-11T13:55:47.999Z</time></trkpt><trkpt lat="45.57153465956295" lon="8.527233923883003"><ele>210.0</ele><time>2026-04-11T13:55:48.999Z</time></trkpt><trkpt lat="45.57163280081932" lon="8.526924281499733"><ele>209.5</ele><time>2026-04-11T13:55:49.999Z</time></trkpt><trkpt lat="45.571690156485175" lon="8.526580577478162"><ele>209.0</ele><time>2026-04-11T13:55:50.999Z</time></trkpt><trkpt lat="45.57170485352233" lon="8.526228400175928"><ele>210.0</ele><time>2026-04-11T13:55:51.999Z</time></trkpt><trkpt lat="45.57170523383996" lon="8.525867929699968"><ele>211.0</ele><time>2026-04-11T13:55:52.999Z</time></trkpt><trkpt lat="45.571723463219904" lon="8.525509170863339"><ele>211.5</ele><time>2026-04-11T13:55:53.999Z</time></trkpt><trkpt lat="45.5717644975315" lon="8.525173024435528"><ele>212.0</ele><time>2026-04-11T13:55:54.999Z</time></trkpt><trkpt lat="45.57178948607179" lon="8.524831246583704"><ele>211.0</ele><time>2026-04-11T13:55:55.999Z</time></trkpt><trkpt lat="45.571778407491884" lon="8.524478929507183"><ele>210.0</ele><time>2026-04-11T13:55:56.999Z</time></trkpt><trkpt lat="45.57173780468768" lon="8.524109542153287"><ele>210.0</ele><time>2026-04-11T13:55:57.999Z</time></trkpt><trkpt lat="45.57170767973887" lon="8.523745289338992"><ele>210.0</ele><time>2026-04-11T13:55:58.999Z</time></trkpt><trkpt lat="45.571683490573996" lon="8.523382247694688"><ele>211.5</ele><time>2026-04-11T13:55:59.999Z</time></trkpt><trkpt lat="45.57165835146214" lon="8.523010140010689"><ele>213.0</ele><time>2026-04-11T13:56:00.999Z</time></trkpt><trkpt lat="45.57163102181805" lon="8.522634867631746"><ele>213.0</ele><time>2026-04-11T13:56:01.999Z</time></trkpt><trkpt lat="45.5716054483813" lon="8.52225810067511"><ele>213.0</ele><time>2026-04-11T13:56:02.999Z</time></trkpt><trkpt lat="45.571581740554194" lon="8.521877677228616"><ele>213.0</ele><time>2026-04-11T13:56:03.999Z</time></trkpt><trkpt lat="45.57157293397182" lon="8.521489567393939"><ele>213.0</ele><time>2026-04-11T13:56:04.999Z</time></trkpt><trkpt lat="45.57154837005637" lon="8.521104328419986"><ele>213.0</ele><time>2026-04-11T13:56:05.999Z</time></trkpt><trkpt lat="45.57152348492334" lon="8.520714051663974"><ele>213.0</ele><time>2026-04-11T13:56:06.999Z</time></trkpt><trkpt lat="45.57148089981451" lon="8.520338243810546"><ele>213.0</ele><time>2026-04-11T13:56:07.999Z</time></trkpt><trkpt lat="45.57145698144442" lon="8.51999529303952"><ele>213.0</ele><time>2026-04-11T13:56:08.999Z</time></trkpt><trkpt lat="45.57143170316136" lon="8.51963614160988"><ele>213.0</ele><time>2026-04-11T13:56:09.999Z</time></trkpt><trkpt lat="45.57140140906107" lon="8.519287272608596"><ele>213.0</ele><time>2026-04-11T13:56:10.999Z</time></trkpt><trkpt lat="45.5714081541475" lon="8.518945785240561"><ele>213.5</ele><time>2026-04-11T13:56:12Z</time></trkpt><trkpt lat="45.57138518096069" lon="8.518603511623159"><ele>214.0</ele><time>2026-04-11T13:56:13Z</time></trkpt><trkpt lat="45.571362905828636" lon="8.518271638138888"><ele>214.0</ele><time>2026-04-11T13:56:14Z</time></trkpt><trkpt lat="45.57134408494001" lon="8.517977325985164"><ele>214.0</ele><time>2026-04-11T13:56:15Z</time></trkpt><trkpt lat="45.571329335542735" lon="8.517729839093965"><ele>214.0</ele><time>2026-04-11T13:56:16Z</time></trkpt><trkpt lat="45.571306744789794" lon="8.517552267775976"><ele>213.79999999999998</ele><time>2026-04-11T13:56:17Z</time></trkpt><trkpt lat="45.57132610486449" lon="8.517415670088319"><ele>213.59999999999997</ele><time>2026-04-11T13:56:18Z</time></trkpt><trkpt lat="45.57137729359571" lon="8.517289023415424"><ele>213.4</ele><time>2026-04-11T13:56:19Z</time></trkpt><trkpt lat="45.571387228313036" lon="8.517147175380856"><ele>213.2</ele><time>2026-04-11T13:56:20Z</time></trkpt><trkpt lat="45.571329125745194" lon="8.51696561086874"><ele>213.0</ele><time>2026-04-11T13:56:21Z</time></trkpt><trkpt lat="45.57128543094197" lon="8.516736121843804"><ele>213.0</ele><time>2026-04-11T13:56:22Z</time></trkpt><trkpt lat="45.57128278166051" lon="8.51643722501612"><ele>213.0</ele><time>2026-04-11T13:56:23Z</time></trkpt><trkpt lat="45.57127877398914" lon="8.516113075954065"><ele>213.0</ele><time>2026-04-11T13:56:24Z</time></trkpt><trkpt lat="45.571266837485354" lon="8.515762760352976"><ele>213.0</ele><time>2026-04-11T13:56:25Z</time></trkpt><trkpt lat="45.571258612922406" lon="8.51539600087622"><ele>213.0</ele><time>2026-04-11T13:56:26Z</time></trkpt><trkpt lat="45.57125070847384" lon="8.51500693049567"><ele>213.0</ele><time>2026-04-11T13:56:27Z</time></trkpt><trkpt lat="45.571245485820675" lon="8.514614396758502"><ele>213.0</ele><time>2026-04-11T13:56:28Z</time></trkpt><trkpt lat="45.57123995250247" lon="8.514219166569951"><ele>213.0</ele><time>2026-04-11T13:56:29Z</time></trkpt><trkpt lat="45.57123461461078" lon="8.513819858037476"><ele>213.0</ele><time>2026-04-11T13:56:30Z</time></trkpt><trkpt lat="45.57124448408451" lon="8.513412486998684"><ele>214.5</ele><time>2026-04-11T13:56:31Z</time></trkpt><trkpt lat="45.5712215488669" lon="8.51300737610449"><ele>216.0</ele><time>2026-04-11T13:56:32Z</time></trkpt><trkpt lat="45.57121608555465" lon="8.512598059135115"><ele>216.0</ele><time>2026-04-11T13:56:33Z</time></trkpt><trkpt lat="45.571206979302225" lon="8.512206265519758"><ele>216.0</ele><time>2026-04-11T13:56:34Z</time></trkpt><trkpt lat="45.57120583242278" lon="8.51151497206922"><ele>220.0</ele><time>2026-04-11T13:56:36Z</time></trkpt><trkpt lat="45.5712306536557" lon="8.51120740597958"><ele>224.0</ele><time>2026-04-11T13:56:37Z</time></trkpt><trkpt lat="45.57129294843887" lon="8.51093684847121"><ele>228.0</ele><time>2026-04-11T13:56:38Z</time></trkpt><trkpt lat="45.57138948553947" lon="8.510680882426252"><ele>228.0</ele><time>2026-04-11T13:56:39Z</time></trkpt><trkpt lat="45.57152336065245" lon="8.51047308327159"><ele>228.0</ele><time>2026-04-11T13:56:40Z</time></trkpt><trkpt lat="45.571677443257045" lon="8.510283735734301"><ele>228.0</ele><time>2026-04-11T13:56:41Z</time></trkpt><trkpt lat="45.57185764231409" lon="8.510115117440064"><ele>228.33333333333331</ele><time>2026-04-11T13:56:42Z</time></trkpt><trkpt lat="45.57203938877335" lon="8.509958850654327"><ele>228.66666666666666</ele><time>2026-04-11T13:56:43Z</time></trkpt><trkpt lat="45.57219906500829" lon="8.509823639647518"><ele>229.0</ele><time>2026-04-11T13:56:44Z</time></trkpt><trkpt lat="45.57232839491334" lon="8.509715085259284"><ele>229.0</ele><time>2026-04-11T13:56:45Z</time></trkpt><trkpt lat="45.5724112384783" lon="8.50961144924455"><ele>229.0</ele><time>2026-04-11T13:56:46Z</time></trkpt><trkpt lat="45.572448434473706" lon="8.509447635753883"><ele>229.0</ele><time>2026-04-11T13:56:47Z</time></trkpt><trkpt lat="45.57244755061578" lon="8.509241655208411"><ele>229.0</ele><time>2026-04-11T13:56:48Z</time></trkpt><trkpt lat="45.572403087328055" lon="8.509013977880484"><ele>232.0</ele><time>2026-04-11T13:56:49Z</time></trkpt><trkpt lat="45.572340040169514" lon="8.50876382122448"><ele>235.0</ele><time>2026-04-11T13:56:50Z</time></trkpt><trkpt lat="45.57229163722634" lon="8.508516781772562"><ele>238.0</ele><time>2026-04-11T13:56:51Z</time></trkpt><trkpt lat="45.572282345471486" lon="8.508294152937495"><ele>239.25</ele><time>2026-04-11T13:56:52Z</time></trkpt><trkpt lat="45.57228628302671" lon="8.508101329962704"><ele>240.5</ele><time>2026-04-11T13:56:53Z</time></trkpt><trkpt lat="45.5722232269111" lon="8.507948803918003"><ele>241.75</ele><time>2026-04-11T13:56:54Z</time></trkpt><trkpt lat="45.572100199634455" lon="8.507824241363936"><ele>243.0</ele><time>2026-04-11T13:56:55Z</time></trkpt><trkpt lat="45.5719793280396" lon="8.507735317584332"><ele>243.5</ele><time>2026-04-11T13:56:56Z</time></trkpt><trkpt lat="45.571866023376316" lon="8.507645349186967"><ele>244.0</ele><time>2026-04-11T13:56:57Z</time></trkpt><trkpt lat="45.571766471994295" lon="8.507525654140016"><ele>244.5</ele><time>2026-04-11T13:56:58Z</time></trkpt><trkpt lat="45.57169121439205" lon="8.507384177870478"><ele>245.0</ele><time>2026-04-11T13:56:59Z</time></trkpt><trkpt lat="45.57163660163897" lon="8.507234933695415"><ele>245.0</ele><time>2026-04-11T13:57:00Z</time></trkpt><trkpt lat="45.57157940186835" lon="8.507092692590117"><ele>245.0</ele><time>2026-04-11T13:57:01Z</time></trkpt><trkpt lat="45.57150885853466" lon="8.50694438541564"><ele>245.0</ele><time>2026-04-11T13:57:02Z</time></trkpt><trkpt lat="45.57143058883725" lon="8.50679643156569"><ele>245.0</ele><time>2026-04-11T13:57:03Z</time></trkpt><trkpt lat="45.57134569624054" lon="8.5066573767636"><ele>245.25</ele><time>2026-04-11T13:57:04Z</time></trkpt><trkpt lat="45.5712414936304" lon="8.50653670071166"><ele>245.5</ele><time>2026-04-11T13:57:05Z</time></trkpt><trkpt lat="45.571120609129075" lon="8.506452688437506"><ele>245.75</ele><time>2026-04-11T13:57:06Z</time></trkpt><trkpt lat="45.57098193890706" lon="8.506413224534972"><ele>246.0</ele><time>2026-04-11T13:57:07Z</time></trkpt><trkpt lat="45.570835988707586" lon="8.50640096562503"><ele>246.25</ele><time>2026-04-11T13:57:08Z</time></trkpt><trkpt lat="45.570704115280186" lon="8.506396634174447"><ele>246.5</ele><time>2026-04-11T13:57:09Z</time></trkpt><trkpt lat="45.57054662326188" lon="8.50640319931129"><ele>246.75</ele><time>2026-04-11T13:57:10Z</time></trkpt><trkpt lat="45.57040191588139" lon="8.506395186886355"><ele>247.0</ele><time>2026-04-11T13:57:11Z</time></trkpt><trkpt lat="45.57025831970356" lon="8.506386092895138"><ele>246.0</ele><time>2026-04-11T13:57:12Z</time></trkpt><trkpt lat="45.57011441706457" lon="8.506380635084389"><ele>245.0</ele><time>2026-04-11T13:57:13Z</time></trkpt><trkpt lat="45.56997442402121" lon="8.506388167992736"><ele>244.0</ele><time>2026-04-11T13:57:14Z</time></trkpt><trkpt lat="45.56984335984905" lon="8.506418174145164"><ele>243.0</ele><time>2026-04-11T13:57:15Z</time></trkpt><trkpt lat="45.56971457657606" lon="8.50645373547086"><ele>243.0</ele><time>2026-04-11T13:57:16Z</time></trkpt><trkpt lat="45.56958728015525" lon="8.506490287002633"><ele>243.0</ele><time>2026-04-11T13:57:17Z</time></trkpt><trkpt lat="45.569457919272864" lon="8.506506154512508"><ele>243.0</ele><time>2026-04-11T13:57:18Z</time></trkpt><trkpt lat="45.56931312543051" lon="8.506475756582537"><ele>243.0</ele><time>2026-04-11T13:57:19Z</time></trkpt><trkpt lat="45.56913822639963" lon="8.50639793678692"><ele>243.0</ele><time>2026-04-11T13:57:20Z</time></trkpt><trkpt lat="45.56894148972155" lon="8.506270111987936"><ele>243.0</ele><time>2026-04-11T13:57:21Z</time></trkpt><trkpt lat="45.56874060340148" lon="8.506118212284965"><ele>243.0</ele><time>2026-04-11T13:57:22Z</time></trkpt><trkpt lat="45.568526242969355" lon="8.506000292698848"><ele>243.0</ele><time>2026-04-11T13:57:23Z</time></trkpt><trkpt lat="45.568303562857395" lon="8.505952295271655"><ele>243.0</ele><time>2026-04-11T13:57:24Z</time></trkpt><trkpt lat="45.568099949020144" lon="8.505958919169004"><ele>243.0</ele><time>2026-04-11T13:57:25Z</time></trkpt><trkpt lat="45.567921210010866" lon="8.505968718327878"><ele>242.66666666666669</ele><time>2026-04-11T13:57:26Z</time></trkpt><trkpt lat="45.56777126130548" lon="8.505892438466521"><ele>242.33333333333334</ele><time>2026-04-11T13:57:27Z</time></trkpt><trkpt lat="45.567658776039785" lon="8.505730961301301"><ele>242.0</ele><time>2026-04-11T13:57:28Z</time></trkpt><trkpt lat="45.56758369765296" lon="8.505512825559117"><ele>242.0</ele><time>2026-04-11T13:57:29Z</time></trkpt><trkpt lat="45.56752840703174" lon="8.505234834504236"><ele>242.0</ele><time>2026-04-11T13:57:30Z</time></trkpt><trkpt lat="45.56747557828876" lon="8.504934002886781"><ele>242.0</ele><time>2026-04-11T13:57:31Z</time></trkpt><trkpt lat="45.56740426274596" lon="8.504610510686044"><ele>243.0</ele><time>2026-04-11T13:57:32Z</time></trkpt><trkpt lat="45.56731854754009" lon="8.50427922412864"><ele>244.0</ele><time>2026-04-11T13:57:33Z</time></trkpt><trkpt lat="45.56722046056598" lon="8.503916833385045"><ele>243.5</ele><time>2026-04-11T13:57:34Z</time></trkpt><trkpt lat="45.56712633309112" lon="8.50354848105986"><ele>243.0</ele><time>2026-04-11T13:57:35Z</time></trkpt><trkpt lat="45.56702983887023" lon="8.503161649416603"><ele>241.5</ele><time>2026-04-11T13:57:36Z</time></trkpt><trkpt lat="45.566931936822925" lon="8.502773459225022"><ele>240.0</ele><time>2026-04-11T13:57:37Z</time></trkpt><trkpt lat="45.56683695725129" lon="8.502393890059974"><ele>234.5</ele><time>2026-04-11T13:57:38Z</time></trkpt><trkpt lat="45.566742086844364" lon="8.502016792385163"><ele>229.0</ele><time>2026-04-11T13:57:39Z</time></trkpt><trkpt lat="45.56664932935851" lon="8.501639160781874"><ele>229.0</ele><time>2026-04-11T13:57:40Z</time></trkpt><trkpt lat="45.56655386681556" lon="8.501263979396473"><ele>229.0</ele><time>2026-04-11T13:57:41Z</time></trkpt><trkpt lat="45.56646005983209" lon="8.500890909211554"><ele>227.0</ele><time>2026-04-11T13:57:42Z</time></trkpt><trkpt lat="45.56636711671699" lon="8.500520201718942"><ele>225.0</ele><time>2026-04-11T13:57:43Z</time></trkpt><trkpt lat="45.56627462677717" lon="8.500152931236942"><ele>225.5</ele><time>2026-04-11T13:57:44Z</time></trkpt><trkpt lat="45.56618097889163" lon="8.499783919476062"><ele>226.0</ele><time>2026-04-11T13:57:45Z</time></trkpt><trkpt lat="45.566087935034794" lon="8.499420368811169"><ele>226.0</ele><time>2026-04-11T13:57:46Z</time></trkpt><trkpt lat="45.56599610209198" lon="8.499061757348686"><ele>226.0</ele><time>2026-04-11T13:57:47Z</time></trkpt><trkpt lat="45.56591979774153" lon="8.49869423762419"><ele>229.0</ele><time>2026-04-11T13:57:48Z</time></trkpt><trkpt lat="45.56582776428757" lon="8.498332514180868"><ele>232.0</ele><time>2026-04-11T13:57:49Z</time></trkpt><trkpt lat="45.56573827937076" lon="8.497974986293524"><ele>236.0</ele><time>2026-04-11T13:57:50Z</time></trkpt><trkpt lat="45.56563339517875" lon="8.497621030086457"><ele>240.0</ele><time>2026-04-11T13:57:51Z</time></trkpt><trkpt lat="45.565539955243665" lon="8.497263571740751"><ele>242.0</ele><time>2026-04-11T13:57:52Z</time></trkpt><trkpt lat="45.565452895204785" lon="8.496908918861179"><ele>244.0</ele><time>2026-04-11T13:57:53Z</time></trkpt><trkpt lat="45.56536662489749" lon="8.496555610629652"><ele>244.0</ele><time>2026-04-11T13:57:54Z</time></trkpt><trkpt lat="45.5652758574274" lon="8.496201031756996"><ele>244.0</ele><time>2026-04-11T13:57:55Z</time></trkpt><trkpt lat="45.56518980196196" lon="8.49586072133416"><ele>244.0</ele><time>2026-04-11T13:57:56Z</time></trkpt><trkpt lat="45.56510802322779" lon="8.495551018648017"><ele>244.0</ele><time>2026-04-11T13:57:57Z</time></trkpt><trkpt lat="45.56504571017688" lon="8.495256888186482"><ele>244.0</ele><time>2026-04-11T13:57:58Z</time></trkpt><trkpt lat="45.564980249681966" lon="8.494996883702983"><ele>243.33333333333331</ele><time>2026-04-11T13:57:59Z</time></trkpt><trkpt lat="45.56490285281381" lon="8.494733841343884"><ele>242.66666666666669</ele><time>2026-04-11T13:58:00Z</time></trkpt><trkpt lat="45.564833085994835" lon="8.494427699036434"><ele>242.0</ele><time>2026-04-11T13:58:01Z</time></trkpt><trkpt lat="45.56474793980766" lon="8.494103567642394"><ele>241.5</ele><time>2026-04-11T13:58:02Z</time></trkpt><trkpt lat="45.564658351087225" lon="8.493768921848968"><ele>241.0</ele><time>2026-04-11T13:58:03Z</time></trkpt><trkpt lat="45.5645813038938" lon="8.493422477498958"><ele>240.5</ele><time>2026-04-11T13:58:04Z</time></trkpt><trkpt lat="45.564490879103516" lon="8.493064642060023"><ele>240.0</ele><time>2026-04-11T13:58:05Z</time></trkpt><trkpt lat="45.56439940566705" lon="8.492705818911855"><ele>241.0</ele><time>2026-04-11T13:58:06Z</time></trkpt><trkpt lat="45.564308405812525" lon="8.492342724826052"><ele>242.0</ele><time>2026-04-11T13:58:07Z</time></trkpt><trkpt lat="45.564214960984344" lon="8.491973380319495"><ele>242.5</ele><time>2026-04-11T13:58:08Z</time></trkpt><trkpt lat="45.5641210778537" lon="8.49160230360312"><ele>243.0</ele><time>2026-04-11T13:58:09Z</time></trkpt><trkpt lat="45.56402675084045" lon="8.491229472433677"><ele>243.5</ele><time>2026-04-11T13:58:10Z</time></trkpt><trkpt lat="45.56393162575163" lon="8.490852633398129"><ele>244.0</ele><time>2026-04-11T13:58:11Z</time></trkpt><trkpt lat="45.56383691522105" lon="8.490475966386793"><ele>243.5</ele><time>2026-04-11T13:58:12Z</time></trkpt><trkpt lat="45.5637414088848" lon="8.490096133790896"><ele>243.0</ele><time>2026-04-11T13:58:13Z</time></trkpt><trkpt lat="45.56363128146645" lon="8.48972528882334"><ele>243.5</ele><time>2026-04-11T13:58:14Z</time></trkpt><trkpt lat="45.563537108529715" lon="8.489342875057613"><ele>244.0</ele><time>2026-04-11T13:58:15Z</time></trkpt><trkpt lat="45.56343913988307" lon="8.48896028748774"><ele>245.0</ele><time>2026-04-11T13:58:16Z</time></trkpt><trkpt lat="45.56335649049263" lon="8.488568119061583"><ele>246.0</ele><time>2026-04-11T13:58:17Z</time></trkpt><trkpt lat="45.56325917007293" lon="8.48818157612153"><ele>246.0</ele><time>2026-04-11T13:58:18Z</time></trkpt><trkpt lat="45.563160251357495" lon="8.487794867008004"><ele>246.0</ele><time>2026-04-11T13:58:19Z</time></trkpt><trkpt lat="45.56304943926039" lon="8.487418131271502"><ele>246.0</ele><time>2026-04-11T13:58:20Z</time></trkpt><trkpt lat="45.56295528789717" lon="8.487031021436483"><ele>246.0</ele><time>2026-04-11T13:58:21Z</time></trkpt><trkpt lat="45.5628694260563" lon="8.486629179398841"><ele>246.5</ele><time>2026-04-11T13:58:22Z</time></trkpt><trkpt lat="45.56278379121517" lon="8.486235278097004"><ele>247.0</ele><time>2026-04-11T13:58:23Z</time></trkpt><trkpt lat="45.5626956555573" lon="8.485856635254912"><ele>247.0</ele><time>2026-04-11T13:58:24Z</time></trkpt><trkpt lat="45.56260232342399" lon="8.4854952978479"><ele>247.0</ele><time>2026-04-11T13:58:25Z</time></trkpt><trkpt lat="45.56252047086616" lon="8.485332903648816"><ele>247.0</ele><time>2026-04-11T13:58:26Z</time></trkpt><trkpt lat="45.56250038639579" lon="8.485103593599888"><ele>245.66666666666666</ele><time>2026-04-11T13:58:27Z</time></trkpt><trkpt lat="45.5624169564401" lon="8.484878046928396"><ele>244.33333333333331</ele><time>2026-04-11T13:58:28Z</time></trkpt><trkpt lat="45.56229105141841" lon="8.48470571175056"><ele>243.0</ele><time>2026-04-11T13:58:29Z</time></trkpt><trkpt lat="45.56213631562282" lon="8.484549486468145"><ele>242.33333333333331</ele><time>2026-04-11T13:58:30Z</time></trkpt><trkpt lat="45.56195104020044" lon="8.484431448507625"><ele>241.66666666666666</ele><time>2026-04-11T13:58:31Z</time></trkpt><trkpt lat="45.56177425312146" lon="8.484332541746053"><ele>241.0</ele><time>2026-04-11T13:58:32Z</time></trkpt><trkpt lat="45.561602479798715" lon="8.484163825944748"><ele>241.0</ele><time>2026-04-11T13:58:33Z</time></trkpt><trkpt lat="45.561456646675175" lon="8.483951157998916"><ele>241.0</ele><time>2026-04-11T13:58:34Z</time></trkpt><trkpt lat="45.561348924866486" lon="8.483689834639092"><ele>241.0</ele><time>2026-04-11T13:58:35Z</time></trkpt><trkpt lat="45.5612253010841" lon="8.483390254334754"><ele>239.66666666666666</ele><time>2026-04-11T13:58:36Z</time></trkpt><trkpt lat="45.56109639308627" lon="8.483182514693"><ele>238.33333333333331</ele><time>2026-04-11T13:58:38Z</time></trkpt><trkpt lat="45.5609141659297" lon="8.483053635742527"><ele>237.0</ele><time>2026-04-11T13:58:39Z</time></trkpt><trkpt lat="45.560722274915186" lon="8.482994419005536"><ele>237.0</ele><time>2026-04-11T13:58:40Z</time></trkpt><trkpt lat="45.560542442133354" lon="8.482957390746142"><ele>237.0</ele><time>2026-04-11T13:58:41Z</time></trkpt><trkpt lat="45.56038164188725" lon="8.48288219488154"><ele>237.0</ele><time>2026-04-11T13:58:42Z</time></trkpt><trkpt lat="45.56025513814522" lon="8.482754593757928"><ele>234.0</ele><time>2026-04-11T13:58:43Z</time></trkpt><trkpt lat="45.560162970815725" lon="8.482577772811752"><ele>231.0</ele><time>2026-04-11T13:58:44Z</time></trkpt><trkpt lat="45.56009929885198" lon="8.482355715895817"><ele>228.0</ele><time>2026-04-11T13:58:45Z</time></trkpt><trkpt lat="45.56007293931889" lon="8.48213136065887"><ele>226.0</ele><time>2026-04-11T13:58:46Z</time></trkpt><trkpt lat="45.560098627269795" lon="8.481916201969355"><ele>224.0</ele><time>2026-04-11T13:58:47Z</time></trkpt><trkpt lat="45.56018311399198" lon="8.481712372230858"><ele>222.0</ele><time>2026-04-11T13:58:48Z</time></trkpt><trkpt lat="45.56032252289328" lon="8.48148836170996"><ele>222.0</ele><time>2026-04-11T13:58:49Z</time></trkpt><trkpt lat="45.56048244193782" lon="8.481257304269214"><ele>222.0</ele><time>2026-04-11T13:58:50Z</time></trkpt><trkpt lat="45.560647670073074" lon="8.48102212109245"><ele>222.0</ele><time>2026-04-11T13:58:51Z</time></trkpt><trkpt lat="45.56081976412799" lon="8.480759128285445"><ele>222.0</ele><time>2026-04-11T13:58:52Z</time></trkpt><trkpt lat="45.560975566974214" lon="8.480459258858685"><ele>223.0</ele><time>2026-04-11T13:58:53Z</time></trkpt><trkpt lat="45.561091013994385" lon="8.480161939715037"><ele>224.0</ele><time>2026-04-11T13:58:54Z</time></trkpt><trkpt lat="45.561199336025496" lon="8.47988647642244"><ele>224.0</ele><time>2026-04-11T13:58:55Z</time></trkpt><trkpt lat="45.561316451292384" lon="8.479643988074203"><ele>224.0</ele><time>2026-04-11T13:58:56Z</time></trkpt><trkpt lat="45.56141526084263" lon="8.47942630251816"><ele>224.0</ele><time>2026-04-11T13:58:57Z</time></trkpt><trkpt lat="45.561446109594606" lon="8.47919449973591"><ele>221.0</ele><time>2026-04-11T13:58:58Z</time></trkpt><trkpt lat="45.56140584770799" lon="8.47895794214577"><ele>218.0</ele><time>2026-04-11T13:58:59Z</time></trkpt><trkpt lat="45.561305746338455" lon="8.47872698043525"><ele>215.0</ele><time>2026-04-11T13:59:00Z</time></trkpt><trkpt lat="45.56115740591591" lon="8.478524526007616"><ele>213.33333333333334</ele><time>2026-04-11T13:59:01Z</time></trkpt><trkpt lat="45.56101319409366" lon="8.478310718708657"><ele>211.66666666666669</ele><time>2026-04-11T13:59:02Z</time></trkpt><trkpt lat="45.5608772855561" lon="8.478063298683496"><ele>210.0</ele><time>2026-04-11T13:59:03Z</time></trkpt><trkpt lat="45.5607466885501" lon="8.477811499052462"><ele>210.0</ele><time>2026-04-11T13:59:04Z</time></trkpt><trkpt lat="45.560573125693914" lon="8.477533490775295"><ele>210.0</ele><time>2026-04-11T13:59:05Z</time></trkpt><trkpt lat="45.560429317333956" lon="8.477261475482896"><ele>211.0</ele><time>2026-04-11T13:59:06Z</time></trkpt><trkpt lat="45.56028290347779" lon="8.476982000695015"><ele>212.0</ele><time>2026-04-11T13:59:07Z</time></trkpt><trkpt lat="45.56013288311729" lon="8.476697462173586"><ele>212.0</ele><time>2026-04-11T13:59:08Z</time></trkpt><trkpt lat="45.559984682339504" lon="8.476409703241439"><ele>212.0</ele><time>2026-04-11T13:59:09Z</time></trkpt><trkpt lat="45.55983965448831" lon="8.476130292511403"><ele>211.0</ele><time>2026-04-11T13:59:10Z</time></trkpt><trkpt lat="45.55969407501801" lon="8.475857588167608"><ele>210.0</ele><time>2026-04-11T13:59:11Z</time></trkpt><trkpt lat="45.559543894328776" lon="8.47558226497806"><ele>210.5</ele><time>2026-04-11T13:59:12Z</time></trkpt><trkpt lat="45.559402515511664" lon="8.47530916880704"><ele>211.0</ele><time>2026-04-11T13:59:13Z</time></trkpt><trkpt lat="45.55926922027727" lon="8.475044237822315"><ele>211.0</ele><time>2026-04-11T13:59:14Z</time></trkpt><trkpt lat="45.559140797395806" lon="8.47480055232124"><ele>211.0</ele><time>2026-04-11T13:59:15Z</time></trkpt><trkpt lat="45.559019775338115" lon="8.474580307733893"><ele>211.0</ele><time>2026-04-11T13:59:16Z</time></trkpt><trkpt lat="45.55890981381323" lon="8.474365544218486"><ele>211.0</ele><time>2026-04-11T13:59:17Z</time></trkpt><trkpt lat="45.55882271889497" lon="8.474128721839326"><ele>211.0</ele><time>2026-04-11T13:59:18Z</time></trkpt><trkpt lat="45.55878386746335" lon="8.47387421543916"><ele>211.0</ele><time>2026-04-11T13:59:19Z</time></trkpt><trkpt lat="45.55877876402301" lon="8.473604964668594"><ele>213.0</ele><time>2026-04-11T13:59:20Z</time></trkpt><trkpt lat="45.558812206938974" lon="8.47334844842036"><ele>215.0</ele><time>2026-04-11T13:59:21Z</time></trkpt><trkpt lat="45.558899572071745" lon="8.47311861862994"><ele>217.0</ele><time>2026-04-11T13:59:22Z</time></trkpt><trkpt lat="45.5590368545242" lon="8.47288859145042"><ele>222.33333333333331</ele><time>2026-04-11T13:59:23Z</time></trkpt><trkpt lat="45.55918286934746" lon="8.472645569989108"><ele>227.66666666666669</ele><time>2026-04-11T13:59:24Z</time></trkpt><trkpt lat="45.55932379150231" lon="8.472398429033047"><ele>233.0</ele><time>2026-04-11T13:59:25Z</time></trkpt><trkpt lat="45.559468035387425" lon="8.472145224659627"><ele>231.5</ele><time>2026-04-11T13:59:26Z</time></trkpt><trkpt lat="45.55962396788364" lon="8.471894422508404"><ele>230.0</ele><time>2026-04-11T13:59:27Z</time></trkpt><trkpt lat="45.55979789411665" lon="8.47167226911413"><ele>230.0</ele><time>2026-04-11T13:59:28Z</time></trkpt><trkpt lat="45.55995306107789" lon="8.471465157032442"><ele>230.0</ele><time>2026-04-11T13:59:29Z</time></trkpt><trkpt lat="45.56006841608182" lon="8.471203474905561"><ele>230.0</ele><time>2026-04-11T13:59:30Z</time></trkpt><trkpt lat="45.56012820877792" lon="8.470897524317142"><ele>232.33333333333334</ele><time>2026-04-11T13:59:31Z</time></trkpt><trkpt lat="45.56016022910025" lon="8.47060193818926"><ele>234.66666666666669</ele><time>2026-04-11T13:59:32Z</time></trkpt><trkpt lat="45.560164754058306" lon="8.470344998053797"><ele>237.0</ele><time>2026-04-11T13:59:33Z</time></trkpt><trkpt lat="45.560126436674174" lon="8.470081921758556"><ele>238.66666666666669</ele><time>2026-04-11T13:59:34Z</time></trkpt><trkpt lat="45.5600315486521" lon="8.469825051219496"><ele>240.33333333333334</ele><time>2026-04-11T13:59:35Z</time></trkpt><trkpt lat="45.55990774586215" lon="8.469570022303422"><ele>242.0</ele><time>2026-04-11T13:59:36Z</time></trkpt><trkpt lat="45.559795220721675" lon="8.469296471640037"><ele>242.0</ele><time>2026-04-11T13:59:37Z</time></trkpt><trkpt lat="45.55968482207038" lon="8.469020835419546"><ele>242.0</ele><time>2026-04-11T13:59:38Z</time></trkpt><trkpt lat="45.559573033108805" lon="8.468748706107192"><ele>242.0</ele><time>2026-04-11T13:59:39Z</time></trkpt><trkpt lat="45.55944959354561" lon="8.468479615441009"><ele>242.0</ele><time>2026-04-11T13:59:40Z</time></trkpt><trkpt lat="45.55932127549464" lon="8.468208436918488"><ele>242.0</ele><time>2026-04-11T13:59:41Z</time></trkpt><trkpt lat="45.55919570408764" lon="8.46791230344705"><ele>243.0</ele><time>2026-04-11T13:59:42Z</time></trkpt><trkpt lat="45.55905898145569" lon="8.46762357089905"><ele>244.0</ele><time>2026-04-11T13:59:43Z</time></trkpt><trkpt lat="45.55891941039902" lon="8.467327560028364"><ele>244.0</ele><time>2026-04-11T13:59:44Z</time></trkpt><trkpt lat="45.55877793574465" lon="8.46702569717318"><ele>244.0</ele><time>2026-04-11T13:59:45Z</time></trkpt><trkpt lat="45.55862140950744" lon="8.46673187408674"><ele>242.5</ele><time>2026-04-11T13:59:46Z</time></trkpt><trkpt lat="45.55849071201747" lon="8.466453025530104"><ele>241.0</ele><time>2026-04-11T13:59:47Z</time></trkpt><trkpt lat="45.558352097143384" lon="8.466199599746895"><ele>238.5</ele><time>2026-04-11T13:59:48Z</time></trkpt><trkpt lat="45.55817681165183" lon="8.465982112195778"><ele>236.0</ele><time>2026-04-11T13:59:49Z</time></trkpt><trkpt lat="45.55795890894166" lon="8.465809853585645"><ele>236.5</ele><time>2026-04-11T13:59:50Z</time></trkpt><trkpt lat="45.557731674178015" lon="8.465653986179959"><ele>237.0</ele><time>2026-04-11T13:59:51Z</time></trkpt><trkpt lat="45.5575206622399" lon="8.465496276178138"><ele>237.33333333333331</ele><time>2026-04-11T13:59:52Z</time></trkpt><trkpt lat="45.55733319065374" lon="8.46534348548221"><ele>237.66666666666666</ele><time>2026-04-11T13:59:53Z</time></trkpt><trkpt lat="45.557163144449945" lon="8.465203158476347"><ele>238.0</ele><time>2026-04-11T13:59:54Z</time></trkpt><trkpt lat="45.55701783017124" lon="8.465083807264516"><ele>238.0</ele><time>2026-04-11T13:59:55Z</time></trkpt><trkpt lat="45.55691031236957" lon="8.464978162180554"><ele>238.0</ele><time>2026-04-11T13:59:56Z</time></trkpt><trkpt lat="45.55681928124059" lon="8.464873728031973"><ele>238.0</ele><time>2026-04-11T13:59:57Z</time></trkpt><trkpt lat="45.5567797478921" lon="8.464718952379902"><ele>238.0</ele><time>2026-04-11T13:59:58Z</time></trkpt><trkpt lat="45.556729013238616" lon="8.464544170083192"><ele>238.66666666666666</ele><time>2026-04-11T13:59:59Z</time></trkpt><trkpt lat="45.556667768961695" lon="8.464334341945595"><ele>239.33333333333331</ele><time>2026-04-11T14:00:00Z</time></trkpt><trkpt lat="45.55659979282235" lon="8.464101449764524"><ele>240.0</ele><time>2026-04-11T14:00:01Z</time></trkpt><trkpt lat="45.55651608386753" lon="8.463867438894598"><ele>239.33333333333331</ele><time>2026-04-11T14:00:02Z</time></trkpt><trkpt lat="45.55644602879824" lon="8.463614974164777"><ele>238.66666666666666</ele><time>2026-04-11T14:00:03Z</time></trkpt><trkpt lat="45.55637684488891" lon="8.463356680942132"><ele>238.0</ele><time>2026-04-11T14:00:04Z</time></trkpt><trkpt lat="45.556302027503584" lon="8.46308972851131"><ele>237.66666666666666</ele><time>2026-04-11T14:00:05Z</time></trkpt><trkpt lat="45.55622667533218" lon="8.462850542829294"><ele>237.33333333333331</ele><time>2026-04-11T14:00:06Z</time></trkpt><trkpt lat="45.556148074718585" lon="8.462640126127017"><ele>237.0</ele><time>2026-04-11T14:00:07Z</time></trkpt><trkpt lat="45.55606383558139" lon="8.462434380840774"><ele>236.2</ele><time>2026-04-11T14:00:08Z</time></trkpt><trkpt lat="45.55597384597063" lon="8.462271420460464"><ele>235.39999999999998</ele><time>2026-04-11T14:00:09Z</time></trkpt><trkpt lat="45.55589595269893" lon="8.46214398514403"><ele>234.60000000000002</ele><time>2026-04-11T14:00:10Z</time></trkpt><trkpt lat="45.5558287008979" lon="8.462044142343638"><ele>233.8</ele><time>2026-04-11T14:00:11Z</time></trkpt><trkpt lat="45.55578821450036" lon="8.461945994822313"><ele>233.0</ele><time>2026-04-11T14:00:12Z</time></trkpt><trkpt lat="45.555799328703365" lon="8.461854611052722"><ele>231.2</ele><time>2026-04-11T14:00:13Z</time></trkpt><trkpt lat="45.555626669806834" lon="8.46187833086922"><ele>229.4</ele><time>2026-04-11T14:00:16Z</time></trkpt><trkpt lat="45.55554850438713" lon="8.461868668402975"><ele>227.59999999999997</ele><time>2026-04-11T14:00:17Z</time></trkpt><trkpt lat="45.55547921287451" lon="8.461864206518095"><ele>225.79999999999998</ele><time>2026-04-11T14:00:18Z</time></trkpt><trkpt lat="45.55540591470115" lon="8.461865610447784"><ele>224.0</ele><time>2026-04-11T14:00:19Z</time></trkpt><trkpt lat="45.55530613894866" lon="8.461849183883267"><ele>223.00000000000003</ele><time>2026-04-11T14:00:20Z</time></trkpt><trkpt lat="45.55520496785945" lon="8.461841470010018"><ele>222.0</ele><time>2026-04-11T14:00:21Z</time></trkpt><trkpt lat="45.55510993756634" lon="8.461811954749622"><ele>221.0</ele><time>2026-04-11T14:00:22Z</time></trkpt><trkpt lat="45.55502684736734" lon="8.461774674298079"><ele>220.0</ele><time>2026-04-11T14:00:23Z</time></trkpt><trkpt lat="45.55494931868201" lon="8.461746957069597"><ele>219.00000000000003</ele><time>2026-04-11T14:00:24Z</time></trkpt><trkpt lat="45.55488455164336" lon="8.461723545174607"><ele>218.0</ele><time>2026-04-11T14:00:25Z</time></trkpt><trkpt lat="45.55479469380747" lon="8.461656946115518"><ele>218.00000000000003</ele><time>2026-04-11T14:00:26Z</time></trkpt><trkpt lat="45.554713356451764" lon="8.461630538873655"><ele>218.0</ele><time>2026-04-11T14:00:27Z</time></trkpt><trkpt lat="45.55464312990137" lon="8.46156467959715"><ele>218.0</ele><time>2026-04-11T14:00:28Z</time></trkpt><trkpt lat="45.554578260200465" lon="8.461523754641608"><ele>218.0</ele><time>2026-04-11T14:00:29Z</time></trkpt><trkpt lat="45.55450836417829" lon="8.461471085858324"><ele>218.00000000000003</ele><time>2026-04-11T14:00:30Z</time></trkpt><trkpt lat="45.55442783065924" lon="8.461419264400483"><ele>218.0</ele><time>2026-04-11T14:00:31Z</time></trkpt><trkpt lat="45.55434684424319" lon="8.461339017555803"><ele>217.0</ele><time>2026-04-11T14:00:32Z</time></trkpt><trkpt lat="45.55425524020953" lon="8.461253769009465"><ele>216.0</ele><time>2026-04-11T14:00:33Z</time></trkpt><trkpt lat="45.55415993350785" lon="8.46115995921752"><ele>215.0</ele><time>2026-04-11T14:00:34Z</time></trkpt><trkpt lat="45.55406521030474" lon="8.461050279815895"><ele>214.0</ele><time>2026-04-11T14:00:35Z</time></trkpt><trkpt lat="45.55400192512711" lon="8.460971332440105"><ele>213.0</ele><time>2026-04-11T14:00:36Z</time></trkpt><trkpt lat="45.55396075891994" lon="8.460900690866987"><ele>213.0</ele><time>2026-04-11T14:00:37Z</time></trkpt><trkpt lat="45.55389663326019" lon="8.46081779963296"><ele>213.0</ele><time>2026-04-11T14:00:39Z</time></trkpt><trkpt lat="45.55383088739732" lon="8.46071461819223"><ele>213.0</ele><time>2026-04-11T14:01:32Z</time></trkpt><trkpt lat="45.55377228522582" lon="8.460595322239007"><ele>213.0</ele><time>2026-04-11T14:01:34Z</time></trkpt><trkpt lat="45.553765892144895" lon="8.460452528274232"><ele>213.0</ele><time>2026-04-11T14:01:36Z</time></trkpt><trkpt lat="45.553840171775484" lon="8.46041404162393"><ele>212.8</ele><time>2026-04-11T14:01:37Z</time></trkpt><trkpt lat="45.55389503703079" lon="8.460326105029456"><ele>212.60000000000002</ele><time>2026-04-11T14:01:38Z</time></trkpt><trkpt lat="45.55396561412215" lon="8.46022587924801"><ele>212.39999999999998</ele><time>2026-04-11T14:01:39Z</time></trkpt><trkpt lat="45.55404146739152" lon="8.460139154738275"><ele>212.2</ele><time>2026-04-11T14:01:40Z</time></trkpt><trkpt lat="45.554121949775485" lon="8.460039006024575"><ele>212.0</ele><time>2026-04-11T14:01:41Z</time></trkpt><trkpt lat="45.55420639863555" lon="8.459929718943265"><ele>212.0</ele><time>2026-04-11T14:01:42Z</time></trkpt><trkpt lat="45.55428889259742" lon="8.459819483825008"><ele>212.0</ele><time>2026-04-11T14:01:43Z</time></trkpt><trkpt lat="45.554374845635486" lon="8.459703217661511"><ele>212.0</ele><time>2026-04-11T14:01:44Z</time></trkpt><trkpt lat="45.55446166952571" lon="8.4595857737126"><ele>212.0</ele><time>2026-04-11T14:01:45Z</time></trkpt><trkpt lat="45.554552074310145" lon="8.459463155954023"><ele>212.25</ele><time>2026-04-11T14:01:46Z</time></trkpt><trkpt lat="45.55464977733846" lon="8.459333651063943"><ele>212.5</ele><time>2026-04-11T14:01:47Z</time></trkpt><trkpt lat="45.5547492246837" lon="8.459203305576963"><ele>212.75</ele><time>2026-04-11T14:01:48Z</time></trkpt><trkpt lat="45.55484596489878" lon="8.459079196936576"><ele>213.0</ele><time>2026-04-11T14:01:49Z</time></trkpt><trkpt lat="45.554941524457355" lon="8.458959741828641"><ele>213.0</ele><time>2026-04-11T14:01:50Z</time></trkpt><trkpt lat="45.555038390787324" lon="8.458846394428758"><ele>213.0</ele><time>2026-04-11T14:01:51Z</time></trkpt><trkpt lat="45.55512716190278" lon="8.458716744689609"><ele>213.0</ele><time>2026-04-11T14:01:52Z</time></trkpt><trkpt lat="45.555237241066735" lon="8.45862040998157"><ele>213.0</ele><time>2026-04-11T14:01:53Z</time></trkpt><trkpt lat="45.55532875129748" lon="8.458492970959481"><ele>212.75</ele><time>2026-04-11T14:01:54Z</time></trkpt><trkpt lat="45.55540354838812" lon="8.4583579148543"><ele>212.5</ele><time>2026-04-11T14:01:55Z</time></trkpt><trkpt lat="45.55549716589982" lon="8.4582496768946"><ele>212.25</ele><time>2026-04-11T14:01:56Z</time></trkpt><trkpt lat="45.55559546802184" lon="8.458142232661391"><ele>212.0</ele><time>2026-04-11T14:01:57Z</time></trkpt><trkpt lat="45.555693134329935" lon="8.458033209287601"><ele>212.25</ele><time>2026-04-11T14:01:58Z</time></trkpt><trkpt lat="45.555787559226964" lon="8.457918883330903"><ele>212.5</ele><time>2026-04-11T14:01:59Z</time></trkpt><trkpt lat="45.55588170323344" lon="8.457794732072593"><ele>212.75</ele><time>2026-04-11T14:02:00Z</time></trkpt><trkpt lat="45.55597139784238" lon="8.457670697112775"><ele>213.0</ele><time>2026-04-11T14:02:01Z</time></trkpt><trkpt lat="45.55606086951262" lon="8.45754931497668"><ele>213.0</ele><time>2026-04-11T14:02:02Z</time></trkpt><trkpt lat="45.5561532916679" lon="8.45743049930881"><ele>213.0</ele><time>2026-04-11T14:02:03Z</time></trkpt><trkpt lat="45.55624770601768" lon="8.457312047585425"><ele>213.0</ele><time>2026-04-11T14:02:04Z</time></trkpt><trkpt lat="45.55633998700624" lon="8.457196271488932"><ele>213.0</ele><time>2026-04-11T14:02:05Z</time></trkpt><trkpt lat="45.556424406449494" lon="8.457059574987401"><ele>212.75</ele><time>2026-04-11T14:02:06Z</time></trkpt><trkpt lat="45.55651550258169" lon="8.456938759000511"><ele>212.5</ele><time>2026-04-11T14:02:07Z</time></trkpt><trkpt lat="45.55660885379314" lon="8.456822192683182"><ele>212.25</ele><time>2026-04-11T14:02:08Z</time></trkpt><trkpt lat="45.55670388642827" lon="8.456703410606277"><ele>212.0</ele><time>2026-04-11T14:02:09Z</time></trkpt><trkpt lat="45.556800023395574" lon="8.456582935427615"><ele>212.0</ele><time>2026-04-11T14:02:10Z</time></trkpt><trkpt lat="45.556902996088894" lon="8.456482080717228"><ele>212.0</ele><time>2026-04-11T14:02:11Z</time></trkpt><trkpt lat="45.55698617236206" lon="8.45635115754813"><ele>212.0</ele><time>2026-04-11T14:02:12Z</time></trkpt><trkpt lat="45.55708212373722" lon="8.456238958622183"><ele>212.0</ele><time>2026-04-11T14:02:13.001Z</time></trkpt><trkpt lat="45.55717878880438" lon="8.456120840249193"><ele>212.25</ele><time>2026-04-11T14:02:14.001Z</time></trkpt><trkpt lat="45.55726647333295" lon="8.456000236315015"><ele>212.5</ele><time>2026-04-11T14:02:15.001Z</time></trkpt><trkpt lat="45.557368263744564" lon="8.45589533200298"><ele>212.75</ele><time>2026-04-11T14:02:16.001Z</time></trkpt><trkpt lat="45.55745324499607" lon="8.455772324138403"><ele>213.0</ele><time>2026-04-11T14:02:17.001Z</time></trkpt><trkpt lat="45.557550082218945" lon="8.455650511908225"><ele>213.0</ele><time>2026-04-11T14:02:18Z</time></trkpt><trkpt lat="45.55764686261415" lon="8.45552871729093"><ele>213.0</ele><time>2026-04-11T14:02:19Z</time></trkpt><trkpt lat="45.55774605751686" lon="8.455410569619026"><ele>213.0</ele><time>2026-04-11T14:02:20Z</time></trkpt><trkpt lat="45.55784163999534" lon="8.455295468285039"><ele>213.0</ele><time>2026-04-11T14:02:21Z</time></trkpt><trkpt lat="45.55793600542247" lon="8.455179403590598"><ele>213.75</ele><time>2026-04-11T14:02:22Z</time></trkpt><trkpt lat="45.5580325450656" lon="8.455062902497433"><ele>214.5</ele><time>2026-04-11T14:02:23Z</time></trkpt><trkpt lat="45.558129695033706" lon="8.454947083895613"><ele>215.25</ele><time>2026-04-11T14:02:24Z</time></trkpt><trkpt lat="45.55822493806666" lon="8.45483324910149"><ele>216.0</ele><time>2026-04-11T14:02:25Z</time></trkpt><trkpt lat="45.55832031162319" lon="8.45472269909705"><ele>216.0</ele><time>2026-04-11T14:02:26Z</time></trkpt><trkpt lat="45.55841787632383" lon="8.454610422206073"><ele>216.0</ele><time>2026-04-11T14:02:27Z</time></trkpt><trkpt lat="45.55851698216009" lon="8.45450142002071"><ele>216.0</ele><time>2026-04-11T14:02:28Z</time></trkpt><trkpt lat="45.558615357382934" lon="8.454394753198784"><ele>216.0</ele><time>2026-04-11T14:02:29Z</time></trkpt><trkpt lat="45.558716431066195" lon="8.454292827392617"><ele>215.75</ele><time>2026-04-11T14:02:30Z</time></trkpt><trkpt lat="45.55882706817066" lon="8.454184572154695"><ele>215.5</ele><time>2026-04-11T14:02:31Z</time></trkpt><trkpt lat="45.55894176700706" lon="8.45407163050747"><ele>215.25</ele><time>2026-04-11T14:02:32Z</time></trkpt><trkpt lat="45.559067934760776" lon="8.45394349947385"><ele>215.0</ele><time>2026-04-11T14:02:33Z</time></trkpt><trkpt lat="45.559204579894214" lon="8.453805172971666"><ele>214.33333333333334</ele><time>2026-04-11T14:02:34Z</time></trkpt><trkpt lat="45.55935581776927" lon="8.453662104728839"><ele>213.66666666666669</ele><time>2026-04-11T14:02:35Z</time></trkpt><trkpt lat="45.559513927590935" lon="8.453506237566897"><ele>213.0</ele><time>2026-04-11T14:02:36Z</time></trkpt><trkpt lat="45.559686118219695" lon="8.453338518469543"><ele>213.0</ele><time>2026-04-11T14:02:37Z</time></trkpt><trkpt lat="45.55984489224693" lon="8.453186956183602"><ele>213.0</ele><time>2026-04-11T14:02:38Z</time></trkpt><trkpt lat="45.55999452317246" lon="8.453051211302036"><ele>213.0</ele><time>2026-04-11T14:02:39Z</time></trkpt><trkpt lat="45.56013352724668" lon="8.452917096406644"><ele>212.75</ele><time>2026-04-11T14:02:40Z</time></trkpt><trkpt lat="45.56024944806204" lon="8.452796845426212"><ele>212.5</ele><time>2026-04-11T14:02:41Z</time></trkpt><trkpt lat="45.560346618354316" lon="8.452689043944753"><ele>212.25</ele><time>2026-04-11T14:02:42Z</time></trkpt><trkpt lat="45.56044423011301" lon="8.452598820553916"><ele>212.0</ele><time>2026-04-11T14:02:43Z</time></trkpt><trkpt lat="45.5605520307253" lon="8.452566179330903"><ele>213.25</ele><time>2026-04-11T14:02:44Z</time></trkpt><trkpt lat="45.560654938980655" lon="8.452593683312566"><ele>214.5</ele><time>2026-04-11T14:02:45Z</time></trkpt><trkpt lat="45.560750151302216" lon="8.452502319347667"><ele>215.75</ele><time>2026-04-11T14:02:46Z</time></trkpt><trkpt lat="45.560847920044694" lon="8.452362462080249"><ele>217.0</ele><time>2026-04-11T14:02:47Z</time></trkpt><trkpt lat="45.5609874252097" lon="8.452278078440498"><ele>217.0</ele><time>2026-04-11T14:02:48Z</time></trkpt><trkpt lat="45.561150680739004" lon="8.452220624001248"><ele>217.0</ele><time>2026-04-11T14:02:49Z</time></trkpt><trkpt lat="45.56130907549335" lon="8.4520904994009"><ele>217.0</ele><time>2026-04-11T14:02:50Z</time></trkpt><trkpt lat="45.561446525585445" lon="8.451860396937324"><ele>216.66666666666666</ele><time>2026-04-11T14:02:51Z</time></trkpt><trkpt lat="45.56156088568332" lon="8.451595605991498"><ele>216.33333333333331</ele><time>2026-04-11T14:02:52Z</time></trkpt><trkpt lat="45.56174582652684" lon="8.451402291625975"><ele>216.0</ele><time>2026-04-11T14:02:53Z</time></trkpt><trkpt lat="45.56194831466536" lon="8.45120509975196"><ele>217.0</ele><time>2026-04-11T14:02:54Z</time></trkpt><trkpt lat="45.562151186697356" lon="8.45100617687092"><ele>218.0</ele><time>2026-04-11T14:02:55Z</time></trkpt><trkpt lat="45.56234955653133" lon="8.450810658669312"><ele>218.0</ele><time>2026-04-11T14:02:56Z</time></trkpt><trkpt lat="45.56254883426914" lon="8.450618375557248"><ele>218.0</ele><time>2026-04-11T14:02:57Z</time></trkpt><trkpt lat="45.56274542415705" lon="8.450427134079678"><ele>216.66666666666669</ele><time>2026-04-11T14:02:58Z</time></trkpt><trkpt lat="45.56292637797044" lon="8.45025270158565"><ele>215.33333333333331</ele><time>2026-04-11T14:02:59Z</time></trkpt><trkpt lat="45.563098753628694" lon="8.450106500226212"><ele>214.0</ele><time>2026-04-11T14:03:00Z</time></trkpt><trkpt lat="45.56326360890738" lon="8.449949580650884"><ele>214.0</ele><time>2026-04-11T14:03:01Z</time></trkpt><trkpt lat="45.563435535498236" lon="8.449785929691346"><ele>214.0</ele><time>2026-04-11T14:03:02Z</time></trkpt><trkpt lat="45.56361406340651" lon="8.449615995347907"><ele>214.0</ele><time>2026-04-11T14:03:03Z</time></trkpt><trkpt lat="45.56379362494796" lon="8.449445055055016"><ele>215.0</ele><time>2026-04-11T14:03:04Z</time></trkpt><trkpt lat="45.563962862409035" lon="8.449283931769587"><ele>216.0</ele><time>2026-04-11T14:03:05Z</time></trkpt><trkpt lat="45.564134632491886" lon="8.449120397339032"><ele>217.0</ele><time>2026-04-11T14:03:06Z</time></trkpt><trkpt lat="45.56428767411146" lon="8.448914778006289"><ele>217.66666666666666</ele><time>2026-04-11T14:03:07Z</time></trkpt><trkpt lat="45.564450359293666" lon="8.448738515757942"><ele>218.33333333333331</ele><time>2026-04-11T14:03:08Z</time></trkpt><trkpt lat="45.56462103502764" lon="8.448576118454609"><ele>219.0</ele><time>2026-04-11T14:03:09Z</time></trkpt><trkpt lat="45.56488332322927" lon="8.448375099325059"><ele>217.0</ele><time>2026-04-11T14:03:10Z</time></trkpt><trkpt lat="45.565099865643965" lon="8.448183191119602"><ele>215.0</ele><time>2026-04-11T14:03:11Z</time></trkpt><trkpt lat="45.565315255135495" lon="8.447978586900463"><ele>216.0</ele><time>2026-04-11T14:03:12Z</time></trkpt><trkpt lat="45.56553496580563" lon="8.447767615303755"><ele>217.0</ele><time>2026-04-11T14:03:13Z</time></trkpt><trkpt lat="45.56575930934519" lon="8.447554315510425"><ele>217.0</ele><time>2026-04-11T14:03:14Z</time></trkpt><trkpt lat="45.56598141980226" lon="8.447339289301626"><ele>217.0</ele><time>2026-04-11T14:03:15Z</time></trkpt><trkpt lat="45.56621011492145" lon="8.447148024171213"><ele>217.0</ele><time>2026-04-11T14:03:16Z</time></trkpt><trkpt lat="45.5664251663812" lon="8.446943529058"><ele>217.0</ele><time>2026-04-11T14:03:17Z</time></trkpt><trkpt lat="45.56664280559862" lon="8.446735288899454"><ele>217.0</ele><time>2026-04-11T14:03:18Z</time></trkpt><trkpt lat="45.56685927099215" lon="8.44652822147498"><ele>217.0</ele><time>2026-04-11T14:03:19Z</time></trkpt><trkpt lat="45.567075056456964" lon="8.44632187684839"><ele>217.5</ele><time>2026-04-11T14:03:20Z</time></trkpt><trkpt lat="45.567292219641786" lon="8.446114214816319"><ele>218.0</ele><time>2026-04-11T14:03:21Z</time></trkpt><trkpt lat="45.567508892555495" lon="8.445907021593156"><ele>218.0</ele><time>2026-04-11T14:03:22Z</time></trkpt><trkpt lat="45.56772475435179" lon="8.445700603985442"><ele>218.0</ele><time>2026-04-11T14:03:23Z</time></trkpt><trkpt lat="45.5679380318213" lon="8.445496627177542"><ele>218.5</ele><time>2026-04-11T14:03:24Z</time></trkpt><trkpt lat="45.56815371495456" lon="8.445290038809842"><ele>219.0</ele><time>2026-04-11T14:03:25Z</time></trkpt><trkpt lat="45.56836747295914" lon="8.445084082854523"><ele>219.0</ele><time>2026-04-11T14:03:26Z</time></trkpt><trkpt lat="45.56857548735518" lon="8.444859218063058"><ele>219.0</ele><time>2026-04-11T14:03:27Z</time></trkpt><trkpt lat="45.568786195277816" lon="8.44465794691101"><ele>219.0</ele><time>2026-04-11T14:03:28Z</time></trkpt><trkpt lat="45.56900194737862" lon="8.444449764419451"><ele>219.0</ele><time>2026-04-11T14:03:29Z</time></trkpt><trkpt lat="45.56922104340548" lon="8.444266020728138"><ele>219.0</ele><time>2026-04-11T14:03:30Z</time></trkpt><trkpt lat="45.56942204992094" lon="8.444075281552642"><ele>219.0</ele><time>2026-04-11T14:03:31Z</time></trkpt><trkpt lat="45.56962512262896" lon="8.443883820936529"><ele>219.0</ele><time>2026-04-11T14:03:32Z</time></trkpt><trkpt lat="45.5698343233517" lon="8.443686872443942"><ele>219.0</ele><time>2026-04-11T14:03:33Z</time></trkpt><trkpt lat="45.57003927573223" lon="8.443492782530479"><ele>219.0</ele><time>2026-04-11T14:03:34Z</time></trkpt><trkpt lat="45.57023943347923" lon="8.44330297556222"><ele>219.0</ele><time>2026-04-11T14:03:35Z</time></trkpt><trkpt lat="45.57044449261423" lon="8.443108520705705"><ele>221.5</ele><time>2026-04-11T14:03:36Z</time></trkpt><trkpt lat="45.570641059788564" lon="8.442922118528633"><ele>224.0</ele><time>2026-04-11T14:03:37Z</time></trkpt><trkpt lat="45.57083945342103" lon="8.442731538934769"><ele>224.0</ele><time>2026-04-11T14:03:38Z</time></trkpt><trkpt lat="45.57103980511306" lon="8.442538931898756"><ele>224.0</ele><time>2026-04-11T14:03:39Z</time></trkpt><trkpt lat="45.57123547586347" lon="8.442350988875116"><ele>224.5</ele><time>2026-04-11T14:03:40Z</time></trkpt><trkpt lat="45.57143530453858" lon="8.442159263612186"><ele>225.0</ele><time>2026-04-11T14:03:41Z</time></trkpt><trkpt lat="45.571632730416596" lon="8.441969843627245"><ele>224.33333333333331</ele><time>2026-04-11T14:03:42Z</time></trkpt><trkpt lat="45.571825406262754" lon="8.441784981074436"><ele>223.66666666666666</ele><time>2026-04-11T14:03:43Z</time></trkpt><trkpt lat="45.57199918484813" lon="8.441618249544858"><ele>223.0</ele><time>2026-04-11T14:03:44Z</time></trkpt><trkpt lat="45.57217200644659" lon="8.441453471971284"><ele>222.66666666666666</ele><time>2026-04-11T14:03:45Z</time></trkpt><trkpt lat="45.57235663909327" lon="8.441277642573729"><ele>222.33333333333331</ele><time>2026-04-11T14:03:46Z</time></trkpt><trkpt lat="45.57254204091209" lon="8.441098574430477"><ele>222.0</ele><time>2026-04-11T14:03:47Z</time></trkpt><trkpt lat="45.57273195119051" lon="8.440918386803846"><ele>222.33333333333331</ele><time>2026-04-11T14:03:48Z</time></trkpt><trkpt lat="45.57289007445881" lon="8.440742227091834"><ele>222.66666666666666</ele><time>2026-04-11T14:03:49Z</time></trkpt><trkpt lat="45.57305096840482" lon="8.44058910170619"><ele>223.0</ele><time>2026-04-11T14:03:50Z</time></trkpt><trkpt lat="45.57319629660245" lon="8.440447584866558"><ele>223.0</ele><time>2026-04-11T14:03:51Z</time></trkpt><trkpt lat="45.57333190691305" lon="8.440317125564858"><ele>223.0</ele><time>2026-04-11T14:03:52Z</time></trkpt><trkpt lat="45.57345999069201" lon="8.440194571249043"><ele>223.0</ele><time>2026-04-11T14:03:53Z</time></trkpt><trkpt lat="45.57357947341771" lon="8.440080217613854"><ele>223.5</ele><time>2026-04-11T14:03:54Z</time></trkpt><trkpt lat="45.57369472510324" lon="8.439976322730917"><ele>224.0</ele><time>2026-04-11T14:03:55Z</time></trkpt><trkpt lat="45.57381206063665" lon="8.439867086960403"><ele>224.5</ele><time>2026-04-11T14:03:56Z</time></trkpt><trkpt lat="45.573926959878165" lon="8.439760877779156"><ele>225.0</ele><time>2026-04-11T14:03:57Z</time></trkpt><trkpt lat="45.574041593894044" lon="8.439646379800573"><ele>225.0</ele><time>2026-04-11T14:03:58Z</time></trkpt><trkpt lat="45.57415469772619" lon="8.439538600963434"><ele>225.0</ele><time>2026-04-11T14:03:59Z</time></trkpt><trkpt lat="45.57426759309904" lon="8.439427087116073"><ele>225.0</ele><time>2026-04-11T14:04:00Z</time></trkpt><trkpt lat="45.57438855259774" lon="8.439313172760457"><ele>225.0</ele><time>2026-04-11T14:04:01Z</time></trkpt><trkpt lat="45.57450298869446" lon="8.439204656177138"><ele>225.75</ele><time>2026-04-11T14:04:02Z</time></trkpt><trkpt lat="45.57462273309987" lon="8.439094317035748"><ele>226.5</ele><time>2026-04-11T14:04:03Z</time></trkpt><trkpt lat="45.57474385815314" lon="8.43899580843663"><ele>227.25</ele><time>2026-04-11T14:04:04Z</time></trkpt><trkpt lat="45.574867461473886" lon="8.43890186284148"><ele>228.0</ele><time>2026-04-11T14:04:05Z</time></trkpt><trkpt lat="45.57499191383417" lon="8.438811470847407"><ele>228.25</ele><time>2026-04-11T14:04:06Z</time></trkpt><trkpt lat="45.575111629936615" lon="8.438715284556134"><ele>228.5</ele><time>2026-04-11T14:04:07Z</time></trkpt><trkpt lat="45.575229924526525" lon="8.438622044600429"><ele>228.75</ele><time>2026-04-11T14:04:08Z</time></trkpt><trkpt lat="45.575347510582546" lon="8.438531397810742"><ele>229.0</ele><time>2026-04-11T14:04:09Z</time></trkpt><trkpt lat="45.57546709013017" lon="8.438437176044369"><ele>229.5</ele><time>2026-04-11T14:04:10Z</time></trkpt><trkpt lat="45.57559696719838" lon="8.438354922855563"><ele>230.0</ele><time>2026-04-11T14:04:11Z</time></trkpt><trkpt lat="45.57572057197461" lon="8.43826897602317"><ele>230.5</ele><time>2026-04-11T14:04:12Z</time></trkpt><trkpt lat="45.575843280985524" lon="8.438171394330592"><ele>231.0</ele><time>2026-04-11T14:04:13Z</time></trkpt><trkpt lat="45.575971373127075" lon="8.438092086642868"><ele>231.0</ele><time>2026-04-11T14:04:14Z</time></trkpt><trkpt lat="45.57610285726516" lon="8.438009355217892"><ele>231.0</ele><time>2026-04-11T14:04:15Z</time></trkpt><trkpt lat="45.57623911751316" lon="8.43794184196233"><ele>231.0</ele><time>2026-04-11T14:04:16Z</time></trkpt><trkpt lat="45.57638348231607" lon="8.437888199403575"><ele>231.0</ele><time>2026-04-11T14:04:17Z</time></trkpt><trkpt lat="45.57651418446614" lon="8.437840497035955"><ele>230.75</ele><time>2026-04-11T14:04:18Z</time></trkpt><trkpt lat="45.57662915358958" lon="8.43776843692577"><ele>230.5</ele><time>2026-04-11T14:04:19Z</time></trkpt><trkpt lat="45.57675876176863" lon="8.437677569835504"><ele>230.25</ele><time>2026-04-11T14:04:20Z</time></trkpt><trkpt lat="45.5768780866294" lon="8.437594086621125"><ele>230.0</ele><time>2026-04-11T14:04:21Z</time></trkpt><trkpt lat="45.57700945051682" lon="8.437490497419878"><ele>230.0</ele><time>2026-04-11T14:04:22Z</time></trkpt><trkpt lat="45.57715139291091" lon="8.437402814716375"><ele>230.0</ele><time>2026-04-11T14:04:23Z</time></trkpt><trkpt lat="45.57728463517215" lon="8.437339850472359"><ele>230.0</ele><time>2026-04-11T14:04:24Z</time></trkpt><trkpt lat="45.57726533062242" lon="8.437237385728277"><ele>230.0</ele><time>2026-04-11T14:04:25Z</time></trkpt><trkpt lat="45.577357083084145" lon="8.437151808529936"><ele>230.0</ele><time>2026-04-11T14:04:26Z</time></trkpt><trkpt lat="45.577456929123386" lon="8.437066936172723"><ele>230.0</ele><time>2026-04-11T14:04:27Z</time></trkpt><trkpt lat="45.57756708120225" lon="8.436999529689565"><ele>230.0</ele><time>2026-04-11T14:04:28Z</time></trkpt><trkpt lat="45.57765910022377" lon="8.436940991991321"><ele>230.0</ele><time>2026-04-11T14:04:29Z</time></trkpt><trkpt lat="45.57775010838755" lon="8.436880415578717"><ele>230.0</ele><time>2026-04-11T14:04:30Z</time></trkpt><trkpt lat="45.577833926650825" lon="8.436817101001992"><ele>230.2</ele><time>2026-04-11T14:04:31Z</time></trkpt><trkpt lat="45.57791447493791" lon="8.43676278196603"><ele>230.4</ele><time>2026-04-11T14:04:32Z</time></trkpt><trkpt lat="45.577990256899206" lon="8.436690638460586"><ele>230.60000000000002</ele><time>2026-04-11T14:04:33Z</time></trkpt><trkpt lat="45.57806338504006" lon="8.436598240102343"><ele>230.8</ele><time>2026-04-11T14:04:34Z</time></trkpt><trkpt lat="45.578150381554934" lon="8.436507600739551"><ele>231.0</ele><time>2026-04-11T14:04:35Z</time></trkpt><trkpt lat="45.57824828126797" lon="8.436433372921982"><ele>231.0</ele><time>2026-04-11T14:04:36Z</time></trkpt><trkpt lat="45.57835050069085" lon="8.436361147068155"><ele>231.0</ele><time>2026-04-11T14:04:37Z</time></trkpt><trkpt lat="45.57845351485323" lon="8.436276800422117"><ele>231.0</ele><time>2026-04-11T14:04:38Z</time></trkpt><trkpt lat="45.57856642387488" lon="8.436197575392063"><ele>231.0</ele><time>2026-04-11T14:04:39Z</time></trkpt><trkpt lat="45.578673216315295" lon="8.436112078644525"><ele>231.0</ele><time>2026-04-11T14:04:40Z</time></trkpt><trkpt lat="45.57878888186163" lon="8.436032889246471"><ele>231.0</ele><time>2026-04-11T14:04:41Z</time></trkpt><trkpt lat="45.57890620829274" lon="8.435950878477538"><ele>231.0</ele><time>2026-04-11T14:04:42Z</time></trkpt><trkpt lat="45.57902305693204" lon="8.435864296104986"><ele>231.0</ele><time>2026-04-11T14:04:43Z</time></trkpt><trkpt lat="45.57913753692262" lon="8.435780357394192"><ele>231.0</ele><time>2026-04-11T14:04:44Z</time></trkpt><trkpt lat="45.579242622911494" lon="8.435687390028763"><ele>231.0</ele><time>2026-04-11T14:04:45Z</time></trkpt><trkpt lat="45.57934451272218" lon="8.435613693140454"><ele>231.0</ele><time>2026-04-11T14:04:46Z</time></trkpt><trkpt lat="45.579446668913576" lon="8.43553400114819"><ele>231.0</ele><time>2026-04-11T14:04:47Z</time></trkpt><trkpt lat="45.57955548357399" lon="8.43546718084914"><ele>230.5</ele><time>2026-04-11T14:04:48Z</time></trkpt><trkpt lat="45.57966163023085" lon="8.435414004843592"><ele>230.0</ele><time>2026-04-11T14:04:49Z</time></trkpt><trkpt lat="45.579774805946066" lon="8.435312912593547"><ele>229.5</ele><time>2026-04-11T14:04:50Z</time></trkpt><trkpt lat="45.57988358036599" lon="8.435230590961346"><ele>229.0</ele><time>2026-04-11T14:04:51Z</time></trkpt><trkpt lat="45.579997145497366" lon="8.435146828489465"><ele>229.0</ele><time>2026-04-11T14:04:52Z</time></trkpt><trkpt lat="45.58010992505078" lon="8.435064139809777"><ele>229.0</ele><time>2026-04-11T14:04:53Z</time></trkpt><trkpt lat="45.580226161242884" lon="8.434981493698919"><ele>229.0</ele><time>2026-04-11T14:04:54Z</time></trkpt><trkpt lat="45.5803409195586" lon="8.43489944083296"><ele>229.0</ele><time>2026-04-11T14:04:55Z</time></trkpt><trkpt lat="45.58045682978255" lon="8.43481449748392"><ele>229.25</ele><time>2026-04-11T14:04:56Z</time></trkpt><trkpt lat="45.58056961221131" lon="8.434732261909728"><ele>229.5</ele><time>2026-04-11T14:04:57Z</time></trkpt><trkpt lat="45.58067534881952" lon="8.434658447716329"><ele>229.75</ele><time>2026-04-11T14:04:58Z</time></trkpt><trkpt lat="45.58077130409912" lon="8.434585465760772"><ele>230.0</ele><time>2026-04-11T14:04:59Z</time></trkpt><trkpt lat="45.580862617486886" lon="8.434517340460758"><ele>230.2</ele><time>2026-04-11T14:05:00Z</time></trkpt><trkpt lat="45.580957689119366" lon="8.434450545847948"><ele>230.4</ele><time>2026-04-11T14:05:01Z</time></trkpt><trkpt lat="45.58104454690131" lon="8.43438373488951"><ele>230.60000000000002</ele><time>2026-04-11T14:05:02Z</time></trkpt><trkpt lat="45.58113745112854" lon="8.434313888600675"><ele>230.8</ele><time>2026-04-11T14:05:03Z</time></trkpt><trkpt lat="45.581251447091496" lon="8.434256376072627"><ele>231.0</ele><time>2026-04-11T14:05:04Z</time></trkpt><trkpt lat="45.58135652908603" lon="8.434178439509473"><ele>231.5</ele><time>2026-04-11T14:05:05Z</time></trkpt><trkpt lat="45.581466170365175" lon="8.434097121446463"><ele>232.0</ele><time>2026-04-11T14:05:06Z</time></trkpt><trkpt lat="45.58157685398443" lon="8.434015030305627"><ele>232.5</ele><time>2026-04-11T14:05:07Z</time></trkpt><trkpt lat="45.58167726015028" lon="8.433915325611322"><ele>233.0</ele><time>2026-04-11T14:05:08Z</time></trkpt><trkpt lat="45.58178572447479" lon="8.43384170608137"><ele>232.75</ele><time>2026-04-11T14:05:09Z</time></trkpt><trkpt lat="45.5819026610053" lon="8.433777826621414"><ele>232.5</ele><time>2026-04-11T14:05:10Z</time></trkpt><trkpt lat="45.582023589564635" lon="8.43369012784806"><ele>232.25</ele><time>2026-04-11T14:05:11Z</time></trkpt><trkpt lat="45.58213994042059" lon="8.433604176246801"><ele>232.0</ele><time>2026-04-11T14:05:12Z</time></trkpt><trkpt lat="45.58225629771437" lon="8.433517865330606"><ele>232.0</ele><time>2026-04-11T14:05:13Z</time></trkpt><trkpt lat="45.58237457077788" lon="8.433430133349008"><ele>232.0</ele><time>2026-04-11T14:05:14Z</time></trkpt><trkpt lat="45.5824893507873" lon="8.433318917258834"><ele>232.0</ele><time>2026-04-11T14:05:15Z</time></trkpt><trkpt lat="45.582616917720415" lon="8.433250366479617"><ele>232.0</ele><time>2026-04-11T14:05:16Z</time></trkpt><trkpt lat="45.582724037925665" lon="8.433152465048185"><ele>232.0</ele><time>2026-04-11T14:05:17Z</time></trkpt><trkpt lat="45.582835672367594" lon="8.433089113900442"><ele>232.0</ele><time>2026-04-11T14:05:18Z</time></trkpt><trkpt lat="45.58294863124104" lon="8.432982132783405"><ele>232.0</ele><time>2026-04-11T14:05:19Z</time></trkpt><trkpt lat="45.5830688393087" lon="8.432897146125585"><ele>232.0</ele><time>2026-04-11T14:05:20Z</time></trkpt><trkpt lat="45.583176810178855" lon="8.43281605354769"><ele>231.5</ele><time>2026-04-11T14:05:21Z</time></trkpt><trkpt lat="45.58328280929027" lon="8.432742657145827"><ele>231.0</ele><time>2026-04-11T14:05:22Z</time></trkpt><trkpt lat="45.58339376058416" lon="8.432671344104149"><ele>230.5</ele><time>2026-04-11T14:05:23Z</time></trkpt><trkpt lat="45.58350487013968" lon="8.43258335926108"><ele>230.0</ele><time>2026-04-11T14:05:24Z</time></trkpt><trkpt lat="45.58362604143808" lon="8.432490733928812"><ele>230.33333333333334</ele><time>2026-04-11T14:05:25Z</time></trkpt><trkpt lat="45.58376184434258" lon="8.432398291229969"><ele>230.66666666666669</ele><time>2026-04-11T14:05:26Z</time></trkpt><trkpt lat="45.58389401538094" lon="8.432296268866228"><ele>231.0</ele><time>2026-04-11T14:05:27Z</time></trkpt><trkpt lat="45.58404288829058" lon="8.432193705313358"><ele>230.75</ele><time>2026-04-11T14:05:28Z</time></trkpt><trkpt lat="45.58418405785941" lon="8.432089700457043"><ele>230.5</ele><time>2026-04-11T14:05:29Z</time></trkpt><trkpt lat="45.58431100905224" lon="8.431987334550202"><ele>230.25</ele><time>2026-04-11T14:05:30Z</time></trkpt><trkpt lat="45.5844402685793" lon="8.431899469024641"><ele>230.0</ele><time>2026-04-11T14:05:31Z</time></trkpt><trkpt lat="45.58456347223443" lon="8.43181112079209"><ele>230.5</ele><time>2026-04-11T14:05:32Z</time></trkpt><trkpt lat="45.584689801182414" lon="8.43171218376191"><ele>231.0</ele><time>2026-04-11T14:05:33Z</time></trkpt><trkpt lat="45.58482518303693" lon="8.431613596873273"><ele>231.5</ele><time>2026-04-11T14:05:34Z</time></trkpt><trkpt lat="45.584959692944864" lon="8.431516373375045"><ele>232.0</ele><time>2026-04-11T14:05:35Z</time></trkpt><trkpt lat="45.58509709483976" lon="8.43141745189614"><ele>231.66666666666666</ele><time>2026-04-11T14:05:36Z</time></trkpt><trkpt lat="45.58524999203124" lon="8.431299568625425"><ele>231.33333333333331</ele><time>2026-04-11T14:05:37Z</time></trkpt><trkpt lat="45.58543361354264" lon="8.431187558496186"><ele>231.0</ele><time>2026-04-11T14:05:38Z</time></trkpt><trkpt lat="45.58560626673988" lon="8.431061699836945"><ele>231.66666666666669</ele><time>2026-04-11T14:05:39Z</time></trkpt><trkpt lat="45.58578115812945" lon="8.430934209629818"><ele>232.33333333333334</ele><time>2026-04-11T14:05:40Z</time></trkpt><trkpt lat="45.58595074149668" lon="8.430810588795028"><ele>233.0</ele><time>2026-04-11T14:05:41Z</time></trkpt><trkpt lat="45.58612544214747" lon="8.43068323786977"><ele>233.0</ele><time>2026-04-11T14:05:42Z</time></trkpt><trkpt lat="45.58628831952926" lon="8.430524404311969"><ele>233.0</ele><time>2026-04-11T14:05:43Z</time></trkpt><trkpt lat="45.58646732172765" lon="8.43039753185268"><ele>233.0</ele><time>2026-04-11T14:05:44Z</time></trkpt><trkpt lat="45.586647497930954" lon="8.430262692752915"><ele>233.0</ele><time>2026-04-11T14:05:45Z</time></trkpt><trkpt lat="45.58682710180301" lon="8.430130394215572"><ele>233.0</ele><time>2026-04-11T14:05:46Z</time></trkpt><trkpt lat="45.587001904737946" lon="8.430038049444352"><ele>233.0</ele><time>2026-04-11T14:05:47Z</time></trkpt><trkpt lat="45.58716920598773" lon="8.42991450537687"><ele>233.66666666666669</ele><time>2026-04-11T14:05:48Z</time></trkpt><trkpt lat="45.58733395013099" lon="8.429792849608342"><ele>234.33333333333331</ele><time>2026-04-11T14:05:49Z</time></trkpt><trkpt lat="45.58749954176442" lon="8.429671175020324"><ele>235.0</ele><time>2026-04-11T14:05:50Z</time></trkpt><trkpt lat="45.58766613154504" lon="8.4295488108635"><ele>235.0</ele><time>2026-04-11T14:05:51Z</time></trkpt><trkpt lat="45.58782023863825" lon="8.429385407929436"><ele>235.0</ele><time>2026-04-11T14:05:52Z</time></trkpt><trkpt lat="45.58799185710799" lon="8.429259335326286"><ele>235.0</ele><time>2026-04-11T14:05:53Z</time></trkpt><trkpt lat="45.58816081844146" lon="8.42913344884904"><ele>234.66666666666666</ele><time>2026-04-11T14:05:54Z</time></trkpt><trkpt lat="45.588337831464486" lon="8.429004331130983"><ele>234.33333333333331</ele><time>2026-04-11T14:05:55Z</time></trkpt><trkpt lat="45.5885257286126" lon="8.428916308330962"><ele>234.0</ele><time>2026-04-11T14:05:56Z</time></trkpt><trkpt lat="45.588705015821624" lon="8.428784028961143"><ele>235.0</ele><time>2026-04-11T14:05:57Z</time></trkpt><trkpt lat="45.58888145073945" lon="8.428653799641419"><ele>236.0</ele><time>2026-04-11T14:05:58Z</time></trkpt><trkpt lat="45.58905665193955" lon="8.428524385352032"><ele>237.0</ele><time>2026-04-11T14:05:59Z</time></trkpt><trkpt lat="45.589228464747734" lon="8.4283719813795"><ele>237.0</ele><time>2026-04-11T14:06:00Z</time></trkpt><trkpt lat="45.58940893400876" lon="8.428245795787628"><ele>237.0</ele><time>2026-04-11T14:06:01Z</time></trkpt><trkpt lat="45.58958569134365" lon="8.428117418474248"><ele>237.0</ele><time>2026-04-11T14:06:02Z</time></trkpt><trkpt lat="45.58977297547153" lon="8.427980829136047"><ele>237.33333333333331</ele><time>2026-04-11T14:06:03Z</time></trkpt><trkpt lat="45.58995074285988" lon="8.427852441217205"><ele>237.66666666666666</ele><time>2026-04-11T14:06:04Z</time></trkpt><trkpt lat="45.59013189241175" lon="8.427721540245038"><ele>238.0</ele><time>2026-04-11T14:06:05Z</time></trkpt><trkpt lat="45.59031691639979" lon="8.427588984653031"><ele>238.0</ele><time>2026-04-11T14:06:06Z</time></trkpt><trkpt lat="45.59049447076721" lon="8.427455330256414"><ele>238.0</ele><time>2026-04-11T14:06:07Z</time></trkpt><trkpt lat="45.59066147033373" lon="8.427338276271227"><ele>238.0</ele><time>2026-04-11T14:06:08Z</time></trkpt><trkpt lat="45.59081671688587" lon="8.427231184657686"><ele>237.66666666666666</ele><time>2026-04-11T14:06:09Z</time></trkpt><trkpt lat="45.59096217120537" lon="8.42712001403618"><ele>237.33333333333331</ele><time>2026-04-11T14:06:10Z</time></trkpt><trkpt lat="45.59110231430127" lon="8.427024733047952"><ele>237.0</ele><time>2026-04-11T14:06:11Z</time></trkpt><trkpt lat="45.59122429653521" lon="8.426940482648037"><ele>237.0</ele><time>2026-04-11T14:06:12Z</time></trkpt><trkpt lat="45.59133864708209" lon="8.4268726069786"><ele>237.0</ele><time>2026-04-11T14:06:13Z</time></trkpt><trkpt lat="45.591454507425134" lon="8.426827785249285"><ele>237.0</ele><time>2026-04-11T14:06:14Z</time></trkpt><trkpt lat="45.59156532056612" lon="8.426844459059359"><ele>237.0</ele><time>2026-04-11T14:06:15Z</time></trkpt><trkpt lat="45.59168387179505" lon="8.426863862286211"><ele>237.0</ele><time>2026-04-11T14:06:16Z</time></trkpt><trkpt lat="45.5918040552482" lon="8.426808567087102"><ele>237.0</ele><time>2026-04-11T14:06:17Z</time></trkpt><trkpt lat="45.59193355769127" lon="8.426718283637314"><ele>237.0</ele><time>2026-04-11T14:06:18Z</time></trkpt><trkpt lat="45.59209160308004" lon="8.426677869214245"><ele>237.0</ele><time>2026-04-11T14:06:19Z</time></trkpt><trkpt lat="45.59226041388088" lon="8.426685010607914"><ele>237.33333333333331</ele><time>2026-04-11T14:06:20Z</time></trkpt><trkpt lat="45.59243277792599" lon="8.426693485346124"><ele>237.66666666666666</ele><time>2026-04-11T14:06:21Z</time></trkpt><trkpt lat="45.59260913234571" lon="8.426686176433728"><ele>238.0</ele><time>2026-04-11T14:06:22Z</time></trkpt><trkpt lat="45.5927873650049" lon="8.426679541793215"><ele>238.66666666666666</ele><time>2026-04-11T14:06:23Z</time></trkpt><trkpt lat="45.592964413477105" lon="8.42667403973174"><ele>239.33333333333331</ele><time>2026-04-11T14:06:24Z</time></trkpt><trkpt lat="45.5931373989341" lon="8.426669998473974"><ele>240.0</ele><time>2026-04-11T14:06:24.999Z</time></trkpt><trkpt lat="45.59331603004503" lon="8.426665234680586"><ele>240.0</ele><time>2026-04-11T14:06:25.999Z</time></trkpt><trkpt lat="45.59349573953043" lon="8.426656092363448"><ele>240.0</ele><time>2026-04-11T14:06:26.999Z</time></trkpt><trkpt lat="45.59367474678526" lon="8.426655102199009"><ele>240.0</ele><time>2026-04-11T14:06:27.999Z</time></trkpt><trkpt lat="45.593844916281505" lon="8.426653160252275"><ele>240.0</ele><time>2026-04-11T14:06:28.999Z</time></trkpt><trkpt lat="45.5940222285966" lon="8.426649583333354"><ele>240.0</ele><time>2026-04-11T14:06:29.999Z</time></trkpt><trkpt lat="45.59419843140937" lon="8.426645226434884"><ele>240.0</ele><time>2026-04-11T14:06:31Z</time></trkpt><trkpt lat="45.59437174467473" lon="8.426640849130953"><ele>240.33333333333331</ele><time>2026-04-11T14:06:32Z</time></trkpt><trkpt lat="45.594552700880094" lon="8.426631436511023"><ele>240.66666666666666</ele><time>2026-04-11T14:06:33Z</time></trkpt><trkpt lat="45.59472518345517" lon="8.426626129145573"><ele>241.0</ele><time>2026-04-11T14:06:34Z</time></trkpt><trkpt lat="45.59490311952354" lon="8.42662000930089"><ele>241.0</ele><time>2026-04-11T14:06:35Z</time></trkpt><trkpt lat="45.59507943090358" lon="8.42661641882093"><ele>241.0</ele><time>2026-04-11T14:06:36Z</time></trkpt><trkpt lat="45.59525589860047" lon="8.426610381606194"><ele>241.0</ele><time>2026-04-11T14:06:37Z</time></trkpt><trkpt lat="45.59541136270071" lon="8.426606731908192"><ele>241.75</ele><time>2026-04-11T14:06:38Z</time></trkpt><trkpt lat="45.595555985433386" lon="8.426601835220092"><ele>242.5</ele><time>2026-04-11T14:06:39Z</time></trkpt><trkpt lat="45.595692650033584" lon="8.426599911306239"><ele>243.25</ele><time>2026-04-11T14:06:40Z</time></trkpt><trkpt lat="45.595809326640705" lon="8.426605530645698"><ele>244.0</ele><time>2026-04-11T14:06:41Z</time></trkpt><trkpt lat="45.59591750830567" lon="8.426642881282884"><ele>244.0</ele><time>2026-04-11T14:06:42Z</time></trkpt><trkpt lat="45.59601247793438" lon="8.426707602862058"><ele>244.0</ele><time>2026-04-11T14:06:43Z</time></trkpt><trkpt lat="45.596110887214174" lon="8.426700535182503"><ele>244.0</ele><time>2026-04-11T14:06:44Z</time></trkpt><trkpt lat="45.59622370650532" lon="8.426611737969113"><ele>244.0</ele><time>2026-04-11T14:06:45Z</time></trkpt><trkpt lat="45.59636655075116" lon="8.426595661999729"><ele>244.0</ele><time>2026-04-11T14:06:46Z</time></trkpt><trkpt lat="45.59653103780322" lon="8.426590932177385"><ele>244.0</ele><time>2026-04-11T14:06:47Z</time></trkpt><trkpt lat="45.596721561424715" lon="8.426587777917181"><ele>244.0</ele><time>2026-04-11T14:06:48Z</time></trkpt><trkpt lat="45.59691944858457" lon="8.426578382411467"><ele>244.0</ele><time>2026-04-11T14:06:49Z</time></trkpt><trkpt lat="45.59712562381459" lon="8.426572349186376"><ele>244.0</ele><time>2026-04-11T14:06:50Z</time></trkpt><trkpt lat="45.597342238724174" lon="8.426567177934933"><ele>244.0</ele><time>2026-04-11T14:06:51Z</time></trkpt><trkpt lat="45.59756374690337" lon="8.426542726213778"><ele>244.0</ele><time>2026-04-11T14:06:52Z</time></trkpt><trkpt lat="45.59779510971729" lon="8.426506348931042"><ele>244.0</ele><time>2026-04-11T14:06:53Z</time></trkpt><trkpt lat="45.59802855191103" lon="8.426453109922557"><ele>246.0</ele><time>2026-04-11T14:06:54Z</time></trkpt><trkpt lat="45.59826138606432" lon="8.426389467195328"><ele>248.0</ele><time>2026-04-11T14:06:55Z</time></trkpt><trkpt lat="45.59849615280217" lon="8.426318563161987"><ele>248.0</ele><time>2026-04-11T14:06:56Z</time></trkpt><trkpt lat="45.598731516626394" lon="8.426238540107912"><ele>248.0</ele><time>2026-04-11T14:06:57Z</time></trkpt><trkpt lat="45.598963787911394" lon="8.42614608029864"><ele>248.0</ele><time>2026-04-11T14:06:58Z</time></trkpt><trkpt lat="45.59918679709323" lon="8.426045522102147"><ele>248.0</ele><time>2026-04-11T14:06:59Z</time></trkpt><trkpt lat="45.59940331196686" lon="8.425934831898896"><ele>249.5</ele><time>2026-04-11T14:07:00Z</time></trkpt><trkpt lat="45.59961410971065" lon="8.42581908827785"><ele>251.0</ele><time>2026-04-11T14:07:01Z</time></trkpt><trkpt lat="45.59982214492778" lon="8.425700659658881"><ele>251.0</ele><time>2026-04-11T14:07:02Z</time></trkpt><trkpt lat="45.60001159588571" lon="8.425577225924656"><ele>251.0</ele><time>2026-04-11T14:07:03Z</time></trkpt><trkpt lat="45.600186639286896" lon="8.425457613362823"><ele>251.0</ele><time>2026-04-11T14:07:04Z</time></trkpt><trkpt lat="45.60035623959007" lon="8.425334798324839"><ele>251.33333333333334</ele><time>2026-04-11T14:07:05Z</time></trkpt><trkpt lat="45.6005190086887" lon="8.42520918404695"><ele>251.66666666666669</ele><time>2026-04-11T14:07:06Z</time></trkpt><trkpt lat="45.600666076548215" lon="8.425082137992836"><ele>252.0</ele><time>2026-04-11T14:07:07Z</time></trkpt><trkpt lat="45.60080758450922" lon="8.42495331513709"><ele>252.0</ele><time>2026-04-11T14:07:08Z</time></trkpt><trkpt lat="45.60094852357723" lon="8.424822686844829"><ele>252.0</ele><time>2026-04-11T14:07:09Z</time></trkpt><trkpt lat="45.601097494602186" lon="8.424679834201685"><ele>252.0</ele><time>2026-04-11T14:07:10Z</time></trkpt><trkpt lat="45.60124400291206" lon="8.424543256895682"><ele>251.0</ele><time>2026-04-11T14:07:11Z</time></trkpt><trkpt lat="45.60138675662225" lon="8.424401890639448"><ele>250.0</ele><time>2026-04-11T14:07:12Z</time></trkpt><trkpt lat="45.6015327326112" lon="8.424259502599451"><ele>249.0</ele><time>2026-04-11T14:07:13Z</time></trkpt><trkpt lat="45.601677886049515" lon="8.424124035359037"><ele>249.0</ele><time>2026-04-11T14:07:14Z</time></trkpt><trkpt lat="45.60182287173367" lon="8.423987630985646"><ele>249.0</ele><time>2026-04-11T14:07:15Z</time></trkpt><trkpt lat="45.60196933141109" lon="8.423847387184592"><ele>249.0</ele><time>2026-04-11T14:07:16Z</time></trkpt><trkpt lat="45.60211455841541" lon="8.423710434050136"><ele>249.0</ele><time>2026-04-11T14:07:17Z</time></trkpt><trkpt lat="45.602260625278596" lon="8.423574643125544"><ele>249.0</ele><time>2026-04-11T14:07:18Z</time></trkpt><trkpt lat="45.6024117854504" lon="8.423435693661697"><ele>249.0</ele><time>2026-04-11T14:07:19Z</time></trkpt><trkpt lat="45.602553328476986" lon="8.42329933961944"><ele>249.0</ele><time>2026-04-11T14:07:20Z</time></trkpt><trkpt lat="45.60269475508896" lon="8.42316253117633"><ele>249.0</ele><time>2026-04-11T14:07:21Z</time></trkpt><trkpt lat="45.602841797181" lon="8.423024834768054"><ele>249.0</ele><time>2026-04-11T14:07:22Z</time></trkpt><trkpt lat="45.602993149978616" lon="8.42288838087827"><ele>249.0</ele><time>2026-04-11T14:07:23Z</time></trkpt><trkpt lat="45.60314124764493" lon="8.422751328122885"><ele>249.0</ele><time>2026-04-11T14:07:24Z</time></trkpt><trkpt lat="45.60329046273046" lon="8.422612133562648"><ele>249.0</ele><time>2026-04-11T14:07:25Z</time></trkpt><trkpt lat="45.60343059269873" lon="8.422474766358121"><ele>249.0</ele><time>2026-04-11T14:07:26Z</time></trkpt><trkpt lat="45.603567018271214" lon="8.422333034490498"><ele>249.0</ele><time>2026-04-11T14:07:27Z</time></trkpt><trkpt lat="45.60370396300577" lon="8.42218213427157"><ele>249.0</ele><time>2026-04-11T14:07:28Z</time></trkpt><trkpt lat="45.60383711998395" lon="8.422018989506658"><ele>249.0</ele><time>2026-04-11T14:07:29Z</time></trkpt><trkpt lat="45.60396641913799" lon="8.421852420807054"><ele>249.0</ele><time>2026-04-11T14:07:30Z</time></trkpt><trkpt lat="45.60409109436721" lon="8.421670266682133"><ele>249.0</ele><time>2026-04-11T14:07:31Z</time></trkpt><trkpt lat="45.60419937267881" lon="8.421482708598274"><ele>249.33333333333331</ele><time>2026-04-11T14:07:32Z</time></trkpt><trkpt lat="45.604309735316654" lon="8.421286295903839"><ele>249.66666666666666</ele><time>2026-04-11T14:07:33Z</time></trkpt><trkpt lat="45.60441271119256" lon="8.421080049653757"><ele>250.0</ele><time>2026-04-11T14:07:34Z</time></trkpt><trkpt lat="45.6044994543439" lon="8.420867411368256"><ele>250.0</ele><time>2026-04-11T14:07:35Z</time></trkpt><trkpt lat="45.60458868749886" lon="8.42064999242384"><ele>250.0</ele><time>2026-04-11T14:07:36Z</time></trkpt><trkpt lat="45.60466616039456" lon="8.420432234600701"><ele>250.0</ele><time>2026-04-11T14:07:37Z</time></trkpt><trkpt lat="45.60474895694349" lon="8.420204912357631"><ele>249.33333333333331</ele><time>2026-04-11T14:07:38Z</time></trkpt><trkpt lat="45.60482722378045" lon="8.419980630071803"><ele>248.66666666666669</ele><time>2026-04-11T14:07:39Z</time></trkpt><trkpt lat="45.60490700069996" lon="8.419757374558301"><ele>248.0</ele><time>2026-04-11T14:07:40Z</time></trkpt><trkpt lat="45.6049863915735" lon="8.4195344411773"><ele>247.66666666666669</ele><time>2026-04-11T14:07:41Z</time></trkpt><trkpt lat="45.60506364663069" lon="8.419313507038128"><ele>247.33333333333331</ele><time>2026-04-11T14:07:42Z</time></trkpt><trkpt lat="45.605141413346" lon="8.419089170707771"><ele>247.0</ele><time>2026-04-11T14:07:43Z</time></trkpt><trkpt lat="45.605216989857624" lon="8.418871006823984"><ele>247.0</ele><time>2026-04-11T14:07:44Z</time></trkpt><trkpt lat="45.60529874225636" lon="8.418647929271051"><ele>247.0</ele><time>2026-04-11T14:07:45Z</time></trkpt><trkpt lat="45.605378688003555" lon="8.418427013867955"><ele>247.0</ele><time>2026-04-11T14:07:46Z</time></trkpt><trkpt lat="45.60545815906167" lon="8.418204012279615"><ele>247.0</ele><time>2026-04-11T14:07:47Z</time></trkpt><trkpt lat="45.60553922053517" lon="8.417982898108693"><ele>247.0</ele><time>2026-04-11T14:07:48Z</time></trkpt><trkpt lat="45.605619291276874" lon="8.41775889069113"><ele>247.0</ele><time>2026-04-11T14:07:49Z</time></trkpt><trkpt lat="45.605695621458565" lon="8.417538145419007"><ele>247.0</ele><time>2026-04-11T14:07:50Z</time></trkpt><trkpt lat="45.60577397610633" lon="8.417313011361781"><ele>247.0</ele><time>2026-04-11T14:07:51Z</time></trkpt><trkpt lat="45.60585146274549" lon="8.417089818664255"><ele>247.0</ele><time>2026-04-11T14:07:52Z</time></trkpt><trkpt lat="45.60592943867698" lon="8.416868353834126"><ele>247.66666666666666</ele><time>2026-04-11T14:07:53Z</time></trkpt><trkpt lat="45.60600736367372" lon="8.416645648521536"><ele>248.33333333333331</ele><time>2026-04-11T14:07:54Z</time></trkpt><trkpt lat="45.606088162889684" lon="8.416425562793314"><ele>249.0</ele><time>2026-04-11T14:07:55Z</time></trkpt><trkpt lat="45.60615975313043" lon="8.416200358707336"><ele>249.0</ele><time>2026-04-11T14:07:56Z</time></trkpt><trkpt lat="45.606243526190134" lon="8.415980050327482"><ele>249.0</ele><time>2026-04-11T14:07:57Z</time></trkpt><trkpt lat="45.606321695542" lon="8.415753331751933"><ele>249.0</ele><time>2026-04-11T14:07:58Z</time></trkpt><trkpt lat="45.6063963355496" lon="8.415535723689661"><ele>249.0</ele><time>2026-04-11T14:07:59Z</time></trkpt><trkpt lat="45.60648486210135" lon="8.415308770569565"><ele>249.0</ele><time>2026-04-11T14:08:00Z</time></trkpt><trkpt lat="45.606563724220806" lon="8.415086548257925"><ele>249.0</ele><time>2026-04-11T14:08:01Z</time></trkpt><trkpt lat="45.60663438842333" lon="8.414865269245464"><ele>249.33333333333331</ele><time>2026-04-11T14:08:02Z</time></trkpt><trkpt lat="45.60671344296738" lon="8.41464276960386"><ele>249.66666666666666</ele><time>2026-04-11T14:08:03Z</time></trkpt><trkpt lat="45.60679318300354" lon="8.414422931162123"><ele>250.0</ele><time>2026-04-11T14:08:04Z</time></trkpt><trkpt lat="45.60686972411047" lon="8.414210072469588"><ele>250.0</ele><time>2026-04-11T14:08:05Z</time></trkpt><trkpt lat="45.606946830503674" lon="8.414021275681776"><ele>250.0</ele><time>2026-04-11T14:08:06Z</time></trkpt><trkpt lat="45.60702051507995" lon="8.413855914027172"><ele>250.0</ele><time>2026-04-11T14:08:07Z</time></trkpt><trkpt lat="45.607102132352104" lon="8.413715819148287"><ele>250.0</ele><time>2026-04-11T14:08:08Z</time></trkpt><trkpt lat="45.607199543142706" lon="8.413608308452028"><ele>250.4</ele><time>2026-04-11T14:08:09Z</time></trkpt><trkpt lat="45.607301776863515" lon="8.413530311182306"><ele>250.8</ele><time>2026-04-11T14:08:10Z</time></trkpt><trkpt lat="45.60740106535473" lon="8.413490752977392"><ele>251.2</ele><time>2026-04-11T14:08:11Z</time></trkpt><trkpt lat="45.60747307956648" lon="8.413393644497143"><ele>251.6</ele><time>2026-04-11T14:08:12Z</time></trkpt><trkpt lat="45.60749267492825" lon="8.413263425541947"><ele>252.0</ele><time>2026-04-11T14:08:13Z</time></trkpt><trkpt lat="45.60746193206985" lon="8.413112429624118"><ele>251.75</ele><time>2026-04-11T14:08:14Z</time></trkpt><trkpt lat="45.607435721109944" lon="8.412961392668262"><ele>251.5</ele><time>2026-04-11T14:08:15Z</time></trkpt><trkpt lat="45.60748043400623" lon="8.412795944020997"><ele>251.25</ele><time>2026-04-11T14:08:16Z</time></trkpt><trkpt lat="45.60758013559044" lon="8.412671669459824"><ele>251.0</ele><time>2026-04-11T14:08:17Z</time></trkpt><trkpt lat="45.607697938452766" lon="8.41257431744444"><ele>251.0</ele><time>2026-04-11T14:08:18Z</time></trkpt><trkpt lat="45.60782256296224" lon="8.41247481334075"><ele>251.0</ele><time>2026-04-11T14:08:19Z</time></trkpt><trkpt lat="45.60794903292843" lon="8.412372850484212"><ele>251.0</ele><time>2026-04-11T14:08:20Z</time></trkpt><trkpt lat="45.608055422594234" lon="8.412245385455133"><ele>251.0</ele><time>2026-04-11T14:08:21Z</time></trkpt><trkpt lat="45.60819540302585" lon="8.412127894899186"><ele>251.33333333333334</ele><time>2026-04-11T14:08:22Z</time></trkpt><trkpt lat="45.60833632207624" lon="8.412011718057721"><ele>251.66666666666669</ele><time>2026-04-11T14:08:23Z</time></trkpt><trkpt lat="45.60848175800694" lon="8.411895434572031"><ele>252.0</ele><time>2026-04-11T14:08:24Z</time></trkpt><trkpt lat="45.60862423475919" lon="8.411765905816392"><ele>251.33333333333331</ele><time>2026-04-11T14:08:25Z</time></trkpt><trkpt lat="45.60876957743991" lon="8.41163891509928"><ele>250.66666666666666</ele><time>2026-04-11T14:08:26Z</time></trkpt><trkpt lat="45.60891733916548" lon="8.411514096610974"><ele>250.0</ele><time>2026-04-11T14:08:27Z</time></trkpt><trkpt lat="45.60906225011449" lon="8.411377725128657"><ele>250.66666666666666</ele><time>2026-04-11T14:08:28Z</time></trkpt><trkpt lat="45.609212154062796" lon="8.411239528560168"><ele>251.33333333333331</ele><time>2026-04-11T14:08:29Z</time></trkpt><trkpt lat="45.60936320621534" lon="8.411094127025196"><ele>252.0</ele><time>2026-04-11T14:08:30Z</time></trkpt><trkpt lat="45.609513245063745" lon="8.410954737948964"><ele>252.0</ele><time>2026-04-11T14:08:30.999Z</time></trkpt><trkpt lat="45.609670089220536" lon="8.410814476803601"><ele>252.0</ele><time>2026-04-11T14:08:31.999Z</time></trkpt><trkpt lat="45.609820718352296" lon="8.410667692980985"><ele>252.0</ele><time>2026-04-11T14:08:32.999Z</time></trkpt><trkpt lat="45.609981934347665" lon="8.410549434431681"><ele>252.33333333333331</ele><time>2026-04-11T14:08:33.999Z</time></trkpt><trkpt lat="45.610131689171425" lon="8.410414414004881"><ele>252.66666666666666</ele><time>2026-04-11T14:08:34.999Z</time></trkpt><trkpt lat="45.610281512858876" lon="8.410279429804602"><ele>253.0</ele><time>2026-04-11T14:08:35.999Z</time></trkpt><trkpt lat="45.61042270005854" lon="8.41013015138293"><ele>253.66666666666666</ele><time>2026-04-11T14:08:36.999Z</time></trkpt><trkpt lat="45.610582759930274" lon="8.41001092130831"><ele>254.33333333333331</ele><time>2026-04-11T14:08:37.999Z</time></trkpt><trkpt lat="45.61071291281845" lon="8.409867186971349"><ele>255.0</ele><time>2026-04-11T14:08:38.999Z</time></trkpt><trkpt lat="45.61087343341362" lon="8.409731084093684"><ele>254.0</ele><time>2026-04-11T14:08:39.999Z</time></trkpt><trkpt lat="45.61102056000892" lon="8.409599793345171"><ele>253.0</ele><time>2026-04-11T14:08:40.999Z</time></trkpt><trkpt lat="45.61116903072542" lon="8.409464423662948"><ele>252.0</ele><time>2026-04-11T14:08:41.999Z</time></trkpt><trkpt lat="45.61131974516984" lon="8.409331525169877"><ele>252.0</ele><time>2026-04-11T14:08:42.999Z</time></trkpt><trkpt lat="45.611484940259054" lon="8.409189874389838"><ele>252.0</ele><time>2026-04-11T14:08:43.999Z</time></trkpt><trkpt lat="45.61164442615788" lon="8.409060674986724"><ele>252.0</ele><time>2026-04-11T14:08:45Z</time></trkpt><trkpt lat="45.61177284127703" lon="8.408929144841547"><ele>252.25</ele><time>2026-04-11T14:08:46Z</time></trkpt><trkpt lat="45.61189641592475" lon="8.40881626781522"><ele>252.5</ele><time>2026-04-11T14:08:47Z</time></trkpt><trkpt lat="45.61201078724655" lon="8.408716593172343"><ele>252.75</ele><time>2026-04-11T14:08:48Z</time></trkpt><trkpt lat="45.61212097621895" lon="8.408615697308978"><ele>253.0</ele><time>2026-04-11T14:08:49Z</time></trkpt><trkpt lat="45.612220631865355" lon="8.408520624702327"><ele>253.0</ele><time>2026-04-11T14:08:50Z</time></trkpt><trkpt lat="45.61231923696971" lon="8.408436988804903"><ele>253.0</ele><time>2026-04-11T14:08:51Z</time></trkpt><trkpt lat="45.61243265059907" lon="8.408389415983297"><ele>253.0</ele><time>2026-04-11T14:08:52Z</time></trkpt><trkpt lat="45.612555250375884" lon="8.408396078709366"><ele>253.0</ele><time>2026-04-11T14:08:53Z</time></trkpt><trkpt lat="45.612684928243475" lon="8.408448136386804"><ele>253.0</ele><time>2026-04-11T14:08:54Z</time></trkpt><trkpt lat="45.61281322160969" lon="8.408548999235293"><ele>253.0</ele><time>2026-04-11T14:08:55Z</time></trkpt><trkpt lat="45.61293323828493" lon="8.408718428246182"><ele>253.0</ele><time>2026-04-11T14:08:56Z</time></trkpt><trkpt lat="45.613042671717245" lon="8.408956123178793"><ele>253.0</ele><time>2026-04-11T14:08:57Z</time></trkpt><trkpt lat="45.613153489103084" lon="8.40925642106421"><ele>253.0</ele><time>2026-04-11T14:08:58Z</time></trkpt><trkpt lat="45.61328257038487" lon="8.409589852601824"><ele>252.5</ele><time>2026-04-11T14:08:59Z</time></trkpt><trkpt lat="45.61341096753677" lon="8.40994856137861"><ele>252.0</ele><time>2026-04-11T14:09:00Z</time></trkpt><trkpt lat="45.61354837148616" lon="8.410319400860892"><ele>254.0</ele><time>2026-04-11T14:09:01Z</time></trkpt><trkpt lat="45.6136860016572" lon="8.410691219505201"><ele>256.0</ele><time>2026-04-11T14:09:02Z</time></trkpt><trkpt lat="45.61379618030822" lon="8.411038688228924"><ele>255.5</ele><time>2026-04-11T14:09:03Z</time></trkpt><trkpt lat="45.61387840292213" lon="8.411369766815637"><ele>255.0</ele><time>2026-04-11T14:09:04Z</time></trkpt><trkpt lat="45.61393481394377" lon="8.411683636614104"><ele>255.0</ele><time>2026-04-11T14:09:05Z</time></trkpt><trkpt lat="45.61398554527925" lon="8.411984356188352"><ele>255.0</ele><time>2026-04-11T14:09:06Z</time></trkpt><trkpt lat="45.61404771410989" lon="8.412295312191786"><ele>255.0</ele><time>2026-04-11T14:09:07Z</time></trkpt><trkpt lat="45.61413399380456" lon="8.412591162930642"><ele>254.66666666666669</ele><time>2026-04-11T14:09:08Z</time></trkpt><trkpt lat="45.614251332882155" lon="8.412860613812942"><ele>254.33333333333334</ele><time>2026-04-11T14:09:09Z</time></trkpt><trkpt lat="45.6144075435386" lon="8.41307871999738"><ele>254.0</ele><time>2026-04-11T14:09:10Z</time></trkpt><trkpt lat="45.61456206129525" lon="8.413289088742008"><ele>255.33333333333334</ele><time>2026-04-11T14:09:11Z</time></trkpt><trkpt lat="45.61472819691508" lon="8.413478288508792"><ele>256.6666666666667</ele><time>2026-04-11T14:09:12Z</time></trkpt><trkpt lat="45.61490673344096" lon="8.413616473114264"><ele>258.0</ele><time>2026-04-11T14:09:13Z</time></trkpt><trkpt lat="45.61509328809296" lon="8.413722957531416"><ele>258.0</ele><time>2026-04-11T14:09:14Z</time></trkpt><trkpt lat="45.615290243415" lon="8.41379584422264"><ele>258.0</ele><time>2026-04-11T14:09:15Z</time></trkpt><trkpt lat="45.615493577765655" lon="8.413827848901308"><ele>258.0</ele><time>2026-04-11T14:09:16Z</time></trkpt><trkpt lat="45.615714173466415" lon="8.413810300626729"><ele>262.5</ele><time>2026-04-11T14:09:17Z</time></trkpt><trkpt lat="45.61596280430213" lon="8.413794844912104"><ele>267.0</ele><time>2026-04-11T14:09:18Z</time></trkpt><trkpt lat="45.61622003617568" lon="8.413719261176935"><ele>274.0</ele><time>2026-04-11T14:09:19Z</time></trkpt><trkpt lat="45.6164826679571" lon="8.41362686072794"><ele>281.0</ele><time>2026-04-11T14:09:20Z</time></trkpt><trkpt lat="45.61675149615142" lon="8.413550380233739"><ele>285.5</ele><time>2026-04-11T14:09:21Z</time></trkpt><trkpt lat="45.61701586145543" lon="8.413492598120843"><ele>290.0</ele><time>2026-04-11T14:09:22Z</time></trkpt><trkpt lat="45.61728990569083" lon="8.413465311871494"><ele>290.0</ele><time>2026-04-11T14:09:23Z</time></trkpt><trkpt lat="45.61757006183137" lon="8.413478109468173"><ele>290.0</ele><time>2026-04-11T14:09:24Z</time></trkpt><trkpt lat="45.61785476097364" lon="8.413512445035527"><ele>294.5</ele><time>2026-04-11T14:09:25Z</time></trkpt><trkpt lat="45.61813966495358" lon="8.413539062920874"><ele>299.0</ele><time>2026-04-11T14:09:26Z</time></trkpt><trkpt lat="45.61843114351482" lon="8.413594197677787"><ele>303.0</ele><time>2026-04-11T14:09:27Z</time></trkpt><trkpt lat="45.61872904583087" lon="8.413637799594156"><ele>307.0</ele><time>2026-04-11T14:09:28Z</time></trkpt><trkpt lat="45.61902421893965" lon="8.413674638603702"><ele>307.0</ele><time>2026-04-11T14:09:29Z</time></trkpt><trkpt lat="45.61931467417836" lon="8.413746131061316"><ele>307.0</ele><time>2026-04-11T14:09:30Z</time></trkpt><trkpt lat="45.61959990736192" lon="8.413800430035892"><ele>307.5</ele><time>2026-04-11T14:09:31Z</time></trkpt><trkpt lat="45.61988676198007" lon="8.413856215371563"><ele>308.0</ele><time>2026-04-11T14:09:32Z</time></trkpt><trkpt lat="45.620156666294015" lon="8.413972241882561"><ele>309.5</ele><time>2026-04-11T14:09:33Z</time></trkpt><trkpt lat="45.62042513553627" lon="8.41409907569447"><ele>311.0</ele><time>2026-04-11T14:09:34Z</time></trkpt><trkpt lat="45.620688446245175" lon="8.414239429972348"><ele>311.0</ele><time>2026-04-11T14:09:35Z</time></trkpt><trkpt lat="45.620953671406454" lon="8.414390509816457"><ele>311.0</ele><time>2026-04-11T14:09:36Z</time></trkpt><trkpt lat="45.62122109084729" lon="8.414533420572932"><ele>310.5</ele><time>2026-04-11T14:09:37Z</time></trkpt><trkpt lat="45.621489943852005" lon="8.414662634978551"><ele>310.0</ele><time>2026-04-11T14:09:38Z</time></trkpt><trkpt lat="45.62176631474476" lon="8.414754904067648"><ele>310.5</ele><time>2026-04-11T14:09:39Z</time></trkpt><trkpt lat="45.62205506208939" lon="8.414817778189539"><ele>311.0</ele><time>2026-04-11T14:09:40Z</time></trkpt><trkpt lat="45.622349818050736" lon="8.414848405608788"><ele>311.0</ele><time>2026-04-11T14:09:41Z</time></trkpt><trkpt lat="45.622647965060764" lon="8.414842953213462"><ele>311.0</ele><time>2026-04-11T14:09:42Z</time></trkpt><trkpt lat="45.622951305329856" lon="8.41480727017591"><ele>311.0</ele><time>2026-04-11T14:09:43Z</time></trkpt><trkpt lat="45.623258288852924" lon="8.414757906592483"><ele>311.0</ele><time>2026-04-11T14:09:44Z</time></trkpt><trkpt lat="45.623567598600715" lon="8.41468904387738"><ele>311.5</ele><time>2026-04-11T14:09:45Z</time></trkpt><trkpt lat="45.6238791610622" lon="8.414621250820144"><ele>312.0</ele><time>2026-04-11T14:09:46Z</time></trkpt><trkpt lat="45.624194032230115" lon="8.414559971894262"><ele>313.5</ele><time>2026-04-11T14:09:47Z</time></trkpt><trkpt lat="45.62451272373882" lon="8.414502340086027"><ele>315.0</ele><time>2026-04-11T14:09:48Z</time></trkpt><trkpt lat="45.62483078606997" lon="8.414443352831087"><ele>315.0</ele><time>2026-04-11T14:09:49Z</time></trkpt><trkpt lat="45.625149786967576" lon="8.414382571852972"><ele>315.0</ele><time>2026-04-11T14:09:50Z</time></trkpt><trkpt lat="45.62546615052264" lon="8.4143197752651"><ele>314.5</ele><time>2026-04-11T14:09:51Z</time></trkpt><trkpt lat="45.625783158513954" lon="8.41425637571109"><ele>314.0</ele><time>2026-04-11T14:09:52Z</time></trkpt><trkpt lat="45.626095078255965" lon="8.414179409405536"><ele>315.5</ele><time>2026-04-11T14:09:53Z</time></trkpt><trkpt lat="45.626401747037505" lon="8.414064376652911"><ele>317.0</ele><time>2026-04-11T14:09:54Z</time></trkpt><trkpt lat="45.62670351635747" lon="8.41390602978068"><ele>317.5</ele><time>2026-04-11T14:09:55Z</time></trkpt><trkpt lat="45.62699266869332" lon="8.413710614849712"><ele>318.0</ele><time>2026-04-11T14:09:56Z</time></trkpt><trkpt lat="45.62727480983539" lon="8.413483975807882"><ele>318.0</ele><time>2026-04-11T14:09:57Z</time></trkpt><trkpt lat="45.6275444302376" lon="8.413234489062567"><ele>318.0</ele><time>2026-04-11T14:09:58Z</time></trkpt><trkpt lat="45.62780621557161" lon="8.41295649782748"><ele>317.0</ele><time>2026-04-11T14:09:59Z</time></trkpt><trkpt lat="45.62805858462857" lon="8.412659391486129"><ele>316.0</ele><time>2026-04-11T14:10:00Z</time></trkpt><trkpt lat="45.62830471818296" lon="8.412351843076973"><ele>315.5</ele><time>2026-04-11T14:10:01Z</time></trkpt><trkpt lat="45.628550125758096" lon="8.412049334552425"><ele>315.0</ele><time>2026-04-11T14:10:02Z</time></trkpt><trkpt lat="45.62880353485057" lon="8.41175344525537"><ele>316.0</ele><time>2026-04-11T14:10:03Z</time></trkpt><trkpt lat="45.62906155874124" lon="8.411458925337552"><ele>317.0</ele><time>2026-04-11T14:10:04Z</time></trkpt><trkpt lat="45.62932044778488" lon="8.411161736038663"><ele>318.0</ele><time>2026-04-11T14:10:05Z</time></trkpt><trkpt lat="45.62957484167777" lon="8.410861006203511"><ele>319.0</ele><time>2026-04-11T14:10:06Z</time></trkpt><trkpt lat="45.629829884882504" lon="8.41055640035526"><ele>319.0</ele><time>2026-04-11T14:10:07Z</time></trkpt><trkpt lat="45.63008059341835" lon="8.410251662227939"><ele>319.0</ele><time>2026-04-11T14:10:08Z</time></trkpt><trkpt lat="45.63031382406244" lon="8.40997974820693"><ele>318.5</ele><time>2026-04-11T14:10:09Z</time></trkpt><trkpt lat="45.630530997363614" lon="8.409720887943584"><ele>318.0</ele><time>2026-04-11T14:10:10Z</time></trkpt><trkpt lat="45.6307370056006" lon="8.409476575924032"><ele>317.5</ele><time>2026-04-11T14:10:11Z</time></trkpt><trkpt lat="45.63093058630536" lon="8.409237441698238"><ele>317.0</ele><time>2026-04-11T14:10:12Z</time></trkpt><trkpt lat="45.631127222199815" lon="8.408995022219745"><ele>317.0</ele><time>2026-04-11T14:10:13Z</time></trkpt><trkpt lat="45.631324159609136" lon="8.408736102002818"><ele>317.0</ele><time>2026-04-11T14:10:14Z</time></trkpt><trkpt lat="45.631519913811964" lon="8.408457257775853"><ele>317.0</ele><time>2026-04-11T14:10:15Z</time></trkpt><trkpt lat="45.631717150756614" lon="8.408153394175738"><ele>317.0</ele><time>2026-04-11T14:10:16Z</time></trkpt><trkpt lat="45.631902028533155" lon="8.407846302197244"><ele>318.5</ele><time>2026-04-11T14:10:17Z</time></trkpt><trkpt lat="45.632084433770956" lon="8.407525817637014"><ele>320.0</ele><time>2026-04-11T14:10:18Z</time></trkpt><trkpt lat="45.632263230146066" lon="8.407196288066766"><ele>320.0</ele><time>2026-04-11T14:10:19Z</time></trkpt><trkpt lat="45.63243289723284" lon="8.406858366616047"><ele>320.0</ele><time>2026-04-11T14:10:20Z</time></trkpt><trkpt lat="45.632598847857984" lon="8.40651172346894"><ele>320.5</ele><time>2026-04-11T14:10:21Z</time></trkpt><trkpt lat="45.63277375648981" lon="8.40616671246466"><ele>321.0</ele><time>2026-04-11T14:10:22Z</time></trkpt><trkpt lat="45.632942967037735" lon="8.4058499683523"><ele>321.0</ele><time>2026-04-11T14:10:23Z</time></trkpt><trkpt lat="45.63309245514542" lon="8.405557245011247"><ele>321.0</ele><time>2026-04-11T14:10:24Z</time></trkpt><trkpt lat="45.63323006797727" lon="8.405286082400181"><ele>321.0</ele><time>2026-04-11T14:10:25Z</time></trkpt><trkpt lat="45.633352722244005" lon="8.405055233021118"><ele>321.0</ele><time>2026-04-11T14:10:26Z</time></trkpt><trkpt lat="45.63346619680437" lon="8.404831277886199"><ele>321.0</ele><time>2026-04-11T14:10:27Z</time></trkpt><trkpt lat="45.633572537393185" lon="8.404619238038448"><ele>321.3333333333333</ele><time>2026-04-11T14:10:28Z</time></trkpt><trkpt lat="45.63367068034906" lon="8.404416958907195"><ele>321.66666666666663</ele><time>2026-04-11T14:10:29Z</time></trkpt><trkpt lat="45.63376265475518" lon="8.404233038072597"><ele>322.0</ele><time>2026-04-11T14:10:30Z</time></trkpt><trkpt lat="45.6338539401808" lon="8.404055062242962"><ele>322.0</ele><time>2026-04-11T14:10:31Z</time></trkpt><trkpt lat="45.63394029586717" lon="8.403896459525441"><ele>322.0</ele><time>2026-04-11T14:10:32Z</time></trkpt><trkpt lat="45.63402429936878" lon="8.40374372523561"><ele>322.0</ele><time>2026-04-11T14:10:33Z</time></trkpt><trkpt lat="45.63410595251285" lon="8.40360116194998"><ele>322.0</ele><time>2026-04-11T14:10:34Z</time></trkpt><trkpt lat="45.63418630406751" lon="8.403466055263788"><ele>322.0</ele><time>2026-04-11T14:10:35Z</time></trkpt><trkpt lat="45.6342632945745" lon="8.403349540069593"><ele>322.0</ele><time>2026-04-11T14:10:36Z</time></trkpt><trkpt lat="45.634341861083165" lon="8.403237989512789"><ele>322.0</ele><time>2026-04-11T14:10:36.999Z</time></trkpt><trkpt lat="45.63441416213147" lon="8.403143246789396"><ele>322.0</ele><time>2026-04-11T14:10:37.999Z</time></trkpt><trkpt lat="45.634485977514316" lon="8.403063142525081"><ele>322.0</ele><time>2026-04-11T14:10:38.999Z</time></trkpt><trkpt lat="45.63456223672172" lon="8.403002045529588"><ele>322.40000000000003</ele><time>2026-04-11T14:10:39.999Z</time></trkpt><trkpt lat="45.6346492544626" lon="8.402978477036708"><ele>322.8</ele><time>2026-04-11T14:10:40.999Z</time></trkpt><trkpt lat="45.634738264909956" lon="8.402970559007052"><ele>323.2</ele><time>2026-04-11T14:10:41.999Z</time></trkpt><trkpt lat="45.63483242800221" lon="8.402924618861514"><ele>323.6</ele><time>2026-04-11T14:10:42.999Z</time></trkpt><trkpt lat="45.6349029574635" lon="8.402828968656895"><ele>324.0</ele><time>2026-04-11T14:10:43.999Z</time></trkpt><trkpt lat="45.63495108998365" lon="8.402708002128225"><ele>324.0</ele><time>2026-04-11T14:10:45Z</time></trkpt><trkpt lat="45.634994877559336" lon="8.4025910084918"><ele>324.0</ele><time>2026-04-11T14:10:46Z</time></trkpt><trkpt lat="45.63506761665312" lon="8.40247851797924"><ele>324.0</ele><time>2026-04-11T14:10:47Z</time></trkpt><trkpt lat="45.63518788842207" lon="8.402393601152419"><ele>324.0</ele><time>2026-04-11T14:10:48Z</time></trkpt><trkpt lat="45.63531693834098" lon="8.402313415760046"><ele>324.25</ele><time>2026-04-11T14:10:49Z</time></trkpt><trkpt lat="45.63543222691499" lon="8.40221870810096"><ele>324.5</ele><time>2026-04-11T14:10:50Z</time></trkpt><trkpt lat="45.635544520194834" lon="8.40215807464505"><ele>324.75</ele><time>2026-04-11T14:10:51Z</time></trkpt><trkpt lat="45.635644298747934" lon="8.402083102862912"><ele>325.0</ele><time>2026-04-11T14:10:52Z</time></trkpt><trkpt lat="45.635745215918604" lon="8.402013657256301"><ele>325.0</ele><time>2026-04-11T14:10:53Z</time></trkpt><trkpt lat="45.635861124003505" lon="8.401928939354024"><ele>325.0</ele><time>2026-04-11T14:10:54Z</time></trkpt><trkpt lat="45.63597722386426" lon="8.401798588196492"><ele>325.0</ele><time>2026-04-11T14:10:55Z</time></trkpt><trkpt lat="45.636096726558016" lon="8.40162882883471"><ele>325.0</ele><time>2026-04-11T14:10:56Z</time></trkpt><trkpt lat="45.636216436186075" lon="8.401420467660596"><ele>325.3333333333333</ele><time>2026-04-11T14:10:57Z</time></trkpt><trkpt lat="45.6363487880324" lon="8.401185745537529"><ele>325.6666666666667</ele><time>2026-04-11T14:10:58Z</time></trkpt><trkpt lat="45.636488059482886" lon="8.400938751701728"><ele>326.0</ele><time>2026-04-11T14:10:59Z</time></trkpt><trkpt lat="45.636634454877935" lon="8.40067912375808"><ele>326.5</ele><time>2026-04-11T14:11:00Z</time></trkpt><trkpt lat="45.63678996543414" lon="8.400403330345199"><ele>327.0</ele><time>2026-04-11T14:11:01Z</time></trkpt><trkpt lat="45.63694783253388" lon="8.400123357668486"><ele>327.0</ele><time>2026-04-11T14:11:02Z</time></trkpt><trkpt lat="45.63710949744234" lon="8.399836788266803"><ele>327.0</ele><time>2026-04-11T14:11:03Z</time></trkpt><trkpt lat="45.63726340451931" lon="8.399550927915762"><ele>327.0</ele><time>2026-04-11T14:11:04Z</time></trkpt><trkpt lat="45.637442509939625" lon="8.399250034886355"><ele>327.0</ele><time>2026-04-11T14:11:05Z</time></trkpt><trkpt lat="45.637610833383775" lon="8.39893042161436"><ele>327.0</ele><time>2026-04-11T14:11:06Z</time></trkpt><trkpt lat="45.637789916892956" lon="8.39861782026586"><ele>327.0</ele><time>2026-04-11T14:11:07Z</time></trkpt><trkpt lat="45.63796162649006" lon="8.398310613895731"><ele>327.0</ele><time>2026-04-11T14:11:08Z</time></trkpt><trkpt lat="45.63813036306866" lon="8.398013855665294"><ele>327.0</ele><time>2026-04-11T14:11:09Z</time></trkpt><trkpt lat="45.63829710212645" lon="8.39772053535246"><ele>327.0</ele><time>2026-04-11T14:11:10Z</time></trkpt><trkpt lat="45.63844917631292" lon="8.397467839936963"><ele>327.0</ele><time>2026-04-11T14:11:11Z</time></trkpt><trkpt lat="45.638602168207576" lon="8.39721181435059"><ele>329.0</ele><time>2026-04-11T14:11:12Z</time></trkpt><trkpt lat="45.6387698595866" lon="8.396962886408671"><ele>331.0</ele><time>2026-04-11T14:11:13Z</time></trkpt><trkpt lat="45.638956506745025" lon="8.396763367952428"><ele>331.0</ele><time>2026-04-11T14:11:14Z</time></trkpt><trkpt lat="45.639132688686644" lon="8.39659313499061"><ele>331.0</ele><time>2026-04-11T14:11:15Z</time></trkpt><trkpt lat="45.63930305077095" lon="8.396450933680029"><ele>331.0</ele><time>2026-04-11T14:11:16Z</time></trkpt><trkpt lat="45.63946832084944" lon="8.396343217465159"><ele>330.0</ele><time>2026-04-11T14:11:17Z</time></trkpt><trkpt lat="45.639633110136856" lon="8.39625834552496"><ele>329.0</ele><time>2026-04-11T14:11:18Z</time></trkpt><trkpt lat="45.639787523184026" lon="8.396183563835457"><ele>328.0</ele><time>2026-04-11T14:11:19Z</time></trkpt><trkpt lat="45.63994611174086" lon="8.39611084020367"><ele>328.0</ele><time>2026-04-11T14:11:20Z</time></trkpt><trkpt lat="45.640102903414586" lon="8.396016345564982"><ele>328.0</ele><time>2026-04-11T14:11:21Z</time></trkpt><trkpt lat="45.640264891665446" lon="8.395940687012022"><ele>328.0</ele><time>2026-04-11T14:11:22Z</time></trkpt><trkpt lat="45.640425493427934" lon="8.395844434291197"><ele>328.0</ele><time>2026-04-11T14:11:23Z</time></trkpt><trkpt lat="45.64058564284533" lon="8.395740474650932"><ele>328.0</ele><time>2026-04-11T14:11:24Z</time></trkpt><trkpt lat="45.64074250608943" lon="8.395620407496269"><ele>328.0</ele><time>2026-04-11T14:11:25Z</time></trkpt><trkpt lat="45.64089724466163" lon="8.395473681213295"><ele>328.0</ele><time>2026-04-11T14:11:26Z</time></trkpt><trkpt lat="45.641046418515074" lon="8.395302094490061"><ele>328.0</ele><time>2026-04-11T14:11:27Z</time></trkpt><trkpt lat="45.64118750920887" lon="8.395111339067563"><ele>328.0</ele><time>2026-04-11T14:11:28Z</time></trkpt><trkpt lat="45.641322298151344" lon="8.394896271680999"><ele>329.3333333333333</ele><time>2026-04-11T14:11:29Z</time></trkpt><trkpt lat="45.64144696786239" lon="8.394670912182816"><ele>330.6666666666667</ele><time>2026-04-11T14:11:30Z</time></trkpt><trkpt lat="45.641570226983504" lon="8.394438995924544"><ele>332.0</ele><time>2026-04-11T14:11:31Z</time></trkpt><trkpt lat="45.64169840074138" lon="8.394212975237492"><ele>332.0</ele><time>2026-04-11T14:11:32Z</time></trkpt><trkpt lat="45.64182657220201" lon="8.393992794008948"><ele>332.0</ele><time>2026-04-11T14:11:33Z</time></trkpt><trkpt lat="45.641953361910545" lon="8.39377055677627"><ele>332.0</ele><time>2026-04-11T14:11:34Z</time></trkpt><trkpt lat="45.6420806798251" lon="8.393540579278426"><ele>332.0</ele><time>2026-04-11T14:11:35Z</time></trkpt><trkpt lat="45.6421967382844" lon="8.393313305887398"><ele>332.0</ele><time>2026-04-11T14:11:36Z</time></trkpt><trkpt lat="45.64231642475509" lon="8.393087930434655"><ele>332.0</ele><time>2026-04-11T14:11:37Z</time></trkpt><trkpt lat="45.6424106934449" lon="8.392871044409588"><ele>332.33333333333337</ele><time>2026-04-11T14:11:38Z</time></trkpt><trkpt lat="45.642503440402024" lon="8.392639370170903"><ele>332.6666666666667</ele><time>2026-04-11T14:11:39Z</time></trkpt><trkpt lat="45.642594062743875" lon="8.39240568838673"><ele>333.0</ele><time>2026-04-11T14:11:40Z</time></trkpt><trkpt lat="45.64268410231917" lon="8.392190275637056"><ele>333.0</ele><time>2026-04-11T14:11:41Z</time></trkpt><trkpt lat="45.64276702051132" lon="8.39199611219788"><ele>333.0</ele><time>2026-04-11T14:11:42Z</time></trkpt><trkpt lat="45.64284432502387" lon="8.391815087016488"><ele>333.0</ele><time>2026-04-11T14:11:43Z</time></trkpt><trkpt lat="45.64292359104274" lon="8.391629375557807"><ele>333.0</ele><time>2026-04-11T14:11:44Z</time></trkpt><trkpt lat="45.642991341377716" lon="8.391460250110283"><ele>333.0</ele><time>2026-04-11T14:11:45Z</time></trkpt><trkpt lat="45.643051197562556" lon="8.391296127037826"><ele>333.0</ele><time>2026-04-11T14:11:46Z</time></trkpt><trkpt lat="45.64309414472786" lon="8.391124231220374"><ele>333.0</ele><time>2026-04-11T14:11:47Z</time></trkpt><trkpt lat="45.643156191297486" lon="8.390941083777102"><ele>333.0</ele><time>2026-04-11T14:11:48Z</time></trkpt><trkpt lat="45.64315067988267" lon="8.39071564950771"><ele>333.0</ele><time>2026-04-11T14:11:49Z</time></trkpt><trkpt lat="45.643151396578595" lon="8.390496542123255"><ele>333.0</ele><time>2026-04-11T14:11:50Z</time></trkpt><trkpt lat="45.6431327203614" lon="8.39027772244273"><ele>333.0</ele><time>2026-04-11T14:11:51Z</time></trkpt><trkpt lat="45.64310118123983" lon="8.390068406999012"><ele>333.0</ele><time>2026-04-11T14:11:52Z</time></trkpt><trkpt lat="45.64305579641559" lon="8.38989592593097"><ele>333.0</ele><time>2026-04-11T14:11:53Z</time></trkpt><trkpt lat="45.64299988485675" lon="8.389720389199883"><ele>333.0</ele><time>2026-04-11T14:11:54Z</time></trkpt><trkpt lat="45.642947593827" lon="8.389568215414231"><ele>333.0</ele><time>2026-04-11T14:11:55Z</time></trkpt><trkpt lat="45.642898393775" lon="8.389421399116957"><ele>333.0</ele><time>2026-04-11T14:11:56Z</time></trkpt><trkpt lat="45.64286976854511" lon="8.38929799044475"><ele>333.0</ele><time>2026-04-11T14:11:57Z</time></trkpt><trkpt lat="45.64286656616719" lon="8.389202092625936"><ele>333.0</ele><time>2026-04-11T14:11:58Z</time></trkpt><trkpt lat="45.64291127695686" lon="8.389077544762882"><ele>333.0</ele><time>2026-04-11T14:12:00Z</time></trkpt><trkpt lat="45.643012126374664" lon="8.388960613673033"><ele>333.0</ele><time>2026-04-11T14:12:02Z</time></trkpt><trkpt lat="45.643101085404545" lon="8.388918701970947"><ele>333.0</ele><time>2026-04-11T14:12:03Z</time></trkpt><trkpt lat="45.643194248614094" lon="8.388909619349473"><ele>333.0</ele><time>2026-04-11T14:12:04Z</time></trkpt><trkpt lat="45.64330586121675" lon="8.388951922488888"><ele>333.0</ele><time>2026-04-11T14:12:05Z</time></trkpt><trkpt lat="45.64340370383813" lon="8.38904038329847"><ele>333.0</ele><time>2026-04-11T14:12:06Z</time></trkpt><trkpt lat="45.643474864753586" lon="8.389133971328063"><ele>333.0</ele><time>2026-04-11T14:12:07Z</time></trkpt><trkpt lat="45.64356392818648" lon="8.389273251319294"><ele>333.0</ele><time>2026-04-11T14:12:08Z</time></trkpt><trkpt lat="45.643648643967396" lon="8.389439481144853"><ele>333.0</ele><time>2026-04-11T14:12:09Z</time></trkpt><trkpt lat="45.64374185670006" lon="8.389615543280842"><ele>333.0</ele><time>2026-04-11T14:12:10Z</time></trkpt><trkpt lat="45.64385882136488" lon="8.389797252705556"><ele>333.6666666666667</ele><time>2026-04-11T14:12:11Z</time></trkpt><trkpt lat="45.64397969514077" lon="8.38998751881452"><ele>334.33333333333337</ele><time>2026-04-11T14:12:12Z</time></trkpt><trkpt lat="45.64409998180379" lon="8.390181994883193"><ele>335.0</ele><time>2026-04-11T14:12:13Z</time></trkpt><trkpt lat="45.6442241663191" lon="8.390381317753969"><ele>335.0</ele><time>2026-04-11T14:12:14Z</time></trkpt><trkpt lat="45.644348427443376" lon="8.390584908222745"><ele>335.0</ele><time>2026-04-11T14:12:15Z</time></trkpt><trkpt lat="45.64447595178157" lon="8.390792912566804"><ele>335.0</ele><time>2026-04-11T14:12:16Z</time></trkpt><trkpt lat="45.64460435801384" lon="8.391004053596653"><ele>334.6666666666667</ele><time>2026-04-11T14:12:17Z</time></trkpt><trkpt lat="45.64473579850198" lon="8.39122377616906"><ele>334.3333333333333</ele><time>2026-04-11T14:12:18Z</time></trkpt><trkpt lat="45.64486657528774" lon="8.391441954036955"><ele>334.0</ele><time>2026-04-11T14:12:19Z</time></trkpt><trkpt lat="45.64500100138858" lon="8.391665095855771"><ele>334.0</ele><time>2026-04-11T14:12:20Z</time></trkpt><trkpt lat="45.64513674169933" lon="8.391888847378905"><ele>334.0</ele><time>2026-04-11T14:12:21Z</time></trkpt><trkpt lat="45.64527523448574" lon="8.392118319282018"><ele>334.0</ele><time>2026-04-11T14:12:22Z</time></trkpt><trkpt lat="45.64541250307758" lon="8.392346628512108"><ele>334.3333333333333</ele><time>2026-04-11T14:12:23Z</time></trkpt><trkpt lat="45.6455522010397" lon="8.392571160573981"><ele>334.6666666666667</ele><time>2026-04-11T14:12:24Z</time></trkpt><trkpt lat="45.64568651874862" lon="8.392788156819764"><ele>335.0</ele><time>2026-04-11T14:12:25Z</time></trkpt><trkpt lat="45.64582166508921" lon="8.393006797506725"><ele>335.0</ele><time>2026-04-11T14:12:26Z</time></trkpt><trkpt lat="45.64595365693349" lon="8.393217357493407"><ele>335.0</ele><time>2026-04-11T14:12:27Z</time></trkpt><trkpt lat="45.64608693129565" lon="8.39343054336765"><ele>335.0</ele><time>2026-04-11T14:12:28Z</time></trkpt><trkpt lat="45.64621727537583" lon="8.39364993665582"><ele>334.0</ele><time>2026-04-11T14:12:29Z</time></trkpt><trkpt lat="45.64634886562302" lon="8.393878171867426"><ele>333.0</ele><time>2026-04-11T14:12:30Z</time></trkpt><trkpt lat="45.64648584484756" lon="8.394104824926425"><ele>332.0</ele><time>2026-04-11T14:12:31Z</time></trkpt><trkpt lat="45.64662548666397" lon="8.394340352519098"><ele>332.0</ele><time>2026-04-11T14:12:32Z</time></trkpt><trkpt lat="45.64676786810638" lon="8.394571655884137"><ele>332.0</ele><time>2026-04-11T14:12:33Z</time></trkpt><trkpt lat="45.64690668096504" lon="8.394798548364289"><ele>332.0</ele><time>2026-04-11T14:12:34Z</time></trkpt><trkpt lat="45.64703936526267" lon="8.395016918167652"><ele>332.33333333333337</ele><time>2026-04-11T14:12:35Z</time></trkpt><trkpt lat="45.64716300295978" lon="8.395219275586875"><ele>332.6666666666667</ele><time>2026-04-11T14:12:36Z</time></trkpt><trkpt lat="45.647267131246274" lon="8.395400493182427"><ele>333.0</ele><time>2026-04-11T14:12:37Z</time></trkpt><trkpt lat="45.647361518403116" lon="8.395564612933473"><ele>332.0</ele><time>2026-04-11T14:12:38Z</time></trkpt><trkpt lat="45.64746824004264" lon="8.395740019341446"><ele>331.0</ele><time>2026-04-11T14:12:39Z</time></trkpt><trkpt lat="45.647582800464086" lon="8.395913491331159"><ele>330.0</ele><time>2026-04-11T14:12:40Z</time></trkpt><trkpt lat="45.64769401735507" lon="8.396082542473026"><ele>331.25</ele><time>2026-04-11T14:12:41Z</time></trkpt><trkpt lat="45.647795363617895" lon="8.396246597209716"><ele>332.5</ele><time>2026-04-11T14:12:42Z</time></trkpt><trkpt lat="45.6478757643169" lon="8.39639115121086"><ele>333.75</ele><time>2026-04-11T14:12:43Z</time></trkpt><trkpt lat="45.647942273525054" lon="8.396506873378852"><ele>335.0</ele><time>2026-04-11T14:12:44Z</time></trkpt><trkpt lat="45.6480123871908" lon="8.396621044844839"><ele>335.0</ele><time>2026-04-11T14:12:45Z</time></trkpt><trkpt lat="45.64807860270724" lon="8.396728803120828"><ele>335.0</ele><time>2026-04-11T14:12:46Z</time></trkpt><trkpt lat="45.64814797949241" lon="8.396842347492703"><ele>335.0</ele><time>2026-04-11T14:12:47Z</time></trkpt><trkpt lat="45.648226348263776" lon="8.396969098919378"><ele>335.0</ele><time>2026-04-11T14:12:48Z</time></trkpt><trkpt lat="45.64831367742652" lon="8.397109406618085"><ele>335.0</ele><time>2026-04-11T14:12:49Z</time></trkpt><trkpt lat="45.64840860344041" lon="8.397263459417735"><ele>335.0</ele><time>2026-04-11T14:12:50Z</time></trkpt><trkpt lat="45.64850263601448" lon="8.39741357662903"><ele>335.0</ele><time>2026-04-11T14:12:51Z</time></trkpt><trkpt lat="45.648612274540326" lon="8.397582819320695"><ele>335.0</ele><time>2026-04-11T14:12:52Z</time></trkpt><trkpt lat="45.64872984351592" lon="8.397769886284802"><ele>335.0</ele><time>2026-04-11T14:12:53Z</time></trkpt><trkpt lat="45.64885779065058" lon="8.39798511261036"><ele>335.0</ele><time>2026-04-11T14:12:54Z</time></trkpt><trkpt lat="45.64898994746781" lon="8.398219858806703"><ele>335.0</ele><time>2026-04-11T14:12:55Z</time></trkpt><trkpt lat="45.64912400267423" lon="8.398459325292576"><ele>335.33333333333337</ele><time>2026-04-11T14:12:56Z</time></trkpt><trkpt lat="45.64926461200199" lon="8.398694563901874"><ele>335.6666666666667</ele><time>2026-04-11T14:12:57Z</time></trkpt><trkpt lat="45.64940314557226" lon="8.398924302077868"><ele>336.0</ele><time>2026-04-11T14:12:58Z</time></trkpt><trkpt lat="45.64954572203646" lon="8.399158148794196"><ele>336.0</ele><time>2026-04-11T14:12:59Z</time></trkpt><trkpt lat="45.64968657788081" lon="8.399388657183398"><ele>336.0</ele><time>2026-04-11T14:13:00Z</time></trkpt><trkpt lat="45.64982321958285" lon="8.399610196361929"><ele>336.0</ele><time>2026-04-11T14:13:01Z</time></trkpt><trkpt lat="45.64996146317696" lon="8.399833885578074"><ele>335.6666666666667</ele><time>2026-04-11T14:13:02Z</time></trkpt><trkpt lat="45.65010340928691" lon="8.400070951615056"><ele>335.33333333333337</ele><time>2026-04-11T14:13:03Z</time></trkpt><trkpt lat="45.650239584112406" lon="8.400300436167745"><ele>335.0</ele><time>2026-04-11T14:13:04Z</time></trkpt><trkpt lat="45.65037991858357" lon="8.400533434064124"><ele>336.6666666666667</ele><time>2026-04-11T14:13:05Z</time></trkpt><trkpt lat="45.650524536842475" lon="8.40075529284114"><ele>338.3333333333333</ele><time>2026-04-11T14:13:06Z</time></trkpt><trkpt lat="45.65067460499015" lon="8.400988298071601"><ele>340.0</ele><time>2026-04-11T14:13:07Z</time></trkpt><trkpt lat="45.650814601606385" lon="8.401231087728945"><ele>338.66666666666663</ele><time>2026-04-11T14:13:08Z</time></trkpt><trkpt lat="45.6509630433072" lon="8.40147098927719"><ele>337.3333333333333</ele><time>2026-04-11T14:13:09Z</time></trkpt><trkpt lat="45.65110935837959" lon="8.401712532585988"><ele>336.0</ele><time>2026-04-11T14:13:10Z</time></trkpt><trkpt lat="45.65125406743274" lon="8.40194876809619"><ele>337.3333333333333</ele><time>2026-04-11T14:13:11Z</time></trkpt><trkpt lat="45.651401069906754" lon="8.40218624443788"><ele>338.66666666666663</ele><time>2026-04-11T14:13:12Z</time></trkpt><trkpt lat="45.65153960826929" lon="8.402415723619724"><ele>340.0</ele><time>2026-04-11T14:13:13Z</time></trkpt><trkpt lat="45.65168382278948" lon="8.402652134878483"><ele>340.0</ele><time>2026-04-11T14:13:14Z</time></trkpt><trkpt lat="45.65182764999122" lon="8.402888256854078"><ele>340.0</ele><time>2026-04-11T14:13:15Z</time></trkpt><trkpt lat="45.65197570056791" lon="8.40313334802446"><ele>340.0</ele><time>2026-04-11T14:13:16Z</time></trkpt><trkpt lat="45.65211569345186" lon="8.403360035337647"><ele>342.0</ele><time>2026-04-11T14:13:17Z</time></trkpt><trkpt lat="45.65223823214389" lon="8.403560700759542"><ele>344.0</ele><time>2026-04-11T14:13:18Z</time></trkpt><trkpt lat="45.65233739595224" lon="8.403721307858415"><ele>346.0</ele><time>2026-04-11T14:13:19Z</time></trkpt><trkpt lat="45.652426982973125" lon="8.40387308056469"><ele>346.0</ele><time>2026-04-11T14:13:20Z</time></trkpt><trkpt lat="45.65251896065773" lon="8.40402401611734"><ele>346.0</ele><time>2026-04-11T14:13:21Z</time></trkpt><trkpt lat="45.65261732998513" lon="8.404181284515909"><ele>346.0</ele><time>2026-04-11T14:13:22Z</time></trkpt><trkpt lat="45.6527240670143" lon="8.404348066288717"><ele>346.0</ele><time>2026-04-11T14:13:23Z</time></trkpt><trkpt lat="45.65283938571802" lon="8.40452623599152"><ele>345.66666666666663</ele><time>2026-04-11T14:13:24Z</time></trkpt><trkpt lat="45.652982859104114" lon="8.404741784517531"><ele>345.3333333333333</ele><time>2026-04-11T14:13:25Z</time></trkpt><trkpt lat="45.65312882744691" lon="8.404992158037727"><ele>345.0</ele><time>2026-04-11T14:13:26Z</time></trkpt><trkpt lat="45.65327598424642" lon="8.40525483493769"><ele>345.5</ele><time>2026-04-11T14:13:27Z</time></trkpt><trkpt lat="45.65342353809783" lon="8.40551457112486"><ele>346.0</ele><time>2026-04-11T14:13:28Z</time></trkpt><trkpt lat="45.65357922919567" lon="8.405781549892907"><ele>346.0</ele><time>2026-04-11T14:13:29Z</time></trkpt><trkpt lat="45.65374178307262" lon="8.4060444380094"><ele>346.0</ele><time>2026-04-11T14:13:30Z</time></trkpt><trkpt lat="45.65389974886477" lon="8.406308053855726"><ele>346.5</ele><time>2026-04-11T14:13:31Z</time></trkpt><trkpt lat="45.654031827795315" lon="8.406568200371957"><ele>347.0</ele><time>2026-04-11T14:13:32Z</time></trkpt><trkpt lat="45.654150682723184" lon="8.406844485898784"><ele>347.0</ele><time>2026-04-11T14:13:33Z</time></trkpt><trkpt lat="45.6542474808457" lon="8.40714676561927"><ele>347.0</ele><time>2026-04-11T14:13:34Z</time></trkpt><trkpt lat="45.6543235707644" lon="8.407466078745168"><ele>346.0</ele><time>2026-04-11T14:13:35Z</time></trkpt><trkpt lat="45.65436434028762" lon="8.407799622844584"><ele>345.0</ele><time>2026-04-11T14:13:36Z</time></trkpt><trkpt lat="45.65438761521815" lon="8.408140696661919"><ele>344.0</ele><time>2026-04-11T14:13:37Z</time></trkpt><trkpt lat="45.654387673532675" lon="8.408475214383447"><ele>343.0</ele><time>2026-04-11T14:13:38Z</time></trkpt><trkpt lat="45.65436346890211" lon="8.408816882200966"><ele>341.0</ele><time>2026-04-11T14:13:39Z</time></trkpt><trkpt lat="45.654316168646304" lon="8.409152901247763"><ele>339.0</ele><time>2026-04-11T14:13:40Z</time></trkpt><trkpt lat="45.654248731063205" lon="8.409482237193979"><ele>335.0</ele><time>2026-04-11T14:13:41Z</time></trkpt><trkpt lat="45.654168916894605" lon="8.409822674122063"><ele>331.0</ele><time>2026-04-11T14:13:42Z</time></trkpt><trkpt lat="45.654080128135256" lon="8.410175452542257"><ele>330.0</ele><time>2026-04-11T14:13:43Z</time></trkpt><trkpt lat="45.65398985037782" lon="8.410533167612464"><ele>329.0</ele><time>2026-04-11T14:13:44Z</time></trkpt><trkpt lat="45.65390635365191" lon="8.410915491565644"><ele>329.0</ele><time>2026-04-11T14:13:45Z</time></trkpt><trkpt lat="45.65382559518719" lon="8.411287059728016"><ele>329.0</ele><time>2026-04-11T14:13:46Z</time></trkpt><trkpt lat="45.65374518847024" lon="8.411632161267347"><ele>329.33333333333337</ele><time>2026-04-11T14:13:47Z</time></trkpt><trkpt lat="45.653664053969266" lon="8.41193335130973"><ele>329.6666666666667</ele><time>2026-04-11T14:13:48Z</time></trkpt><trkpt lat="45.65358717844766" lon="8.412212958408196"><ele>330.0</ele><time>2026-04-11T14:13:49Z</time></trkpt><trkpt lat="45.65351707340991" lon="8.412492036917968"><ele>330.5</ele><time>2026-04-11T14:13:50Z</time></trkpt><trkpt lat="45.653453835877514" lon="8.41279869264245"><ele>331.0</ele><time>2026-04-11T14:13:51Z</time></trkpt><trkpt lat="45.653391899171545" lon="8.413115442702"><ele>333.0</ele><time>2026-04-11T14:13:52Z</time></trkpt><trkpt lat="45.65334648759482" lon="8.413426533745882"><ele>335.0</ele><time>2026-04-11T14:13:53Z</time></trkpt><trkpt lat="45.65332363130836" lon="8.413700097620344"><ele>337.0</ele><time>2026-04-11T14:13:54Z</time></trkpt><trkpt lat="45.65332086837692" lon="8.413958356972948"><ele>337.66666666666663</ele><time>2026-04-11T14:13:55Z</time></trkpt><trkpt lat="45.65334464887363" lon="8.41421384743346"><ele>338.3333333333333</ele><time>2026-04-11T14:13:56Z</time></trkpt><trkpt lat="45.65338362862452" lon="8.414468519359035"><ele>339.0</ele><time>2026-04-11T14:13:57Z</time></trkpt><trkpt lat="45.65343408389308" lon="8.41471952704217"><ele>339.0</ele><time>2026-04-11T14:13:58Z</time></trkpt><trkpt lat="45.65349983586986" lon="8.414978287097716"><ele>339.0</ele><time>2026-04-11T14:13:59Z</time></trkpt><trkpt lat="45.653591333816394" lon="8.415263364755447"><ele>339.0</ele><time>2026-04-11T14:14:00Z</time></trkpt><trkpt lat="45.653694549143104" lon="8.415568077447839"><ele>340.0</ele><time>2026-04-11T14:14:01Z</time></trkpt><trkpt lat="45.653790458305345" lon="8.415892612112412"><ele>341.0</ele><time>2026-04-11T14:14:02Z</time></trkpt><trkpt lat="45.65387457273755" lon="8.416223575941443"><ele>340.0</ele><time>2026-04-11T14:14:03Z</time></trkpt><trkpt lat="45.653963945577885" lon="8.41656865738861"><ele>339.0</ele><time>2026-04-11T14:14:04Z</time></trkpt><trkpt lat="45.654061984970845" lon="8.416913033242736"><ele>339.0</ele><time>2026-04-11T14:14:05Z</time></trkpt><trkpt lat="45.654162789594" lon="8.417253357483043"><ele>339.0</ele><time>2026-04-11T14:14:06Z</time></trkpt><trkpt lat="45.65426197868553" lon="8.417591300399332"><ele>339.0</ele><time>2026-04-11T14:14:07Z</time></trkpt><trkpt lat="45.65436123445225" lon="8.417926058033602"><ele>339.0</ele><time>2026-04-11T14:14:08Z</time></trkpt><trkpt lat="45.65446071712876" lon="8.418254587211715"><ele>339.0</ele><time>2026-04-11T14:14:09Z</time></trkpt><trkpt lat="45.65456379366749" lon="8.418581291599539"><ele>339.0</ele><time>2026-04-11T14:14:10Z</time></trkpt><trkpt lat="45.6546633214719" lon="8.418912159126217"><ele>339.0</ele><time>2026-04-11T14:14:11Z</time></trkpt><trkpt lat="45.65475612744912" lon="8.419233322688655"><ele>339.0</ele><time>2026-04-11T14:14:12Z</time></trkpt><trkpt lat="45.65483813820617" lon="8.419531556926026"><ele>340.0</ele><time>2026-04-11T14:14:13Z</time></trkpt><trkpt lat="45.65492432983023" lon="8.419825368817047"><ele>341.0</ele><time>2026-04-11T14:14:14Z</time></trkpt><trkpt lat="45.65501832967758" lon="8.420134080294028"><ele>341.0</ele><time>2026-04-11T14:14:15Z</time></trkpt><trkpt lat="45.65511078586506" lon="8.420446668841675"><ele>341.0</ele><time>2026-04-11T14:14:16Z</time></trkpt><trkpt lat="45.65520746205334" lon="8.420770067321621"><ele>341.0</ele><time>2026-04-11T14:14:17Z</time></trkpt><trkpt lat="45.65530409954384" lon="8.42109293991199"><ele>341.0</ele><time>2026-04-11T14:14:18Z</time></trkpt><trkpt lat="45.65540271033992" lon="8.421414435860811"><ele>341.0</ele><time>2026-04-11T14:14:19Z</time></trkpt><trkpt lat="45.65548985983248" lon="8.42170310661634"><ele>341.0</ele><time>2026-04-11T14:14:20Z</time></trkpt><trkpt lat="45.65557539363815" lon="8.421984023634073"><ele>341.0</ele><time>2026-04-11T14:14:21Z</time></trkpt><trkpt lat="45.65566428168848" lon="8.42226676251886"><ele>341.33333333333337</ele><time>2026-04-11T14:14:22Z</time></trkpt><trkpt lat="45.65574270684434" lon="8.422525711920404"><ele>341.6666666666667</ele><time>2026-04-11T14:14:23Z</time></trkpt><trkpt lat="45.65581765870235" lon="8.422779663392769"><ele>342.0</ele><time>2026-04-11T14:14:24Z</time></trkpt><trkpt lat="45.655895683171515" lon="8.423038984440497"><ele>342.0</ele><time>2026-04-11T14:14:25Z</time></trkpt><trkpt lat="45.65598225115932" lon="8.423313936763671"><ele>342.0</ele><time>2026-04-11T14:14:26Z</time></trkpt><trkpt lat="45.6560740931189" lon="8.423592710750487"><ele>342.0</ele><time>2026-04-11T14:14:27Z</time></trkpt><trkpt lat="45.65616640420408" lon="8.423889390900083"><ele>342.5</ele><time>2026-04-11T14:14:28Z</time></trkpt><trkpt lat="45.65625274044592" lon="8.424200461064467"><ele>343.0</ele><time>2026-04-11T14:14:29Z</time></trkpt><trkpt lat="45.656348529723296" lon="8.424522103028833"><ele>342.5</ele><time>2026-04-11T14:14:30Z</time></trkpt><trkpt lat="45.65644564995542" lon="8.424855070461403"><ele>342.0</ele><time>2026-04-11T14:14:31Z</time></trkpt><trkpt lat="45.65653548760879" lon="8.425204567601092"><ele>341.5</ele><time>2026-04-11T14:14:32Z</time></trkpt><trkpt lat="45.656623662880975" lon="8.425539825113898"><ele>341.0</ele><time>2026-04-11T14:14:33Z</time></trkpt><trkpt lat="45.65671693223415" lon="8.425870686049652"><ele>341.0</ele><time>2026-04-11T14:14:34Z</time></trkpt><trkpt lat="45.65681187665612" lon="8.42616295042098"><ele>341.0</ele><time>2026-04-11T14:14:35Z</time></trkpt><trkpt lat="45.6569001783327" lon="8.426489986723787"><ele>341.6666666666667</ele><time>2026-04-11T14:14:36Z</time></trkpt><trkpt lat="45.65696961116783" lon="8.426741940197843"><ele>342.3333333333333</ele><time>2026-04-11T14:14:37Z</time></trkpt><trkpt lat="45.65702863964165" lon="8.426953064188123"><ele>343.0</ele><time>2026-04-11T14:14:38Z</time></trkpt><trkpt lat="45.65708110015379" lon="8.42714056505617"><ele>343.66666666666663</ele><time>2026-04-11T14:14:39Z</time></trkpt><trkpt lat="45.6571348384614" lon="8.427336705242297"><ele>344.3333333333333</ele><time>2026-04-11T14:14:40Z</time></trkpt><trkpt lat="45.65720347389301" lon="8.42754542631108"><ele>345.0</ele><time>2026-04-11T14:14:41Z</time></trkpt><trkpt lat="45.65728163669527" lon="8.42775468224509"><ele>344.3333333333333</ele><time>2026-04-11T14:14:42Z</time></trkpt><trkpt lat="45.65737111324005" lon="8.428051813412507"><ele>343.66666666666663</ele><time>2026-04-11T14:14:43Z</time></trkpt><trkpt lat="45.657451744960426" lon="8.42833008916177"><ele>343.0</ele><time>2026-04-11T14:14:44Z</time></trkpt><trkpt lat="45.657534353527794" lon="8.428618780818965"><ele>342.0</ele><time>2026-04-11T14:14:45Z</time></trkpt><trkpt lat="45.65762460428507" lon="8.428927097073107"><ele>341.0</ele><time>2026-04-11T14:14:46Z</time></trkpt><trkpt lat="45.65771673390142" lon="8.429245270036011"><ele>341.5</ele><time>2026-04-11T14:14:47Z</time></trkpt><trkpt lat="45.65781783854843" lon="8.42957578740234"><ele>342.0</ele><time>2026-04-11T14:14:48Z</time></trkpt><trkpt lat="45.657919576026956" lon="8.42990693516195"><ele>342.0</ele><time>2026-04-11T14:14:49Z</time></trkpt><trkpt lat="45.65802172831968" lon="8.43024314390871"><ele>342.0</ele><time>2026-04-11T14:14:50Z</time></trkpt><trkpt lat="45.65812469704313" lon="8.430591717505411"><ele>342.0</ele><time>2026-04-11T14:14:51Z</time></trkpt><trkpt lat="45.65822628949009" lon="8.43094601753657"><ele>342.0</ele><time>2026-04-11T14:14:52Z</time></trkpt><trkpt lat="45.65833178485369" lon="8.43129973139544"><ele>342.0</ele><time>2026-04-11T14:14:53Z</time></trkpt><trkpt lat="45.65844543608566" lon="8.431652633571094"><ele>342.0</ele><time>2026-04-11T14:14:54Z</time></trkpt><trkpt lat="45.658579204931826" lon="8.431993613668405"><ele>343.0</ele><time>2026-04-11T14:14:55Z</time></trkpt><trkpt lat="45.658734999180275" lon="8.432308947801866"><ele>344.0</ele><time>2026-04-11T14:14:56Z</time></trkpt><trkpt lat="45.65891191626888" lon="8.432618259430882"><ele>344.0</ele><time>2026-04-11T14:14:57Z</time></trkpt><trkpt lat="45.6590995629462" lon="8.432914580774076"><ele>344.0</ele><time>2026-04-11T14:14:58Z</time></trkpt><trkpt lat="45.659292304981435" lon="8.433204819242368"><ele>344.0</ele><time>2026-04-11T14:14:59Z</time></trkpt><trkpt lat="45.65948568618958" lon="8.433505434494375"><ele>344.0</ele><time>2026-04-11T14:15:00Z</time></trkpt><trkpt lat="45.659676076779" lon="8.433816322305763"><ele>344.0</ele><time>2026-04-11T14:15:01Z</time></trkpt><trkpt lat="45.659867800366165" lon="8.434130351994677"><ele>344.0</ele><time>2026-04-11T14:15:02Z</time></trkpt><trkpt lat="45.66005227620652" lon="8.4344380865062"><ele>344.0</ele><time>2026-04-11T14:15:03Z</time></trkpt><trkpt lat="45.66021469911911" lon="8.434710282541467"><ele>344.0</ele><time>2026-04-11T14:15:04Z</time></trkpt><trkpt lat="45.66037275542487" lon="8.434976059022484"><ele>343.5</ele><time>2026-04-11T14:15:05Z</time></trkpt><trkpt lat="45.66051668772576" lon="8.43521823598208"><ele>343.0</ele><time>2026-04-11T14:15:06Z</time></trkpt><trkpt lat="45.660669451973675" lon="8.435473733743898"><ele>344.5</ele><time>2026-04-11T14:15:07Z</time></trkpt><trkpt lat="45.660821909927" lon="8.435728593051833"><ele>346.0</ele><time>2026-04-11T14:15:08Z</time></trkpt><trkpt lat="45.660962730308775" lon="8.435967387628079"><ele>346.0</ele><time>2026-04-11T14:15:09Z</time></trkpt><trkpt lat="45.66109241431774" lon="8.436190639727789"><ele>346.0</ele><time>2026-04-11T14:15:10Z</time></trkpt><trkpt lat="45.66121679837203" lon="8.436399512726322"><ele>346.0</ele><time>2026-04-11T14:15:11Z</time></trkpt><trkpt lat="45.66134416501826" lon="8.436613504768493"><ele>346.0</ele><time>2026-04-11T14:15:12Z</time></trkpt><trkpt lat="45.6614770665658" lon="8.436831977968028"><ele>346.0</ele><time>2026-04-11T14:15:13Z</time></trkpt><trkpt lat="45.661616928675585" lon="8.437058450993936"><ele>346.0</ele><time>2026-04-11T14:15:14Z</time></trkpt><trkpt lat="45.66175259625052" lon="8.437270531888744"><ele>346.66666666666663</ele><time>2026-04-11T14:15:15Z</time></trkpt><trkpt lat="45.66189554625429" lon="8.437486332496066"><ele>347.3333333333333</ele><time>2026-04-11T14:15:16Z</time></trkpt><trkpt lat="45.66204208542741" lon="8.437713209844139"><ele>348.0</ele><time>2026-04-11T14:15:17Z</time></trkpt><trkpt lat="45.66218699431315" lon="8.437936029140028"><ele>348.3333333333333</ele><time>2026-04-11T14:15:18Z</time></trkpt><trkpt lat="45.66232564134511" lon="8.438165670361311"><ele>348.66666666666663</ele><time>2026-04-11T14:15:19Z</time></trkpt><trkpt lat="45.662473842839596" lon="8.438410733863195"><ele>349.0</ele><time>2026-04-11T14:15:20Z</time></trkpt><trkpt lat="45.66261749253822" lon="8.438645688444007"><ele>349.0</ele><time>2026-04-11T14:15:21Z</time></trkpt><trkpt lat="45.662764576772354" lon="8.438878869779202"><ele>349.0</ele><time>2026-04-11T14:15:22Z</time></trkpt><trkpt lat="45.66291187744114" lon="8.43911755222032"><ele>349.0</ele><time>2026-04-11T14:15:23Z</time></trkpt><trkpt lat="45.66305157187998" lon="8.43934977136905"><ele>349.0</ele><time>2026-04-11T14:15:24Z</time></trkpt><trkpt lat="45.663182719732944" lon="8.43957841653429"><ele>349.0</ele><time>2026-04-11T14:15:25Z</time></trkpt><trkpt lat="45.66329349738693" lon="8.439766963992467"><ele>349.0</ele><time>2026-04-11T14:15:26Z</time></trkpt><trkpt lat="45.663390564046125" lon="8.439913740576593"><ele>349.0</ele><time>2026-04-11T14:15:27Z</time></trkpt><trkpt lat="45.66345809817843" lon="8.440024527004486"><ele>349.0</ele><time>2026-04-11T14:15:28Z</time></trkpt><trkpt lat="45.663510847112946" lon="8.440118961824064"><ele>349.0</ele><time>2026-04-11T14:15:29Z</time></trkpt><trkpt lat="45.663551415602996" lon="8.440190547627415"><ele>349.0</ele><time>2026-04-11T14:15:30Z</time></trkpt><trkpt lat="45.66359385438316" lon="8.440265147740302"><ele>349.0</ele><time>2026-04-11T14:15:31Z</time></trkpt><trkpt lat="45.66363395415408" lon="8.440335579495466"><ele>349.0</ele><time>2026-04-11T14:15:32Z</time></trkpt><trkpt lat="45.663708252071466" lon="8.44045395544344"><ele>348.85714285714283</ele><time>2026-04-11T14:15:34Z</time></trkpt><trkpt lat="45.6637631638714" lon="8.44053593291139"><ele>348.7142857142857</ele><time>2026-04-11T14:15:38Z</time></trkpt><trkpt lat="45.663817205180315" lon="8.440598050800878"><ele>348.57142857142856</ele><time>2026-04-11T14:15:40Z</time></trkpt><trkpt lat="45.663859058624055" lon="8.440666364325732"><ele>348.42857142857144</ele><time>2026-04-11T14:15:42Z</time></trkpt><trkpt lat="45.66389962262162" lon="8.440740954677539"><ele>348.2857142857143</ele><time>2026-04-11T14:15:44Z</time></trkpt><trkpt lat="45.663949688560436" lon="8.440824786991652"><ele>348.1428571428571</ele><time>2026-04-11T14:15:46Z</time></trkpt><trkpt lat="45.66400814173947" lon="8.440910090119793"><ele>348.0</ele><time>2026-04-11T14:15:48Z</time></trkpt><trkpt lat="45.66405188004866" lon="8.441003448771724"><ele>348.0</ele><time>2026-04-11T14:15:50Z</time></trkpt><trkpt lat="45.66404016438077" lon="8.441130923670855"><ele>348.0</ele><time>2026-04-11T14:15:53Z</time></trkpt><trkpt lat="45.66409072757579" lon="8.441187421492684"><ele>348.0</ele><time>2026-04-11T14:15:55Z</time></trkpt><trkpt lat="45.66416639531157" lon="8.441239584025503"><ele>348.0</ele><time>2026-04-11T14:15:58Z</time></trkpt><trkpt lat="45.66423085255568" lon="8.44129493706149"><ele>348.0</ele><time>2026-04-11T14:16:16Z</time></trkpt><trkpt lat="45.66429612327987" lon="8.441401750961221"><ele>348.0</ele><time>2026-04-11T14:16:18Z</time></trkpt><trkpt lat="45.66434475991352" lon="8.44146645529637"><ele>347.6666666666667</ele><time>2026-04-11T14:16:19Z</time></trkpt><trkpt lat="45.66439835335859" lon="8.441541224991271"><ele>347.3333333333333</ele><time>2026-04-11T14:16:20Z</time></trkpt><trkpt lat="45.66445458674779" lon="8.441634748574188"><ele>347.0</ele><time>2026-04-11T14:16:21Z</time></trkpt><trkpt lat="45.66450835217829" lon="8.44173869961239"><ele>346.66666666666663</ele><time>2026-04-11T14:16:22Z</time></trkpt><trkpt lat="45.66456493016233" lon="8.441837821983889"><ele>346.3333333333333</ele><time>2026-04-11T14:16:23Z</time></trkpt><trkpt lat="45.66461813132158" lon="8.441926156451778"><ele>346.0</ele><time>2026-04-11T14:16:24Z</time></trkpt><trkpt lat="45.66466908277026" lon="8.442007457688245"><ele>345.8</ele><time>2026-04-11T14:16:25Z</time></trkpt><trkpt lat="45.66472661732847" lon="8.442097561096807"><ele>345.6</ele><time>2026-04-11T14:16:26Z</time></trkpt><trkpt lat="45.664789713673024" lon="8.442199506808738"><ele>345.4</ele><time>2026-04-11T14:16:27Z</time></trkpt><trkpt lat="45.66485353364567" lon="8.442307398778732"><ele>345.2</ele><time>2026-04-11T14:16:28Z</time></trkpt><trkpt lat="45.66492255121399" lon="8.442419525590834"><ele>345.0</ele><time>2026-04-11T14:16:29Z</time></trkpt><trkpt lat="45.6649884636066" lon="8.442523653557583"><ele>345.0</ele><time>2026-04-11T14:16:30Z</time></trkpt><trkpt lat="45.66504845721676" lon="8.442614982797155"><ele>345.0</ele><time>2026-04-11T14:16:31Z</time></trkpt><trkpt lat="45.66510602706842" lon="8.44270885462999"><ele>345.0</ele><time>2026-04-11T14:16:32Z</time></trkpt><trkpt lat="45.66515691566388" lon="8.44279402017176"><ele>345.0</ele><time>2026-04-11T14:16:33Z</time></trkpt><trkpt lat="45.665207300260924" lon="8.442878518278304"><ele>345.0</ele><time>2026-04-11T14:16:34Z</time></trkpt><trkpt lat="45.66525445899672" lon="8.44296183056748"><ele>345.0</ele><time>2026-04-11T14:16:35Z</time></trkpt><trkpt lat="45.665304098981586" lon="8.44304872032855"><ele>345.3333333333333</ele><time>2026-04-11T14:16:36Z</time></trkpt><trkpt lat="45.66535797100917" lon="8.443142956618765"><ele>345.6666666666667</ele><time>2026-04-11T14:16:37Z</time></trkpt><trkpt lat="45.66541524156039" lon="8.443235089219895"><ele>346.0</ele><time>2026-04-11T14:16:38Z</time></trkpt><trkpt lat="45.665469291698095" lon="8.443311514490704"><ele>346.33333333333337</ele><time>2026-04-11T14:16:39Z</time></trkpt><trkpt lat="45.665517556834935" lon="8.443389470427876"><ele>346.6666666666667</ele><time>2026-04-11T14:16:40Z</time></trkpt><trkpt lat="45.66556759078138" lon="8.443475142145"><ele>347.0</ele><time>2026-04-11T14:16:41Z</time></trkpt><trkpt lat="45.6656155410079" lon="8.443542470577263"><ele>347.0</ele><time>2026-04-11T14:16:42Z</time></trkpt><trkpt lat="45.66566776956202" lon="8.443599623334434"><ele>347.0</ele><time>2026-04-11T14:16:45Z</time></trkpt><trkpt lat="45.665710483402336" lon="8.443668575670376"><ele>347.0</ele><time>2026-04-11T14:16:49Z</time></trkpt><trkpt lat="45.66574465607365" lon="8.443756404280414"><ele>347.0</ele><time>2026-04-11T14:16:50Z</time></trkpt><trkpt lat="45.66580228365521" lon="8.443889211810166"><ele>347.0</ele><time>2026-04-11T14:16:52Z</time></trkpt><trkpt lat="45.665888860028986" lon="8.44401779156396"><ele>347.0</ele><time>2026-04-11T14:16:54Z</time></trkpt><trkpt lat="45.66593642520797" lon="8.4440999051029"><ele>347.0</ele><time>2026-04-11T14:16:55Z</time></trkpt><trkpt lat="45.665987304904725" lon="8.444191656216896"><ele>347.0</ele><time>2026-04-11T14:16:56Z</time></trkpt><trkpt lat="45.66604847414595" lon="8.444294498744156"><ele>347.0</ele><time>2026-04-11T14:16:57Z</time></trkpt><trkpt lat="45.6661331452736" lon="8.444427035954494"><ele>347.0</ele><time>2026-04-11T14:16:58Z</time></trkpt><trkpt lat="45.6662181505693" lon="8.444546148543415"><ele>347.0</ele><time>2026-04-11T14:16:59Z</time></trkpt><trkpt lat="45.666314218863825" lon="8.444685952841754"><ele>347.25</ele><time>2026-04-11T14:17:00Z</time></trkpt><trkpt lat="45.66638752009624" lon="8.444811747683708"><ele>347.5</ele><time>2026-04-11T14:17:01Z</time></trkpt><trkpt lat="45.66646706587624" lon="8.444928089533247"><ele>347.75</ele><time>2026-04-11T14:17:02Z</time></trkpt><trkpt lat="45.666565464899456" lon="8.445039257422936"><ele>348.0</ele><time>2026-04-11T14:17:03Z</time></trkpt><trkpt lat="45.6666808000976" lon="8.445134565886235"><ele>348.0</ele><time>2026-04-11T14:17:04Z</time></trkpt><trkpt lat="45.66680258810132" lon="8.445219413987282"><ele>348.0</ele><time>2026-04-11T14:17:05Z</time></trkpt><trkpt lat="45.666934367458076" lon="8.445284631834358"><ele>348.0</ele><time>2026-04-11T14:17:06Z</time></trkpt><trkpt lat="45.66707818805499" lon="8.445316961249826"><ele>348.0</ele><time>2026-04-11T14:17:07Z</time></trkpt><trkpt lat="45.66722881018225" lon="8.445321832230793"><ele>346.3333333333333</ele><time>2026-04-11T14:17:08Z</time></trkpt><trkpt lat="45.66739795050829" lon="8.445329103427435"><ele>344.66666666666663</ele><time>2026-04-11T14:17:09Z</time></trkpt><trkpt lat="45.667598336626575" lon="8.445306099217786"><ele>343.0</ele><time>2026-04-11T14:17:10Z</time></trkpt><trkpt lat="45.66780538896056" lon="8.445281712789107"><ele>340.3333333333333</ele><time>2026-04-11T14:17:11Z</time></trkpt><trkpt lat="45.66801290105328" lon="8.445237355506782"><ele>337.6666666666667</ele><time>2026-04-11T14:17:12Z</time></trkpt><trkpt lat="45.66820461463263" lon="8.44522669072402"><ele>335.0</ele><time>2026-04-11T14:17:13Z</time></trkpt><trkpt lat="45.66839046243157" lon="8.445207990143334"><ele>335.0</ele><time>2026-04-11T14:17:14Z</time></trkpt><trkpt lat="45.668566124522854" lon="8.445187302457972"><ele>335.0</ele><time>2026-04-11T14:17:15Z</time></trkpt><trkpt lat="45.6687398651826" lon="8.445157932842362"><ele>335.0</ele><time>2026-04-11T14:17:16Z</time></trkpt><trkpt lat="45.668907111997015" lon="8.445137683280084"><ele>335.33333333333337</ele><time>2026-04-11T14:17:17Z</time></trkpt><trkpt lat="45.669063203467054" lon="8.445150286008989"><ele>335.6666666666667</ele><time>2026-04-11T14:17:18Z</time></trkpt><trkpt lat="45.66921026051277" lon="8.445208905860271"><ele>336.0</ele><time>2026-04-11T14:17:19Z</time></trkpt><trkpt lat="45.669339535047726" lon="8.445319548951026"><ele>336.3333333333333</ele><time>2026-04-11T14:17:20Z</time></trkpt><trkpt lat="45.669449170330154" lon="8.4454683436105"><ele>336.66666666666663</ele><time>2026-04-11T14:17:21Z</time></trkpt><trkpt lat="45.669536234585316" lon="8.445655577529076"><ele>337.0</ele><time>2026-04-11T14:17:22Z</time></trkpt><trkpt lat="45.66959658452107" lon="8.445867268252973"><ele>337.0</ele><time>2026-04-11T14:17:23Z</time></trkpt><trkpt lat="45.669619888408945" lon="8.44610055839345"><ele>337.0</ele><time>2026-04-11T14:17:24Z</time></trkpt><trkpt lat="45.669596953723925" lon="8.446335397809573"><ele>337.0</ele><time>2026-04-11T14:17:25Z</time></trkpt><trkpt lat="45.66953076459675" lon="8.446550259435472"><ele>335.66666666666663</ele><time>2026-04-11T14:17:26Z</time></trkpt><trkpt lat="45.6694519778848" lon="8.446803222915113"><ele>334.3333333333333</ele><time>2026-04-11T14:17:27Z</time></trkpt><trkpt lat="45.66934723677867" lon="8.447120146924789"><ele>333.0</ele><time>2026-04-11T14:17:28Z</time></trkpt><trkpt lat="45.66921866704508" lon="8.447440053894113"><ele>331.0</ele><time>2026-04-11T14:17:29Z</time></trkpt><trkpt lat="45.66912107583145" lon="8.447727920240787"><ele>329.0</ele><time>2026-04-11T14:17:30Z</time></trkpt><trkpt lat="45.66902951778325" lon="8.447999751596894"><ele>327.0</ele><time>2026-04-11T14:17:31Z</time></trkpt><trkpt lat="45.66894228554545" lon="8.44823684149787"><ele>324.3333333333333</ele><time>2026-04-11T14:17:32Z</time></trkpt><trkpt lat="45.668864072887516" lon="8.448461238942796"><ele>321.66666666666663</ele><time>2026-04-11T14:17:33Z</time></trkpt><trkpt lat="45.668788087877864" lon="8.448686835445226"><ele>319.0</ele><time>2026-04-11T14:17:34Z</time></trkpt><trkpt lat="45.668711652770696" lon="8.448899379293236"><ele>320.0</ele><time>2026-04-11T14:17:35Z</time></trkpt><trkpt lat="45.668633537131626" lon="8.449103404118928"><ele>321.0</ele><time>2026-04-11T14:17:36Z</time></trkpt><trkpt lat="45.66855556609318" lon="8.44933792276514"><ele>322.0</ele><time>2026-04-11T14:17:37Z</time></trkpt><trkpt lat="45.6684809262496" lon="8.449601250065733"><ele>318.0</ele><time>2026-04-11T14:17:38Z</time></trkpt><trkpt lat="45.66839608191036" lon="8.449887412422346"><ele>314.0</ele><time>2026-04-11T14:17:39Z</time></trkpt><trkpt lat="45.66829380285128" lon="8.450184985074388"><ele>310.0</ele><time>2026-04-11T14:17:40Z</time></trkpt><trkpt lat="45.66818064065875" lon="8.450473227426574"><ele>308.0</ele><time>2026-04-11T14:17:41Z</time></trkpt><trkpt lat="45.668077662563995" lon="8.45073761399803"><ele>306.0</ele><time>2026-04-11T14:17:42Z</time></trkpt><trkpt lat="45.6680056662302" lon="8.450963878584801"><ele>304.0</ele><time>2026-04-11T14:17:43Z</time></trkpt><trkpt lat="45.667932394977726" lon="8.451152686756236"><ele>302.3333333333333</ele><time>2026-04-11T14:17:44Z</time></trkpt><trkpt lat="45.66797614001458" lon="8.451426907844137"><ele>300.6666666666667</ele><time>2026-04-11T14:17:45Z</time></trkpt><trkpt lat="45.66800324159703" lon="8.45167007891952"><ele>299.0</ele><time>2026-04-11T14:17:46Z</time></trkpt><trkpt lat="45.66804257005305" lon="8.451895082543484"><ele>299.0</ele><time>2026-04-11T14:17:47Z</time></trkpt><trkpt lat="45.668116079862976" lon="8.452101636028498"><ele>299.0</ele><time>2026-04-11T14:17:48Z</time></trkpt><trkpt lat="45.668217649125815" lon="8.452292219440473"><ele>299.0</ele><time>2026-04-11T14:17:49Z</time></trkpt><trkpt lat="45.66833637633357" lon="8.452453997014382"><ele>298.33333333333337</ele><time>2026-04-11T14:17:50Z</time></trkpt><trkpt lat="45.66848630852732" lon="8.452604075330639"><ele>297.6666666666667</ele><time>2026-04-11T14:17:51Z</time></trkpt><trkpt lat="45.66865143294132" lon="8.452740401037977"><ele>297.0</ele><time>2026-04-11T14:17:52Z</time></trkpt><trkpt lat="45.66882879060771" lon="8.452891450684563"><ele>296.6666666666667</ele><time>2026-04-11T14:17:53Z</time></trkpt><trkpt lat="45.668930205874396" lon="8.452989847109885"><ele>296.33333333333337</ele><time>2026-04-11T14:17:54Z</time></trkpt><trkpt lat="45.66909739847796" lon="8.453118734674211"><ele>296.0</ele><time>2026-04-11T14:17:55Z</time></trkpt><trkpt lat="45.66925407475179" lon="8.453254596764666"><ele>296.0</ele><time>2026-04-11T14:17:56Z</time></trkpt><trkpt lat="45.66942381419662" lon="8.453374388687163"><ele>296.0</ele><time>2026-04-11T14:17:57Z</time></trkpt><trkpt lat="45.66959011182066" lon="8.453499773518788"><ele>296.0</ele><time>2026-04-11T14:17:58Z</time></trkpt><trkpt lat="45.669755968660645" lon="8.453627238361026"><ele>295.33333333333337</ele><time>2026-04-11T14:17:59Z</time></trkpt><trkpt lat="45.669913991719284" lon="8.453761039075255"><ele>294.6666666666667</ele><time>2026-04-11T14:18:00Z</time></trkpt><trkpt lat="45.670077641530156" lon="8.45388861861052"><ele>294.0</ele><time>2026-04-11T14:18:01Z</time></trkpt><trkpt lat="45.67024040948604" lon="8.454019531538746"><ele>294.3333333333333</ele><time>2026-04-11T14:18:02Z</time></trkpt><trkpt lat="45.67039729714765" lon="8.454147897674769"><ele>294.66666666666663</ele><time>2026-04-11T14:18:03Z</time></trkpt><trkpt lat="45.67055355479502" lon="8.45427451843223"><ele>295.0</ele><time>2026-04-11T14:18:04Z</time></trkpt><trkpt lat="45.67069906571475" lon="8.45439082192254"><ele>295.0</ele><time>2026-04-11T14:18:05Z</time></trkpt><trkpt lat="45.670833273094814" lon="8.454496987938718"><ele>295.0</ele><time>2026-04-11T14:18:06Z</time></trkpt><trkpt lat="45.670956308989574" lon="8.454600108324273"><ele>295.0</ele><time>2026-04-11T14:18:07Z</time></trkpt><trkpt lat="45.67108148136919" lon="8.454699495063565"><ele>295.0</ele><time>2026-04-11T14:18:08Z</time></trkpt><trkpt lat="45.67120893496775" lon="8.454806805361395"><ele>294.66666666666663</ele><time>2026-04-11T14:18:09Z</time></trkpt><trkpt lat="45.67134046328305" lon="8.454914532469424"><ele>294.3333333333333</ele><time>2026-04-11T14:18:10Z</time></trkpt><trkpt lat="45.67148268452861" lon="8.455021068028358"><ele>294.0</ele><time>2026-04-11T14:18:11Z</time></trkpt><trkpt lat="45.671623400116516" lon="8.45513648475923"><ele>294.0</ele><time>2026-04-11T14:18:12Z</time></trkpt><trkpt lat="45.671770334729665" lon="8.455251130356167"><ele>294.0</ele><time>2026-04-11T14:18:13Z</time></trkpt><trkpt lat="45.67192181022112" lon="8.455370038244636"><ele>294.0</ele><time>2026-04-11T14:18:14Z</time></trkpt><trkpt lat="45.67207436088011" lon="8.455492486042779"><ele>294.0</ele><time>2026-04-11T14:18:15Z</time></trkpt><trkpt lat="45.67223045569029" lon="8.455601184426715"><ele>294.0</ele><time>2026-04-11T14:18:16Z</time></trkpt><trkpt lat="45.672397051840264" lon="8.455681996015041"><ele>294.0</ele><time>2026-04-11T14:18:17Z</time></trkpt><trkpt lat="45.6725609956844" lon="8.455737681922175"><ele>294.0</ele><time>2026-04-11T14:18:18Z</time></trkpt><trkpt lat="45.672730694410674" lon="8.455778989333847"><ele>294.0</ele><time>2026-04-11T14:18:19Z</time></trkpt><trkpt lat="45.67290456138277" lon="8.455823478008936"><ele>294.0</ele><time>2026-04-11T14:18:20Z</time></trkpt><trkpt lat="45.67307924570851" lon="8.455850418264546"><ele>294.3333333333333</ele><time>2026-04-11T14:18:21Z</time></trkpt><trkpt lat="45.67325664286313" lon="8.455866174288479"><ele>294.66666666666663</ele><time>2026-04-11T14:18:22Z</time></trkpt><trkpt lat="45.673424487478364" lon="8.455870861467677"><ele>295.0</ele><time>2026-04-11T14:18:23Z</time></trkpt><trkpt lat="45.67358338288746" lon="8.455880448136098"><ele>295.0</ele><time>2026-04-11T14:18:24Z</time></trkpt><trkpt lat="45.67372767163167" lon="8.455890410924997"><ele>295.0</ele><time>2026-04-11T14:18:25Z</time></trkpt><trkpt lat="45.673865517513455" lon="8.455905531031158"><ele>295.0</ele><time>2026-04-11T14:18:26Z</time></trkpt><trkpt lat="45.67397930497315" lon="8.455920744234724"><ele>295.0</ele><time>2026-04-11T14:18:27Z</time></trkpt><trkpt lat="45.67407307629022" lon="8.455934501631098"><ele>295.0</ele><time>2026-04-11T14:18:28Z</time></trkpt><trkpt lat="45.6741710530346" lon="8.455961880049719"><ele>295.0</ele><time>2026-04-11T14:18:29Z</time></trkpt><trkpt lat="45.67426126550625" lon="8.456002836814738"><ele>295.0</ele><time>2026-04-11T14:18:30Z</time></trkpt><trkpt lat="45.67434604962694" lon="8.456007392533833"><ele>295.0</ele><time>2026-04-11T14:18:31Z</time></trkpt><trkpt lat="45.67444000713025" lon="8.455966064483942"><ele>295.0</ele><time>2026-04-11T14:18:32Z</time></trkpt><trkpt lat="45.67454973057066" lon="8.45594028903141"><ele>295.0</ele><time>2026-04-11T14:18:33Z</time></trkpt><trkpt lat="45.67466414624403" lon="8.455955588471099"><ele>295.0</ele><time>2026-04-11T14:18:34Z</time></trkpt><trkpt lat="45.674786741038744" lon="8.45596518206847"><ele>295.0</ele><time>2026-04-11T14:18:35Z</time></trkpt><trkpt lat="45.67491943386478" lon="8.455981609392948"><ele>295.0</ele><time>2026-04-11T14:18:36Z</time></trkpt><trkpt lat="45.67506653838153" lon="8.455996368570338"><ele>295.0</ele><time>2026-04-11T14:18:37Z</time></trkpt><trkpt lat="45.675217491554235" lon="8.45600754382727"><ele>295.0</ele><time>2026-04-11T14:18:38Z</time></trkpt><trkpt lat="45.6753616266142" lon="8.456021283537632"><ele>295.0</ele><time>2026-04-11T14:18:39Z</time></trkpt><trkpt lat="45.67550562975013" lon="8.456031982847652"><ele>295.0</ele><time>2026-04-11T14:18:40Z</time></trkpt><trkpt lat="45.675657139031486" lon="8.456021822694286"><ele>295.0</ele><time>2026-04-11T14:18:41Z</time></trkpt><trkpt lat="45.67581698289954" lon="8.456032881395258"><ele>295.0</ele><time>2026-04-11T14:18:42Z</time></trkpt><trkpt lat="45.675972513124115" lon="8.456052838470022"><ele>295.0</ele><time>2026-04-11T14:18:43Z</time></trkpt><trkpt lat="45.676142458821744" lon="8.456065578792963"><ele>295.3333333333333</ele><time>2026-04-11T14:18:44Z</time></trkpt><trkpt lat="45.67630512512209" lon="8.456076190261735"><ele>295.6666666666667</ele><time>2026-04-11T14:18:45Z</time></trkpt><trkpt lat="45.67646932733197" lon="8.456089452411252"><ele>296.0</ele><time>2026-04-11T14:18:46Z</time></trkpt><trkpt lat="45.676645882931844" lon="8.456100385075413"><ele>296.0</ele><time>2026-04-11T14:18:47Z</time></trkpt><trkpt lat="45.67682043286794" lon="8.456108850979236"><ele>296.0</ele><time>2026-04-11T14:18:48Z</time></trkpt><trkpt lat="45.67699434868401" lon="8.456119444692503"><ele>296.0</ele><time>2026-04-11T14:18:49Z</time></trkpt><trkpt lat="45.67715750714816" lon="8.456128855575464"><ele>296.0</ele><time>2026-04-11T14:18:50Z</time></trkpt><trkpt lat="45.67730808888893" lon="8.456135314496597"><ele>296.0</ele><time>2026-04-11T14:18:51Z</time></trkpt><trkpt lat="45.67743743816808" lon="8.456145840134505"><ele>296.0</ele><time>2026-04-11T14:18:52Z</time></trkpt><trkpt lat="45.67756900262004" lon="8.456152145624504"><ele>296.0</ele><time>2026-04-11T14:18:53Z</time></trkpt><trkpt lat="45.67771145985123" lon="8.45616274102152"><ele>296.25</ele><time>2026-04-11T14:18:54Z</time></trkpt><trkpt lat="45.677854729554404" lon="8.456174768914043"><ele>296.5</ele><time>2026-04-11T14:18:55Z</time></trkpt><trkpt lat="45.67799775184816" lon="8.456186612674498"><ele>296.75</ele><time>2026-04-11T14:18:56Z</time></trkpt><trkpt lat="45.67813905200127" lon="8.456196680590473"><ele>297.0</ele><time>2026-04-11T14:18:57Z</time></trkpt><trkpt lat="45.67828787955645" lon="8.456205388557194"><ele>297.0</ele><time>2026-04-11T14:18:58Z</time></trkpt><trkpt lat="45.67843690926344" lon="8.456214863221026"><ele>297.0</ele><time>2026-04-11T14:18:59Z</time></trkpt><trkpt lat="45.67858764804216" lon="8.456224918111493"><ele>297.0</ele><time>2026-04-11T14:19:00Z</time></trkpt><trkpt lat="45.67874032117023" lon="8.45623343931692"><ele>297.0</ele><time>2026-04-11T14:19:01Z</time></trkpt><trkpt lat="45.67889178660219" lon="8.456240628043746"><ele>297.0</ele><time>2026-04-11T14:19:02Z</time></trkpt><trkpt lat="45.67904720147997" lon="8.456251018201796"><ele>297.0</ele><time>2026-04-11T14:19:03Z</time></trkpt><trkpt lat="45.67919943369602" lon="8.456260881476254"><ele>297.0</ele><time>2026-04-11T14:19:04Z</time></trkpt><trkpt lat="45.6793535249756" lon="8.456269618604551"><ele>297.0</ele><time>2026-04-11T14:19:05Z</time></trkpt><trkpt lat="45.679512385655464" lon="8.456282124959275"><ele>297.0</ele><time>2026-04-11T14:19:06Z</time></trkpt><trkpt lat="45.67967024342838" lon="8.456294898212837"><ele>297.3333333333333</ele><time>2026-04-11T14:19:07Z</time></trkpt><trkpt lat="45.679829728102185" lon="8.456308383176983"><ele>297.66666666666663</ele><time>2026-04-11T14:19:08Z</time></trkpt><trkpt lat="45.67999059405434" lon="8.456323605245263"><ele>298.0</ele><time>2026-04-11T14:19:09Z</time></trkpt><trkpt lat="45.68015141355363" lon="8.456337180743708"><ele>298.3333333333333</ele><time>2026-04-11T14:19:10Z</time></trkpt><trkpt lat="45.680308364690845" lon="8.456349726586064"><ele>298.6666666666667</ele><time>2026-04-11T14:19:11Z</time></trkpt><trkpt lat="45.68047806586078" lon="8.45636184914627"><ele>299.0</ele><time>2026-04-11T14:19:12Z</time></trkpt><trkpt lat="45.68063914790943" lon="8.45637317090506"><ele>299.0</ele><time>2026-04-11T14:19:13Z</time></trkpt><trkpt lat="45.68080944402064" lon="8.456382497426391"><ele>299.0</ele><time>2026-04-11T14:19:14Z</time></trkpt><trkpt lat="45.68097131160138" lon="8.456394115939078"><ele>299.0</ele><time>2026-04-11T14:19:15Z</time></trkpt><trkpt lat="45.68113687592753" lon="8.456404502488986"><ele>299.6666666666667</ele><time>2026-04-11T14:19:16Z</time></trkpt><trkpt lat="45.681309227805905" lon="8.456415816544018"><ele>300.3333333333333</ele><time>2026-04-11T14:19:17Z</time></trkpt><trkpt lat="45.68147244082144" lon="8.456422149320355"><ele>301.0</ele><time>2026-04-11T14:19:18Z</time></trkpt><trkpt lat="45.68163974738589" lon="8.456432490076027"><ele>301.0</ele><time>2026-04-11T14:19:19Z</time></trkpt><trkpt lat="45.68180559016558" lon="8.456446362409855"><ele>301.0</ele><time>2026-04-11T14:19:20Z</time></trkpt><trkpt lat="45.681963282679305" lon="8.456458168494969"><ele>301.0</ele><time>2026-04-11T14:19:21Z</time></trkpt><trkpt lat="45.68212211124243" lon="8.456468896254767"><ele>300.0</ele><time>2026-04-11T14:19:22Z</time></trkpt><trkpt lat="45.68228661462334" lon="8.456473092756282"><ele>299.0</ele><time>2026-04-11T14:19:23Z</time></trkpt><trkpt lat="45.68244224986034" lon="8.456488741345098"><ele>298.0</ele><time>2026-04-11T14:19:24Z</time></trkpt><trkpt lat="45.682582572662604" lon="8.456499492167742"><ele>298.0</ele><time>2026-04-11T14:19:25Z</time></trkpt><trkpt lat="45.6827146991067" lon="8.456513018210023"><ele>298.0</ele><time>2026-04-11T14:19:26Z</time></trkpt><trkpt lat="45.68284864392331" lon="8.45652510602907"><ele>298.0</ele><time>2026-04-11T14:19:27Z</time></trkpt><trkpt lat="45.68297740510722" lon="8.456532171273572"><ele>298.0</ele><time>2026-04-11T14:19:28Z</time></trkpt><trkpt lat="45.68309906350496" lon="8.456539758402888"><ele>298.5</ele><time>2026-04-11T14:19:29Z</time></trkpt><trkpt lat="45.68321115535727" lon="8.456547464954223"><ele>299.0</ele><time>2026-04-11T14:19:30Z</time></trkpt><trkpt lat="45.683324265239584" lon="8.456555372523054"><ele>299.5</ele><time>2026-04-11T14:19:31Z</time></trkpt><trkpt lat="45.68344582715183" lon="8.456568306848805"><ele>300.0</ele><time>2026-04-11T14:19:32Z</time></trkpt><trkpt lat="45.68357366587987" lon="8.456573288250192"><ele>300.0</ele><time>2026-04-11T14:19:33Z</time></trkpt><trkpt lat="45.68370605736926" lon="8.456574314018031"><ele>300.0</ele><time>2026-04-11T14:19:34Z</time></trkpt><trkpt lat="45.68383611011589" lon="8.456584712611933"><ele>300.0</ele><time>2026-04-11T14:19:35Z</time></trkpt><trkpt lat="45.68395299642482" lon="8.456597422100929"><ele>300.0</ele><time>2026-04-11T14:19:36Z</time></trkpt><trkpt lat="45.68406632489842" lon="8.456612383335449"><ele>300.0</ele><time>2026-04-11T14:19:37Z</time></trkpt><trkpt lat="45.684173177878485" lon="8.456618793785829"><ele>300.0</ele><time>2026-04-11T14:19:38Z</time></trkpt><trkpt lat="45.68427116165655" lon="8.456620207426601"><ele>300.0</ele><time>2026-04-11T14:19:39Z</time></trkpt><trkpt lat="45.68437407426687" lon="8.456627472680514"><ele>300.0</ele><time>2026-04-11T14:19:40Z</time></trkpt><trkpt lat="45.68447329814933" lon="8.456634089831198"><ele>300.0</ele><time>2026-04-11T14:19:41Z</time></trkpt><trkpt lat="45.684589037431685" lon="8.456637912185947"><ele>300.25</ele><time>2026-04-11T14:19:42Z</time></trkpt><trkpt lat="45.684707442732396" lon="8.456650046481517"><ele>300.5</ele><time>2026-04-11T14:19:43Z</time></trkpt><trkpt lat="45.684829688755975" lon="8.456663441989827"><ele>300.75</ele><time>2026-04-11T14:19:44Z</time></trkpt><trkpt lat="45.68494873428609" lon="8.456679233878837"><ele>301.0</ele><time>2026-04-11T14:19:45Z</time></trkpt><trkpt lat="45.68507511665304" lon="8.456692055892018"><ele>301.0</ele><time>2026-04-11T14:19:46Z</time></trkpt><trkpt lat="45.68520387284942" lon="8.456703987153805"><ele>301.0</ele><time>2026-04-11T14:19:47Z</time></trkpt><trkpt lat="45.68533228959172" lon="8.45671163385809"><ele>301.0</ele><time>2026-04-11T14:19:48Z</time></trkpt><trkpt lat="45.68546733871764" lon="8.456721717686897"><ele>301.0</ele><time>2026-04-11T14:19:49Z</time></trkpt><trkpt lat="45.68558017211149" lon="8.45671727643105"><ele>301.40000000000003</ele><time>2026-04-11T14:19:50Z</time></trkpt><trkpt lat="45.68570309616665" lon="8.456723162233976"><ele>301.8</ele><time>2026-04-11T14:19:51Z</time></trkpt><trkpt lat="45.685823294871504" lon="8.456732519586796"><ele>302.20000000000005</ele><time>2026-04-11T14:19:52Z</time></trkpt><trkpt lat="45.68593227808795" lon="8.456740559890179"><ele>302.6</ele><time>2026-04-11T14:19:53Z</time></trkpt><trkpt lat="45.68602328792884" lon="8.456750628944791"><ele>303.0</ele><time>2026-04-11T14:19:54Z</time></trkpt><trkpt lat="45.686103965140745" lon="8.456759851308245"><ele>303.0</ele><time>2026-04-11T14:19:55Z</time></trkpt><trkpt lat="45.68617759533965" lon="8.456761960428137"><ele>303.0</ele><time>2026-04-11T14:19:56Z</time></trkpt><trkpt lat="45.686247115452446" lon="8.456760344763248"><ele>303.0</ele><time>2026-04-11T14:19:57Z</time></trkpt><trkpt lat="45.68631547642534" lon="8.456766900744917"><ele>303.0</ele><time>2026-04-11T14:19:58Z</time></trkpt><trkpt lat="45.686384856686985" lon="8.456774743274693"><ele>303.0</ele><time>2026-04-11T14:19:59Z</time></trkpt><trkpt lat="45.68647124045001" lon="8.456780417740024"><ele>303.0</ele><time>2026-04-11T14:20:00Z</time></trkpt><trkpt lat="45.68656949084422" lon="8.456787679882638"><ele>303.0</ele><time>2026-04-11T14:20:01Z</time></trkpt><trkpt lat="45.68668257910617" lon="8.456796275828985"><ele>303.0</ele><time>2026-04-11T14:20:02Z</time></trkpt><trkpt lat="45.68680053323969" lon="8.456805895241345"><ele>303.0</ele><time>2026-04-11T14:20:03Z</time></trkpt><trkpt lat="45.6869267743842" lon="8.456813946878793"><ele>303.0</ele><time>2026-04-11T14:20:04Z</time></trkpt><trkpt lat="45.6870495832954" lon="8.456814867981992"><ele>303.4</ele><time>2026-04-11T14:20:05Z</time></trkpt><trkpt lat="45.687161364073184" lon="8.456829532571131"><ele>303.8</ele><time>2026-04-11T14:20:06Z</time></trkpt><trkpt lat="45.6872647819545" lon="8.456837691718125"><ele>304.2</ele><time>2026-04-11T14:20:07Z</time></trkpt><trkpt lat="45.68737438445381" lon="8.456845633806676"><ele>304.6</ele><time>2026-04-11T14:20:08Z</time></trkpt><trkpt lat="45.68747947785454" lon="8.456851100509265"><ele>305.0</ele><time>2026-04-11T14:20:09Z</time></trkpt><trkpt lat="45.68757904105324" lon="8.45685809615986"><ele>305.0</ele><time>2026-04-11T14:20:10Z</time></trkpt><trkpt lat="45.68768555835205" lon="8.456864664323964"><ele>305.0</ele><time>2026-04-11T14:20:11Z</time></trkpt><trkpt lat="45.687796497950806" lon="8.456869617479631"><ele>305.0</ele><time>2026-04-11T14:20:12Z</time></trkpt><trkpt lat="45.687910851465105" lon="8.456881613021146"><ele>305.0</ele><time>2026-04-11T14:20:13Z</time></trkpt><trkpt lat="45.688028704842054" lon="8.456893742482126"><ele>305.2</ele><time>2026-04-11T14:20:14Z</time></trkpt><trkpt lat="45.68814210577799" lon="8.456905132998727"><ele>305.4</ele><time>2026-04-11T14:20:15Z</time></trkpt><trkpt lat="45.688247877477885" lon="8.456917689354633"><ele>305.6</ele><time>2026-04-11T14:20:16Z</time></trkpt><trkpt lat="45.688344635945725" lon="8.45692207718947"><ele>305.8</ele><time>2026-04-11T14:20:17Z</time></trkpt><trkpt lat="45.68843448890145" lon="8.456923108846233"><ele>306.0</ele><time>2026-04-11T14:20:18Z</time></trkpt><trkpt lat="45.68851743492369" lon="8.456923353531803"><ele>305.8333333333333</ele><time>2026-04-11T14:20:19Z</time></trkpt><trkpt lat="45.68859538086174" lon="8.456928289122228"><ele>305.6666666666667</ele><time>2026-04-11T14:20:20Z</time></trkpt><trkpt lat="45.68867030263813" lon="8.456929755283717"><ele>305.5</ele><time>2026-04-11T14:20:21Z</time></trkpt><trkpt lat="45.68875317867425" lon="8.456932727257477"><ele>305.33333333333337</ele><time>2026-04-11T14:20:23Z</time></trkpt><trkpt lat="45.688827670654575" lon="8.456927330343852"><ele>305.1666666666667</ele><time>2026-04-11T14:20:25Z</time></trkpt><trkpt lat="45.68890010858574" lon="8.456927066647399"><ele>305.0</ele><time>2026-04-11T14:20:29Z</time></trkpt><trkpt lat="45.68899403930366" lon="8.456957349826165"><ele>305.0</ele><time>2026-04-11T14:20:32Z</time></trkpt><trkpt lat="45.68904126729505" lon="8.457026646327265"><ele>305.0</ele><time>2026-04-11T14:20:33Z</time></trkpt><trkpt lat="45.689035804427526" lon="8.45721291311925"><ele>305.0</ele><time>2026-04-11T14:20:35Z</time></trkpt><trkpt lat="45.68901466880827" lon="8.457306063706"><ele>305.0</ele><time>2026-04-11T14:20:36Z</time></trkpt><trkpt lat="45.68894536571656" lon="8.457446559999584"><ele>305.0</ele><time>2026-04-11T14:20:38Z</time></trkpt><trkpt lat="45.6889032536349" lon="8.457570178216699"><ele>304.6</ele><time>2026-04-11T14:20:40Z</time></trkpt><trkpt lat="45.68900930130178" lon="8.457694350315297"><ele>304.2</ele><time>2026-04-11T14:20:42Z</time></trkpt><trkpt lat="45.68906796468791" lon="8.457728601137672"><ele>303.8</ele><time>2026-04-11T14:20:43Z</time></trkpt><trkpt lat="45.68912034226742" lon="8.457793686089536"><ele>303.4</ele><time>2026-04-11T14:20:44Z</time></trkpt><trkpt lat="45.68917416575464" lon="8.457921983519254"><ele>303.0</ele><time>2026-04-11T14:20:45Z</time></trkpt><trkpt lat="45.689202308089605" lon="8.458029128820387"><ele>302.8333333333333</ele><time>2026-04-11T14:20:46Z</time></trkpt><trkpt lat="45.68922531765204" lon="8.458139357228141"><ele>302.6666666666667</ele><time>2026-04-11T14:20:47Z</time></trkpt><trkpt lat="45.68925851570341" lon="8.458253930599062"><ele>302.5</ele><time>2026-04-11T14:20:48Z</time></trkpt><trkpt lat="45.689299043245555" lon="8.458371433942203"><ele>302.33333333333337</ele><time>2026-04-11T14:20:49Z</time></trkpt><trkpt lat="45.68933512362233" lon="8.458506403307666"><ele>302.1666666666667</ele><time>2026-04-11T14:20:50Z</time></trkpt><trkpt lat="45.68936753964211" lon="8.458619423808768"><ele>302.0</ele><time>2026-04-11T14:20:51Z</time></trkpt><trkpt lat="45.68939914642449" lon="8.458726782302804"><ele>302.0</ele><time>2026-04-11T14:20:52Z</time></trkpt><trkpt lat="45.689434034574106" lon="8.458840629459543"><ele>302.0</ele><time>2026-04-11T14:20:53Z</time></trkpt><trkpt lat="45.68947232039645" lon="8.458970807165558"><ele>302.0</ele><time>2026-04-11T14:20:54Z</time></trkpt><trkpt lat="45.68950696876287" lon="8.459111938827986"><ele>302.0</ele><time>2026-04-11T14:20:55Z</time></trkpt><trkpt lat="45.68953655592881" lon="8.45926090571339"><ele>302.0</ele><time>2026-04-11T14:20:56Z</time></trkpt><trkpt lat="45.68956141757952" lon="8.459430150234846"><ele>302.0</ele><time>2026-04-11T14:20:57Z</time></trkpt><trkpt lat="45.68958124013915" lon="8.459618957861023"><ele>302.0</ele><time>2026-04-11T14:20:58Z</time></trkpt><trkpt lat="45.68959804496684" lon="8.459819130735116"><ele>302.0</ele><time>2026-04-11T14:20:59Z</time></trkpt><trkpt lat="45.689616971990134" lon="8.460031684899413"><ele>302.0</ele><time>2026-04-11T14:21:00Z</time></trkpt><trkpt lat="45.68964729166981" lon="8.460240368142662"><ele>302.0</ele><time>2026-04-11T14:21:01Z</time></trkpt><trkpt lat="45.68968169303009" lon="8.460465348342229"><ele>302.0</ele><time>2026-04-11T14:21:02Z</time></trkpt><trkpt lat="45.68971784170433" lon="8.460694125316497"><ele>302.0</ele><time>2026-04-11T14:21:03Z</time></trkpt><trkpt lat="45.6897534194854" lon="8.460970440730467"><ele>302.0</ele><time>2026-04-11T14:21:04Z</time></trkpt><trkpt lat="45.6897868037855" lon="8.461240083766562"><ele>302.0</ele><time>2026-04-11T14:21:05Z</time></trkpt><trkpt lat="45.689818825909754" lon="8.461498800926828"><ele>302.0</ele><time>2026-04-11T14:21:06Z</time></trkpt><trkpt lat="45.689850655270305" lon="8.461766611031953"><ele>301.6666666666667</ele><time>2026-04-11T14:21:07Z</time></trkpt><trkpt lat="45.68989426886776" lon="8.462021968634524"><ele>301.3333333333333</ele><time>2026-04-11T14:21:08Z</time></trkpt><trkpt lat="45.68995405200806" lon="8.462267266381772"><ele>301.0</ele><time>2026-04-11T14:21:09Z</time></trkpt><trkpt lat="45.69002904072956" lon="8.46251139858482"><ele>301.0</ele><time>2026-04-11T14:21:10Z</time></trkpt><trkpt lat="45.69011981125371" lon="8.462727570542851"><ele>301.0</ele><time>2026-04-11T14:21:11Z</time></trkpt><trkpt lat="45.690212382863265" lon="8.46291854240388"><ele>301.0</ele><time>2026-04-11T14:21:12Z</time></trkpt><trkpt lat="45.690316275524275" lon="8.46310807795703"><ele>301.25</ele><time>2026-04-11T14:21:13Z</time></trkpt><trkpt lat="45.690418694168855" lon="8.463265304077103"><ele>301.5</ele><time>2026-04-11T14:21:14Z</time></trkpt><trkpt lat="45.69052238479161" lon="8.463402546382286"><ele>301.75</ele><time>2026-04-11T14:21:15Z</time></trkpt><trkpt lat="45.690621517966896" lon="8.463531269723289"><ele>302.0</ele><time>2026-04-11T14:21:16Z</time></trkpt><trkpt lat="45.69073168980865" lon="8.46365271694357"><ele>302.25</ele><time>2026-04-11T14:21:17Z</time></trkpt><trkpt lat="45.69084448007876" lon="8.463785883767875"><ele>302.5</ele><time>2026-04-11T14:21:18Z</time></trkpt><trkpt lat="45.69095118493986" lon="8.4639171171429"><ele>302.75</ele><time>2026-04-11T14:21:19Z</time></trkpt><trkpt lat="45.69105870202884" lon="8.464048861503253"><ele>303.0</ele><time>2026-04-11T14:21:20Z</time></trkpt><trkpt lat="45.69115915354801" lon="8.464168461740147"><ele>303.0</ele><time>2026-04-11T14:21:21Z</time></trkpt><trkpt lat="45.69125150964904" lon="8.46428272797865"><ele>303.0</ele><time>2026-04-11T14:21:22Z</time></trkpt><trkpt lat="45.69133986358737" lon="8.464389450323727"><ele>303.0</ele><time>2026-04-11T14:21:23Z</time></trkpt><trkpt lat="45.69142265807829" lon="8.464492278374655"><ele>303.0</ele><time>2026-04-11T14:21:24Z</time></trkpt><trkpt lat="45.69150500688726" lon="8.464582043527601"><ele>303.0</ele><time>2026-04-11T14:21:25Z</time></trkpt><trkpt lat="45.69158254606433" lon="8.464660338224261"><ele>303.0</ele><time>2026-04-11T14:21:26Z</time></trkpt><trkpt lat="45.691691478961964" lon="8.464803940338825"><ele>303.0</ele><time>2026-04-11T14:21:28Z</time></trkpt><trkpt lat="45.691729909152684" lon="8.464894178015863"><ele>303.0</ele><time>2026-04-11T14:21:29Z</time></trkpt><trkpt lat="45.691773919987824" lon="8.464973512133191"><ele>303.0</ele><time>2026-04-11T14:21:30Z</time></trkpt><trkpt lat="45.691850403972296" lon="8.464974747407517"><ele>303.0</ele><time>2026-04-11T14:21:31Z</time></trkpt><trkpt lat="45.6919266871693" lon="8.4649210112567"><ele>303.0</ele><time>2026-04-11T14:21:32Z</time></trkpt><trkpt lat="45.692001969893056" lon="8.464819441418774"><ele>303.0</ele><time>2026-04-11T14:21:33Z</time></trkpt><trkpt lat="45.69209144411277" lon="8.464720182337489"><ele>303.0</ele><time>2026-04-11T14:21:34Z</time></trkpt><trkpt lat="45.69216679823247" lon="8.464603533409615"><ele>303.0</ele><time>2026-04-11T14:21:35Z</time></trkpt><trkpt lat="45.69224239684862" lon="8.464465184319806"><ele>303.0</ele><time>2026-04-11T14:21:36Z</time></trkpt><trkpt lat="45.69232480809106" lon="8.464349271880005"><ele>303.0</ele><time>2026-04-11T14:21:37Z</time></trkpt><trkpt lat="45.69239589641016" lon="8.464249545749496"><ele>303.0</ele><time>2026-04-11T14:21:38Z</time></trkpt><trkpt lat="45.69246333237226" lon="8.464146894026754"><ele>303.0</ele><time>2026-04-11T14:21:39Z</time></trkpt><trkpt lat="45.69252768522967" lon="8.46404324298479"><ele>303.0</ele><time>2026-04-11T14:21:40Z</time></trkpt><trkpt lat="45.69259058702971" lon="8.463949201564521"><ele>303.0</ele><time>2026-04-11T14:21:41Z</time></trkpt><trkpt lat="45.692651167794864" lon="8.463859716857213"><ele>303.0</ele><time>2026-04-11T14:21:42Z</time></trkpt><trkpt lat="45.692710045403395" lon="8.463769818455356"><ele>303.0</ele><time>2026-04-11T14:21:43Z</time></trkpt><trkpt lat="45.69276018977266" lon="8.463691587317857"><ele>303.0</ele><time>2026-04-11T14:21:44Z</time></trkpt><trkpt lat="45.692811192257594" lon="8.463606658068034"><ele>303.0</ele><time>2026-04-11T14:21:45Z</time></trkpt><trkpt lat="45.6928646808982" lon="8.463517029049425"><ele>303.0</ele><time>2026-04-11T14:21:46Z</time></trkpt><trkpt lat="45.692919391207305" lon="8.463427270746838"><ele>303.0</ele><time>2026-04-11T14:21:47Z</time></trkpt><trkpt lat="45.69297082898243" lon="8.463346115034424"><ele>303.0</ele><time>2026-04-11T14:21:48Z</time></trkpt><trkpt lat="45.693022014450534" lon="8.463267491362458"><ele>303.0</ele><time>2026-04-11T14:21:49Z</time></trkpt><trkpt lat="45.69306666323762" lon="8.463196933601404"><ele>303.0</ele><time>2026-04-11T14:21:50Z</time></trkpt><trkpt lat="45.693128447358774" lon="8.463133082291257"><ele>303.0</ele><time>2026-04-11T14:21:51Z</time></trkpt><trkpt lat="45.69317045447255" lon="8.463054092539238"><ele>303.0</ele><time>2026-04-11T14:21:52Z</time></trkpt><trkpt lat="45.693218497925685" lon="8.462974557587815"><ele>303.0</ele><time>2026-04-11T14:21:53Z</time></trkpt><trkpt lat="45.6932660914135" lon="8.46289832391893"><ele>303.3333333333333</ele><time>2026-04-11T14:21:54Z</time></trkpt><trkpt lat="45.693310963593696" lon="8.462825128524706"><ele>303.6666666666667</ele><time>2026-04-11T14:21:55Z</time></trkpt><trkpt lat="45.69335784375479" lon="8.462750721492936"><ele>304.0</ele><time>2026-04-11T14:21:56Z</time></trkpt><trkpt lat="45.69341101637615" lon="8.462672163713796"><ele>304.33333333333337</ele><time>2026-04-11T14:21:57Z</time></trkpt><trkpt lat="45.693458131373276" lon="8.46259296343226"><ele>304.6666666666667</ele><time>2026-04-11T14:21:58Z</time></trkpt><trkpt lat="45.693521068355665" lon="8.462490322420244"><ele>305.0</ele><time>2026-04-11T14:21:59Z</time></trkpt><trkpt lat="45.69360217318947" lon="8.462373631950236"><ele>305.0</ele><time>2026-04-11T14:22:00Z</time></trkpt><trkpt lat="45.69368415325335" lon="8.462255383748422"><ele>305.0</ele><time>2026-04-11T14:22:01Z</time></trkpt><trkpt lat="45.69376744328995" lon="8.462131250978832"><ele>305.0</ele><time>2026-04-11T14:22:02Z</time></trkpt><trkpt lat="45.69386111943346" lon="8.462002284342214"><ele>305.0</ele><time>2026-04-11T14:22:03Z</time></trkpt><trkpt lat="45.693954704744" lon="8.461881977596224"><ele>305.0</ele><time>2026-04-11T14:22:04Z</time></trkpt><trkpt lat="45.69404478601554" lon="8.461770661681108"><ele>305.0</ele><time>2026-04-11T14:22:05Z</time></trkpt><trkpt lat="45.694128747318544" lon="8.461665663384888"><ele>305.0</ele><time>2026-04-11T14:22:06Z</time></trkpt><trkpt lat="45.69423288443353" lon="8.461572293857209"><ele>305.0</ele><time>2026-04-11T14:22:07Z</time></trkpt><trkpt lat="45.69430857051251" lon="8.4614572106039"><ele>305.0</ele><time>2026-04-11T14:22:08Z</time></trkpt><trkpt lat="45.69438159422527" lon="8.461371321251107"><ele>305.0</ele><time>2026-04-11T14:22:09Z</time></trkpt><trkpt lat="45.694460646665014" lon="8.46126666975418"><ele>305.0</ele><time>2026-04-11T14:22:10Z</time></trkpt><trkpt lat="45.694545258178216" lon="8.461153529708971"><ele>305.0</ele><time>2026-04-11T14:22:11Z</time></trkpt><trkpt lat="45.694637749788726" lon="8.461035551083935"><ele>305.0</ele><time>2026-04-11T14:22:12Z</time></trkpt><trkpt lat="45.694730703110885" lon="8.460921928881548"><ele>305.0</ele><time>2026-04-11T14:22:13Z</time></trkpt><trkpt lat="45.69481882338156" lon="8.460801266849506"><ele>305.0</ele><time>2026-04-11T14:22:14Z</time></trkpt><trkpt lat="45.69491198850939" lon="8.460684698950732"><ele>305.0</ele><time>2026-04-11T14:22:15Z</time></trkpt><trkpt lat="45.69500721694539" lon="8.460579596662935"><ele>305.0</ele><time>2026-04-11T14:22:16Z</time></trkpt><trkpt lat="45.6951100414251" lon="8.460489924372444"><ele>305.0</ele><time>2026-04-11T14:22:17Z</time></trkpt><trkpt lat="45.69521698924308" lon="8.46041731371651"><ele>305.0</ele><time>2026-04-11T14:22:18Z</time></trkpt><trkpt lat="45.6953305445025" lon="8.460357795641759"><ele>305.0</ele><time>2026-04-11T14:22:19Z</time></trkpt><trkpt lat="45.69544570109218" lon="8.46033806196962"><ele>305.0</ele><time>2026-04-11T14:22:20Z</time></trkpt><trkpt lat="45.69552996767381" lon="8.460302175119587"><ele>305.0</ele><time>2026-04-11T14:22:21Z</time></trkpt><trkpt lat="45.69561485235229" lon="8.460233399541957"><ele>305.0</ele><time>2026-04-11T14:22:22Z</time></trkpt><trkpt lat="45.69570484001575" lon="8.460201518808672"><ele>305.0</ele><time>2026-04-11T14:22:23Z</time></trkpt><trkpt lat="45.69579231302158" lon="8.46018130091958"><ele>305.0</ele><time>2026-04-11T14:22:24Z</time></trkpt><trkpt lat="45.69588152860466" lon="8.460151065389097"><ele>305.0</ele><time>2026-04-11T14:22:25Z</time></trkpt><trkpt lat="45.69597791928975" lon="8.460120919251697"><ele>305.0</ele><time>2026-04-11T14:22:26Z</time></trkpt><trkpt lat="45.69606822880316" lon="8.46009126017027"><ele>305.33333333333337</ele><time>2026-04-11T14:22:27Z</time></trkpt><trkpt lat="45.69614984807074" lon="8.460068161644863"><ele>305.6666666666667</ele><time>2026-04-11T14:22:28Z</time></trkpt><trkpt lat="45.696226827272454" lon="8.460048284694729"><ele>306.0</ele><time>2026-04-11T14:22:29Z</time></trkpt><trkpt lat="45.696312309529574" lon="8.46002674126326"><ele>306.3333333333333</ele><time>2026-04-11T14:22:30Z</time></trkpt><trkpt lat="45.696387536595104" lon="8.460002806441283"><ele>306.66666666666663</ele><time>2026-04-11T14:22:31Z</time></trkpt><trkpt lat="45.696466790384065" lon="8.459982942342949"><ele>307.0</ele><time>2026-04-11T14:22:32Z</time></trkpt><trkpt lat="45.69655497181724" lon="8.459962226720123"><ele>307.0</ele><time>2026-04-11T14:22:33Z</time></trkpt><trkpt lat="45.69663567254743" lon="8.459938579071684"><ele>307.0</ele><time>2026-04-11T14:22:34Z</time></trkpt><trkpt lat="45.69670771086494" lon="8.459913911777063"><ele>307.0</ele><time>2026-04-11T14:22:35Z</time></trkpt><trkpt lat="45.69677683596748" lon="8.459891982314803"><ele>307.0</ele><time>2026-04-11T14:22:36Z</time></trkpt><trkpt lat="45.69685480006611" lon="8.459868366078846"><ele>307.0</ele><time>2026-04-11T14:22:37Z</time></trkpt><trkpt lat="45.696944270623895" lon="8.459849987575103"><ele>307.0</ele><time>2026-04-11T14:22:38Z</time></trkpt><trkpt lat="45.697013057135976" lon="8.459828371707848"><ele>307.4</ele><time>2026-04-11T14:22:39Z</time></trkpt><trkpt lat="45.697128772514965" lon="8.459790735274195"><ele>307.79999999999995</ele><time>2026-04-11T14:22:41Z</time></trkpt><trkpt lat="45.697238089404685" lon="8.45974503084182"><ele>308.2</ele><time>2026-04-11T14:22:43Z</time></trkpt><trkpt lat="45.69732989555879" lon="8.459682423861036"><ele>308.59999999999997</ele><time>2026-04-11T14:22:45Z</time></trkpt><trkpt lat="45.697412835587286" lon="8.459657011738363"><ele>309.0</ele><time>2026-04-11T14:22:47Z</time></trkpt><trkpt lat="45.6974881840905" lon="8.45964195559611"><ele>309.0</ele><time>2026-04-11T14:22:49Z</time></trkpt><trkpt lat="45.69758635784827" lon="8.459673572327745"><ele>309.0</ele><time>2026-04-11T14:22:51Z</time></trkpt><trkpt lat="45.697661396462244" lon="8.459576611488929"><ele>309.0</ele><time>2026-04-11T14:22:53Z</time></trkpt><trkpt lat="45.69768637491087" lon="8.459487270192838"><ele>309.0</ele><time>2026-04-11T14:22:54Z</time></trkpt><trkpt lat="45.69772298554187" lon="8.459395833537926"><ele>309.0</ele><time>2026-04-11T14:22:55Z</time></trkpt><trkpt lat="45.69779529176588" lon="8.459325745633722"><ele>309.0</ele><time>2026-04-11T14:22:56Z</time></trkpt><trkpt lat="45.697903202757985" lon="8.459293206579469"><ele>308.75</ele><time>2026-04-11T14:22:57Z</time></trkpt><trkpt lat="45.69801891592728" lon="8.459228032127903"><ele>308.5</ele><time>2026-04-11T14:22:58Z</time></trkpt><trkpt lat="45.698148085103604" lon="8.45918917003437"><ele>308.25</ele><time>2026-04-11T14:22:59Z</time></trkpt><trkpt lat="45.698299195475975" lon="8.459154020459373"><ele>308.0</ele><time>2026-04-11T14:23:00Z</time></trkpt><trkpt lat="45.69845727370797" lon="8.459146172668683"><ele>308.33333333333337</ele><time>2026-04-11T14:23:01Z</time></trkpt><trkpt lat="45.698585550634974" lon="8.459125734715311"><ele>308.6666666666667</ele><time>2026-04-11T14:23:02Z</time></trkpt><trkpt lat="45.69868791572004" lon="8.459110248533383"><ele>309.0</ele><time>2026-04-11T14:23:03Z</time></trkpt><trkpt lat="45.69877468573551" lon="8.459099019152037"><ele>309.3333333333333</ele><time>2026-04-11T14:23:04Z</time></trkpt><trkpt lat="45.69883790527311" lon="8.459078763142"><ele>309.66666666666663</ele><time>2026-04-11T14:23:05Z</time></trkpt><trkpt lat="45.69889994732742" lon="8.45905642916997"><ele>310.0</ele><time>2026-04-11T14:23:06Z</time></trkpt><trkpt lat="45.699033126096275" lon="8.458968212971858"><ele>310.0</ele><time>2026-04-11T14:23:08Z</time></trkpt><trkpt lat="45.69910563981685" lon="8.458898664029673"><ele>310.0</ele><time>2026-04-11T14:23:09Z</time></trkpt><trkpt lat="45.69918918301223" lon="8.45882953443229"><ele>310.0</ele><time>2026-04-11T14:23:10Z</time></trkpt><trkpt lat="45.69927789247467" lon="8.458767790352242"><ele>310.0</ele><time>2026-04-11T14:23:11Z</time></trkpt><trkpt lat="45.69938253358084" lon="8.458695636419371"><ele>310.0</ele><time>2026-04-11T14:23:12Z</time></trkpt><trkpt lat="45.69949212389782" lon="8.458630172461977"><ele>310.0</ele><time>2026-04-11T14:23:12.999Z</time></trkpt><trkpt lat="45.69960633214478" lon="8.45858087166417"><ele>310.0</ele><time>2026-04-11T14:23:13.999Z</time></trkpt><trkpt lat="45.69973001447208" lon="8.458549757033383"><ele>310.0</ele><time>2026-04-11T14:23:14.999Z</time></trkpt><trkpt lat="45.69986129302588" lon="8.45856577496775"><ele>310.0</ele><time>2026-04-11T14:23:15.999Z</time></trkpt><trkpt lat="45.6999987879075" lon="8.458621947138301"><ele>310.0</ele><time>2026-04-11T14:23:16.999Z</time></trkpt><trkpt lat="45.70014900191635" lon="8.458748310041498"><ele>310.0</ele><time>2026-04-11T14:23:17.999Z</time></trkpt><trkpt lat="45.70029854032131" lon="8.458835227791807"><ele>310.0</ele><time>2026-04-11T14:23:18.999Z</time></trkpt><trkpt lat="45.70041570136967" lon="8.458933941478671"><ele>310.0</ele><time>2026-04-11T14:23:19.999Z</time></trkpt><trkpt lat="45.70052954071003" lon="8.459017905290287"><ele>310.0</ele><time>2026-04-11T14:23:20.999Z</time></trkpt><trkpt lat="45.70063456693797" lon="8.459102113418103"><ele>310.0</ele><time>2026-04-11T14:23:21.999Z</time></trkpt><trkpt lat="45.70073403892028" lon="8.459175334231965"><ele>310.0</ele><time>2026-04-11T14:23:22.999Z</time></trkpt><trkpt lat="45.700824776793326" lon="8.459244827878948"><ele>310.0</ele><time>2026-04-11T14:23:23.999Z</time></trkpt><trkpt lat="45.700907243484174" lon="8.459303930411071"><ele>310.0</ele><time>2026-04-11T14:23:24.999Z</time></trkpt><trkpt lat="45.70098402750918" lon="8.459370582586805"><ele>310.0</ele><time>2026-04-11T14:23:25.999Z</time></trkpt><trkpt lat="45.701059564948515" lon="8.459428167849909"><ele>310.0</ele><time>2026-04-11T14:23:26.999Z</time></trkpt><trkpt lat="45.70113967158164" lon="8.459488543997155"><ele>310.0</ele><time>2026-04-11T14:23:27.999Z</time></trkpt><trkpt lat="45.70122727916377" lon="8.459556676883574"><ele>310.3333333333333</ele><time>2026-04-11T14:23:28.999Z</time></trkpt><trkpt lat="45.701296360168975" lon="8.45961393262748"><ele>310.66666666666663</ele><time>2026-04-11T14:23:29.999Z</time></trkpt><trkpt lat="45.70135471947582" lon="8.45966429088414"><ele>311.0</ele><time>2026-04-11T14:23:30.999Z</time></trkpt><trkpt lat="45.70140783154356" lon="8.459715612535136"><ele>311.3333333333333</ele><time>2026-04-11T14:23:31.999Z</time></trkpt><trkpt lat="45.701459242081405" lon="8.459778316611551"><ele>311.6666666666667</ele><time>2026-04-11T14:23:32.999Z</time></trkpt><trkpt lat="45.70150435513416" lon="8.459935844358263"><ele>312.0</ele><time>2026-04-11T14:23:34.999Z</time></trkpt><trkpt lat="45.70153254814398" lon="8.460105847863625"><ele>312.0</ele><time>2026-04-11T14:23:36.999Z</time></trkpt><trkpt lat="45.70162901669623" lon="8.460158552531041"><ele>312.0</ele><time>2026-04-11T14:23:39Z</time></trkpt><trkpt lat="45.70170705712469" lon="8.460047089319659"><ele>312.0</ele><time>2026-04-11T14:23:41Z</time></trkpt><trkpt lat="45.701767165334054" lon="8.459902783036258"><ele>312.0</ele><time>2026-04-11T14:23:43Z</time></trkpt><trkpt lat="45.70182601709549" lon="8.459852375235297"><ele>312.0</ele><time>2026-04-11T14:23:44Z</time></trkpt><trkpt lat="45.701893702015326" lon="8.45980203266045"><ele>312.0</ele><time>2026-04-11T14:23:45Z</time></trkpt><trkpt lat="45.701987399606224" lon="8.459705152469159"><ele>312.0</ele><time>2026-04-11T14:23:46Z</time></trkpt><trkpt lat="45.70211987467362" lon="8.459586614629885"><ele>312.0</ele><time>2026-04-11T14:23:47Z</time></trkpt><trkpt lat="45.702235900554484" lon="8.459514845949355"><ele>312.0</ele><time>2026-04-11T14:23:48Z</time></trkpt><trkpt lat="45.70230262937507" lon="8.459467031272967"><ele>312.4</ele><time>2026-04-11T14:23:49Z</time></trkpt><trkpt lat="45.702395070847366" lon="8.459375547937126"><ele>312.79999999999995</ele><time>2026-04-11T14:23:51Z</time></trkpt><trkpt lat="45.702482223888545" lon="8.459300617725228"><ele>313.2</ele><time>2026-04-11T14:23:53Z</time></trkpt><trkpt lat="45.70257887535488" lon="8.459232456135982"><ele>313.59999999999997</ele><time>2026-04-11T14:23:55Z</time></trkpt><trkpt lat="45.70263664274517" lon="8.459169977056407"><ele>314.0</ele><time>2026-04-11T14:23:56Z</time></trkpt><trkpt lat="45.70270569306449" lon="8.459113257248168"><ele>314.4</ele><time>2026-04-11T14:23:57Z</time></trkpt><trkpt lat="45.70277979931048" lon="8.459050063971487"><ele>314.79999999999995</ele><time>2026-04-11T14:23:58Z</time></trkpt><trkpt lat="45.70286146460068" lon="8.45898721445268"><ele>315.20000000000005</ele><time>2026-04-11T14:23:59Z</time></trkpt><trkpt lat="45.70293743690986" lon="8.45892829627117"><ele>315.6</ele><time>2026-04-11T14:24:00Z</time></trkpt><trkpt lat="45.70301508200885" lon="8.458870096955927"><ele>316.0</ele><time>2026-04-11T14:24:01Z</time></trkpt><trkpt lat="45.70309533075744" lon="8.458791146092008"><ele>316.0</ele><time>2026-04-11T14:24:02Z</time></trkpt><trkpt lat="45.70318027713815" lon="8.458744573039441"><ele>316.0</ele><time>2026-04-11T14:24:03Z</time></trkpt><trkpt lat="45.703263325066835" lon="8.45867756055483"><ele>316.0</ele><time>2026-04-11T14:24:04Z</time></trkpt><trkpt lat="45.70334532759783" lon="8.458611391570644"><ele>316.0</ele><time>2026-04-11T14:24:05Z</time></trkpt><trkpt lat="45.7034258049076" lon="8.458546453324793"><ele>316.0</ele><time>2026-04-11T14:24:06Z</time></trkpt><trkpt lat="45.70350799712261" lon="8.458480131293518"><ele>316.40000000000003</ele><time>2026-04-11T14:24:07Z</time></trkpt><trkpt lat="45.703589899909254" lon="8.458414042817711"><ele>316.8</ele><time>2026-04-11T14:24:08Z</time></trkpt><trkpt lat="45.70367006247103" lon="8.458348023070851"><ele>317.20000000000005</ele><time>2026-04-11T14:24:09Z</time></trkpt><trkpt lat="45.70375280493393" lon="8.458279669327826"><ele>317.6</ele><time>2026-04-11T14:24:10Z</time></trkpt><trkpt lat="45.70384148753701" lon="8.458206408454215"><ele>318.0</ele><time>2026-04-11T14:24:11Z</time></trkpt><trkpt lat="45.703932711567745" lon="8.458131048034916"><ele>318.0</ele><time>2026-04-11T14:24:12Z</time></trkpt><trkpt lat="45.704027657780614" lon="8.458052612696113"><ele>318.0</ele><time>2026-04-11T14:24:13Z</time></trkpt><trkpt lat="45.70412047615666" lon="8.457975935207457"><ele>318.0</ele><time>2026-04-11T14:24:14Z</time></trkpt><trkpt lat="45.704218271901176" lon="8.457896378785147"><ele>318.0</ele><time>2026-04-11T14:24:15Z</time></trkpt><trkpt lat="45.704312802995354" lon="8.457819503150462"><ele>318.0</ele><time>2026-04-11T14:24:16Z</time></trkpt><trkpt lat="45.70440929527648" lon="8.457740043263128"><ele>317.8</ele><time>2026-04-11T14:24:17Z</time></trkpt><trkpt lat="45.704506571429086" lon="8.457659800592559"><ele>317.6</ele><time>2026-04-11T14:24:18Z</time></trkpt><trkpt lat="45.70461252214756" lon="8.457572402362688"><ele>317.4</ele><time>2026-04-11T14:24:19Z</time></trkpt><trkpt lat="45.70470209645449" lon="8.457498512847138"><ele>317.2</ele><time>2026-04-11T14:24:20Z</time></trkpt><trkpt lat="45.70478705193722" lon="8.457428433413208"><ele>317.0</ele><time>2026-04-11T14:24:21Z</time></trkpt><trkpt lat="45.70487688457724" lon="8.457354330735638"><ele>317.0</ele><time>2026-04-11T14:24:22Z</time></trkpt><trkpt lat="45.704952562925165" lon="8.457291903911216"><ele>317.0</ele><time>2026-04-11T14:24:23Z</time></trkpt><trkpt lat="45.70502225252464" lon="8.457234417231444"><ele>317.0</ele><time>2026-04-11T14:24:24Z</time></trkpt><trkpt lat="45.70509422125713" lon="8.45717530630161"><ele>317.0</ele><time>2026-04-11T14:24:25Z</time></trkpt><trkpt lat="45.705162650999796" lon="8.457119557828436"><ele>317.0</ele><time>2026-04-11T14:24:26Z</time></trkpt><trkpt lat="45.705225802748004" lon="8.457068109085077"><ele>317.0</ele><time>2026-04-11T14:24:27Z</time></trkpt><trkpt lat="45.70530070815708" lon="8.457007084946365"><ele>317.2</ele><time>2026-04-11T14:24:28Z</time></trkpt><trkpt lat="45.70538129492353" lon="8.456940336057968"><ele>317.4</ele><time>2026-04-11T14:24:29Z</time></trkpt><trkpt lat="45.70546711768052" lon="8.456868851514956"><ele>317.6</ele><time>2026-04-11T14:24:30Z</time></trkpt><trkpt lat="45.705558384961016" lon="8.456794174534137"><ele>317.8</ele><time>2026-04-11T14:24:31Z</time></trkpt><trkpt lat="45.70563938506916" lon="8.456735075921884"><ele>318.0</ele><time>2026-04-11T14:24:32Z</time></trkpt><trkpt lat="45.7057190912003" lon="8.456679274907126"><ele>318.0</ele><time>2026-04-11T14:24:33Z</time></trkpt><trkpt lat="45.705785154442424" lon="8.456601745333021"><ele>318.0</ele><time>2026-04-11T14:24:34Z</time></trkpt><trkpt lat="45.7058594980783" lon="8.456594994233987"><ele>318.0</ele><time>2026-04-11T14:24:35Z</time></trkpt><trkpt lat="45.705931159068214" lon="8.456574803426964"><ele>318.0</ele><time>2026-04-11T14:24:36Z</time></trkpt><trkpt lat="45.706004946711765" lon="8.456598286444915"><ele>318.0</ele><time>2026-04-11T14:24:37Z</time></trkpt><trkpt lat="45.706075206158424" lon="8.456638852246758"><ele>318.0</ele><time>2026-04-11T14:24:38Z</time></trkpt><trkpt lat="45.706147442820225" lon="8.456582916576043"><ele>317.8333333333333</ele><time>2026-04-11T14:24:39Z</time></trkpt><trkpt lat="45.70619410093175" lon="8.456474371281658"><ele>317.6666666666667</ele><time>2026-04-11T14:24:40Z</time></trkpt><trkpt lat="45.70615363681332" lon="8.456303033795114"><ele>317.5</ele><time>2026-04-11T14:24:41Z</time></trkpt><trkpt lat="45.706206316836585" lon="8.456223931576037"><ele>317.33333333333337</ele><time>2026-04-11T14:24:42Z</time></trkpt><trkpt lat="45.706260510871004" lon="8.456162266457111"><ele>317.1666666666667</ele><time>2026-04-11T14:24:43Z</time></trkpt><trkpt lat="45.70632702460788" lon="8.456100029955374"><ele>317.0</ele><time>2026-04-11T14:24:44Z</time></trkpt><trkpt lat="45.70639455449881" lon="8.45605875342745"><ele>316.83333333333337</ele><time>2026-04-11T14:24:45Z</time></trkpt><trkpt lat="45.706457902733014" lon="8.45598269731489"><ele>316.6666666666667</ele><time>2026-04-11T14:24:46Z</time></trkpt><trkpt lat="45.70655223286232" lon="8.455971024338858"><ele>316.5</ele><time>2026-04-11T14:24:47Z</time></trkpt><trkpt lat="45.70662576188022" lon="8.455910721287047"><ele>316.3333333333333</ele><time>2026-04-11T14:24:48Z</time></trkpt><trkpt lat="45.706693829504964" lon="8.455854880775368"><ele>316.16666666666663</ele><time>2026-04-11T14:24:49Z</time></trkpt><trkpt lat="45.70675752279667" lon="8.455802113018128"><ele>316.0</ele><time>2026-04-11T14:24:50Z</time></trkpt><trkpt lat="45.706814397899166" lon="8.455755181127568"><ele>316.0</ele><time>2026-04-11T14:24:51Z</time></trkpt><trkpt lat="45.706880385228715" lon="8.455700730549555"><ele>316.0</ele><time>2026-04-11T14:24:52Z</time></trkpt><trkpt lat="45.7069450931779" lon="8.455647345303126"><ele>316.0</ele><time>2026-04-11T14:24:53Z</time></trkpt><trkpt lat="45.70700289279335" lon="8.455599658235188"><ele>316.0</ele><time>2026-04-11T14:24:54Z</time></trkpt><trkpt lat="45.7070652372032" lon="8.455548110402194"><ele>316.0</ele><time>2026-04-11T14:24:55Z</time></trkpt><trkpt lat="45.707181490679574" lon="8.455451595574221"><ele>316.0</ele><time>2026-04-11T14:24:57Z</time></trkpt><trkpt lat="45.70724365684925" lon="8.455400130549705"><ele>316.66666666666663</ele><time>2026-04-11T14:24:58Z</time></trkpt><trkpt lat="45.70730488518058" lon="8.455349673351822"><ele>317.3333333333333</ele><time>2026-04-11T14:24:59Z</time></trkpt><trkpt lat="45.707359687905665" lon="8.455304512106617"><ele>318.0</ele><time>2026-04-11T14:25:00Z</time></trkpt><trkpt lat="45.70747298331465" lon="8.45521102439472"><ele>318.6666666666667</ele><time>2026-04-11T14:25:02Z</time></trkpt><trkpt lat="45.70753675777359" lon="8.455157184920864"><ele>319.33333333333337</ele><time>2026-04-11T14:25:03Z</time></trkpt><trkpt lat="45.70759425739965" lon="8.4551094933343"><ele>320.0</ele><time>2026-04-11T14:25:04Z</time></trkpt><trkpt lat="45.70770060364836" lon="8.455021434000237"><ele>320.0</ele><time>2026-04-11T14:25:06Z</time></trkpt><trkpt lat="45.707761137709404" lon="8.454971310132038"><ele>320.0</ele><time>2026-04-11T14:25:07Z</time></trkpt><trkpt lat="45.70782750173331" lon="8.454916118298845"><ele>320.0</ele><time>2026-04-11T14:25:08Z</time></trkpt><trkpt lat="45.70789161884909" lon="8.454862874990077"><ele>320.0</ele><time>2026-04-11T14:25:09Z</time></trkpt><trkpt lat="45.70795793544098" lon="8.454807884305188"><ele>320.0</ele><time>2026-04-11T14:25:10Z</time></trkpt><trkpt lat="45.708030027162664" lon="8.45474839917076"><ele>320.0</ele><time>2026-04-11T14:25:11Z</time></trkpt><trkpt lat="45.708111545873116" lon="8.454681135554445"><ele>320.0</ele><time>2026-04-11T14:25:12Z</time></trkpt><trkpt lat="45.708182953096" lon="8.45462221548087"><ele>320.0</ele><time>2026-04-11T14:25:13Z</time></trkpt><trkpt lat="45.708246905389785" lon="8.454568933748163"><ele>320.0</ele><time>2026-04-11T14:25:14Z</time></trkpt><trkpt lat="45.708315750763255" lon="8.454511665319645"><ele>320.0</ele><time>2026-04-11T14:25:15Z</time></trkpt><trkpt lat="45.708375026101464" lon="8.454440297025418"><ele>320.0</ele><time>2026-04-11T14:25:16Z</time></trkpt><trkpt lat="45.708434867467" lon="8.454389961056911"><ele>320.0</ele><time>2026-04-11T14:25:17Z</time></trkpt><trkpt lat="45.70853765462626" lon="8.454314744557177"><ele>319.6</ele><time>2026-04-11T14:25:18.999Z</time></trkpt><trkpt lat="45.708625089331804" lon="8.454241495956758"><ele>319.2</ele><time>2026-04-11T14:25:20.999Z</time></trkpt><trkpt lat="45.708692806278485" lon="8.45416544131203"><ele>318.8</ele><time>2026-04-11T14:25:22.999Z</time></trkpt><trkpt lat="45.708748722976296" lon="8.454114750841944"><ele>318.4</ele><time>2026-04-11T14:25:24.999Z</time></trkpt><trkpt lat="45.708857370391" lon="8.454030206609799"><ele>318.0</ele><time>2026-04-11T14:25:26.999Z</time></trkpt><trkpt lat="45.708944769158464" lon="8.453957609087766"><ele>318.0</ele><time>2026-04-11T14:25:27.999Z</time></trkpt><trkpt lat="45.70904421089712" lon="8.453880845345708"><ele>318.0</ele><time>2026-04-11T14:25:28.999Z</time></trkpt><trkpt lat="45.70913839962577" lon="8.453813796126278"><ele>318.0</ele><time>2026-04-11T14:25:29.999Z</time></trkpt><trkpt lat="45.70921888297389" lon="8.453757630203322"><ele>318.0</ele><time>2026-04-11T14:25:30.999Z</time></trkpt><trkpt lat="45.70930596600505" lon="8.453698914267083"><ele>318.0</ele><time>2026-04-11T14:25:31.999Z</time></trkpt><trkpt lat="45.70941152540177" lon="8.453633324492587"><ele>318.2</ele><time>2026-04-11T14:25:32.999Z</time></trkpt><trkpt lat="45.70952493078202" lon="8.453569094511167"><ele>318.4</ele><time>2026-04-11T14:25:33.999Z</time></trkpt><trkpt lat="45.70963450901967" lon="8.453521981358824"><ele>318.59999999999997</ele><time>2026-04-11T14:25:34.999Z</time></trkpt><trkpt lat="45.70973553754102" lon="8.45348459296287"><ele>318.8</ele><time>2026-04-11T14:25:35.999Z</time></trkpt><trkpt lat="45.709837076785455" lon="8.453451422155222"><ele>319.0</ele><time>2026-04-11T14:25:36.999Z</time></trkpt><trkpt lat="45.70996289518976" lon="8.453405891220726"><ele>319.0</ele><time>2026-04-11T14:25:37.999Z</time></trkpt><trkpt lat="45.710099267064166" lon="8.453371377968667"><ele>319.0</ele><time>2026-04-11T14:25:38.999Z</time></trkpt><trkpt lat="45.71024572935022" lon="8.453369155848284"><ele>319.0</ele><time>2026-04-11T14:25:39.999Z</time></trkpt><trkpt lat="45.71040767760497" lon="8.453342020564142"><ele>319.0</ele><time>2026-04-11T14:25:40.999Z</time></trkpt><trkpt lat="45.71060222840392" lon="8.453301499580185"><ele>319.75</ele><time>2026-04-11T14:25:41.999Z</time></trkpt><trkpt lat="45.71076022255353" lon="8.45327901812786"><ele>320.5</ele><time>2026-04-11T14:25:42.999Z</time></trkpt><trkpt lat="45.710899006431305" lon="8.453265081444519"><ele>321.25</ele><time>2026-04-11T14:25:43.999Z</time></trkpt><trkpt lat="45.71102031127846" lon="8.453246158249366"><ele>322.0</ele><time>2026-04-11T14:25:44.999Z</time></trkpt><trkpt lat="45.71113776801676" lon="8.453225100122069"><ele>322.0</ele><time>2026-04-11T14:25:45.999Z</time></trkpt><trkpt lat="45.711273615164174" lon="8.45320191674529"><ele>322.0</ele><time>2026-04-11T14:25:46.999Z</time></trkpt><trkpt lat="45.711412406780454" lon="8.453179727222967"><ele>322.0</ele><time>2026-04-11T14:25:47.999Z</time></trkpt><trkpt lat="45.71155159643465" lon="8.453158346163649"><ele>322.0</ele><time>2026-04-11T14:25:48.999Z</time></trkpt><trkpt lat="45.711691239054026" lon="8.453131926497576"><ele>322.0</ele><time>2026-04-11T14:25:49.999Z</time></trkpt><trkpt lat="45.71183409226264" lon="8.453112202606762"><ele>322.0</ele><time>2026-04-11T14:25:50.999Z</time></trkpt><trkpt lat="45.711975973279955" lon="8.453091357946752"><ele>322.0</ele><time>2026-04-11T14:25:52Z</time></trkpt><trkpt lat="45.7121082846401" lon="8.453074471190403"><ele>322.0</ele><time>2026-04-11T14:25:53Z</time></trkpt><trkpt lat="45.71222610701048" lon="8.453056217655828"><ele>322.0</ele><time>2026-04-11T14:25:54Z</time></trkpt><trkpt lat="45.71230609806685" lon="8.453048418376497"><ele>322.0</ele><time>2026-04-11T14:25:55Z</time></trkpt><trkpt lat="45.712442762030605" lon="8.453058674792963"><ele>322.0</ele><time>2026-04-11T14:25:57Z</time></trkpt><trkpt lat="45.71253589195465" lon="8.453091859580077"><ele>322.0</ele><time>2026-04-11T14:25:58Z</time></trkpt><trkpt lat="45.71262662258807" lon="8.453153419791875"><ele>322.0</ele><time>2026-04-11T14:25:59Z</time></trkpt><trkpt lat="45.7127276122684" lon="8.453138457297024"><ele>322.5</ele><time>2026-04-11T14:26:00Z</time></trkpt><trkpt lat="45.71282259894717" lon="8.453036221300534"><ele>323.0</ele><time>2026-04-11T14:26:01Z</time></trkpt><trkpt lat="45.71294272651075" lon="8.45292606357659"><ele>323.5</ele><time>2026-04-11T14:26:02Z</time></trkpt><trkpt lat="45.71309310902461" lon="8.452861788770118"><ele>324.0</ele><time>2026-04-11T14:26:03Z</time></trkpt><trkpt lat="45.7132534981337" lon="8.452786150284275"><ele>324.3333333333333</ele><time>2026-04-11T14:26:04Z</time></trkpt><trkpt lat="45.71341904270129" lon="8.45268236733421"><ele>324.66666666666663</ele><time>2026-04-11T14:26:05Z</time></trkpt><trkpt lat="45.71360043967849" lon="8.452576831160762"><ele>325.0</ele><time>2026-04-11T14:26:06Z</time></trkpt><trkpt lat="45.71378888293804" lon="8.45248070754672"><ele>325.3333333333333</ele><time>2026-04-11T14:26:07Z</time></trkpt><trkpt lat="45.7139787923328" lon="8.452397625603224"><ele>325.6666666666667</ele><time>2026-04-11T14:26:08Z</time></trkpt><trkpt lat="45.71415869154591" lon="8.452304098799088"><ele>326.0</ele><time>2026-04-11T14:26:09Z</time></trkpt><trkpt lat="45.71433680846549" lon="8.452219511494825"><ele>326.0</ele><time>2026-04-11T14:26:10Z</time></trkpt><trkpt lat="45.71451322996784" lon="8.45213283561569"><ele>326.0</ele><time>2026-04-11T14:26:11Z</time></trkpt><trkpt lat="45.71468683799624" lon="8.452051129174341"><ele>326.0</ele><time>2026-04-11T14:26:12Z</time></trkpt><trkpt lat="45.71486460284644" lon="8.451970586817033"><ele>326.0</ele><time>2026-04-11T14:26:13Z</time></trkpt><trkpt lat="45.71501895004333" lon="8.451901168470332"><ele>326.0</ele><time>2026-04-11T14:26:14Z</time></trkpt><trkpt lat="45.71516593349394" lon="8.451834305304487"><ele>326.0</ele><time>2026-04-11T14:26:15Z</time></trkpt><trkpt lat="45.715294564450716" lon="8.451775888931406"><ele>326.5</ele><time>2026-04-11T14:26:16Z</time></trkpt><trkpt lat="45.71543481381967" lon="8.451706574584778"><ele>327.0</ele><time>2026-04-11T14:26:17Z</time></trkpt><trkpt lat="45.71557422125757" lon="8.45164016018213"><ele>327.5</ele><time>2026-04-11T14:26:18Z</time></trkpt><trkpt lat="45.71571963273741" lon="8.451572951500331"><ele>328.0</ele><time>2026-04-11T14:26:19Z</time></trkpt><trkpt lat="45.71586034078774" lon="8.451507420682042"><ele>328.0</ele><time>2026-04-11T14:26:20Z</time></trkpt><trkpt lat="45.7159888759953" lon="8.451452421781111"><ele>328.0</ele><time>2026-04-11T14:26:21Z</time></trkpt><trkpt lat="45.716125139212814" lon="8.451382582057994"><ele>328.0</ele><time>2026-04-11T14:26:22Z</time></trkpt><trkpt lat="45.71626683594384" lon="8.451304844096883"><ele>328.0</ele><time>2026-04-11T14:26:23Z</time></trkpt><trkpt lat="45.71641623530548" lon="8.451231591712759"><ele>327.66666666666663</ele><time>2026-04-11T14:26:24Z</time></trkpt><trkpt lat="45.71657318558354" lon="8.45116492080852"><ele>327.3333333333333</ele><time>2026-04-11T14:26:25Z</time></trkpt><trkpt lat="45.71673201387309" lon="8.451089370583018"><ele>327.0</ele><time>2026-04-11T14:26:26Z</time></trkpt><trkpt lat="45.716895546451745" lon="8.451014516134444"><ele>327.0</ele><time>2026-04-11T14:26:27Z</time></trkpt><trkpt lat="45.717050131730204" lon="8.450943540501079"><ele>327.0</ele><time>2026-04-11T14:26:28Z</time></trkpt><trkpt lat="45.71719560663037" lon="8.450868826731629"><ele>327.0</ele><time>2026-04-11T14:26:29Z</time></trkpt><trkpt lat="45.71731956114343" lon="8.450803812463526"><ele>327.0</ele><time>2026-04-11T14:26:30Z</time></trkpt><trkpt lat="45.7174520312158" lon="8.450720597009902"><ele>327.0</ele><time>2026-04-11T14:26:31Z</time></trkpt><trkpt lat="45.717602518376964" lon="8.45063333093453"><ele>327.0</ele><time>2026-04-11T14:26:32Z</time></trkpt><trkpt lat="45.71773555559964" lon="8.45057230264925"><ele>327.0</ele><time>2026-04-11T14:26:33Z</time></trkpt><trkpt lat="45.717842227453694" lon="8.450527247893008"><ele>327.0</ele><time>2026-04-11T14:26:34Z</time></trkpt><trkpt lat="45.71795625150032" lon="8.450519555569802"><ele>327.0</ele><time>2026-04-11T14:26:35Z</time></trkpt><trkpt lat="45.718074909788115" lon="8.450521027742914"><ele>327.0</ele><time>2026-04-11T14:26:36Z</time></trkpt><trkpt lat="45.71818920347385" lon="8.45042790283778"><ele>327.0</ele><time>2026-04-11T14:26:37Z</time></trkpt><trkpt lat="45.71830622371819" lon="8.450294479175158"><ele>327.0</ele><time>2026-04-11T14:26:38Z</time></trkpt><trkpt lat="45.71844090774246" lon="8.450212627683763"><ele>327.6666666666667</ele><time>2026-04-11T14:26:39Z</time></trkpt><trkpt lat="45.71859404693349" lon="8.450169102786404"><ele>328.33333333333337</ele><time>2026-04-11T14:26:40Z</time></trkpt><trkpt lat="45.71874960033274" lon="8.450117660661121"><ele>329.0</ele><time>2026-04-11T14:26:41Z</time></trkpt><trkpt lat="45.7188971360624" lon="8.450042436142487"><ele>329.0</ele><time>2026-04-11T14:26:42Z</time></trkpt><trkpt lat="45.71903728630514" lon="8.44996666340442"><ele>329.0</ele><time>2026-04-11T14:26:43Z</time></trkpt><trkpt lat="45.719178722761704" lon="8.449899414609249"><ele>329.0</ele><time>2026-04-11T14:26:44Z</time></trkpt><trkpt lat="45.719301286568346" lon="8.449845619425894"><ele>329.0</ele><time>2026-04-11T14:26:45Z</time></trkpt><trkpt lat="45.71941840214588" lon="8.4497890412519"><ele>329.0</ele><time>2026-04-11T14:26:46Z</time></trkpt><trkpt lat="45.71952771107508" lon="8.449731625738439"><ele>329.0</ele><time>2026-04-11T14:26:47Z</time></trkpt><trkpt lat="45.7196366696981" lon="8.449670624324831"><ele>329.0</ele><time>2026-04-11T14:26:48Z</time></trkpt><trkpt lat="45.71974851819383" lon="8.449610052463242"><ele>329.0</ele><time>2026-04-11T14:26:49Z</time></trkpt><trkpt lat="45.71985995239141" lon="8.44955250036905"><ele>329.0</ele><time>2026-04-11T14:26:50Z</time></trkpt><trkpt lat="45.719966816604234" lon="8.449495828009367"><ele>329.0</ele><time>2026-04-11T14:26:51Z</time></trkpt><trkpt lat="45.72008055413847" lon="8.449436344184525"><ele>329.0</ele><time>2026-04-11T14:26:52Z</time></trkpt><trkpt lat="45.72018838706927" lon="8.449369375951411"><ele>329.0</ele><time>2026-04-11T14:26:53Z</time></trkpt><trkpt lat="45.72030283761527" lon="8.44930387124408"><ele>330.0</ele><time>2026-04-11T14:26:54Z</time></trkpt><trkpt lat="45.72041419659127" lon="8.449233353164331"><ele>331.0</ele><time>2026-04-11T14:26:55Z</time></trkpt><trkpt lat="45.72052638234522" lon="8.449155439011289"><ele>332.0</ele><time>2026-04-11T14:26:56Z</time></trkpt><trkpt lat="45.720637213892616" lon="8.449081219001151"><ele>333.0</ele><time>2026-04-11T14:26:57Z</time></trkpt><trkpt lat="45.72074440060709" lon="8.449005305940823"><ele>333.0</ele><time>2026-04-11T14:26:58Z</time></trkpt><trkpt lat="45.72085308237694" lon="8.44892780085041"><ele>333.0</ele><time>2026-04-11T14:26:59Z</time></trkpt><trkpt lat="45.72096006447476" lon="8.448846431864686"><ele>333.0</ele><time>2026-04-11T14:27:00Z</time></trkpt><trkpt lat="45.72107001775323" lon="8.448768799436692"><ele>333.0</ele><time>2026-04-11T14:27:01Z</time></trkpt><trkpt lat="45.72117762308988" lon="8.448689979255148"><ele>333.25</ele><time>2026-04-11T14:27:02Z</time></trkpt><trkpt lat="45.72128439707875" lon="8.448611535655656"><ele>333.5</ele><time>2026-04-11T14:27:03Z</time></trkpt><trkpt lat="45.721390433154546" lon="8.448527548759584"><ele>333.75</ele><time>2026-04-11T14:27:04Z</time></trkpt><trkpt lat="45.72149852679252" lon="8.44844863637607"><ele>334.0</ele><time>2026-04-11T14:27:05Z</time></trkpt><trkpt lat="45.721608668342505" lon="8.44837061703804"><ele>334.0</ele><time>2026-04-11T14:27:06Z</time></trkpt><trkpt lat="45.72171489131596" lon="8.448293345499117"><ele>334.0</ele><time>2026-04-11T14:27:07Z</time></trkpt><trkpt lat="45.721822082963726" lon="8.448214303173716"><ele>334.0</ele><time>2026-04-11T14:27:08Z</time></trkpt><trkpt lat="45.721931427311574" lon="8.448133247207272"><ele>334.0</ele><time>2026-04-11T14:27:09Z</time></trkpt><trkpt lat="45.7220349698844" lon="8.448049214960982"><ele>334.0</ele><time>2026-04-11T14:27:10Z</time></trkpt><trkpt lat="45.72213991662812" lon="8.447968488609007"><ele>334.0</ele><time>2026-04-11T14:27:11Z</time></trkpt><trkpt lat="45.72223701999266" lon="8.447893405054629"><ele>334.0</ele><time>2026-04-11T14:27:12Z</time></trkpt><trkpt lat="45.722328232495784" lon="8.447826413777745"><ele>334.0</ele><time>2026-04-11T14:27:13Z</time></trkpt><trkpt lat="45.722416118717206" lon="8.44776984502674"><ele>334.0</ele><time>2026-04-11T14:27:14Z</time></trkpt><trkpt lat="45.72249708579322" lon="8.447721799974973"><ele>333.8333333333333</ele><time>2026-04-11T14:27:15Z</time></trkpt><trkpt lat="45.72256903499517" lon="8.447685727052383"><ele>333.66666666666663</ele><time>2026-04-11T14:27:16Z</time></trkpt><trkpt lat="45.72264662643772" lon="8.44766031790982"><ele>333.5</ele><time>2026-04-11T14:27:28.999Z</time></trkpt><trkpt lat="45.722724647166956" lon="8.447644270398264"><ele>333.3333333333333</ele><time>2026-04-11T14:27:30.999Z</time></trkpt><trkpt lat="45.72284499537475" lon="8.447669902005757"><ele>333.1666666666667</ele><time>2026-04-11T14:27:32.999Z</time></trkpt><trkpt lat="45.7229344535962" lon="8.447698276961242"><ele>333.0</ele><time>2026-04-11T14:27:33.999Z</time></trkpt><trkpt lat="45.72303614706108" lon="8.447718581224807"><ele>333.0</ele><time>2026-04-11T14:27:34.999Z</time></trkpt><trkpt lat="45.723153739952785" lon="8.447677285843014"><ele>333.0</ele><time>2026-04-11T14:27:35.999Z</time></trkpt><trkpt lat="45.7232662038242" lon="8.447537436575537"><ele>333.0</ele><time>2026-04-11T14:27:36.999Z</time></trkpt><trkpt lat="45.723332260697504" lon="8.447335622070737"><ele>333.0</ele><time>2026-04-11T14:27:38Z</time></trkpt><trkpt lat="45.7233875309383" lon="8.447116151917275"><ele>332.6666666666667</ele><time>2026-04-11T14:27:39Z</time></trkpt><trkpt lat="45.72350156620498" lon="8.44693111973169"><ele>332.33333333333337</ele><time>2026-04-11T14:27:40Z</time></trkpt><trkpt lat="45.72367662005505" lon="8.446851141502522"><ele>332.0</ele><time>2026-04-11T14:27:41Z</time></trkpt><trkpt lat="45.723815625584116" lon="8.44673251442251"><ele>332.5</ele><time>2026-04-11T14:27:42Z</time></trkpt><trkpt lat="45.72395217767423" lon="8.446648273635637"><ele>333.0</ele><time>2026-04-11T14:27:43Z</time></trkpt><trkpt lat="45.72407047664425" lon="8.446558668476955"><ele>333.5</ele><time>2026-04-11T14:27:44Z</time></trkpt><trkpt lat="45.72419699582026" lon="8.446470170718278"><ele>334.0</ele><time>2026-04-11T14:27:45Z</time></trkpt><trkpt lat="45.724339359942604" lon="8.446369276644113"><ele>334.66666666666663</ele><time>2026-04-11T14:27:46Z</time></trkpt><trkpt lat="45.724504292879615" lon="8.446240087316859"><ele>335.3333333333333</ele><time>2026-04-11T14:27:47Z</time></trkpt><trkpt lat="45.724683323879844" lon="8.446106930851068"><ele>336.0</ele><time>2026-04-11T14:27:48Z</time></trkpt><trkpt lat="45.72486771143485" lon="8.44598161315482"><ele>336.0</ele><time>2026-04-11T14:27:49Z</time></trkpt><trkpt lat="45.72505912872413" lon="8.445850035021158"><ele>336.0</ele><time>2026-04-11T14:27:50Z</time></trkpt><trkpt lat="45.72525424219671" lon="8.445721713896573"><ele>336.0</ele><time>2026-04-11T14:27:51Z</time></trkpt><trkpt lat="45.725448948318494" lon="8.445604570058299"><ele>336.3333333333333</ele><time>2026-04-11T14:27:52Z</time></trkpt><trkpt lat="45.725624059037855" lon="8.445513991130277"><ele>336.66666666666663</ele><time>2026-04-11T14:27:53Z</time></trkpt><trkpt lat="45.725800110233585" lon="8.44543555956368"><ele>337.0</ele><time>2026-04-11T14:27:54Z</time></trkpt><trkpt lat="45.72595996104936" lon="8.445361453194373"><ele>338.66666666666663</ele><time>2026-04-11T14:27:55Z</time></trkpt><trkpt lat="45.726127124080314" lon="8.445285918574578"><ele>340.3333333333333</ele><time>2026-04-11T14:27:56Z</time></trkpt><trkpt lat="45.72629084314359" lon="8.445214595497069"><ele>342.0</ele><time>2026-04-11T14:27:57Z</time></trkpt><trkpt lat="45.72645151493523" lon="8.44514244478188"><ele>342.0</ele><time>2026-04-11T14:27:58Z</time></trkpt><trkpt lat="45.72661109356622" lon="8.445070632082738"><ele>342.0</ele><time>2026-04-11T14:27:59Z</time></trkpt><trkpt lat="45.7267764227075" lon="8.444993734036833"><ele>342.0</ele><time>2026-04-11T14:28:00Z</time></trkpt><trkpt lat="45.72694124745749" lon="8.444919082317275"><ele>341.6666666666667</ele><time>2026-04-11T14:28:01Z</time></trkpt><trkpt lat="45.72710574526645" lon="8.444846952758049"><ele>341.33333333333337</ele><time>2026-04-11T14:28:02Z</time></trkpt><trkpt lat="45.727274867759" lon="8.444773765710408"><ele>341.0</ele><time>2026-04-11T14:28:03Z</time></trkpt><trkpt lat="45.72744332978349" lon="8.444696497869627"><ele>341.0</ele><time>2026-04-11T14:28:04Z</time></trkpt><trkpt lat="45.72760900752243" lon="8.4446074247613"><ele>341.0</ele><time>2026-04-11T14:28:05Z</time></trkpt><trkpt lat="45.727769292271915" lon="8.444552703205503"><ele>341.0</ele><time>2026-04-11T14:28:06Z</time></trkpt><trkpt lat="45.7279397096781" lon="8.444481265812781"><ele>340.6666666666667</ele><time>2026-04-11T14:28:07Z</time></trkpt><trkpt lat="45.72810923728755" lon="8.444415019637333"><ele>340.3333333333333</ele><time>2026-04-11T14:28:08Z</time></trkpt><trkpt lat="45.72828292556287" lon="8.444352017746862"><ele>340.0</ele><time>2026-04-11T14:28:09Z</time></trkpt><trkpt lat="45.728453301208255" lon="8.444291627076192"><ele>340.66666666666663</ele><time>2026-04-11T14:28:10Z</time></trkpt><trkpt lat="45.72860897050723" lon="8.444236451165468"><ele>341.3333333333333</ele><time>2026-04-11T14:28:11Z</time></trkpt><trkpt lat="45.72874772238139" lon="8.444157048205255"><ele>342.0</ele><time>2026-04-11T14:28:12Z</time></trkpt><trkpt lat="45.728887970293904" lon="8.444110270101715"><ele>342.0</ele><time>2026-04-11T14:28:13Z</time></trkpt><trkpt lat="45.72901714964282" lon="8.444064030516508"><ele>342.0</ele><time>2026-04-11T14:28:14Z</time></trkpt><trkpt lat="45.729131656016776" lon="8.444027126799512"><ele>342.0</ele><time>2026-04-11T14:28:15Z</time></trkpt><trkpt lat="45.72922157882747" lon="8.443998091253938"><ele>342.0</ele><time>2026-04-11T14:28:16Z</time></trkpt><trkpt lat="45.729286494040075" lon="8.443973485691593"><ele>342.0</ele><time>2026-04-11T14:28:17Z</time></trkpt><trkpt lat="45.729368698269234" lon="8.443970016715657"><ele>342.0</ele><time>2026-04-11T14:28:19Z</time></trkpt><trkpt lat="45.729435802922644" lon="8.443945163119219"><ele>342.0</ele><time>2026-04-11T14:28:31Z</time></trkpt><trkpt lat="45.72953821602699" lon="8.44391012688291"><ele>342.0</ele><time>2026-04-11T14:28:42Z</time></trkpt><trkpt lat="45.729640694188035" lon="8.44387261686744"><ele>342.0</ele><time>2026-04-11T14:28:44Z</time></trkpt><trkpt lat="45.72975015384559" lon="8.443832740339037"><ele>342.0</ele><time>2026-04-11T14:28:46Z</time></trkpt><trkpt lat="45.72981256059469" lon="8.443810704627607"><ele>342.0</ele><time>2026-04-11T14:28:47Z</time></trkpt><trkpt lat="45.729920335588226" lon="8.44377285506013"><ele>342.0</ele><time>2026-04-11T14:28:49Z</time></trkpt><trkpt lat="45.73001483164921" lon="8.443740385516254"><ele>342.0</ele><time>2026-04-11T14:28:51Z</time></trkpt><trkpt lat="45.73011592043902" lon="8.443695798126498"><ele>342.0</ele><time>2026-04-11T14:28:53Z</time></trkpt><trkpt lat="45.73021581138486" lon="8.443662181281615"><ele>342.0</ele><time>2026-04-11T14:28:55.001Z</time></trkpt><trkpt lat="45.730302165617" lon="8.443635918827049"><ele>341.99999999999994</ele><time>2026-04-11T14:28:57.001Z</time></trkpt><trkpt lat="45.73037492168195" lon="8.443600550690348"><ele>342.0</ele><time>2026-04-11T14:28:59.001Z</time></trkpt><trkpt lat="45.73044452633476" lon="8.443598757486171"><ele>342.0</ele><time>2026-04-11T14:29:01.001Z</time></trkpt><trkpt lat="45.73050679163196" lon="8.443578868415479"><ele>342.0</ele><time>2026-04-11T14:29:03.001Z</time></trkpt><trkpt lat="45.7305811039052" lon="8.443555131235671"><ele>342.0</ele><time>2026-04-11T14:29:06.001Z</time></trkpt><trkpt lat="45.73064962519821" lon="8.443531268751117"><ele>341.99999999999994</ele><time>2026-04-11T14:29:09.001Z</time></trkpt><trkpt lat="45.73072440276482" lon="8.443498928770131"><ele>342.0</ele><time>2026-04-11T14:29:24.001Z</time></trkpt><trkpt lat="45.73082579390716" lon="8.443439269298723"><ele>342.0</ele><time>2026-04-11T14:29:26.001Z</time></trkpt><trkpt lat="45.73088341475857" lon="8.443396577511944"><ele>342.0</ele><time>2026-04-11T14:29:27.001Z</time></trkpt><trkpt lat="45.73095099245425" lon="8.443349441117538"><ele>342.0</ele><time>2026-04-11T14:29:28.001Z</time></trkpt><trkpt lat="45.731020312559" lon="8.443300788638307"><ele>342.0</ele><time>2026-04-11T14:29:29.001Z</time></trkpt><trkpt lat="45.731087394850285" lon="8.443227810144382"><ele>342.0</ele><time>2026-04-11T14:29:30.001Z</time></trkpt><trkpt lat="45.73116791446935" lon="8.443174218029334"><ele>342.0</ele><time>2026-04-11T14:29:31Z</time></trkpt><trkpt lat="45.73126448564169" lon="8.44313041892147"><ele>342.0</ele><time>2026-04-11T14:29:32Z</time></trkpt><trkpt lat="45.731357341056395" lon="8.443066151846349"><ele>342.0</ele><time>2026-04-11T14:29:33Z</time></trkpt><trkpt lat="45.73145261828813" lon="8.442973752044152"><ele>342.0</ele><time>2026-04-11T14:29:34Z</time></trkpt><trkpt lat="45.73156039387429" lon="8.442924750627048"><ele>342.0</ele><time>2026-04-11T14:29:35Z</time></trkpt><trkpt lat="45.73166870815619" lon="8.442849002083902"><ele>342.0</ele><time>2026-04-11T14:29:36Z</time></trkpt><trkpt lat="45.73177411308686" lon="8.4427752887287"><ele>342.0</ele><time>2026-04-11T14:29:37Z</time></trkpt><trkpt lat="45.73188024704862" lon="8.442668431966137"><ele>342.0</ele><time>2026-04-11T14:29:38Z</time></trkpt><trkpt lat="45.73198581100902" lon="8.442582329073504"><ele>342.0</ele><time>2026-04-11T14:29:39Z</time></trkpt><trkpt lat="45.73209604426736" lon="8.442509257853244"><ele>342.5</ele><time>2026-04-11T14:29:40Z</time></trkpt><trkpt lat="45.732208474791896" lon="8.442433146067847"><ele>343.0</ele><time>2026-04-11T14:29:41Z</time></trkpt><trkpt lat="45.73232682624246" lon="8.44239101606653"><ele>343.5</ele><time>2026-04-11T14:29:42Z</time></trkpt><trkpt lat="45.732440466364096" lon="8.44231199577608"><ele>344.0</ele><time>2026-04-11T14:29:43Z</time></trkpt><trkpt lat="45.73254868573432" lon="8.442236747819416"><ele>344.0</ele><time>2026-04-11T14:29:44Z</time></trkpt><trkpt lat="45.73265817441156" lon="8.442159846648964"><ele>344.0</ele><time>2026-04-11T14:29:45Z</time></trkpt><trkpt lat="45.73275362109573" lon="8.442038191643283"><ele>344.0</ele><time>2026-04-11T14:29:46Z</time></trkpt><trkpt lat="45.732862545098754" lon="8.441967899912973"><ele>344.0</ele><time>2026-04-11T14:29:47Z</time></trkpt><trkpt lat="45.732974280127905" lon="8.441896287767044"><ele>343.75</ele><time>2026-04-11T14:29:48Z</time></trkpt><trkpt lat="45.733085034779684" lon="8.441820589397192"><ele>343.5</ele><time>2026-04-11T14:29:49Z</time></trkpt><trkpt lat="45.73320714081448" lon="8.44177574034796"><ele>343.25</ele><time>2026-04-11T14:29:50Z</time></trkpt><trkpt lat="45.733314831435315" lon="8.44170048058446"><ele>343.0</ele><time>2026-04-11T14:29:51Z</time></trkpt><trkpt lat="45.73342540707825" lon="8.441623204719923"><ele>343.0</ele><time>2026-04-11T14:29:52Z</time></trkpt><trkpt lat="45.733534721579574" lon="8.441546810123727"><ele>343.0</ele><time>2026-04-11T14:29:53Z</time></trkpt><trkpt lat="45.73364296761117" lon="8.441471163044257"><ele>343.0</ele><time>2026-04-11T14:29:54Z</time></trkpt><trkpt lat="45.73375298410351" lon="8.441394069434047"><ele>343.0</ele><time>2026-04-11T14:29:55Z</time></trkpt><trkpt lat="45.7338625760367" lon="8.441317324529903"><ele>343.75</ele><time>2026-04-11T14:29:56Z</time></trkpt><trkpt lat="45.73397188545157" lon="8.441240777440326"><ele>344.5</ele><time>2026-04-11T14:29:57Z</time></trkpt><trkpt lat="45.734080839817075" lon="8.441164478990421"><ele>345.25</ele><time>2026-04-11T14:29:58Z</time></trkpt><trkpt lat="45.73418982237874" lon="8.441087176967422"><ele>346.0</ele><time>2026-04-11T14:29:59Z</time></trkpt><trkpt lat="45.73430147536511" lon="8.44101536299435"><ele>345.75</ele><time>2026-04-11T14:30:00Z</time></trkpt><trkpt lat="45.734409178964334" lon="8.440926762242183"><ele>345.5</ele><time>2026-04-11T14:30:01Z</time></trkpt><trkpt lat="45.73452713784067" lon="8.440871614631744"><ele>345.25</ele><time>2026-04-11T14:30:02Z</time></trkpt><trkpt lat="45.73463162175147" lon="8.440783326907402"><ele>345.0</ele><time>2026-04-11T14:30:03Z</time></trkpt><trkpt lat="45.73474738616398" lon="8.44072378598487"><ele>345.0</ele><time>2026-04-11T14:30:04Z</time></trkpt><trkpt lat="45.73486374002022" lon="8.440666917723933"><ele>345.0</ele><time>2026-04-11T14:30:05Z</time></trkpt><trkpt lat="45.7349773438345" lon="8.44061160467835"><ele>345.0</ele><time>2026-04-11T14:30:06Z</time></trkpt><trkpt lat="45.735093486559535" lon="8.440551099758487"><ele>345.0</ele><time>2026-04-11T14:30:07Z</time></trkpt><trkpt lat="45.7352040119271" lon="8.440498244509811"><ele>345.0</ele><time>2026-04-11T14:30:08Z</time></trkpt><trkpt lat="45.735308403353585" lon="8.440456935182064"><ele>345.0</ele><time>2026-04-11T14:30:09Z</time></trkpt><trkpt lat="45.735406996244" lon="8.440439169064488"><ele>345.0</ele><time>2026-04-11T14:30:10Z</time></trkpt><trkpt lat="45.73548030046936" lon="8.440459317108862"><ele>345.0</ele><time>2026-04-11T14:30:13Z</time></trkpt><trkpt lat="45.73564741038965" lon="8.44045774981767"><ele>345.0</ele><time>2026-04-11T14:30:15Z</time></trkpt><trkpt lat="45.73573838209423" lon="8.440404107648613"><ele>345.0</ele><time>2026-04-11T14:30:16Z</time></trkpt><trkpt lat="45.735816769071924" lon="8.440271140911163"><ele>345.0</ele><time>2026-04-11T14:30:17Z</time></trkpt><trkpt lat="45.73592047076133" lon="8.440133751550952"><ele>345.0</ele><time>2026-04-11T14:30:18Z</time></trkpt><trkpt lat="45.73605886902661" lon="8.440053537998208"><ele>345.0</ele><time>2026-04-11T14:30:19Z</time></trkpt><trkpt lat="45.736210258216936" lon="8.440006769042895"><ele>345.0</ele><time>2026-04-11T14:30:20Z</time></trkpt><trkpt lat="45.73635184706504" lon="8.439966104103132"><ele>345.0</ele><time>2026-04-11T14:30:21Z</time></trkpt><trkpt lat="45.73648955208746" lon="8.439916210577737"><ele>345.0</ele><time>2026-04-11T14:30:22Z</time></trkpt><trkpt lat="45.73662309621712" lon="8.439865688352416"><ele>345.0</ele><time>2026-04-11T14:30:23Z</time></trkpt><trkpt lat="45.73675911468128" lon="8.439817483295387"><ele>345.0</ele><time>2026-04-11T14:30:24Z</time></trkpt><trkpt lat="45.736893437499546" lon="8.439766307766025"><ele>345.0</ele><time>2026-04-11T14:30:25Z</time></trkpt><trkpt lat="45.737030042826774" lon="8.439710910295057"><ele>345.0</ele><time>2026-04-11T14:30:26Z</time></trkpt><trkpt lat="45.73716775317887" lon="8.43965930934314"><ele>345.0</ele><time>2026-04-11T14:30:27Z</time></trkpt><trkpt lat="45.73730084846125" lon="8.439603281186999"><ele>345.25</ele><time>2026-04-11T14:30:28Z</time></trkpt><trkpt lat="45.73744118590655" lon="8.43956791530204"><ele>345.5</ele><time>2026-04-11T14:30:29Z</time></trkpt><trkpt lat="45.73757672422912" lon="8.439511073978654"><ele>345.75</ele><time>2026-04-11T14:30:30Z</time></trkpt><trkpt lat="45.73770748291636" lon="8.439429726859293"><ele>346.0</ele><time>2026-04-11T14:30:31Z</time></trkpt><trkpt lat="45.73785044840806" lon="8.439371168444207"><ele>346.5</ele><time>2026-04-11T14:30:32Z</time></trkpt><trkpt lat="45.73799185838981" lon="8.439312395222547"><ele>347.0</ele><time>2026-04-11T14:30:33.001Z</time></trkpt><trkpt lat="45.73812726246587" lon="8.439265021956002"><ele>347.5</ele><time>2026-04-11T14:30:34.001Z</time></trkpt><trkpt lat="45.738271197349256" lon="8.43920669549321"><ele>348.0</ele><time>2026-04-11T14:30:35.001Z</time></trkpt><trkpt lat="45.73841453234886" lon="8.439145459684031"><ele>348.25</ele><time>2026-04-11T14:30:36.001Z</time></trkpt><trkpt lat="45.73855515136752" lon="8.439093388615648"><ele>348.5</ele><time>2026-04-11T14:30:37.001Z</time></trkpt><trkpt lat="45.73869522048566" lon="8.439037891047615"><ele>348.75</ele><time>2026-04-11T14:30:38.001Z</time></trkpt><trkpt lat="45.73882282666189" lon="8.438991067426215"><ele>349.0</ele><time>2026-04-11T14:30:39.001Z</time></trkpt><trkpt lat="45.73894620394562" lon="8.438947564353477"><ele>349.0</ele><time>2026-04-11T14:30:40.001Z</time></trkpt><trkpt lat="45.7390657921979" lon="8.438903601763275"><ele>349.0</ele><time>2026-04-11T14:30:41.001Z</time></trkpt><trkpt lat="45.739198603536735" lon="8.43888106633782"><ele>349.0</ele><time>2026-04-11T14:30:42.001Z</time></trkpt><trkpt lat="45.739306943299866" lon="8.438821397911978"><ele>349.0</ele><time>2026-04-11T14:30:43.001Z</time></trkpt><trkpt lat="45.73941109069961" lon="8.43878771451655"><ele>349.2</ele><time>2026-04-11T14:30:44.001Z</time></trkpt><trkpt lat="45.73950619957568" lon="8.438755264663952"><ele>349.4</ele><time>2026-04-11T14:30:45.001Z</time></trkpt><trkpt lat="45.73959676379098" lon="8.438733511920722"><ele>349.6</ele><time>2026-04-11T14:30:46.001Z</time></trkpt><trkpt lat="45.7396852467042" lon="8.438708275266931"><ele>349.8</ele><time>2026-04-11T14:30:47.001Z</time></trkpt><trkpt lat="45.7397791269005" lon="8.43867307067298"><ele>350.0</ele><time>2026-04-11T14:30:48.001Z</time></trkpt><trkpt lat="45.73987865290717" lon="8.438639864659635"><ele>350.0</ele><time>2026-04-11T14:30:49.001Z</time></trkpt><trkpt lat="45.739984919636356" lon="8.438605649325954"><ele>350.0</ele><time>2026-04-11T14:30:50.001Z</time></trkpt><trkpt lat="45.74008032749985" lon="8.438570496362836"><ele>350.0</ele><time>2026-04-11T14:30:51.001Z</time></trkpt><trkpt lat="45.74016920657954" lon="8.438536911446182"><ele>350.0</ele><time>2026-04-11T14:30:52.001Z</time></trkpt><trkpt lat="45.7402521504856" lon="8.438505433830848"><ele>350.0</ele><time>2026-04-11T14:30:53.001Z</time></trkpt><trkpt lat="45.740329338395014" lon="8.438477732336223"><ele>349.6666666666667</ele><time>2026-04-11T14:30:54.001Z</time></trkpt><trkpt lat="45.74041192820854" lon="8.438444254590623"><ele>349.33333333333337</ele><time>2026-04-11T14:30:55.001Z</time></trkpt><trkpt lat="45.74049726170195" lon="8.43840786445484"><ele>349.0</ele><time>2026-04-11T14:30:56.001Z</time></trkpt><trkpt lat="45.740579046923806" lon="8.438370993504794"><ele>348.6666666666667</ele><time>2026-04-11T14:30:57.001Z</time></trkpt><trkpt lat="45.740657751575164" lon="8.438332126152464"><ele>348.3333333333333</ele><time>2026-04-11T14:30:58.001Z</time></trkpt><trkpt lat="45.74073820396984" lon="8.438290712934315"><ele>348.0</ele><time>2026-04-11T14:30:59.001Z</time></trkpt><trkpt lat="45.740810183488904" lon="8.438256528710648"><ele>348.0</ele><time>2026-04-11T14:31:00.001Z</time></trkpt><trkpt lat="45.74087898375818" lon="8.438234296974843"><ele>348.0</ele><time>2026-04-11T14:31:01.001Z</time></trkpt><trkpt lat="45.74095326804457" lon="8.438220873706811"><ele>348.0</ele><time>2026-04-11T14:31:02.001Z</time></trkpt><trkpt lat="45.74103233345291" lon="8.438218948358653"><ele>348.0</ele><time>2026-04-11T14:31:03.001Z</time></trkpt><trkpt lat="45.74114134522675" lon="8.438204497151485"><ele>348.0</ele><time>2026-04-11T14:31:05.001Z</time></trkpt><trkpt lat="45.7412255840719" lon="8.43817449966612"><ele>348.0</ele><time>2026-04-11T14:31:07.001Z</time></trkpt><trkpt lat="45.74128977879331" lon="8.438170512641149"><ele>348.0</ele><time>2026-04-11T14:31:09.001Z</time></trkpt><trkpt lat="45.74141487248274" lon="8.438176950911975"><ele>348.0</ele><time>2026-04-11T14:31:11.001Z</time></trkpt><trkpt lat="45.74151089622711" lon="8.438105319441272"><ele>348.0</ele><time>2026-04-11T14:31:13.001Z</time></trkpt><trkpt lat="45.74154440743266" lon="8.438028755508753"><ele>348.0</ele><time>2026-04-11T14:31:14.001Z</time></trkpt><trkpt lat="45.741556490405166" lon="8.43792635543125"><ele>348.0</ele><time>2026-04-11T14:31:15.001Z</time></trkpt><trkpt lat="45.74155909016142" lon="8.437822855060642"><ele>348.0</ele><time>2026-04-11T14:31:16.001Z</time></trkpt><trkpt lat="45.741563615525024" lon="8.437724132403728"><ele>348.0</ele><time>2026-04-11T14:31:17.001Z</time></trkpt><trkpt lat="45.74157964822376" lon="8.437607504007861"><ele>348.0</ele><time>2026-04-11T14:31:18.001Z</time></trkpt><trkpt lat="45.74161047477549" lon="8.43751352144039"><ele>348.0</ele><time>2026-04-11T14:31:19.001Z</time></trkpt><trkpt lat="45.74164853933138" lon="8.437423401027779"><ele>348.0</ele><time>2026-04-11T14:31:20.001Z</time></trkpt><trkpt lat="45.7416841167952" lon="8.437347293186344"><ele>348.0</ele><time>2026-04-11T14:31:21.001Z</time></trkpt><trkpt lat="45.741729173426236" lon="8.437263920926316"><ele>348.0</ele><time>2026-04-11T14:31:22.001Z</time></trkpt><trkpt lat="45.74177472989357" lon="8.437172087204234"><ele>348.0</ele><time>2026-04-11T14:31:23.001Z</time></trkpt><trkpt lat="45.74181843551969" lon="8.437090740803676"><ele>348.0</ele><time>2026-04-11T14:31:24.001Z</time></trkpt><trkpt lat="45.74186686362791" lon="8.436999608112611"><ele>348.0</ele><time>2026-04-11T14:31:25.001Z</time></trkpt><trkpt lat="45.74191823745023" lon="8.436899915389995"><ele>348.0</ele><time>2026-04-11T14:31:26.001Z</time></trkpt><trkpt lat="45.74197713663637" lon="8.43678543520771"><ele>348.0</ele><time>2026-04-11T14:31:27.001Z</time></trkpt><trkpt lat="45.74204028580969" lon="8.436663267532035"><ele>348.0</ele><time>2026-04-11T14:31:28.001Z</time></trkpt><trkpt lat="45.74210373342531" lon="8.436537412597286"><ele>348.0</ele><time>2026-04-11T14:31:29.001Z</time></trkpt><trkpt lat="45.74216881749865" lon="8.43640377760052"><ele>348.0</ele><time>2026-04-11T14:31:30.001Z</time></trkpt><trkpt lat="45.74223586137497" lon="8.43626927149121"><ele>348.0</ele><time>2026-04-11T14:31:31.001Z</time></trkpt><trkpt lat="45.74230331697151" lon="8.436131923609402"><ele>348.0</ele><time>2026-04-11T14:31:32.001Z</time></trkpt><trkpt lat="45.74236433107458" lon="8.436009969728378"><ele>348.0</ele><time>2026-04-11T14:31:33.001Z</time></trkpt><trkpt lat="45.742420952994706" lon="8.435887985703754"><ele>348.0</ele><time>2026-04-11T14:31:34.001Z</time></trkpt><trkpt lat="45.74247825976864" lon="8.435763065783087"><ele>348.0</ele><time>2026-04-11T14:31:35.001Z</time></trkpt><trkpt lat="45.74253467196776" lon="8.435636247638381"><ele>348.0</ele><time>2026-04-11T14:31:36.001Z</time></trkpt><trkpt lat="45.742590994504454" lon="8.435512455964897"><ele>348.0</ele><time>2026-04-11T14:31:37Z</time></trkpt><trkpt lat="45.74264011943881" lon="8.435433145424678"><ele>348.0</ele><time>2026-04-11T14:31:38Z</time></trkpt><trkpt lat="45.742693339767705" lon="8.435326287733897"><ele>348.0</ele><time>2026-04-11T14:31:39Z</time></trkpt><trkpt lat="45.742749175200295" lon="8.435216707530266"><ele>348.0</ele><time>2026-04-11T14:31:40Z</time></trkpt><trkpt lat="45.74280262281431" lon="8.43510477925267"><ele>348.0</ele><time>2026-04-11T14:31:41Z</time></trkpt><trkpt lat="45.742855511092536" lon="8.435001736176888"><ele>348.0</ele><time>2026-04-11T14:31:42Z</time></trkpt><trkpt lat="45.7429094500965" lon="8.43489656014056"><ele>348.0</ele><time>2026-04-11T14:31:43Z</time></trkpt><trkpt lat="45.74296391650214" lon="8.434789537782432"><ele>348.0</ele><time>2026-04-11T14:31:44Z</time></trkpt><trkpt lat="45.74301814205487" lon="8.434692254317756"><ele>348.0</ele><time>2026-04-11T14:31:45Z</time></trkpt><trkpt lat="45.743073888662465" lon="8.434601253985758"><ele>348.0</ele><time>2026-04-11T14:31:46Z</time></trkpt><trkpt lat="45.743124402689126" lon="8.434514373271323"><ele>348.0</ele><time>2026-04-11T14:31:47Z</time></trkpt><trkpt lat="45.74317401611472" lon="8.434425491274013"><ele>348.0</ele><time>2026-04-11T14:31:48Z</time></trkpt><trkpt lat="45.743221612463245" lon="8.434338155463239"><ele>348.1666666666667</ele><time>2026-04-11T14:31:49Z</time></trkpt><trkpt lat="45.74327196839608" lon="8.434249595611576"><ele>348.3333333333333</ele><time>2026-04-11T14:31:50Z</time></trkpt><trkpt lat="45.74332201254467" lon="8.434160216627937"><ele>348.5</ele><time>2026-04-11T14:31:51Z</time></trkpt><trkpt lat="45.74337477595248" lon="8.434073547297562"><ele>348.66666666666663</ele><time>2026-04-11T14:31:52Z</time></trkpt><trkpt lat="45.74342371863515" lon="8.433979967416002"><ele>348.8333333333333</ele><time>2026-04-11T14:31:53Z</time></trkpt><trkpt lat="45.74347507373271" lon="8.43388690952944"><ele>349.0</ele><time>2026-04-11T14:31:54Z</time></trkpt><trkpt lat="45.743523521314096" lon="8.433798374550173"><ele>349.16666666666663</ele><time>2026-04-11T14:31:55Z</time></trkpt><trkpt lat="45.74357437855316" lon="8.433709435765033"><ele>349.3333333333333</ele><time>2026-04-11T14:31:56Z</time></trkpt><trkpt lat="45.74362648548473" lon="8.433618986578885"><ele>349.5</ele><time>2026-04-11T14:31:57Z</time></trkpt><trkpt lat="45.743674743515484" lon="8.433537071212134"><ele>349.6666666666667</ele><time>2026-04-11T14:31:58Z</time></trkpt><trkpt lat="45.74371970785982" lon="8.43345924630008"><ele>349.83333333333337</ele><time>2026-04-11T14:31:59Z</time></trkpt><trkpt lat="45.74376196983256" lon="8.43338828092546"><ele>350.0</ele><time>2026-04-11T14:32:00Z</time></trkpt><trkpt lat="45.74384039357478" lon="8.433237306052595"><ele>350.0</ele><time>2026-04-11T14:32:02Z</time></trkpt><trkpt lat="45.74388574557717" lon="8.433153203433665"><ele>350.0</ele><time>2026-04-11T14:32:03Z</time></trkpt><trkpt lat="45.74393458117881" lon="8.43307002702991"><ele>350.0</ele><time>2026-04-11T14:32:04Z</time></trkpt><trkpt lat="45.74398322171239" lon="8.432988581446088"><ele>350.0</ele><time>2026-04-11T14:32:05Z</time></trkpt><trkpt lat="45.74402591725998" lon="8.432914563398942"><ele>350.0</ele><time>2026-04-11T14:32:06Z</time></trkpt><trkpt lat="45.74409936629265" lon="8.432778299715302"><ele>350.0</ele><time>2026-04-11T14:32:08Z</time></trkpt><trkpt lat="45.74413752471816" lon="8.432705022010747"><ele>350.1666666666667</ele><time>2026-04-11T14:32:09Z</time></trkpt><trkpt lat="45.74418114762379" lon="8.43262198514091"><ele>350.33333333333337</ele><time>2026-04-11T14:32:10Z</time></trkpt><trkpt lat="45.74422880495993" lon="8.432535824617773"><ele>350.5</ele><time>2026-04-11T14:32:11Z</time></trkpt><trkpt lat="45.74428417541985" lon="8.43244647820066"><ele>350.6666666666667</ele><time>2026-04-11T14:32:12Z</time></trkpt><trkpt lat="45.74433822624413" lon="8.43235367703713"><ele>350.8333333333333</ele><time>2026-04-11T14:32:13Z</time></trkpt><trkpt lat="45.74440612469817" lon="8.432219720994873"><ele>351.0</ele><time>2026-04-11T14:32:14Z</time></trkpt><trkpt lat="45.74448186223716" lon="8.432123620001654"><ele>351.0</ele><time>2026-04-11T14:32:15Z</time></trkpt><trkpt lat="45.7445307574689" lon="8.432010527576658"><ele>351.0</ele><time>2026-04-11T14:32:16Z</time></trkpt><trkpt lat="45.7445858655493" lon="8.431919160833191"><ele>351.0</ele><time>2026-04-11T14:32:17Z</time></trkpt><trkpt lat="45.744635737354834" lon="8.431833913169845"><ele>351.0</ele><time>2026-04-11T14:32:18Z</time></trkpt><trkpt lat="45.74469119221208" lon="8.431740070870681"><ele>351.0</ele><time>2026-04-11T14:32:19Z</time></trkpt><trkpt lat="45.74474835593837" lon="8.431635982858685"><ele>351.0</ele><time>2026-04-11T14:32:20Z</time></trkpt><trkpt lat="45.74480942221258" lon="8.43150832007688"><ele>351.0</ele><time>2026-04-11T14:32:21Z</time></trkpt><trkpt lat="45.74488806886323" lon="8.431322884230182"><ele>351.0</ele><time>2026-04-11T14:32:22Z</time></trkpt><trkpt lat="45.74495957871879" lon="8.431201052101637"><ele>351.0</ele><time>2026-04-11T14:32:23Z</time></trkpt><trkpt lat="45.74504531198072" lon="8.43105954788988"><ele>351.0</ele><time>2026-04-11T14:32:24Z</time></trkpt><trkpt lat="45.74510208330386" lon="8.430963908273572"><ele>351.0</ele><time>2026-04-11T14:32:25Z</time></trkpt><trkpt lat="45.74514729416957" lon="8.430898773212284"><ele>351.0</ele><time>2026-04-11T14:32:26Z</time></trkpt><trkpt lat="45.74524330530789" lon="8.43081180514489"><ele>351.0</ele><time>2026-04-11T14:32:28Z</time></trkpt><trkpt lat="45.74530169729322" lon="8.430749314309514"><ele>351.0</ele><time>2026-04-11T14:32:29Z</time></trkpt><trkpt lat="45.74535186174514" lon="8.43064760345467"><ele>351.0</ele><time>2026-04-11T14:32:30Z</time></trkpt><trkpt lat="45.74541045600665" lon="8.430539086890935"><ele>351.0</ele><time>2026-04-11T14:32:31Z</time></trkpt><trkpt lat="45.74549134383074" lon="8.430436331731759"><ele>352.0</ele><time>2026-04-11T14:32:32.001Z</time></trkpt><trkpt lat="45.7455876961804" lon="8.430331425372847"><ele>353.0</ele><time>2026-04-11T14:32:33.001Z</time></trkpt><trkpt lat="45.74568313620877" lon="8.430242478942775"><ele>354.0</ele><time>2026-04-11T14:32:34.001Z</time></trkpt><trkpt lat="45.74579283689569" lon="8.43015320120074"><ele>355.0</ele><time>2026-04-11T14:32:35.001Z</time></trkpt><trkpt lat="45.74590536908344" lon="8.43006479614834"><ele>355.0</ele><time>2026-04-11T14:32:36.001Z</time></trkpt><trkpt lat="45.746007517933606" lon="8.429990939035678"><ele>355.0</ele><time>2026-04-11T14:32:37.001Z</time></trkpt><trkpt lat="45.74610489094046" lon="8.429922095471351"><ele>355.0</ele><time>2026-04-11T14:32:38.001Z</time></trkpt><trkpt lat="45.746213315164674" lon="8.42983912265919"><ele>355.0</ele><time>2026-04-11T14:32:39.001Z</time></trkpt><trkpt lat="45.74633397781964" lon="8.429768235671041"><ele>355.0</ele><time>2026-04-11T14:32:40.001Z</time></trkpt><trkpt lat="45.746461856214445" lon="8.429714883573585"><ele>355.0</ele><time>2026-04-11T14:32:41.001Z</time></trkpt><trkpt lat="45.7465911863273" lon="8.429664418870939"><ele>355.0</ele><time>2026-04-11T14:32:42.001Z</time></trkpt><trkpt lat="45.74672579605003" lon="8.429617241338173"><ele>355.0</ele><time>2026-04-11T14:32:43.001Z</time></trkpt><trkpt lat="45.74685509830335" lon="8.4295855035157"><ele>355.3333333333333</ele><time>2026-04-11T14:32:44.001Z</time></trkpt><trkpt lat="45.74698501995979" lon="8.429558569076326"><ele>355.6666666666667</ele><time>2026-04-11T14:32:45.001Z</time></trkpt><trkpt lat="45.74710727680117" lon="8.429548458935843"><ele>356.0</ele><time>2026-04-11T14:32:46.001Z</time></trkpt><trkpt lat="45.74732573018299" lon="8.42954974168148"><ele>356.0</ele><time>2026-04-11T14:32:48.001Z</time></trkpt><trkpt lat="45.747418501517636" lon="8.429558121754601"><ele>356.0</ele><time>2026-04-11T14:32:49.001Z</time></trkpt><trkpt lat="45.74750283276476" lon="8.429549353646161"><ele>356.0</ele><time>2026-04-11T14:32:50.001Z</time></trkpt><trkpt lat="45.74758556350303" lon="8.429549403569203"><ele>356.0</ele><time>2026-04-11T14:32:51.001Z</time></trkpt><trkpt lat="45.747664063881146" lon="8.429584739535906"><ele>356.0</ele><time>2026-04-11T14:32:52.001Z</time></trkpt><trkpt lat="45.74775819981315" lon="8.429581552845654"><ele>356.0</ele><time>2026-04-11T14:32:53.001Z</time></trkpt><trkpt lat="45.74785164271806" lon="8.42963026962821"><ele>356.0</ele><time>2026-04-11T14:32:54.001Z</time></trkpt><trkpt lat="45.74795017292989" lon="8.429638467277865"><ele>356.0</ele><time>2026-04-11T14:32:55.001Z</time></trkpt><trkpt lat="45.74803004272306" lon="8.429681783412438"><ele>356.0</ele><time>2026-04-11T14:32:56.001Z</time></trkpt><trkpt lat="45.748115361716124" lon="8.429725762291785"><ele>356.0</ele><time>2026-04-11T14:32:57.001Z</time></trkpt><trkpt lat="45.74820796195256" lon="8.429761346753232"><ele>356.0</ele><time>2026-04-11T14:32:58.001Z</time></trkpt><trkpt lat="45.748303444306494" lon="8.429806864376353"><ele>356.33333333333337</ele><time>2026-04-11T14:32:59.001Z</time></trkpt><trkpt lat="45.748390488221496" lon="8.429861488757698"><ele>356.6666666666667</ele><time>2026-04-11T14:33:00.001Z</time></trkpt><trkpt lat="45.748467419546245" lon="8.429914381833012"><ele>357.0</ele><time>2026-04-11T14:33:01.001Z</time></trkpt><trkpt lat="45.74853377707978" lon="8.429965559779982"><ele>357.3333333333333</ele><time>2026-04-11T14:33:02.001Z</time></trkpt><trkpt lat="45.7486040616117" lon="8.430009293532029"><ele>357.66666666666663</ele><time>2026-04-11T14:33:03.001Z</time></trkpt><trkpt lat="45.74867923433655" lon="8.430053604603948"><ele>358.0</ele><time>2026-04-11T14:33:04.001Z</time></trkpt><trkpt lat="45.7487671396309" lon="8.43012203920775"><ele>358.25</ele><time>2026-04-11T14:33:05.001Z</time></trkpt><trkpt lat="45.74886447820364" lon="8.430204008997507"><ele>358.5</ele><time>2026-04-11T14:33:06.001Z</time></trkpt><trkpt lat="45.74898693658623" lon="8.430330022222895"><ele>358.75</ele><time>2026-04-11T14:33:07.001Z</time></trkpt><trkpt lat="45.749134506905406" lon="8.430462477156212"><ele>359.0</ele><time>2026-04-11T14:33:08.001Z</time></trkpt><trkpt lat="45.74928979850785" lon="8.430589406389323"><ele>358.6666666666667</ele><time>2026-04-11T14:33:09.001Z</time></trkpt><trkpt lat="45.74943606533599" lon="8.430708070164396"><ele>358.3333333333333</ele><time>2026-04-11T14:33:10.001Z</time></trkpt><trkpt lat="45.74957871362402" lon="8.430821616727671"><ele>358.0</ele><time>2026-04-11T14:33:11.001Z</time></trkpt><trkpt lat="45.74972328798293" lon="8.430936222438275"><ele>358.0</ele><time>2026-04-11T14:33:12.001Z</time></trkpt><trkpt lat="45.74986363841204" lon="8.431048715487528"><ele>358.0</ele><time>2026-04-11T14:33:13.001Z</time></trkpt><trkpt lat="45.74999406092095" lon="8.431156845310166"><ele>358.0</ele><time>2026-04-11T14:33:14.001Z</time></trkpt><trkpt lat="45.75012314802074" lon="8.431257176074686"><ele>357.25</ele><time>2026-04-11T14:33:15.001Z</time></trkpt><trkpt lat="45.750243056033185" lon="8.431352951042056"><ele>356.5</ele><time>2026-04-11T14:33:16.001Z</time></trkpt><trkpt lat="45.750357210019935" lon="8.431451218656923"><ele>355.75</ele><time>2026-04-11T14:33:17.001Z</time></trkpt><trkpt lat="45.750462413599955" lon="8.431540482364127"><ele>355.0</ele><time>2026-04-11T14:33:18.001Z</time></trkpt><trkpt lat="45.75056197045637" lon="8.431612456331749"><ele>355.0</ele><time>2026-04-11T14:33:19.001Z</time></trkpt><trkpt lat="45.75064288218867" lon="8.431656347511725"><ele>355.0</ele><time>2026-04-11T14:33:20.001Z</time></trkpt><trkpt lat="45.75072173866644" lon="8.431716161300976"><ele>355.0</ele><time>2026-04-11T14:33:21.001Z</time></trkpt><trkpt lat="45.75080549816545" lon="8.431816856714393"><ele>355.0</ele><time>2026-04-11T14:33:22.001Z</time></trkpt><trkpt lat="45.7509847367828" lon="8.432107969336856"><ele>356.0</ele><time>2026-04-11T14:33:24.001Z</time></trkpt><trkpt lat="45.751107104220836" lon="8.432249786877776"><ele>357.0</ele><time>2026-04-11T14:33:25.001Z</time></trkpt><trkpt lat="45.751241045900294" lon="8.432397714217704"><ele>358.0</ele><time>2026-04-11T14:33:26.001Z</time></trkpt><trkpt lat="45.7513709219035" lon="8.432552026788242"><ele>358.0</ele><time>2026-04-11T14:33:27.001Z</time></trkpt><trkpt lat="45.75150885230031" lon="8.432671202958055"><ele>358.0</ele><time>2026-04-11T14:33:28.001Z</time></trkpt><trkpt lat="45.75166965323021" lon="8.432710738835334"><ele>358.0</ele><time>2026-04-11T14:33:29.001Z</time></trkpt><trkpt lat="45.75181765827852" lon="8.432689605328413"><ele>358.3333333333333</ele><time>2026-04-11T14:33:30.001Z</time></trkpt><trkpt lat="45.75195456331169" lon="8.432599531341893"><ele>358.6666666666667</ele><time>2026-04-11T14:33:31.001Z</time></trkpt><trkpt lat="45.75209117691546" lon="8.432482275457685"><ele>359.0</ele><time>2026-04-11T14:33:32.001Z</time></trkpt><trkpt lat="45.75223220642515" lon="8.432379349522774"><ele>359.0</ele><time>2026-04-11T14:33:33.001Z</time></trkpt><trkpt lat="45.75237910804379" lon="8.432289234208703"><ele>359.0</ele><time>2026-04-11T14:33:34.001Z</time></trkpt><trkpt lat="45.7525232546273" lon="8.432214468930763"><ele>359.0</ele><time>2026-04-11T14:33:35.001Z</time></trkpt><trkpt lat="45.75267211130095" lon="8.432124224201756"><ele>359.0</ele><time>2026-04-11T14:33:36.001Z</time></trkpt><trkpt lat="45.752821898325365" lon="8.432033083651488"><ele>359.0</ele><time>2026-04-11T14:33:37.001Z</time></trkpt><trkpt lat="45.75295931411903" lon="8.431925708997017"><ele>359.0</ele><time>2026-04-11T14:33:38.001Z</time></trkpt><trkpt lat="45.753114266638995" lon="8.4318569497569"><ele>359.0</ele><time>2026-04-11T14:33:39.001Z</time></trkpt><trkpt lat="45.75326837066534" lon="8.431766263722915"><ele>359.0</ele><time>2026-04-11T14:33:40.001Z</time></trkpt><trkpt lat="45.75340906776889" lon="8.431682030081328"><ele>359.0</ele><time>2026-04-11T14:33:41.001Z</time></trkpt><trkpt lat="45.753534259352065" lon="8.43161311459776"><ele>359.25</ele><time>2026-04-11T14:33:42.001Z</time></trkpt><trkpt lat="45.7536600728001" lon="8.431557208858187"><ele>359.5</ele><time>2026-04-11T14:33:43Z</time></trkpt><trkpt lat="45.75380005197681" lon="8.431530137466325"><ele>359.75</ele><time>2026-04-11T14:33:44Z</time></trkpt><trkpt lat="45.75395177864748" lon="8.431529538492764"><ele>360.0</ele><time>2026-04-11T14:33:45Z</time></trkpt><trkpt lat="45.75411093077922" lon="8.431537277955648"><ele>360.0</ele><time>2026-04-11T14:33:46Z</time></trkpt><trkpt lat="45.75427321235657" lon="8.431527001167733"><ele>360.0</ele><time>2026-04-11T14:33:47Z</time></trkpt><trkpt lat="45.75443672336351" lon="8.431542400199906"><ele>360.0</ele><time>2026-04-11T14:33:48Z</time></trkpt><trkpt lat="45.75460217145371" lon="8.431551600678732"><ele>360.3333333333333</ele><time>2026-04-11T14:33:49Z</time></trkpt><trkpt lat="45.754761239156444" lon="8.431562174387514"><ele>360.66666666666663</ele><time>2026-04-11T14:33:50Z</time></trkpt><trkpt lat="45.754924275448715" lon="8.431572744576092"><ele>361.0</ele><time>2026-04-11T14:33:51Z</time></trkpt><trkpt lat="45.75507787790933" lon="8.431596683610579"><ele>361.5</ele><time>2026-04-11T14:33:52Z</time></trkpt><trkpt lat="45.75521585952906" lon="8.431606083036876"><ele>362.0</ele><time>2026-04-11T14:33:53Z</time></trkpt><trkpt lat="45.75534526929024" lon="8.431619048484732"><ele>362.5</ele><time>2026-04-11T14:33:54Z</time></trkpt><trkpt lat="45.75546881894873" lon="8.431632514603178"><ele>363.0</ele><time>2026-04-11T14:33:55Z</time></trkpt><trkpt lat="45.755592580125985" lon="8.431652433948207"><ele>363.0</ele><time>2026-04-11T14:33:56Z</time></trkpt><trkpt lat="45.755719679153955" lon="8.431675046621805"><ele>363.0</ele><time>2026-04-11T14:33:57Z</time></trkpt><trkpt lat="45.7558419944222" lon="8.431698283450073"><ele>363.0</ele><time>2026-04-11T14:33:58Z</time></trkpt><trkpt lat="45.75597223618694" lon="8.431702592849192"><ele>363.0</ele><time>2026-04-11T14:33:59Z</time></trkpt><trkpt lat="45.75608934520454" lon="8.431748347806677"><ele>363.5</ele><time>2026-04-11T14:34:00Z</time></trkpt><trkpt lat="45.7562160038192" lon="8.431778594354615"><ele>364.0</ele><time>2026-04-11T14:34:01Z</time></trkpt><trkpt lat="45.75634535872287" lon="8.431818115059485"><ele>364.5</ele><time>2026-04-11T14:34:02Z</time></trkpt><trkpt lat="45.75647322367031" lon="8.431851317598404"><ele>365.0</ele><time>2026-04-11T14:34:03Z</time></trkpt><trkpt lat="45.75660494961691" lon="8.431883782390729"><ele>365.0</ele><time>2026-04-11T14:34:04Z</time></trkpt><trkpt lat="45.756735992263245" lon="8.431909046966474"><ele>365.0</ele><time>2026-04-11T14:34:05Z</time></trkpt><trkpt lat="45.75685560088422" lon="8.431921359110415"><ele>365.0</ele><time>2026-04-11T14:34:06Z</time></trkpt><trkpt lat="45.75697831788261" lon="8.431932944106936"><ele>365.0</ele><time>2026-04-11T14:34:07Z</time></trkpt><trkpt lat="45.75710203744341" lon="8.431929958698975"><ele>364.5</ele><time>2026-04-11T14:34:08Z</time></trkpt><trkpt lat="45.7572325162087" lon="8.431894088096763"><ele>364.0</ele><time>2026-04-11T14:34:09Z</time></trkpt><trkpt lat="45.757361300175994" lon="8.431845407026447"><ele>363.5</ele><time>2026-04-11T14:34:10Z</time></trkpt><trkpt lat="45.75749467154939" lon="8.431790897088309"><ele>363.0</ele><time>2026-04-11T14:34:11Z</time></trkpt><trkpt lat="45.757633946291364" lon="8.431697881912386"><ele>362.0</ele><time>2026-04-11T14:34:12Z</time></trkpt><trkpt lat="45.75782702443086" lon="8.431584710712368"><ele>361.0</ele><time>2026-04-11T14:34:13Z</time></trkpt><trkpt lat="45.75803681968543" lon="8.431438789218886"><ele>360.0</ele><time>2026-04-11T14:34:14Z</time></trkpt><trkpt lat="45.758219489029685" lon="8.431303284382846"><ele>359.6666666666667</ele><time>2026-04-11T14:34:15Z</time></trkpt><trkpt lat="45.75839006164889" lon="8.431189883483569"><ele>359.33333333333337</ele><time>2026-04-11T14:34:16Z</time></trkpt><trkpt lat="45.75854890456422" lon="8.431076718781302"><ele>359.0</ele><time>2026-04-11T14:34:17Z</time></trkpt><trkpt lat="45.758698416751066" lon="8.430962453948698"><ele>359.0</ele><time>2026-04-11T14:34:18Z</time></trkpt><trkpt lat="45.7588429821115" lon="8.43085462828566"><ele>359.0</ele><time>2026-04-11T14:34:19Z</time></trkpt><trkpt lat="45.75898542390264" lon="8.430762702579008"><ele>359.0</ele><time>2026-04-11T14:34:20Z</time></trkpt><trkpt lat="45.7591216106653" lon="8.43066512038088"><ele>359.0</ele><time>2026-04-11T14:34:21Z</time></trkpt><trkpt lat="45.759249162128846" lon="8.430569926048362"><ele>359.0</ele><time>2026-04-11T14:34:22Z</time></trkpt><trkpt lat="45.75938363706635" lon="8.430466457302138"><ele>359.0</ele><time>2026-04-11T14:34:23Z</time></trkpt><trkpt lat="45.75952147875058" lon="8.430367175562136"><ele>358.33333333333337</ele><time>2026-04-11T14:34:24Z</time></trkpt><trkpt lat="45.759660237635494" lon="8.43028033548849"><ele>357.6666666666667</ele><time>2026-04-11T14:34:25Z</time></trkpt><trkpt lat="45.75981288776206" lon="8.430211057520085"><ele>357.0</ele><time>2026-04-11T14:34:26Z</time></trkpt><trkpt lat="45.75997863570678" lon="8.43016107516593"><ele>357.0</ele><time>2026-04-11T14:34:27Z</time></trkpt><trkpt lat="45.760140222308564" lon="8.430138876094713"><ele>357.0</ele><time>2026-04-11T14:34:28Z</time></trkpt><trkpt lat="45.76030706676401" lon="8.430137089658842"><ele>357.0</ele><time>2026-04-11T14:34:29Z</time></trkpt><trkpt lat="45.76047865037239" lon="8.430157388015868"><ele>355.0</ele><time>2026-04-11T14:34:30Z</time></trkpt><trkpt lat="45.76064997723631" lon="8.430186835064942"><ele>353.0</ele><time>2026-04-11T14:34:31Z</time></trkpt><trkpt lat="45.760826382890436" lon="8.43018863401844"><ele>351.0</ele><time>2026-04-11T14:34:32Z</time></trkpt><trkpt lat="45.76100114391269" lon="8.430143828134803"><ele>350.6666666666667</ele><time>2026-04-11T14:34:33Z</time></trkpt><trkpt lat="45.76116748780561" lon="8.430031239363537"><ele>350.33333333333337</ele><time>2026-04-11T14:34:34Z</time></trkpt><trkpt lat="45.76132473971051" lon="8.429899687117315"><ele>350.0</ele><time>2026-04-11T14:34:35Z</time></trkpt><trkpt lat="45.76147874028668" lon="8.429806593242969"><ele>350.0</ele><time>2026-04-11T14:34:36Z</time></trkpt><trkpt lat="45.76164125392533" lon="8.429775826010406"><ele>350.0</ele><time>2026-04-11T14:34:37Z</time></trkpt><trkpt lat="45.76179149157672" lon="8.429721711701356"><ele>350.0</ele><time>2026-04-11T14:34:38Z</time></trkpt><trkpt lat="45.76192301863145" lon="8.429650023002372"><ele>347.5</ele><time>2026-04-11T14:34:39Z</time></trkpt><trkpt lat="45.76203243047393" lon="8.429578413597682"><ele>345.0</ele><time>2026-04-11T14:34:40Z</time></trkpt><trkpt lat="45.762139067943735" lon="8.429458581367836"><ele>342.5</ele><time>2026-04-11T14:34:41Z</time></trkpt><trkpt lat="45.76222390368559" lon="8.429311102975968"><ele>340.0</ele><time>2026-04-11T14:34:42Z</time></trkpt><trkpt lat="45.76227573786447" lon="8.42915210320406"><ele>340.0</ele><time>2026-04-11T14:34:43.001Z</time></trkpt><trkpt lat="45.76231328289984" lon="8.428878363890954"><ele>340.0</ele><time>2026-04-11T14:34:45.001Z</time></trkpt><trkpt lat="45.76235736153747" lon="8.428773918988204"><ele>340.0</ele><time>2026-04-11T14:34:46.001Z</time></trkpt><trkpt lat="45.762417739308894" lon="8.428689109751504"><ele>340.0</ele><time>2026-04-11T14:34:47.001Z</time></trkpt><trkpt lat="45.76249117277741" lon="8.42861390793284"><ele>337.6</ele><time>2026-04-11T14:34:48.001Z</time></trkpt><trkpt lat="45.762590701192345" lon="8.428585059416498"><ele>335.2</ele><time>2026-04-11T14:34:49.001Z</time></trkpt><trkpt lat="45.762697944602934" lon="8.428599691282978"><ele>332.79999999999995</ele><time>2026-04-11T14:34:50.001Z</time></trkpt><trkpt lat="45.76279406714248" lon="8.428627821420951"><ele>330.4</ele><time>2026-04-11T14:34:51.001Z</time></trkpt><trkpt lat="45.76288009996652" lon="8.428716867188413"><ele>328.0</ele><time>2026-04-11T14:34:52.001Z</time></trkpt><trkpt lat="45.76294958700387" lon="8.428826223730555"><ele>328.0</ele><time>2026-04-11T14:34:53.001Z</time></trkpt><trkpt lat="45.763002453561626" lon="8.428965444710885"><ele>328.0</ele><time>2026-04-11T14:34:54.001Z</time></trkpt><trkpt lat="45.763046420854025" lon="8.429119410231634"><ele>328.0</ele><time>2026-04-11T14:34:55.001Z</time></trkpt><trkpt lat="45.76308819798398" lon="8.4292829324807"><ele>328.0</ele><time>2026-04-11T14:34:56.001Z</time></trkpt><trkpt lat="45.76313318157542" lon="8.42945062998707"><ele>328.0</ele><time>2026-04-11T14:34:57.001Z</time></trkpt><trkpt lat="45.76319355687911" lon="8.429615412841223"><ele>328.0</ele><time>2026-04-11T14:34:58.001Z</time></trkpt><trkpt lat="45.76326832042892" lon="8.429771783678694"><ele>328.0</ele><time>2026-04-11T14:34:59.001Z</time></trkpt><trkpt lat="45.76336386358408" lon="8.429917247924307"><ele>328.0</ele><time>2026-04-11T14:35:00.001Z</time></trkpt><trkpt lat="45.76346477499934" lon="8.43005058095413"><ele>326.0</ele><time>2026-04-11T14:35:01.001Z</time></trkpt><trkpt lat="45.76356742743819" lon="8.43017460451281"><ele>324.0</ele><time>2026-04-11T14:35:02.001Z</time></trkpt><trkpt lat="45.7636645215982" lon="8.430288280966925"><ele>322.0</ele><time>2026-04-11T14:35:03.001Z</time></trkpt><trkpt lat="45.76376822661996" lon="8.430388507305056"><ele>320.0</ele><time>2026-04-11T14:35:04.001Z</time></trkpt><trkpt lat="45.76386490243839" lon="8.430490013358407"><ele>324.0</ele><time>2026-04-11T14:35:05.001Z</time></trkpt><trkpt lat="45.763967749697514" lon="8.430587273216645"><ele>328.0</ele><time>2026-04-11T14:35:06.001Z</time></trkpt><trkpt lat="45.76408028820162" lon="8.430644286360087"><ele>332.0</ele><time>2026-04-11T14:35:07.001Z</time></trkpt><trkpt lat="45.76421723792187" lon="8.430691244301"><ele>336.0</ele><time>2026-04-11T14:35:08.001Z</time></trkpt><trkpt lat="45.764365957799576" lon="8.430674508868197"><ele>337.25</ele><time>2026-04-11T14:35:09.001Z</time></trkpt><trkpt lat="45.76449442646417" lon="8.430606111798461"><ele>338.5</ele><time>2026-04-11T14:35:10.001Z</time></trkpt><trkpt lat="45.76462461741666" lon="8.430530347657385"><ele>339.75</ele><time>2026-04-11T14:35:11.001Z</time></trkpt><trkpt lat="45.764756220228314" lon="8.430440239539193"><ele>341.0</ele><time>2026-04-11T14:35:12.001Z</time></trkpt><trkpt lat="45.76491916562276" lon="8.430367166786448"><ele>333.6666666666667</ele><time>2026-04-11T14:35:13.001Z</time></trkpt><trkpt lat="45.7651006321495" lon="8.430257613115685"><ele>326.3333333333333</ele><time>2026-04-11T14:35:14.001Z</time></trkpt><trkpt lat="45.76532693506193" lon="8.430123025136362"><ele>319.0</ele><time>2026-04-11T14:35:15.001Z</time></trkpt><trkpt lat="45.76553298942323" lon="8.429997934770062"><ele>319.0</ele><time>2026-04-11T14:35:16.001Z</time></trkpt><trkpt lat="45.76568421904437" lon="8.42990206336406"><ele>319.0</ele><time>2026-04-11T14:35:17.001Z</time></trkpt><trkpt lat="45.7658158857713" lon="8.429814269899484"><ele>319.0</ele><time>2026-04-11T14:35:18.001Z</time></trkpt><trkpt lat="45.76593447919682" lon="8.429726207858002"><ele>319.0</ele><time>2026-04-11T14:35:19.001Z</time></trkpt><trkpt lat="45.76602799867396" lon="8.429621394434044"><ele>315.75</ele><time>2026-04-11T14:35:20.001Z</time></trkpt><trkpt lat="45.766133017472455" lon="8.42954534700124"><ele>312.5</ele><time>2026-04-11T14:35:21.001Z</time></trkpt><trkpt lat="45.76625039822916" lon="8.42948151249486"><ele>309.25</ele><time>2026-04-11T14:35:22.001Z</time></trkpt><trkpt lat="45.7664233716429" lon="8.429443982886514"><ele>306.0</ele><time>2026-04-11T14:35:23.001Z</time></trkpt><trkpt lat="45.76660553242993" lon="8.429392258517977"><ele>306.0</ele><time>2026-04-11T14:35:24.001Z</time></trkpt><trkpt lat="45.76677376662192" lon="8.429300268747324"><ele>306.0</ele><time>2026-04-11T14:35:25.001Z</time></trkpt><trkpt lat="45.766917384852505" lon="8.429220102331241"><ele>306.0</ele><time>2026-04-11T14:35:26.001Z</time></trkpt><trkpt lat="45.76703215345761" lon="8.42913088858005"><ele>306.75</ele><time>2026-04-11T14:35:27.001Z</time></trkpt><trkpt lat="45.76714521804702" lon="8.429041394153568"><ele>307.5</ele><time>2026-04-11T14:35:28.001Z</time></trkpt><trkpt lat="45.7672649688704" lon="8.428975495233168"><ele>308.25</ele><time>2026-04-11T14:35:29.001Z</time></trkpt><trkpt lat="45.76738394312399" lon="8.42893569666826"><ele>309.0</ele><time>2026-04-11T14:35:30.001Z</time></trkpt><trkpt lat="45.76750841787412" lon="8.428920709027766"><ele>309.0</ele><time>2026-04-11T14:35:31.001Z</time></trkpt><trkpt lat="45.76766814341032" lon="8.428938226052447"><ele>309.0</ele><time>2026-04-11T14:35:32.001Z</time></trkpt><trkpt lat="45.76787526142355" lon="8.428958599138928"><ele>309.0</ele><time>2026-04-11T14:35:33.001Z</time></trkpt><trkpt lat="45.7680886383641" lon="8.428981866228368"><ele>308.0</ele><time>2026-04-11T14:35:34.001Z</time></trkpt><trkpt lat="45.768281554266686" lon="8.429002629727048"><ele>307.0</ele><time>2026-04-11T14:35:35.001Z</time></trkpt><trkpt lat="45.768454632405756" lon="8.428959936430957"><ele>306.0</ele><time>2026-04-11T14:35:36.001Z</time></trkpt><trkpt lat="45.768602256119316" lon="8.428834734043896"><ele>305.3333333333333</ele><time>2026-04-11T14:35:37.001Z</time></trkpt><trkpt lat="45.768741975177825" lon="8.42869807712029"><ele>304.66666666666663</ele><time>2026-04-11T14:35:38.001Z</time></trkpt><trkpt lat="45.768897337193614" lon="8.428469734163873"><ele>304.0</ele><time>2026-04-11T14:35:39.001Z</time></trkpt><trkpt lat="45.76907164603925" lon="8.428240378843551"><ele>304.0</ele><time>2026-04-11T14:35:40.001Z</time></trkpt><trkpt lat="45.769253306561865" lon="8.42802662077051"><ele>304.0</ele><time>2026-04-11T14:35:41.001Z</time></trkpt><trkpt lat="45.769433694934214" lon="8.427808571038565"><ele>309.5</ele><time>2026-04-11T14:35:42.001Z</time></trkpt><trkpt lat="45.76959999764654" lon="8.427586931813885"><ele>315.0</ele><time>2026-04-11T14:35:43.001Z</time></trkpt><trkpt lat="45.76974740219991" lon="8.427345126626506"><ele>311.0</ele><time>2026-04-11T14:35:44.001Z</time></trkpt><trkpt lat="45.76984993235773" lon="8.427064261596287"><ele>307.0</ele><time>2026-04-11T14:35:45.001Z</time></trkpt><trkpt lat="45.76993602257108" lon="8.426806048675537"><ele>303.0</ele><time>2026-04-11T14:35:46.001Z</time></trkpt><trkpt lat="45.77001807232925" lon="8.426570665469518"><ele>303.0</ele><time>2026-04-11T14:35:47.001Z</time></trkpt><trkpt lat="45.770047222003356" lon="8.426324370632512"><ele>303.0</ele><time>2026-04-11T14:35:48.001Z</time></trkpt><trkpt lat="45.7700310505832" lon="8.42608717086245"><ele>303.0</ele><time>2026-04-11T14:35:49Z</time></trkpt><trkpt lat="45.7699866573937" lon="8.42590360300163"><ele>301.25</ele><time>2026-04-11T14:35:50Z</time></trkpt><trkpt lat="45.76998486989028" lon="8.42574586770481"><ele>299.5</ele><time>2026-04-11T14:35:51Z</time></trkpt><trkpt lat="45.77007275528538" lon="8.425654725339147"><ele>297.75</ele><time>2026-04-11T14:35:52Z</time></trkpt><trkpt lat="45.77017562184952" lon="8.42559018371515"><ele>296.0</ele><time>2026-04-11T14:35:53Z</time></trkpt><trkpt lat="45.77029969386322" lon="8.425564399370755"><ele>301.0</ele><time>2026-04-11T14:35:54Z</time></trkpt><trkpt lat="45.77047963256386" lon="8.425539241416924"><ele>306.0</ele><time>2026-04-11T14:35:55Z</time></trkpt><trkpt lat="45.770669343816884" lon="8.425511002104228"><ele>311.0</ele><time>2026-04-11T14:35:56Z</time></trkpt><trkpt lat="45.770835371955656" lon="8.425483839082107"><ele>305.75</ele><time>2026-04-11T14:35:57Z</time></trkpt><trkpt lat="45.7709862488298" lon="8.425441347624192"><ele>300.5</ele><time>2026-04-11T14:35:58Z</time></trkpt><trkpt lat="45.771128622446504" lon="8.425427131805215"><ele>295.25</ele><time>2026-04-11T14:35:59Z</time></trkpt><trkpt lat="45.771259279692316" lon="8.425398969184252"><ele>290.0</ele><time>2026-04-11T14:36:00Z</time></trkpt><trkpt lat="45.771399513295314" lon="8.425430285365094"><ele>290.0</ele><time>2026-04-11T14:36:01Z</time></trkpt><trkpt lat="45.77156372242142" lon="8.425456998450516"><ele>290.0</ele><time>2026-04-11T14:36:02Z</time></trkpt><trkpt lat="45.77188590641473" lon="8.425494676534724"><ele>294.5</ele><time>2026-04-11T14:36:04Z</time></trkpt><trkpt lat="45.77202827319651" lon="8.425517040116183"><ele>299.0</ele><time>2026-04-11T14:36:05Z</time></trkpt><trkpt lat="45.77215933588435" lon="8.425536298688058"><ele>303.5</ele><time>2026-04-11T14:36:06Z</time></trkpt><trkpt lat="45.772273751268976" lon="8.425521044704997"><ele>308.0</ele><time>2026-04-11T14:36:07Z</time></trkpt><trkpt lat="45.77237956032187" lon="8.42548958085761"><ele>305.2</ele><time>2026-04-11T14:36:08Z</time></trkpt><trkpt lat="45.772472176035144" lon="8.425437600438759"><ele>302.4</ele><time>2026-04-11T14:36:09Z</time></trkpt><trkpt lat="45.77257597183532" lon="8.42539966414038"><ele>299.59999999999997</ele><time>2026-04-11T14:36:10Z</time></trkpt><trkpt lat="45.772689132911445" lon="8.42538088283568"><ele>296.8</ele><time>2026-04-11T14:36:11Z</time></trkpt><trkpt lat="45.772802977722975" lon="8.425446831301054"><ele>294.0</ele><time>2026-04-11T14:36:12Z</time></trkpt><trkpt lat="45.77288966913466" lon="8.425527882553688"><ele>294.0</ele><time>2026-04-11T14:36:13Z</time></trkpt><trkpt lat="45.77296363529292" lon="8.425645487879462"><ele>294.0</ele><time>2026-04-11T14:36:14Z</time></trkpt><trkpt lat="45.77302627033748" lon="8.4258197100606"><ele>294.0</ele><time>2026-04-11T14:36:15Z</time></trkpt><trkpt lat="45.773078019867036" lon="8.425961543652715"><ele>294.0</ele><time>2026-04-11T14:36:16Z</time></trkpt><trkpt lat="45.773129524867386" lon="8.426075481098817"><ele>294.0</ele><time>2026-04-11T14:36:17Z</time></trkpt><trkpt lat="45.77316827083282" lon="8.426190116609504"><ele>294.0</ele><time>2026-04-11T14:36:18Z</time></trkpt><trkpt lat="45.77320195702635" lon="8.42633128307991"><ele>294.0</ele><time>2026-04-11T14:36:19Z</time></trkpt><trkpt lat="45.77326380604199" lon="8.42648157101714"><ele>294.0</ele><time>2026-04-11T14:36:20Z</time></trkpt><trkpt lat="45.77331540826127" lon="8.426627926567482"><ele>294.0</ele><time>2026-04-11T14:36:21Z</time></trkpt><trkpt lat="45.77335213757077" lon="8.426787845075646"><ele>296.0</ele><time>2026-04-11T14:36:22Z</time></trkpt><trkpt lat="45.77337300198701" lon="8.426963684215766"><ele>298.0</ele><time>2026-04-11T14:36:23Z</time></trkpt><trkpt lat="45.77337597325037" lon="8.427153034214097"><ele>300.0</ele><time>2026-04-11T14:36:24Z</time></trkpt><trkpt lat="45.7733595787901" lon="8.427338151790309"><ele>302.0</ele><time>2026-04-11T14:36:25Z</time></trkpt><trkpt lat="45.77330971437564" lon="8.427496595074258"><ele>302.0</ele><time>2026-04-11T14:36:26Z</time></trkpt><trkpt lat="45.77325000472634" lon="8.427663717469086"><ele>302.0</ele><time>2026-04-11T14:36:27Z</time></trkpt><trkpt lat="45.7731866124119" lon="8.427837707242059"><ele>302.0</ele><time>2026-04-11T14:36:28Z</time></trkpt><trkpt lat="45.77313730912065" lon="8.428026483247256"><ele>302.0</ele><time>2026-04-11T14:36:29Z</time></trkpt><trkpt lat="45.77310645646544" lon="8.428216458778355"><ele>301.0</ele><time>2026-04-11T14:36:30Z</time></trkpt><trkpt lat="45.77311092006131" lon="8.428410906850807"><ele>300.0</ele><time>2026-04-11T14:36:31Z</time></trkpt><trkpt lat="45.773166797499975" lon="8.428658274103734"><ele>299.0</ele><time>2026-04-11T14:36:32Z</time></trkpt><trkpt lat="45.77321830079284" lon="8.42897569007028"><ele>299.0</ele><time>2026-04-11T14:36:33Z</time></trkpt><trkpt lat="45.77327535902254" lon="8.429307792158752"><ele>299.0</ele><time>2026-04-11T14:36:34Z</time></trkpt><trkpt lat="45.77330853498351" lon="8.42958082861027"><ele>299.0</ele><time>2026-04-11T14:36:35Z</time></trkpt><trkpt lat="45.77334314056406" lon="8.429823442667642"><ele>299.0</ele><time>2026-04-11T14:36:36Z</time></trkpt><trkpt lat="45.7733753094111" lon="8.430024396521256"><ele>299.0</ele><time>2026-04-11T14:36:37Z</time></trkpt><trkpt lat="45.7734193956868" lon="8.430216011805639"><ele>299.0</ele><time>2026-04-11T14:36:38Z</time></trkpt><trkpt lat="45.77349223401667" lon="8.430392415380467"><ele>299.0</ele><time>2026-04-11T14:36:39Z</time></trkpt><trkpt lat="45.773600549979555" lon="8.430564073690206"><ele>298.33333333333337</ele><time>2026-04-11T14:36:40Z</time></trkpt><trkpt lat="45.77372810641574" lon="8.43071510049685"><ele>297.6666666666667</ele><time>2026-04-11T14:36:41Z</time></trkpt><trkpt lat="45.77387476377447" lon="8.430839509452264"><ele>297.0</ele><time>2026-04-11T14:36:42Z</time></trkpt><trkpt lat="45.77403746042731" lon="8.430930993883406"><ele>297.0</ele><time>2026-04-11T14:36:43Z</time></trkpt><trkpt lat="45.774211791265095" lon="8.430956108255405"><ele>297.0</ele><time>2026-04-11T14:36:44Z</time></trkpt><trkpt lat="45.77438713397508" lon="8.430903329639575"><ele>297.0</ele><time>2026-04-11T14:36:45Z</time></trkpt><trkpt lat="45.774551751975274" lon="8.430776484889547"><ele>298.0</ele><time>2026-04-11T14:36:46Z</time></trkpt><trkpt lat="45.774709507423815" lon="8.430610778119703"><ele>299.0</ele><time>2026-04-11T14:36:47Z</time></trkpt><trkpt lat="45.774886692885666" lon="8.430422505833384"><ele>300.0</ele><time>2026-04-11T14:36:48Z</time></trkpt><trkpt lat="45.77505372517428" lon="8.430203108933583"><ele>311.5</ele><time>2026-04-11T14:36:49Z</time></trkpt><trkpt lat="45.77521063088113" lon="8.429951382894057"><ele>323.0</ele><time>2026-04-11T14:36:50Z</time></trkpt><trkpt lat="45.77534947920788" lon="8.429655007783488"><ele>314.5</ele><time>2026-04-11T14:36:51Z</time></trkpt><trkpt lat="45.77553005904482" lon="8.429394535448996"><ele>306.0</ele><time>2026-04-11T14:36:52Z</time></trkpt><trkpt lat="45.77572056036406" lon="8.429138088890623"><ele>306.0</ele><time>2026-04-11T14:36:53Z</time></trkpt><trkpt lat="45.77591437945402" lon="8.428864846760495"><ele>306.0</ele><time>2026-04-11T14:36:54Z</time></trkpt><trkpt lat="45.77613015698324" lon="8.42862046265801"><ele>308.0</ele><time>2026-04-11T14:36:55Z</time></trkpt><trkpt lat="45.7763420193323" lon="8.42835367407851"><ele>310.0</ele><time>2026-04-11T14:36:56Z</time></trkpt><trkpt lat="45.77653980102441" lon="8.428100349205124"><ele>307.5</ele><time>2026-04-11T14:36:57Z</time></trkpt><trkpt lat="45.77671817904057" lon="8.427865485939739"><ele>305.0</ele><time>2026-04-11T14:36:58Z</time></trkpt><trkpt lat="45.776898205891904" lon="8.427669189412056"><ele>305.0</ele><time>2026-04-11T14:36:59Z</time></trkpt><trkpt lat="45.777068767418605" lon="8.427509567664085"><ele>305.0</ele><time>2026-04-11T14:37:00Z</time></trkpt><trkpt lat="45.77724665615427" lon="8.4274022734076"><ele>305.0</ele><time>2026-04-11T14:37:01Z</time></trkpt><trkpt lat="45.777455722046646" lon="8.427299126455988"><ele>305.0</ele><time>2026-04-11T14:37:02Z</time></trkpt><trkpt lat="45.777682148392856" lon="8.427177751294984"><ele>305.0</ele><time>2026-04-11T14:37:03Z</time></trkpt><trkpt lat="45.77792298707827" lon="8.427078130268143"><ele>300.5</ele><time>2026-04-11T14:37:04Z</time></trkpt><trkpt lat="45.7781735401823" lon="8.426957158268797"><ele>296.0</ele><time>2026-04-11T14:37:05Z</time></trkpt><trkpt lat="45.77842536856618" lon="8.426833558627646"><ele>299.5</ele><time>2026-04-11T14:37:06Z</time></trkpt><trkpt lat="45.77868768656747" lon="8.426711512851277"><ele>303.0</ele><time>2026-04-11T14:37:07Z</time></trkpt><trkpt lat="45.778954658993186" lon="8.426591571020522"><ele>303.0</ele><time>2026-04-11T14:37:08Z</time></trkpt><trkpt lat="45.779201249925876" lon="8.426470980034871"><ele>303.0</ele><time>2026-04-11T14:37:09Z</time></trkpt><trkpt lat="45.779420257322386" lon="8.426369361154148"><ele>299.0</ele><time>2026-04-11T14:37:10Z</time></trkpt><trkpt lat="45.77964076959876" lon="8.42627740993618"><ele>295.0</ele><time>2026-04-11T14:37:11Z</time></trkpt><trkpt lat="45.779869031281514" lon="8.426235175091204"><ele>295.0</ele><time>2026-04-11T14:37:12.001Z</time></trkpt><trkpt lat="45.780100762853415" lon="8.426187006789101"><ele>295.0</ele><time>2026-04-11T14:37:13.001Z</time></trkpt><trkpt lat="45.78033615844759" lon="8.426126379311635"><ele>298.5</ele><time>2026-04-11T14:37:14.001Z</time></trkpt><trkpt lat="45.78057562989965" lon="8.426105860579575"><ele>302.0</ele><time>2026-04-11T14:37:15.001Z</time></trkpt><trkpt lat="45.7808090452874" lon="8.426063059418109"><ele>302.5</ele><time>2026-04-11T14:37:16.001Z</time></trkpt><trkpt lat="45.78104816545292" lon="8.426025164087443"><ele>303.0</ele><time>2026-04-11T14:37:17.001Z</time></trkpt><trkpt lat="45.78128004028332" lon="8.425989381211664"><ele>303.0</ele><time>2026-04-11T14:37:18.001Z</time></trkpt><trkpt lat="45.781487001012316" lon="8.425982069002856"><ele>303.0</ele><time>2026-04-11T14:37:19.001Z</time></trkpt><trkpt lat="45.78168209344491" lon="8.42600787223732"><ele>303.0</ele><time>2026-04-11T14:37:20.001Z</time></trkpt><trkpt lat="45.78188555900485" lon="8.426046044254578"><ele>310.0</ele><time>2026-04-11T14:37:21.001Z</time></trkpt><trkpt lat="45.782091650355234" lon="8.426059977411516"><ele>317.0</ele><time>2026-04-11T14:37:22.001Z</time></trkpt><trkpt lat="45.78229691853323" lon="8.425778403205436"><ele>317.0</ele><time>2026-04-11T14:37:23.001Z</time></trkpt><trkpt lat="45.78247563231675" lon="8.425622003679774"><ele>317.0</ele><time>2026-04-11T14:37:24.001Z</time></trkpt><trkpt lat="45.78264308675807" lon="8.425423847081335"><ele>317.0</ele><time>2026-04-11T14:37:25.001Z</time></trkpt><trkpt lat="45.78281713154574" lon="8.425209055935406"><ele>314.5</ele><time>2026-04-11T14:37:26.001Z</time></trkpt><trkpt lat="45.78300070853194" lon="8.425013785708236"><ele>312.0</ele><time>2026-04-11T14:37:27.001Z</time></trkpt><trkpt lat="45.78320054646453" lon="8.424856762538175"><ele>312.0</ele><time>2026-04-11T14:37:28.001Z</time></trkpt><trkpt lat="45.78341451299678" lon="8.424713793390644"><ele>312.0</ele><time>2026-04-11T14:37:29.001Z</time></trkpt><trkpt lat="45.783637432731005" lon="8.424572049377938"><ele>309.5</ele><time>2026-04-11T14:37:30.001Z</time></trkpt><trkpt lat="45.783865941117504" lon="8.424428616443095"><ele>307.0</ele><time>2026-04-11T14:37:31.001Z</time></trkpt><trkpt lat="45.78409662296155" lon="8.424288073320582"><ele>307.0</ele><time>2026-04-11T14:37:32.001Z</time></trkpt><trkpt lat="45.78432158999905" lon="8.424147142728064"><ele>307.0</ele><time>2026-04-11T14:37:33.001Z</time></trkpt><trkpt lat="45.784543267863015" lon="8.424004179155991"><ele>303.5</ele><time>2026-04-11T14:37:34.001Z</time></trkpt><trkpt lat="45.784762791696004" lon="8.423854130467442"><ele>300.0</ele><time>2026-04-11T14:37:35.001Z</time></trkpt><trkpt lat="45.78495520156687" lon="8.423700680418774"><ele>300.0</ele><time>2026-04-11T14:37:36.001Z</time></trkpt><trkpt lat="45.78512858554495" lon="8.423537065721979"><ele>300.0</ele><time>2026-04-11T14:37:37.001Z</time></trkpt><trkpt lat="45.78528061020038" lon="8.423387338137792"><ele>300.0</ele><time>2026-04-11T14:37:38.001Z</time></trkpt><trkpt lat="45.78541966923223" lon="8.423245568179142"><ele>299.3333333333333</ele><time>2026-04-11T14:37:39.001Z</time></trkpt><trkpt lat="45.78555728637936" lon="8.4231141506824"><ele>298.66666666666663</ele><time>2026-04-11T14:37:40.001Z</time></trkpt><trkpt lat="45.785689186688934" lon="8.422990608056292"><ele>298.0</ele><time>2026-04-11T14:37:41.001Z</time></trkpt><trkpt lat="45.78581433480589" lon="8.422882704008963"><ele>298.0</ele><time>2026-04-11T14:37:42.001Z</time></trkpt><trkpt lat="45.78593156403834" lon="8.422763887774577"><ele>298.0</ele><time>2026-04-11T14:37:43.001Z</time></trkpt><trkpt lat="45.78604309082612" lon="8.422651467393786"><ele>298.0</ele><time>2026-04-11T14:37:44.001Z</time></trkpt><trkpt lat="45.78615245056584" lon="8.422548385758185"><ele>298.0</ele><time>2026-04-11T14:37:45.001Z</time></trkpt><trkpt lat="45.78625547044743" lon="8.422450924563966"><ele>301.6</ele><time>2026-04-11T14:37:46.001Z</time></trkpt><trkpt lat="45.78635566953411" lon="8.422359234577403"><ele>305.20000000000005</ele><time>2026-04-11T14:37:47.001Z</time></trkpt><trkpt lat="45.786452195295404" lon="8.422275512513588"><ele>308.8</ele><time>2026-04-11T14:37:48.001Z</time></trkpt><trkpt lat="45.786555097649654" lon="8.422217287536872"><ele>312.40000000000003</ele><time>2026-04-11T14:37:49.001Z</time></trkpt><trkpt lat="45.78665363700334" lon="8.422202301172542"><ele>316.0</ele><time>2026-04-11T14:37:50.001Z</time></trkpt><trkpt lat="45.78676322777765" lon="8.422211007417427"><ele>312.75</ele><time>2026-04-11T14:37:51.001Z</time></trkpt><trkpt lat="45.786883393220144" lon="8.422231426455538"><ele>309.5</ele><time>2026-04-11T14:37:52.001Z</time></trkpt><trkpt lat="45.787020599880805" lon="8.422219342788964"><ele>306.25</ele><time>2026-04-11T14:37:53.001Z</time></trkpt><trkpt lat="45.78714268685143" lon="8.422126039211324"><ele>303.0</ele><time>2026-04-11T14:37:54.001Z</time></trkpt><trkpt lat="45.78724802837301" lon="8.422010903608305"><ele>303.0</ele><time>2026-04-11T14:37:55Z</time></trkpt><trkpt lat="45.78732366595913" lon="8.421875270522005"><ele>303.0</ele><time>2026-04-11T14:37:56Z</time></trkpt><trkpt lat="45.78737114937817" lon="8.421728991185349"><ele>303.0</ele><time>2026-04-11T14:37:57Z</time></trkpt><trkpt lat="45.78740987117163" lon="8.421584811127266"><ele>303.0</ele><time>2026-04-11T14:37:58Z</time></trkpt><trkpt lat="45.78745877814974" lon="8.421448043111507"><ele>303.0</ele><time>2026-04-11T14:37:59Z</time></trkpt><trkpt lat="45.7875078186686" lon="8.42132247579859"><ele>303.0</ele><time>2026-04-11T14:38:00Z</time></trkpt><trkpt lat="45.787549754848804" lon="8.421193811861453"><ele>303.0</ele><time>2026-04-11T14:38:01Z</time></trkpt><trkpt lat="45.78760743844292" lon="8.421074600071249"><ele>303.0</ele><time>2026-04-11T14:38:02Z</time></trkpt><trkpt lat="45.7876807222299" lon="8.420962365576298"><ele>303.0</ele><time>2026-04-11T14:38:03Z</time></trkpt><trkpt lat="45.787771046426755" lon="8.420860011824349"><ele>303.0</ele><time>2026-04-11T14:38:04Z</time></trkpt><trkpt lat="45.78787428862432" lon="8.420776614836301"><ele>303.0</ele><time>2026-04-11T14:38:05Z</time></trkpt><trkpt lat="45.787988201623286" lon="8.42071399272674"><ele>303.0</ele><time>2026-04-11T14:38:06Z</time></trkpt><trkpt lat="45.78811312929886" lon="8.420667182499683"><ele>303.0</ele><time>2026-04-11T14:38:07Z</time></trkpt><trkpt lat="45.788243456189626" lon="8.420636763628924"><ele>303.0</ele><time>2026-04-11T14:38:08Z</time></trkpt><trkpt lat="45.78837890886346" lon="8.420576581891437"><ele>303.0</ele><time>2026-04-11T14:38:09Z</time></trkpt><trkpt lat="45.78850475530919" lon="8.420526247929594"><ele>303.0</ele><time>2026-04-11T14:38:10Z</time></trkpt><trkpt lat="45.78861229445329" lon="8.42050739906065"><ele>303.0</ele><time>2026-04-11T14:38:11Z</time></trkpt><trkpt lat="45.78871079972758" lon="8.42047473800822"><ele>303.0</ele><time>2026-04-11T14:38:12Z</time></trkpt><trkpt lat="45.788814180452114" lon="8.420425698506527"><ele>303.0</ele><time>2026-04-11T14:38:13Z</time></trkpt><trkpt lat="45.78893310383977" lon="8.42035312069658"><ele>302.0</ele><time>2026-04-11T14:38:14Z</time></trkpt><trkpt lat="45.78907219094119" lon="8.420203338308506"><ele>301.0</ele><time>2026-04-11T14:38:15Z</time></trkpt><trkpt lat="45.789230734467175" lon="8.42000233749993"><ele>300.0</ele><time>2026-04-11T14:38:16Z</time></trkpt><trkpt lat="45.7893927244504" lon="8.419807536194607"><ele>299.6666666666667</ele><time>2026-04-11T14:38:17Z</time></trkpt><trkpt lat="45.78956556885519" lon="8.419645726376435"><ele>299.33333333333337</ele><time>2026-04-11T14:38:18Z</time></trkpt><trkpt lat="45.7897607217377" lon="8.419505981529149"><ele>299.0</ele><time>2026-04-11T14:38:19Z</time></trkpt><trkpt lat="45.789967730914405" lon="8.419382190997734"><ele>308.5</ele><time>2026-04-11T14:38:20Z</time></trkpt><trkpt lat="45.79017490140892" lon="8.419262415401995"><ele>318.0</ele><time>2026-04-11T14:38:21Z</time></trkpt><trkpt lat="45.79038048803856" lon="8.419124754147468"><ele>318.0</ele><time>2026-04-11T14:38:22Z</time></trkpt><trkpt lat="45.790588135183846" lon="8.418995700544057"><ele>318.0</ele><time>2026-04-11T14:38:23Z</time></trkpt><trkpt lat="45.79079006164069" lon="8.418858362850774"><ele>317.3333333333333</ele><time>2026-04-11T14:38:24Z</time></trkpt><trkpt lat="45.790990949897164" lon="8.418707879617665"><ele>316.66666666666663</ele><time>2026-04-11T14:38:25Z</time></trkpt><trkpt lat="45.791192851483714" lon="8.418574684230446"><ele>316.0</ele><time>2026-04-11T14:38:26Z</time></trkpt><trkpt lat="45.79140270664585" lon="8.418470696114333"><ele>316.0</ele><time>2026-04-11T14:38:27Z</time></trkpt><trkpt lat="45.79160135189157" lon="8.418342988517209"><ele>316.0</ele><time>2026-04-11T14:38:28Z</time></trkpt><trkpt lat="45.79180406934791" lon="8.418209686851888"><ele>316.0</ele><time>2026-04-11T14:38:29Z</time></trkpt><trkpt lat="45.79200618784851" lon="8.418076779047809"><ele>312.3333333333333</ele><time>2026-04-11T14:38:30Z</time></trkpt><trkpt lat="45.79220821113443" lon="8.41794393385211"><ele>308.6666666666667</ele><time>2026-04-11T14:38:31Z</time></trkpt><trkpt lat="45.79240992572808" lon="8.417811291643192"><ele>305.0</ele><time>2026-04-11T14:38:32Z</time></trkpt><trkpt lat="45.792588720962065" lon="8.417692603912394"><ele>308.33333333333337</ele><time>2026-04-11T14:38:33Z</time></trkpt><trkpt lat="45.7927554237683" lon="8.417590563395725"><ele>311.6666666666667</ele><time>2026-04-11T14:38:34Z</time></trkpt><trkpt lat="45.79291605074884" lon="8.417522263032991"><ele>315.0</ele><time>2026-04-11T14:38:35Z</time></trkpt><trkpt lat="45.79306255369226" lon="8.417505571803005"><ele>315.0</ele><time>2026-04-11T14:38:36Z</time></trkpt><trkpt lat="45.79320263518928" lon="8.417506175847926"><ele>315.0</ele><time>2026-04-11T14:38:37Z</time></trkpt><trkpt lat="45.793327074945346" lon="8.417572356798045"><ele>315.0</ele><time>2026-04-11T14:38:38Z</time></trkpt><trkpt lat="45.793451266298284" lon="8.417631807975846"><ele>315.0</ele><time>2026-04-11T14:38:39Z</time></trkpt><trkpt lat="45.793590949611655" lon="8.41763029633451"><ele>317.75</ele><time>2026-04-11T14:38:40Z</time></trkpt><trkpt lat="45.793729072635706" lon="8.417569829003194"><ele>320.5</ele><time>2026-04-11T14:38:41Z</time></trkpt><trkpt lat="45.79385743343304" lon="8.417481939005157"><ele>323.25</ele><time>2026-04-11T14:38:42Z</time></trkpt><trkpt lat="45.79396809709353" lon="8.41740664748651"><ele>326.0</ele><time>2026-04-11T14:38:43Z</time></trkpt><trkpt lat="45.79407658581631" lon="8.417326692379055"><ele>326.0</ele><time>2026-04-11T14:38:44Z</time></trkpt><trkpt lat="45.79419011050023" lon="8.41725531769329"><ele>326.0</ele><time>2026-04-11T14:38:45Z</time></trkpt><trkpt lat="45.79430198178658" lon="8.417167482643734"><ele>326.0</ele><time>2026-04-11T14:38:46Z</time></trkpt><trkpt lat="45.794412650526375" lon="8.417084966522255"><ele>326.0</ele><time>2026-04-11T14:38:47Z</time></trkpt><trkpt lat="45.79452143090593" lon="8.417006963783694"><ele>324.5</ele><time>2026-04-11T14:38:48Z</time></trkpt><trkpt lat="45.79463517732987" lon="8.416927005738199"><ele>323.0</ele><time>2026-04-11T14:38:49Z</time></trkpt><trkpt lat="45.79474420582308" lon="8.416841117450465"><ele>321.5</ele><time>2026-04-11T14:38:50Z</time></trkpt><trkpt lat="45.79485166446398" lon="8.416757148178549"><ele>320.0</ele><time>2026-04-11T14:38:51Z</time></trkpt><trkpt lat="45.79495603630005" lon="8.41667880299811"><ele>320.0</ele><time>2026-04-11T14:38:52Z</time></trkpt><trkpt lat="45.795062520802944" lon="8.416595718118657"><ele>320.0</ele><time>2026-04-11T14:38:53Z</time></trkpt><trkpt lat="45.79517481693382" lon="8.416514578260509"><ele>320.0</ele><time>2026-04-11T14:38:54Z</time></trkpt><trkpt lat="45.79528689271165" lon="8.416450986300879"><ele>320.0</ele><time>2026-04-11T14:38:55Z</time></trkpt><trkpt lat="45.79539089475499" lon="8.416411790745117"><ele>321.8</ele><time>2026-04-11T14:38:56Z</time></trkpt><trkpt lat="45.79549384592014" lon="8.416409094150499"><ele>323.6</ele><time>2026-04-11T14:38:57Z</time></trkpt><trkpt lat="45.795585314012264" lon="8.416388593558526"><ele>325.4</ele><time>2026-04-11T14:38:58Z</time></trkpt><trkpt lat="45.79568643765497" lon="8.416413543670084"><ele>327.2</ele><time>2026-04-11T14:38:59Z</time></trkpt><trkpt lat="45.79578573781899" lon="8.416455739711887"><ele>329.0</ele><time>2026-04-11T14:39:00Z</time></trkpt><trkpt lat="45.79587383639894" lon="8.416492698002186"><ele>329.0</ele><time>2026-04-11T14:39:01Z</time></trkpt><trkpt lat="45.79594938372307" lon="8.41654376238056"><ele>329.0</ele><time>2026-04-11T14:39:02Z</time></trkpt><trkpt lat="45.796025697217964" lon="8.416603690231886"><ele>329.0</ele><time>2026-04-11T14:39:03Z</time></trkpt><trkpt lat="45.796092088573864" lon="8.416672350807882"><ele>329.0</ele><time>2026-04-11T14:39:04Z</time></trkpt><trkpt lat="45.79616493479727" lon="8.416729996592931"><ele>329.0</ele><time>2026-04-11T14:39:05Z</time></trkpt><trkpt lat="45.796210094829256" lon="8.416829056792615"><ele>329.0</ele><time>2026-04-11T14:39:06Z</time></trkpt><trkpt lat="45.796263682386304" lon="8.416949477180843"><ele>329.5</ele><time>2026-04-11T14:39:07Z</time></trkpt><trkpt lat="45.79627022718259" lon="8.41713403935345"><ele>330.0</ele><time>2026-04-11T14:39:09Z</time></trkpt><trkpt lat="45.7961829733566" lon="8.417266568395274"><ele>330.5</ele><time>2026-04-11T14:39:10Z</time></trkpt><trkpt lat="45.79608589501443" lon="8.417368050075865"><ele>331.0</ele><time>2026-04-11T14:39:11Z</time></trkpt><trkpt lat="45.795997006368644" lon="8.417520050364244"><ele>331.0</ele><time>2026-04-11T14:39:12Z</time></trkpt><trkpt lat="45.79594771485272" lon="8.417617183303648"><ele>331.0</ele><time>2026-04-11T14:39:13Z</time></trkpt><trkpt lat="45.79590755900071" lon="8.417788208331894"><ele>331.0</ele><time>2026-04-11T14:39:14Z</time></trkpt><trkpt lat="45.79587157192016" lon="8.417966538828956"><ele>331.0</ele><time>2026-04-11T14:39:15Z</time></trkpt><trkpt lat="45.79583092190409" lon="8.418160438763584"><ele>331.5</ele><time>2026-04-11T14:39:16Z</time></trkpt><trkpt lat="45.79579259894939" lon="8.41835923194896"><ele>332.0</ele><time>2026-04-11T14:39:17Z</time></trkpt><trkpt lat="45.79575523523556" lon="8.418551506873628"><ele>332.5</ele><time>2026-04-11T14:39:18.001Z</time></trkpt><trkpt lat="45.7957441452445" lon="8.418719317548645"><ele>333.0</ele><time>2026-04-11T14:39:19.001Z</time></trkpt><trkpt lat="45.79578003061977" lon="8.418893716726414"><ele>335.6666666666667</ele><time>2026-04-11T14:39:20.001Z</time></trkpt><trkpt lat="45.795855139571266" lon="8.419075581993965"><ele>338.33333333333337</ele><time>2026-04-11T14:39:21.001Z</time></trkpt><trkpt lat="45.795934159124066" lon="8.419278325970673"><ele>341.0</ele><time>2026-04-11T14:39:22.001Z</time></trkpt><trkpt lat="45.796000024496216" lon="8.41948071456169"><ele>340.25</ele><time>2026-04-11T14:39:23.001Z</time></trkpt><trkpt lat="45.796063916674996" lon="8.419644773022226"><ele>339.5</ele><time>2026-04-11T14:39:24.001Z</time></trkpt><trkpt lat="45.796137879113104" lon="8.419782558100442"><ele>338.75</ele><time>2026-04-11T14:39:25.001Z</time></trkpt><trkpt lat="45.79624433535994" lon="8.419893472240757"><ele>338.0</ele><time>2026-04-11T14:39:26.001Z</time></trkpt><trkpt lat="45.7963653038195" lon="8.419983181153452"><ele>338.0</ele><time>2026-04-11T14:39:27.001Z</time></trkpt><trkpt lat="45.796493602202524" lon="8.420073172622553"><ele>338.0</ele><time>2026-04-11T14:39:28.001Z</time></trkpt><trkpt lat="45.79661264958136" lon="8.42018782727347"><ele>338.0</ele><time>2026-04-11T14:39:29.001Z</time></trkpt><trkpt lat="45.79671457452314" lon="8.420343850147388"><ele>338.0</ele><time>2026-04-11T14:39:30.001Z</time></trkpt><trkpt lat="45.79680855282518" lon="8.420530659717242"><ele>338.75</ele><time>2026-04-11T14:39:31.001Z</time></trkpt><trkpt lat="45.79689325391201" lon="8.420725928570274"><ele>339.5</ele><time>2026-04-11T14:39:32.001Z</time></trkpt><trkpt lat="45.79697833415711" lon="8.420872048085121"><ele>340.25</ele><time>2026-04-11T14:39:33.001Z</time></trkpt><trkpt lat="45.79703128473835" lon="8.421026666510917"><ele>341.0</ele><time>2026-04-11T14:39:34.001Z</time></trkpt><trkpt lat="45.797049241876856" lon="8.42118098541271"><ele>342.8</ele><time>2026-04-11T14:39:35.001Z</time></trkpt><trkpt lat="45.79704605979741" lon="8.421319147482384"><ele>344.6</ele><time>2026-04-11T14:39:36.001Z</time></trkpt><trkpt lat="45.797019090342246" lon="8.421467095560054"><ele>346.4</ele><time>2026-04-11T14:39:37.001Z</time></trkpt><trkpt lat="45.79697413225118" lon="8.421613685780123"><ele>348.2</ele><time>2026-04-11T14:39:38.001Z</time></trkpt><trkpt lat="45.796921642656706" lon="8.421727155089021"><ele>350.0</ele><time>2026-04-11T14:39:39.001Z</time></trkpt><trkpt lat="45.79688128360185" lon="8.421828296621037"><ele>350.0</ele><time>2026-04-11T14:39:40.001Z</time></trkpt><trkpt lat="45.796848705542736" lon="8.421912764933325"><ele>350.0</ele><time>2026-04-11T14:39:41.001Z</time></trkpt><trkpt lat="45.796815209435344" lon="8.421992618106062"><ele>350.0</ele><time>2026-04-11T14:39:42.001Z</time></trkpt><trkpt lat="45.796730105736074" lon="8.422105841940128"><ele>350.0</ele><time>2026-04-11T14:39:44.001Z</time></trkpt><trkpt lat="45.79672413127979" lon="8.422211882355024"><ele>350.0</ele><time>2026-04-11T14:39:45.001Z</time></trkpt><trkpt lat="45.796680788653084" lon="8.422333492464777"><ele>350.0</ele><time>2026-04-11T14:39:46.001Z</time></trkpt><trkpt lat="45.79662637328453" lon="8.422477973450748"><ele>352.5</ele><time>2026-04-11T14:39:47.001Z</time></trkpt><trkpt lat="45.796569589770506" lon="8.422651779297116"><ele>355.0</ele><time>2026-04-11T14:39:48.001Z</time></trkpt><trkpt lat="45.79650406208219" lon="8.422810015980975"><ele>357.5</ele><time>2026-04-11T14:39:49.001Z</time></trkpt><trkpt lat="45.796434775388704" lon="8.422981140419486"><ele>360.0</ele><time>2026-04-11T14:39:50.001Z</time></trkpt><trkpt lat="45.79637101919493" lon="8.42315202091917"><ele>361.5</ele><time>2026-04-11T14:39:51.001Z</time></trkpt><trkpt lat="45.79633029041033" lon="8.423273927045381"><ele>363.0</ele><time>2026-04-11T14:39:52.001Z</time></trkpt><trkpt lat="45.79628641369086" lon="8.423380074958967"><ele>364.5</ele><time>2026-04-11T14:39:53.001Z</time></trkpt><trkpt lat="45.79622828892895" lon="8.42348032153578"><ele>366.0</ele><time>2026-04-11T14:39:55.001Z</time></trkpt><trkpt lat="45.79647969372567" lon="8.423662496343105"><ele>366.0</ele><time>2026-04-11T14:39:58.001Z</time></trkpt><trkpt lat="45.7966287465186" lon="8.423711754473745"><ele>366.0</ele><time>2026-04-11T14:39:59.001Z</time></trkpt><trkpt lat="45.79678414614454" lon="8.423768733748966"><ele>366.0</ele><time>2026-04-11T14:40:00.001Z</time></trkpt><trkpt lat="45.796980256458035" lon="8.423721263857"><ele>364.6666666666667</ele><time>2026-04-11T14:40:01Z</time></trkpt><trkpt lat="45.797156684036956" lon="8.423773805709729"><ele>363.33333333333337</ele><time>2026-04-11T14:40:02Z</time></trkpt><trkpt lat="45.79734994688194" lon="8.423799256943894"><ele>362.0</ele><time>2026-04-11T14:40:03Z</time></trkpt><trkpt lat="45.79753558685013" lon="8.423843019968494"><ele>365.0</ele><time>2026-04-11T14:40:04Z</time></trkpt><trkpt lat="45.7977209869591" lon="8.42389183449596"><ele>368.0</ele><time>2026-04-11T14:40:05Z</time></trkpt><trkpt lat="45.797915435982226" lon="8.42392614714956"><ele>371.0</ele><time>2026-04-11T14:40:06Z</time></trkpt><trkpt lat="45.79810405562435" lon="8.42392426015093"><ele>371.0</ele><time>2026-04-11T14:40:07Z</time></trkpt><trkpt lat="45.79829372368089" lon="8.423914934850181"><ele>371.0</ele><time>2026-04-11T14:40:08Z</time></trkpt><trkpt lat="45.798446711311946" lon="8.423969873246659"><ele>371.0</ele><time>2026-04-11T14:40:09Z</time></trkpt><trkpt lat="45.79859729318704" lon="8.423986020892956"><ele>369.5</ele><time>2026-04-11T14:40:10Z</time></trkpt><trkpt lat="45.79873255883878" lon="8.424025826225058"><ele>368.0</ele><time>2026-04-11T14:40:11Z</time></trkpt><trkpt lat="45.79886575884886" lon="8.424064052346747"><ele>366.5</ele><time>2026-04-11T14:40:12Z</time></trkpt><trkpt lat="45.79898929474467" lon="8.424101585688545"><ele>365.0</ele><time>2026-04-11T14:40:13Z</time></trkpt><trkpt lat="45.799107340792176" lon="8.424134520174954"><ele>365.0</ele><time>2026-04-11T14:40:14Z</time></trkpt><trkpt lat="45.79921633132026" lon="8.424163279387184"><ele>365.0</ele><time>2026-04-11T14:40:15Z</time></trkpt><trkpt lat="45.79933786604251" lon="8.424195581866202"><ele>365.0</ele><time>2026-04-11T14:40:16Z</time></trkpt><trkpt lat="45.79949887662478" lon="8.424244250826307"><ele>365.0</ele><time>2026-04-11T14:40:17Z</time></trkpt><trkpt lat="45.799681654896084" lon="8.42429168097511"><ele>364.6666666666667</ele><time>2026-04-11T14:40:18Z</time></trkpt><trkpt lat="45.79987906463208" lon="8.424344674639864"><ele>364.3333333333333</ele><time>2026-04-11T14:40:19Z</time></trkpt><trkpt lat="45.80008044441231" lon="8.424397640764838"><ele>364.0</ele><time>2026-04-11T14:40:20Z</time></trkpt><trkpt lat="45.80028623107144" lon="8.424450074506872"><ele>364.0</ele><time>2026-04-11T14:40:21Z</time></trkpt><trkpt lat="45.80049543859603" lon="8.424502523028242"><ele>364.0</ele><time>2026-04-11T14:40:22Z</time></trkpt><trkpt lat="45.80070485084218" lon="8.424557820296663"><ele>364.0</ele><time>2026-04-11T14:40:23Z</time></trkpt><trkpt lat="45.80091554156138" lon="8.424616545631793"><ele>369.66666666666663</ele><time>2026-04-11T14:40:24Z</time></trkpt><trkpt lat="45.801089356764315" lon="8.42466014143688"><ele>375.3333333333333</ele><time>2026-04-11T14:40:25Z</time></trkpt><trkpt lat="45.80125840380371" lon="8.424696520902634"><ele>381.0</ele><time>2026-04-11T14:40:26Z</time></trkpt><trkpt lat="45.80142009937735" lon="8.424714212269233"><ele>381.0</ele><time>2026-04-11T14:40:27Z</time></trkpt><trkpt lat="45.80156867451696" lon="8.424664131543258"><ele>381.0</ele><time>2026-04-11T14:40:28Z</time></trkpt><trkpt lat="45.80172665188419" lon="8.424576425581046"><ele>381.0</ele><time>2026-04-11T14:40:29Z</time></trkpt><trkpt lat="45.80188712898845" lon="8.424446140603928"><ele>381.3333333333333</ele><time>2026-04-11T14:40:30Z</time></trkpt><trkpt lat="45.8020481089228" lon="8.42427973048132"><ele>381.66666666666663</ele><time>2026-04-11T14:40:31Z</time></trkpt><trkpt lat="45.80221080628718" lon="8.424081843046128"><ele>382.0</ele><time>2026-04-11T14:40:32Z</time></trkpt><trkpt lat="45.802377457612714" lon="8.423872621708043"><ele>381.0</ele><time>2026-04-11T14:40:33Z</time></trkpt><trkpt lat="45.802555677366094" lon="8.42367038321363"><ele>380.0</ele><time>2026-04-11T14:40:34Z</time></trkpt><trkpt lat="45.802748189398926" lon="8.423461158070035"><ele>380.0</ele><time>2026-04-11T14:40:35Z</time></trkpt><trkpt lat="45.802942449045176" lon="8.423241154229535"><ele>380.0</ele><time>2026-04-11T14:40:36Z</time></trkpt><trkpt lat="45.80313258054177" lon="8.42302133754278"><ele>379.0</ele><time>2026-04-11T14:40:37Z</time></trkpt><trkpt lat="45.80330939378545" lon="8.422819273260695"><ele>378.0</ele><time>2026-04-11T14:40:38Z</time></trkpt><trkpt lat="45.8034685642553" lon="8.422617020991348"><ele>377.0</ele><time>2026-04-11T14:40:39Z</time></trkpt><trkpt lat="45.80361756194509" lon="8.422430557682027"><ele>377.0</ele><time>2026-04-11T14:40:40Z</time></trkpt><trkpt lat="45.80375942009125" lon="8.422264642847967"><ele>377.0</ele><time>2026-04-11T14:40:41Z</time></trkpt><trkpt lat="45.80391746409473" lon="8.42214819853283"><ele>377.0</ele><time>2026-04-11T14:40:42Z</time></trkpt><trkpt lat="45.80408465444405" lon="8.422012970960713"><ele>379.0</ele><time>2026-04-11T14:40:43Z</time></trkpt><trkpt lat="45.80426702926996" lon="8.421870867576118"><ele>381.0</ele><time>2026-04-11T14:40:44Z</time></trkpt><trkpt lat="45.80445889106501" lon="8.421724646402831"><ele>383.0</ele><time>2026-04-11T14:40:45Z</time></trkpt><trkpt lat="45.804657864311274" lon="8.421572914776998"><ele>383.0</ele><time>2026-04-11T14:40:46Z</time></trkpt><trkpt lat="45.80486156288652" lon="8.421417239030387"><ele>383.0</ele><time>2026-04-11T14:40:47Z</time></trkpt><trkpt lat="45.80506360224121" lon="8.421242933941345"><ele>385.5</ele><time>2026-04-11T14:40:48Z</time></trkpt><trkpt lat="45.80527013324202" lon="8.4210816587592"><ele>388.0</ele><time>2026-04-11T14:40:49Z</time></trkpt><trkpt lat="45.80548002492026" lon="8.420911619023888"><ele>388.0</ele><time>2026-04-11T14:40:50Z</time></trkpt><trkpt lat="45.80569171211844" lon="8.420743430416985"><ele>388.0</ele><time>2026-04-11T14:40:51Z</time></trkpt><trkpt lat="45.805895666873575" lon="8.420581214311019"><ele>384.0</ele><time>2026-04-11T14:40:52Z</time></trkpt><trkpt lat="45.806092472960515" lon="8.420472988911191"><ele>380.0</ele><time>2026-04-11T14:40:53Z</time></trkpt><trkpt lat="45.80624431511326" lon="8.42038008030547"><ele>376.0</ele><time>2026-04-11T14:40:54Z</time></trkpt><trkpt lat="45.806339627766704" lon="8.420298231009703"><ele>376.0</ele><time>2026-04-11T14:40:55Z</time></trkpt><trkpt lat="45.80641580462941" lon="8.42025850413557"><ele>376.0</ele><time>2026-04-11T14:40:56Z</time></trkpt><trkpt lat="45.80651946964256" lon="8.420215385655462"><ele>376.0</ele><time>2026-04-11T14:40:58Z</time></trkpt><trkpt lat="45.806608391761706" lon="8.420224582000289"><ele>376.0</ele><time>2026-04-11T14:40:59Z</time></trkpt><trkpt lat="45.806715440455946" lon="8.420224499044702"><ele>376.0</ele><time>2026-04-11T14:41:00Z</time></trkpt><trkpt lat="45.80684627393446" lon="8.420201559169316"><ele>378.75</ele><time>2026-04-11T14:41:01Z</time></trkpt><trkpt lat="45.80697931013905" lon="8.42021031261531"><ele>381.5</ele><time>2026-04-11T14:41:02Z</time></trkpt><trkpt lat="45.807125812530494" lon="8.420222374199835"><ele>384.25</ele><time>2026-04-11T14:41:03Z</time></trkpt><trkpt lat="45.807281183939935" lon="8.42023748145306"><ele>387.0</ele><time>2026-04-11T14:41:04Z</time></trkpt><trkpt lat="45.80743743549727" lon="8.420263183762842"><ele>387.0</ele><time>2026-04-11T14:41:05Z</time></trkpt><trkpt lat="45.80758679288822" lon="8.42036393154829"><ele>387.0</ele><time>2026-04-11T14:41:06Z</time></trkpt><trkpt lat="45.8077239494459" lon="8.420414897600157"><ele>387.0</ele><time>2026-04-11T14:41:07Z</time></trkpt><trkpt lat="45.80782780674362" lon="8.420475230111435"><ele>387.0</ele><time>2026-04-11T14:41:08Z</time></trkpt><trkpt lat="45.80791190007165" lon="8.420541367932017"><ele>389.8</ele><time>2026-04-11T14:41:09Z</time></trkpt><trkpt lat="45.80796970069164" lon="8.42063389461088"><ele>392.6</ele><time>2026-04-11T14:41:10Z</time></trkpt><trkpt lat="45.80802911791636" lon="8.420749285639932"><ele>395.40000000000003</ele><time>2026-04-11T14:41:11Z</time></trkpt><trkpt lat="45.80808642775864" lon="8.420882578394492"><ele>398.20000000000005</ele><time>2026-04-11T14:41:12Z</time></trkpt><trkpt lat="45.808145798333385" lon="8.42102398993274"><ele>401.0</ele><time>2026-04-11T14:41:13Z</time></trkpt><trkpt lat="45.80821671906192" lon="8.421157810740677"><ele>400.99999999999994</ele><time>2026-04-11T14:41:14Z</time></trkpt><trkpt lat="45.80829344198866" lon="8.421271124847367"><ele>401.0</ele><time>2026-04-11T14:41:15Z</time></trkpt><trkpt lat="45.80835312308915" lon="8.421365056441724"><ele>401.0</ele><time>2026-04-11T14:41:16Z</time></trkpt><trkpt lat="45.80840626927255" lon="8.421450225294379"><ele>401.0</ele><time>2026-04-11T14:41:17Z</time></trkpt><trkpt lat="45.808450787224075" lon="8.421521567032864"><ele>400.99999999999994</ele><time>2026-04-11T14:41:18.001Z</time></trkpt><trkpt lat="45.80846446173695" lon="8.421637041651387"><ele>401.0</ele><time>2026-04-11T14:41:19.001Z</time></trkpt><trkpt lat="45.80847214999734" lon="8.421811156522848"><ele>401.75</ele><time>2026-04-11T14:41:20.001Z</time></trkpt><trkpt lat="45.808474113947156" lon="8.421974505977326"><ele>402.5</ele><time>2026-04-11T14:41:21.001Z</time></trkpt><trkpt lat="45.80849004536459" lon="8.422146921409754"><ele>403.25</ele><time>2026-04-11T14:41:22.001Z</time></trkpt><trkpt lat="45.808505781156285" lon="8.422318710954684"><ele>404.0</ele><time>2026-04-11T14:41:23.001Z</time></trkpt><trkpt lat="45.80851248812631" lon="8.422485832660536"><ele>409.6</ele><time>2026-04-11T14:41:24.001Z</time></trkpt><trkpt lat="45.80852081319548" lon="8.42263412994409"><ele>415.2</ele><time>2026-04-11T14:41:25.001Z</time></trkpt><trkpt lat="45.8085348118433" lon="8.422788292944077"><ele>420.80000000000007</ele><time>2026-04-11T14:41:26.001Z</time></trkpt><trkpt lat="45.80853896411212" lon="8.42294880836049"><ele>426.40000000000003</ele><time>2026-04-11T14:41:27.001Z</time></trkpt><trkpt lat="45.808546105783556" lon="8.423111770324182"><ele>432.0</ele><time>2026-04-11T14:41:28.001Z</time></trkpt><trkpt lat="45.80855973280506" lon="8.4232898323572"><ele>432.25</ele><time>2026-04-11T14:41:29.001Z</time></trkpt><trkpt lat="45.80857052145333" lon="8.423472078731384"><ele>432.5</ele><time>2026-04-11T14:41:30.001Z</time></trkpt><trkpt lat="45.80859014122284" lon="8.423659671758239"><ele>432.75</ele><time>2026-04-11T14:41:31.001Z</time></trkpt><trkpt lat="45.80860899529264" lon="8.423845206397317"><ele>433.0</ele><time>2026-04-11T14:41:32.001Z</time></trkpt><trkpt lat="45.80862341769611" lon="8.424040843289532"><ele>432.0</ele><time>2026-04-11T14:41:33.001Z</time></trkpt><trkpt lat="45.808629507845694" lon="8.424230322603142"><ele>431.0</ele><time>2026-04-11T14:41:34.001Z</time></trkpt><trkpt lat="45.80863619982419" lon="8.424397369322751"><ele>430.0</ele><time>2026-04-11T14:41:35.001Z</time></trkpt><trkpt lat="45.80864820777093" lon="8.424551329703167"><ele>429.0</ele><time>2026-04-11T14:41:36.001Z</time></trkpt><trkpt lat="45.80869173313941" lon="8.42474375436571"><ele>428.66666666666663</ele><time>2026-04-11T14:41:37.001Z</time></trkpt><trkpt lat="45.80874873952064" lon="8.424994103264417"><ele>428.3333333333333</ele><time>2026-04-11T14:41:38.001Z</time></trkpt><trkpt lat="45.80883637853398" lon="8.425236515793962"><ele>428.0</ele><time>2026-04-11T14:41:39.001Z</time></trkpt><trkpt lat="45.80888977176185" lon="8.425529112203943"><ele>428.0</ele><time>2026-04-11T14:41:40.001Z</time></trkpt><trkpt lat="45.80895584707126" lon="8.425823287234216"><ele>428.0</ele><time>2026-04-11T14:41:41.001Z</time></trkpt><trkpt lat="45.80900080002092" lon="8.426121031820683"><ele>428.0</ele><time>2026-04-11T14:41:42.001Z</time></trkpt><trkpt lat="45.809039847630956" lon="8.426428995485916"><ele>429.66666666666663</ele><time>2026-04-11T14:41:43.001Z</time></trkpt><trkpt lat="45.80908113768922" lon="8.42673127935149"><ele>431.33333333333337</ele><time>2026-04-11T14:41:44.001Z</time></trkpt><trkpt lat="45.809124968449076" lon="8.42703594737769"><ele>433.0</ele><time>2026-04-11T14:41:45.001Z</time></trkpt><trkpt lat="45.80917593973747" lon="8.427324955413273"><ele>433.33333333333337</ele><time>2026-04-11T14:41:46.001Z</time></trkpt><trkpt lat="45.80921034421319" lon="8.427575134190578"><ele>433.66666666666663</ele><time>2026-04-11T14:41:47.001Z</time></trkpt><trkpt lat="45.8092580427864" lon="8.427798654119892"><ele>434.0</ele><time>2026-04-11T14:41:48.001Z</time></trkpt><trkpt lat="45.80932029345393" lon="8.428027052885248"><ele>442.0</ele><time>2026-04-11T14:41:49.001Z</time></trkpt><trkpt lat="45.80940000737312" lon="8.42826861346899"><ele>450.0</ele><time>2026-04-11T14:41:50.001Z</time></trkpt><trkpt lat="45.809491448672055" lon="8.428504789442387"><ele>458.0</ele><time>2026-04-11T14:41:51.001Z</time></trkpt><trkpt lat="45.80959938195321" lon="8.428741408553762"><ele>456.0</ele><time>2026-04-11T14:41:52.001Z</time></trkpt><trkpt lat="45.80971900490862" lon="8.428981128005793"><ele>454.0</ele><time>2026-04-11T14:41:53.001Z</time></trkpt><trkpt lat="45.8098367291961" lon="8.429229189513869"><ele>452.0</ele><time>2026-04-11T14:41:54.001Z</time></trkpt><trkpt lat="45.8099420836988" lon="8.429455656010031"><ele>452.25</ele><time>2026-04-11T14:41:55.001Z</time></trkpt><trkpt lat="45.81003019085667" lon="8.429642245439188"><ele>452.5</ele><time>2026-04-11T14:41:56.001Z</time></trkpt><trkpt lat="45.81011027942614" lon="8.429786632096343"><ele>452.75</ele><time>2026-04-11T14:41:57.001Z</time></trkpt><trkpt lat="45.81020732365563" lon="8.42988400085586"><ele>453.0</ele><time>2026-04-11T14:41:58.001Z</time></trkpt><trkpt lat="45.81032929638136" lon="8.429942301876252"><ele>455.66666666666663</ele><time>2026-04-11T14:41:59.001Z</time></trkpt><trkpt lat="45.81048731928901" lon="8.429953545600796"><ele>458.3333333333333</ele><time>2026-04-11T14:42:00.001Z</time></trkpt><trkpt lat="45.81067990341879" lon="8.42994987822123"><ele>461.0</ele><time>2026-04-11T14:42:01.001Z</time></trkpt><trkpt lat="45.81087242153686" lon="8.429960795324334"><ele>461.66666666666663</ele><time>2026-04-11T14:42:02.001Z</time></trkpt><trkpt lat="45.81106216894191" lon="8.429977054026656"><ele>462.33333333333337</ele><time>2026-04-11T14:42:03.001Z</time></trkpt><trkpt lat="45.81126062871496" lon="8.430000068661741"><ele>463.0</ele><time>2026-04-11T14:42:04.001Z</time></trkpt><trkpt lat="45.81146857566714" lon="8.430015864607682"><ele>463.0</ele><time>2026-04-11T14:42:05.001Z</time></trkpt><trkpt lat="45.81168745289589" lon="8.430034152884794"><ele>463.0</ele><time>2026-04-11T14:42:06.001Z</time></trkpt><trkpt lat="45.81190925936965" lon="8.430058841882579"><ele>463.0</ele><time>2026-04-11T14:42:07Z</time></trkpt><trkpt lat="45.81213770209291" lon="8.430083683531045"><ele>465.0</ele><time>2026-04-11T14:42:08Z</time></trkpt><trkpt lat="45.81237150194929" lon="8.430114340038243"><ele>467.0</ele><time>2026-04-11T14:42:09Z</time></trkpt><trkpt lat="45.81260730641881" lon="8.430136780348843"><ele>467.66666666666663</ele><time>2026-04-11T14:42:10Z</time></trkpt><trkpt lat="45.812815450795334" lon="8.430162976425756"><ele>468.33333333333337</ele><time>2026-04-11T14:42:11Z</time></trkpt><trkpt lat="45.81300708525444" lon="8.430173182234954"><ele>469.0</ele><time>2026-04-11T14:42:12Z</time></trkpt><trkpt lat="45.81319336228691" lon="8.430189092597974"><ele>469.0</ele><time>2026-04-11T14:42:13Z</time></trkpt><trkpt lat="45.813344652486116" lon="8.430205383160919"><ele>469.0</ele><time>2026-04-11T14:42:14Z</time></trkpt><trkpt lat="45.81346340937101" lon="8.430280858798218"><ele>469.0</ele><time>2026-04-11T14:42:15Z</time></trkpt><trkpt lat="45.81356839308047" lon="8.430372434448227"><ele>469.0</ele><time>2026-04-11T14:42:16Z</time></trkpt><trkpt lat="45.81364929863373" lon="8.430511505545601"><ele>467.6666666666667</ele><time>2026-04-11T14:42:17Z</time></trkpt><trkpt lat="45.81371416055921" lon="8.430664717397493"><ele>466.33333333333337</ele><time>2026-04-11T14:42:18Z</time></trkpt><trkpt lat="45.81377345598943" lon="8.430885323511603"><ele>465.0</ele><time>2026-04-11T14:42:19Z</time></trkpt><trkpt lat="45.813850681930354" lon="8.431140849413515"><ele>467.33333333333337</ele><time>2026-04-11T14:42:20Z</time></trkpt><trkpt lat="45.81391314721925" lon="8.43141386635431"><ele>469.6666666666667</ele><time>2026-04-11T14:42:21Z</time></trkpt><trkpt lat="45.81400178739646" lon="8.431671156170683"><ele>472.0</ele><time>2026-04-11T14:42:22Z</time></trkpt><trkpt lat="45.814140948250426" lon="8.431890726262154"><ele>472.0</ele><time>2026-04-11T14:42:23Z</time></trkpt><trkpt lat="45.81432127137476" lon="8.43206301011021"><ele>472.0</ele><time>2026-04-11T14:42:24Z</time></trkpt><trkpt lat="45.81451264097193" lon="8.432213615952797"><ele>472.0</ele><time>2026-04-11T14:42:25Z</time></trkpt><trkpt lat="45.814676334141915" lon="8.432389001926058"><ele>475.0</ele><time>2026-04-11T14:42:26Z</time></trkpt><trkpt lat="45.81480867400995" lon="8.432549996740722"><ele>478.0</ele><time>2026-04-11T14:42:27Z</time></trkpt><trkpt lat="45.81489417105956" lon="8.4327220059841"><ele>481.0</ele><time>2026-04-11T14:42:28Z</time></trkpt><trkpt lat="45.81494867106253" lon="8.43291048620832"><ele>484.33333333333337</ele><time>2026-04-11T14:42:29Z</time></trkpt><trkpt lat="45.81502033627095" lon="8.433102209236147"><ele>487.66666666666663</ele><time>2026-04-11T14:42:30Z</time></trkpt><trkpt lat="45.81507944339964" lon="8.433333334260102"><ele>491.0</ele><time>2026-04-11T14:42:31Z</time></trkpt><trkpt lat="45.81516445352321" lon="8.43357087712341"><ele>493.3333333333333</ele><time>2026-04-11T14:42:32Z</time></trkpt><trkpt lat="45.81525091262025" lon="8.433820041314595"><ele>495.66666666666663</ele><time>2026-04-11T14:42:33Z</time></trkpt><trkpt lat="45.81533597773935" lon="8.434075625587482"><ele>498.0</ele><time>2026-04-11T14:42:34Z</time></trkpt><trkpt lat="45.81542327826695" lon="8.434329101871429"><ele>498.0</ele><time>2026-04-11T14:42:35Z</time></trkpt><trkpt lat="45.81550880681462" lon="8.43457375045319"><ele>498.0</ele><time>2026-04-11T14:42:36Z</time></trkpt><trkpt lat="45.815580032122725" lon="8.434789941350049"><ele>498.0</ele><time>2026-04-11T14:42:37Z</time></trkpt><trkpt lat="45.815647641356954" lon="8.435002954558147"><ele>500.0</ele><time>2026-04-11T14:42:38Z</time></trkpt><trkpt lat="45.81572242853878" lon="8.435234613777437"><ele>502.0</ele><time>2026-04-11T14:42:39Z</time></trkpt><trkpt lat="45.81579815307809" lon="8.435463736162406"><ele>504.0</ele><time>2026-04-11T14:42:40Z</time></trkpt><trkpt lat="45.81586956684094" lon="8.435670759588596"><ele>504.25</ele><time>2026-04-11T14:42:41Z</time></trkpt><trkpt lat="45.81592765039165" lon="8.43583485279664"><ele>504.5</ele><time>2026-04-11T14:42:42Z</time></trkpt><trkpt lat="45.815929161254815" lon="8.435941544130845"><ele>504.75</ele><time>2026-04-11T14:42:43Z</time></trkpt><trkpt lat="45.81593372388975" lon="8.436123425457717"><ele>505.0</ele><time>2026-04-11T14:42:46Z</time></trkpt><trkpt lat="45.81603978087721" lon="8.436285846489076"><ele>506.6666666666667</ele><time>2026-04-11T14:42:47Z</time></trkpt><trkpt lat="45.816135877760836" lon="8.436469310921089"><ele>508.33333333333337</ele><time>2026-04-11T14:42:48Z</time></trkpt><trkpt lat="45.81622662687557" lon="8.436682167912988"><ele>510.0</ele><time>2026-04-11T14:42:49Z</time></trkpt><trkpt lat="45.816308315473854" lon="8.436933695574691"><ele>512.6666666666666</ele><time>2026-04-11T14:42:50Z</time></trkpt><trkpt lat="45.81638710454136" lon="8.4371865406979"><ele>515.3333333333333</ele><time>2026-04-11T14:42:51Z</time></trkpt><trkpt lat="45.816471578411324" lon="8.437434433244611"><ele>518.0</ele><time>2026-04-11T14:42:52Z</time></trkpt><trkpt lat="45.816556008039285" lon="8.437682433896775"><ele>518.0</ele><time>2026-04-11T14:42:53Z</time></trkpt><trkpt lat="45.816635385215015" lon="8.437934419053414"><ele>518.0</ele><time>2026-04-11T14:42:54Z</time></trkpt><trkpt lat="45.816713679961666" lon="8.438185479441902"><ele>518.0</ele><time>2026-04-11T14:42:55Z</time></trkpt><trkpt lat="45.81679435938362" lon="8.43844159226428"><ele>519.0</ele><time>2026-04-11T14:42:56Z</time></trkpt><trkpt lat="45.81687629101687" lon="8.43869820600843"><ele>520.0</ele><time>2026-04-11T14:42:57Z</time></trkpt><trkpt lat="45.816952673462076" lon="8.438935645838347"><ele>521.0</ele><time>2026-04-11T14:42:58Z</time></trkpt><trkpt lat="45.81702838828736" lon="8.439141573245498"><ele>521.0</ele><time>2026-04-11T14:42:59Z</time></trkpt><trkpt lat="45.81711007487098" lon="8.439329049802565"><ele>521.0</ele><time>2026-04-11T14:43:00Z</time></trkpt><trkpt lat="45.817202415745065" lon="8.43949957638867"><ele>521.0</ele><time>2026-04-11T14:43:01Z</time></trkpt><trkpt lat="45.81730667823342" lon="8.43967477106359"><ele>522.0</ele><time>2026-04-11T14:43:02Z</time></trkpt><trkpt lat="45.8174166021913" lon="8.439849767938078"><ele>523.0</ele><time>2026-04-11T14:43:03Z</time></trkpt><trkpt lat="45.81752879195719" lon="8.440012052999075"><ele>524.0</ele><time>2026-04-11T14:43:04Z</time></trkpt><trkpt lat="45.817644235689166" lon="8.440172030854727"><ele>524.0</ele><time>2026-04-11T14:43:05Z</time></trkpt><trkpt lat="45.81774617599736" lon="8.440328325766618"><ele>524.0</ele><time>2026-04-11T14:43:06Z</time></trkpt><trkpt lat="45.81784090680299" lon="8.440478566056669"><ele>524.0</ele><time>2026-04-11T14:43:07Z</time></trkpt><trkpt lat="45.81792915099475" lon="8.4406107045168"><ele>524.0</ele><time>2026-04-11T14:43:08Z</time></trkpt><trkpt lat="45.81802225268153" lon="8.440741010978925"><ele>523.5</ele><time>2026-04-11T14:43:09Z</time></trkpt><trkpt lat="45.81811959990157" lon="8.440882313382282"><ele>523.0</ele><time>2026-04-11T14:43:10Z</time></trkpt><trkpt lat="45.81821306482613" lon="8.441025879824254"><ele>522.5</ele><time>2026-04-11T14:43:11Z</time></trkpt><trkpt lat="45.81830682784492" lon="8.441162775115535"><ele>522.0</ele><time>2026-04-11T14:43:12Z</time></trkpt><trkpt lat="45.81840035086208" lon="8.441298667988912"><ele>522.5</ele><time>2026-04-11T14:43:13Z</time></trkpt><trkpt lat="45.818491278894165" lon="8.441436858781842"><ele>523.0</ele><time>2026-04-11T14:43:14Z</time></trkpt><trkpt lat="45.818583293434564" lon="8.441581323738914"><ele>523.5</ele><time>2026-04-11T14:43:15Z</time></trkpt><trkpt lat="45.818674437714385" lon="8.441717742736076"><ele>524.0</ele><time>2026-04-11T14:43:16Z</time></trkpt><trkpt lat="45.8187680465172" lon="8.44185702866508"><ele>524.0</ele><time>2026-04-11T14:43:17Z</time></trkpt><trkpt lat="45.818861009637914" lon="8.441997992558994"><ele>524.0</ele><time>2026-04-11T14:43:18Z</time></trkpt><trkpt lat="45.81895523556135" lon="8.442138870407423"><ele>524.0</ele><time>2026-04-11T14:43:19Z</time></trkpt><trkpt lat="45.81904513275253" lon="8.4422748673522"><ele>524.0</ele><time>2026-04-11T14:43:20Z</time></trkpt><trkpt lat="45.81914104001791" lon="8.44241096200748"><ele>524.25</ele><time>2026-04-11T14:43:21Z</time></trkpt><trkpt lat="45.819234749560394" lon="8.442542506588858"><ele>524.5</ele><time>2026-04-11T14:43:22Z</time></trkpt><trkpt lat="45.81932863434831" lon="8.44267089070619"><ele>524.75</ele><time>2026-04-11T14:43:23.001Z</time></trkpt><trkpt lat="45.81942941025548" lon="8.442801423846715"><ele>525.0</ele><time>2026-04-11T14:43:24.001Z</time></trkpt><trkpt lat="45.819538380672775" lon="8.442956600152733"><ele>524.0</ele><time>2026-04-11T14:43:25.001Z</time></trkpt><trkpt lat="45.819648750014224" lon="8.443168901807583"><ele>523.0</ele><time>2026-04-11T14:43:26.001Z</time></trkpt><trkpt lat="45.81977998422471" lon="8.443366736803373"><ele>522.0</ele><time>2026-04-11T14:43:27.001Z</time></trkpt><trkpt lat="45.819914273282066" lon="8.443567830545476"><ele>522.0</ele><time>2026-04-11T14:43:28.001Z</time></trkpt><trkpt lat="45.82004475287046" lon="8.443737048585959"><ele>522.0</ele><time>2026-04-11T14:43:29.001Z</time></trkpt><trkpt lat="45.82015286714362" lon="8.44390945508462"><ele>522.0</ele><time>2026-04-11T14:43:30.001Z</time></trkpt><trkpt lat="45.82025641507431" lon="8.444072759254151"><ele>522.0</ele><time>2026-04-11T14:43:31.001Z</time></trkpt><trkpt lat="45.82035807234641" lon="8.444233544769025"><ele>522.0</ele><time>2026-04-11T14:43:32.001Z</time></trkpt><trkpt lat="45.820449910354014" lon="8.44438348918994"><ele>522.0</ele><time>2026-04-11T14:43:33.001Z</time></trkpt><trkpt lat="45.820530812796434" lon="8.444530234574367"><ele>522.0</ele><time>2026-04-11T14:43:34.001Z</time></trkpt><trkpt lat="45.82060777700184" lon="8.444677987989635"><ele>522.0</ele><time>2026-04-11T14:43:35.001Z</time></trkpt><trkpt lat="45.8206784397693" lon="8.444835312469278"><ele>522.0</ele><time>2026-04-11T14:43:36.001Z</time></trkpt><trkpt lat="45.82074391973681" lon="8.445004364951814"><ele>522.0</ele><time>2026-04-11T14:43:37.001Z</time></trkpt><trkpt lat="45.820797680836215" lon="8.445186666854031"><ele>522.0</ele><time>2026-04-11T14:43:38.001Z</time></trkpt><trkpt lat="45.82084319919219" lon="8.445366224120649"><ele>522.0</ele><time>2026-04-11T14:43:39.001Z</time></trkpt><trkpt lat="45.82088697684054" lon="8.44554633837205"><ele>522.0</ele><time>2026-04-11T14:43:40.001Z</time></trkpt><trkpt lat="45.82092811616753" lon="8.44572745013306"><ele>522.0</ele><time>2026-04-11T14:43:41.001Z</time></trkpt><trkpt lat="45.820965071151306" lon="8.445911770573211"><ele>522.0</ele><time>2026-04-11T14:43:42.001Z</time></trkpt><trkpt lat="45.82100265207685" lon="8.44609542885229"><ele>523.6666666666666</ele><time>2026-04-11T14:43:43.001Z</time></trkpt><trkpt lat="45.821082821685806" lon="8.446456390290452"><ele>525.3333333333333</ele><time>2026-04-11T14:43:45.001Z</time></trkpt><trkpt lat="45.8211255726857" lon="8.446640579828914"><ele>527.0</ele><time>2026-04-11T14:43:46.001Z</time></trkpt><trkpt lat="45.82116267118731" lon="8.44682339210739"><ele>527.0</ele><time>2026-04-11T14:43:47.001Z</time></trkpt><trkpt lat="45.821197121606865" lon="8.447004251482985"><ele>527.0</ele><time>2026-04-11T14:43:48.001Z</time></trkpt><trkpt lat="45.82123332998532" lon="8.447186443489233"><ele>527.0</ele><time>2026-04-11T14:43:49.001Z</time></trkpt><trkpt lat="45.821269691536344" lon="8.447365994309814"><ele>527.0</ele><time>2026-04-11T14:43:50.001Z</time></trkpt><trkpt lat="45.821297813724414" lon="8.447549481290787"><ele>527.5</ele><time>2026-04-11T14:43:51.001Z</time></trkpt><trkpt lat="45.821314080543495" lon="8.447740769045865"><ele>528.0</ele><time>2026-04-11T14:43:52.001Z</time></trkpt><trkpt lat="45.82132066643535" lon="8.447929786133107"><ele>528.5</ele><time>2026-04-11T14:43:53.001Z</time></trkpt><trkpt lat="45.82131488214478" lon="8.448119590545664"><ele>529.0</ele><time>2026-04-11T14:43:54.001Z</time></trkpt><trkpt lat="45.821301327399716" lon="8.448307060975196"><ele>529.75</ele><time>2026-04-11T14:43:55.001Z</time></trkpt><trkpt lat="45.82127327201971" lon="8.448488581430563"><ele>530.5</ele><time>2026-04-11T14:43:56.001Z</time></trkpt><trkpt lat="45.821238904440065" lon="8.448668086145233"><ele>531.25</ele><time>2026-04-11T14:43:57.001Z</time></trkpt><trkpt lat="45.82120171344465" lon="8.448886552762364"><ele>532.0</ele><time>2026-04-11T14:43:58.001Z</time></trkpt><trkpt lat="45.82114258276946" lon="8.449135811399486"><ele>534.0</ele><time>2026-04-11T14:43:59.001Z</time></trkpt><trkpt lat="45.821078818435836" lon="8.449380071004107"><ele>536.0</ele><time>2026-04-11T14:44:00.001Z</time></trkpt><trkpt lat="45.82097121318603" lon="8.449628585967773"><ele>538.0</ele><time>2026-04-11T14:44:01.001Z</time></trkpt><trkpt lat="45.82080742823967" lon="8.449884505634206"><ele>539.5</ele><time>2026-04-11T14:44:02.001Z</time></trkpt><trkpt lat="45.82063444876881" lon="8.450156190325844"><ele>541.0</ele><time>2026-04-11T14:44:03.001Z</time></trkpt><trkpt lat="45.82047545602479" lon="8.450418038743072"><ele>544.3333333333334</ele><time>2026-04-11T14:44:04.001Z</time></trkpt><trkpt lat="45.8203288764739" lon="8.450636776975124"><ele>547.6666666666666</ele><time>2026-04-11T14:44:05.001Z</time></trkpt><trkpt lat="45.820228554553395" lon="8.450824547513447"><ele>551.0</ele><time>2026-04-11T14:44:06.001Z</time></trkpt><trkpt lat="45.82016734079134" lon="8.451052745654522"><ele>551.6666666666666</ele><time>2026-04-11T14:44:07.001Z</time></trkpt><trkpt lat="45.82012596581297" lon="8.45134405761228"><ele>552.3333333333334</ele><time>2026-04-11T14:44:08.001Z</time></trkpt><trkpt lat="45.82010011875434" lon="8.451664156810528"><ele>553.0</ele><time>2026-04-11T14:44:09.001Z</time></trkpt><trkpt lat="45.82004434404553" lon="8.451916051758237"><ele>553.0</ele><time>2026-04-11T14:44:10.001Z</time></trkpt><trkpt lat="45.81999797002903" lon="8.452122630814545"><ele>553.0</ele><time>2026-04-11T14:44:11.001Z</time></trkpt><trkpt lat="45.81988700589791" lon="8.45226966757968"><ele>553.0</ele><time>2026-04-11T14:44:12.001Z</time></trkpt><trkpt lat="45.81976761109919" lon="8.452417624672513"><ele>551.3333333333334</ele><time>2026-04-11T14:44:13Z</time></trkpt><trkpt lat="45.81963379479773" lon="8.4525313545414"><ele>549.6666666666666</ele><time>2026-04-11T14:44:14Z</time></trkpt><trkpt lat="45.81948166061056" lon="8.452637864384235"><ele>548.0</ele><time>2026-04-11T14:44:15Z</time></trkpt><trkpt lat="45.81931973969197" lon="8.452775566292186"><ele>547.6666666666666</ele><time>2026-04-11T14:44:16Z</time></trkpt><trkpt lat="45.81914151245041" lon="8.452879894027406"><ele>547.3333333333334</ele><time>2026-04-11T14:44:17Z</time></trkpt><trkpt lat="45.818963436402804" lon="8.4530081810645"><ele>547.0</ele><time>2026-04-11T14:44:18Z</time></trkpt><trkpt lat="45.81879315357837" lon="8.453162114341318"><ele>547.0</ele><time>2026-04-11T14:44:19Z</time></trkpt><trkpt lat="45.818652349974705" lon="8.453341586253273"><ele>547.0</ele><time>2026-04-11T14:44:20Z</time></trkpt><trkpt lat="45.818538070814256" lon="8.453559340113008"><ele>547.0</ele><time>2026-04-11T14:44:21Z</time></trkpt><trkpt lat="45.818449461987385" lon="8.453811955196336"><ele>547.6666666666667</ele><time>2026-04-11T14:44:22Z</time></trkpt><trkpt lat="45.81839815719663" lon="8.454089692367555"><ele>548.3333333333334</ele><time>2026-04-11T14:44:23Z</time></trkpt><trkpt lat="45.818377611261745" lon="8.454382194092235"><ele>549.0</ele><time>2026-04-11T14:44:24Z</time></trkpt><trkpt lat="45.818359344689455" lon="8.454682683873727"><ele>549.0</ele><time>2026-04-11T14:44:25Z</time></trkpt><trkpt lat="45.81833448414283" lon="8.454987759761014"><ele>549.0</ele><time>2026-04-11T14:44:26Z</time></trkpt><trkpt lat="45.818298705298595" lon="8.45522922859309"><ele>549.0</ele><time>2026-04-11T14:44:27Z</time></trkpt><trkpt lat="45.81823336623972" lon="8.455425284192009"><ele>544.0</ele><time>2026-04-11T14:44:28Z</time></trkpt><trkpt lat="45.818158172037954" lon="8.455601836943671"><ele>539.0</ele><time>2026-04-11T14:44:29Z</time></trkpt><trkpt lat="45.81806563250943" lon="8.455771040717034"><ele>534.0</ele><time>2026-04-11T14:44:30Z</time></trkpt><trkpt lat="45.8179535828828" lon="8.45594103484889"><ele>534.0</ele><time>2026-04-11T14:44:31Z</time></trkpt><trkpt lat="45.817844644051476" lon="8.456104599034111"><ele>534.0</ele><time>2026-04-11T14:44:32Z</time></trkpt><trkpt lat="45.817740765116014" lon="8.456255750347504"><ele>534.0</ele><time>2026-04-11T14:44:33Z</time></trkpt><trkpt lat="45.817653063930564" lon="8.456417204457525"><ele>534.0</ele><time>2026-04-11T14:44:34Z</time></trkpt><trkpt lat="45.81756267997968" lon="8.456531702000921"><ele>532.75</ele><time>2026-04-11T14:44:35Z</time></trkpt><trkpt lat="45.81747521601023" lon="8.456613751191473"><ele>531.5</ele><time>2026-04-11T14:44:36Z</time></trkpt><trkpt lat="45.817361881892495" lon="8.456672026921222"><ele>530.25</ele><time>2026-04-11T14:44:37Z</time></trkpt><trkpt lat="45.81721622139057" lon="8.456737693488915"><ele>529.0</ele><time>2026-04-11T14:44:38Z</time></trkpt><trkpt lat="45.81706346227499" lon="8.456825030097026"><ele>529.0</ele><time>2026-04-11T14:44:39Z</time></trkpt><trkpt lat="45.8169312299985" lon="8.456999439494574"><ele>529.0</ele><time>2026-04-11T14:44:40Z</time></trkpt><trkpt lat="45.816844665866576" lon="8.45722595872287"><ele>529.0</ele><time>2026-04-11T14:44:41Z</time></trkpt><trkpt lat="45.816797884531525" lon="8.457491817764332"><ele>529.0</ele><time>2026-04-11T14:44:42Z</time></trkpt><trkpt lat="45.816775999564605" lon="8.457752064061395"><ele>529.0</ele><time>2026-04-11T14:44:43Z</time></trkpt><trkpt lat="45.81670779313375" lon="8.457979208499898"><ele>529.0</ele><time>2026-04-11T14:44:44Z</time></trkpt><trkpt lat="45.81660929084785" lon="8.458125352722995"><ele>529.25</ele><time>2026-04-11T14:44:45Z</time></trkpt><trkpt lat="45.816471704310445" lon="8.458239002920156"><ele>529.5</ele><time>2026-04-11T14:44:46Z</time></trkpt><trkpt lat="45.81636695635813" lon="8.458360260359619"><ele>529.75</ele><time>2026-04-11T14:44:47Z</time></trkpt><trkpt lat="45.816300957285016" lon="8.458537164382577"><ele>530.0</ele><time>2026-04-11T14:44:48Z</time></trkpt><trkpt lat="45.81630111310017" lon="8.458759105592032"><ele>530.3333333333333</ele><time>2026-04-11T14:44:49Z</time></trkpt><trkpt lat="45.816334907629084" lon="8.459002009853887"><ele>530.6666666666666</ele><time>2026-04-11T14:44:50Z</time></trkpt><trkpt lat="45.81634339409555" lon="8.45925545472994"><ele>531.0</ele><time>2026-04-11T14:44:51Z</time></trkpt><trkpt lat="45.816299634891685" lon="8.459503632308135"><ele>530.0</ele><time>2026-04-11T14:44:52Z</time></trkpt><trkpt lat="45.8162214081183" lon="8.459721283473222"><ele>529.0</ele><time>2026-04-11T14:44:53Z</time></trkpt><trkpt lat="45.8160973800277" lon="8.459905867524867"><ele>528.0</ele><time>2026-04-11T14:44:54Z</time></trkpt><trkpt lat="45.81595376198828" lon="8.460067668418523"><ele>528.0</ele><time>2026-04-11T14:44:55Z</time></trkpt><trkpt lat="45.815790232705034" lon="8.46020552143278"><ele>528.0</ele><time>2026-04-11T14:44:56Z</time></trkpt><trkpt lat="45.815614653169156" lon="8.460351816257846"><ele>528.0</ele><time>2026-04-11T14:44:57Z</time></trkpt><trkpt lat="45.815447922691625" lon="8.460493305246251"><ele>532.0</ele><time>2026-04-11T14:44:58Z</time></trkpt><trkpt lat="45.81526014296802" lon="8.460657226277462"><ele>536.0</ele><time>2026-04-11T14:44:59Z</time></trkpt><trkpt lat="45.81508304956509" lon="8.460814717256161"><ele>540.0</ele><time>2026-04-11T14:45:00Z</time></trkpt><trkpt lat="45.81491681520171" lon="8.460965818471449"><ele>540.0</ele><time>2026-04-11T14:45:01Z</time></trkpt><trkpt lat="45.8147698245363" lon="8.461089097143457"><ele>540.0</ele><time>2026-04-11T14:45:02Z</time></trkpt><trkpt lat="45.814651121296045" lon="8.461229621831384"><ele>540.0</ele><time>2026-04-11T14:45:03Z</time></trkpt><trkpt lat="45.8145592775745" lon="8.461426575040896"><ele>545.3333333333334</ele><time>2026-04-11T14:45:04Z</time></trkpt><trkpt lat="45.81450526775183" lon="8.461668658535565"><ele>550.6666666666667</ele><time>2026-04-11T14:45:05Z</time></trkpt><trkpt lat="45.814467202930416" lon="8.461946727474524"><ele>556.0</ele><time>2026-04-11T14:45:06Z</time></trkpt><trkpt lat="45.81442439912954" lon="8.462221566891"><ele>560.3333333333334</ele><time>2026-04-11T14:45:07Z</time></trkpt><trkpt lat="45.81438127737415" lon="8.462493805820667"><ele>564.6666666666666</ele><time>2026-04-11T14:45:08Z</time></trkpt><trkpt lat="45.814356719548364" lon="8.46274008198422"><ele>569.0</ele><time>2026-04-11T14:45:09Z</time></trkpt><trkpt lat="45.81436909463029" lon="8.462986700221444"><ele>569.0</ele><time>2026-04-11T14:45:10Z</time></trkpt><trkpt lat="45.81443065267203" lon="8.463243017408802"><ele>569.0</ele><time>2026-04-11T14:45:11Z</time></trkpt><trkpt lat="45.814501081478866" lon="8.463526270263413"><ele>569.0</ele><time>2026-04-11T14:45:12Z</time></trkpt><trkpt lat="45.81458424833866" lon="8.46379216155179"><ele>564.6666666666666</ele><time>2026-04-11T14:45:13Z</time></trkpt><trkpt lat="45.8146514683042" lon="8.464069742985734"><ele>560.3333333333334</ele><time>2026-04-11T14:45:14Z</time></trkpt><trkpt lat="45.814720363681566" lon="8.464334457083902"><ele>556.0</ele><time>2026-04-11T14:45:15Z</time></trkpt><trkpt lat="45.814782549691046" lon="8.464565718174406"><ele>549.3333333333334</ele><time>2026-04-11T14:45:16Z</time></trkpt><trkpt lat="45.81486954223035" lon="8.46478460475513"><ele>542.6666666666666</ele><time>2026-04-11T14:45:17Z</time></trkpt><trkpt lat="45.81498312968634" lon="8.464974975110392"><ele>536.0</ele><time>2026-04-11T14:45:18Z</time></trkpt><trkpt lat="45.81511929417872" lon="8.465144967024349"><ele>536.0</ele><time>2026-04-11T14:45:19Z</time></trkpt><trkpt lat="45.81526859372429" lon="8.465280792875996"><ele>536.0</ele><time>2026-04-11T14:45:20Z</time></trkpt><trkpt lat="45.81544759590905" lon="8.465395662667754"><ele>536.0</ele><time>2026-04-11T14:45:21Z</time></trkpt><trkpt lat="45.81563842828628" lon="8.465505188443826"><ele>536.0</ele><time>2026-04-11T14:45:22Z</time></trkpt><trkpt lat="45.81584099382552" lon="8.46562421638413"><ele>536.0</ele><time>2026-04-11T14:45:23Z</time></trkpt><trkpt lat="45.816034000742675" lon="8.465750900617197"><ele>536.0</ele><time>2026-04-11T14:45:24Z</time></trkpt><trkpt lat="45.81622440293242" lon="8.46590138059365"><ele>540.0</ele><time>2026-04-11T14:45:25Z</time></trkpt><trkpt lat="45.816386647941535" lon="8.466109561169157"><ele>544.0</ele><time>2026-04-11T14:45:26Z</time></trkpt><trkpt lat="45.81650825140405" lon="8.466359395644066"><ele>548.0</ele><time>2026-04-11T14:45:27Z</time></trkpt><trkpt lat="45.81661687007142" lon="8.466621947511992"><ele>548.0</ele><time>2026-04-11T14:45:28Z</time></trkpt><trkpt lat="45.81669193117896" lon="8.466903127871952"><ele>548.0</ele><time>2026-04-11T14:45:29Z</time></trkpt><trkpt lat="45.81675414454113" lon="8.46720539709858"><ele>548.0</ele><time>2026-04-11T14:45:30Z</time></trkpt><trkpt lat="45.81681225322909" lon="8.46751655409674"><ele>549.6666666666666</ele><time>2026-04-11T14:45:31.001Z</time></trkpt><trkpt lat="45.81687718982646" lon="8.467813892284095"><ele>551.3333333333334</ele><time>2026-04-11T14:45:32.001Z</time></trkpt><trkpt lat="45.81692862477692" lon="8.468128182624739"><ele>553.0</ele><time>2026-04-11T14:45:33.001Z</time></trkpt><trkpt lat="45.81699879737979" lon="8.468445534083871"><ele>554.0</ele><time>2026-04-11T14:45:34.001Z</time></trkpt><trkpt lat="45.81709025146132" lon="8.46875648471937"><ele>555.0</ele><time>2026-04-11T14:45:35.001Z</time></trkpt><trkpt lat="45.81720522864619" lon="8.469058652094931"><ele>555.0</ele><time>2026-04-11T14:45:36.001Z</time></trkpt><trkpt lat="45.817348434750954" lon="8.469345623466104"><ele>555.0</ele><time>2026-04-11T14:45:37.001Z</time></trkpt><trkpt lat="45.81751460820516" lon="8.469611556787935"><ele>562.5</ele><time>2026-04-11T14:45:38.001Z</time></trkpt><trkpt lat="45.817663154885636" lon="8.46989220533604"><ele>570.0</ele><time>2026-04-11T14:45:39.001Z</time></trkpt><trkpt lat="45.817809323243395" lon="8.470167397536969"><ele>564.0</ele><time>2026-04-11T14:45:40.001Z</time></trkpt><trkpt lat="45.81792552480094" lon="8.470459264368621"><ele>558.0</ele><time>2026-04-11T14:45:41.001Z</time></trkpt><trkpt lat="45.81798455168151" lon="8.47076651734734"><ele>558.0</ele><time>2026-04-11T14:45:42.001Z</time></trkpt><trkpt lat="45.817997489944716" lon="8.471089679417638"><ele>558.0</ele><time>2026-04-11T14:45:43.001Z</time></trkpt><trkpt lat="45.81798204238582" lon="8.471416215622067"><ele>557.0</ele><time>2026-04-11T14:45:44.001Z</time></trkpt><trkpt lat="45.81795808655535" lon="8.471750886407214"><ele>556.0</ele><time>2026-04-11T14:45:45.001Z</time></trkpt><trkpt lat="45.81793877193932" lon="8.472092454223361"><ele>556.3333333333334</ele><time>2026-04-11T14:45:46.001Z</time></trkpt><trkpt lat="45.817913942459946" lon="8.472434205207312"><ele>556.6666666666666</ele><time>2026-04-11T14:45:47.001Z</time></trkpt><trkpt lat="45.817893911103766" lon="8.472731098568147"><ele>557.0</ele><time>2026-04-11T14:45:48.001Z</time></trkpt><trkpt lat="45.81787588276122" lon="8.472996806754372"><ele>559.0</ele><time>2026-04-11T14:45:49.001Z</time></trkpt><trkpt lat="45.81787663910606" lon="8.473240314771939"><ele>561.0</ele><time>2026-04-11T14:45:50.001Z</time></trkpt><trkpt lat="45.81793717624327" lon="8.473443812497083"><ele>563.0</ele><time>2026-04-11T14:45:51.001Z</time></trkpt><trkpt lat="45.818060985343465" lon="8.473603736671091"><ele>564.0</ele><time>2026-04-11T14:45:52.001Z</time></trkpt><trkpt lat="45.81816434568585" lon="8.473793082501524"><ele>565.0</ele><time>2026-04-11T14:45:53.001Z</time></trkpt><trkpt lat="45.81822371251445" lon="8.474073955370395"><ele>566.0</ele><time>2026-04-11T14:45:54.001Z</time></trkpt><trkpt lat="45.81832577812513" lon="8.474379227019634"><ele>563.0</ele><time>2026-04-11T14:45:55.001Z</time></trkpt><trkpt lat="45.81845975263705" lon="8.474683642135268"><ele>560.0</ele><time>2026-04-11T14:45:56.001Z</time></trkpt><trkpt lat="45.818640288257434" lon="8.474962238715298"><ele>576.0</ele><time>2026-04-11T14:45:57.001Z</time></trkpt><trkpt lat="45.81883846512646" lon="8.47521257063155"><ele>592.0</ele><time>2026-04-11T14:45:58.001Z</time></trkpt><trkpt lat="45.81900718295009" lon="8.475423827520338"><ele>594.6666666666667</ele><time>2026-04-11T14:45:59.001Z</time></trkpt><trkpt lat="45.81915264952458" lon="8.475617534256655"><ele>597.3333333333334</ele><time>2026-04-11T14:46:00.001Z</time></trkpt><trkpt lat="45.81928398705945" lon="8.475793436660712"><ele>600.0</ele><time>2026-04-11T14:46:01.001Z</time></trkpt><trkpt lat="45.819403264625485" lon="8.475952531323733"><ele>600.0</ele><time>2026-04-11T14:46:02.001Z</time></trkpt><trkpt lat="45.81951032950038" lon="8.476091630304246"><ele>600.0</ele><time>2026-04-11T14:46:03.001Z</time></trkpt><trkpt lat="45.81960401977838" lon="8.476210159861743"><ele>600.0</ele><time>2026-04-11T14:46:04.001Z</time></trkpt><trkpt lat="45.81967731512602" lon="8.476323867154871"><ele>600.0</ele><time>2026-04-11T14:46:05.001Z</time></trkpt><trkpt lat="45.81974502935565" lon="8.47641829293003"><ele>600.0</ele><time>2026-04-11T14:46:06.001Z</time></trkpt><trkpt lat="45.819794367183505" lon="8.476533653258961"><ele>600.0</ele><time>2026-04-11T14:46:07.001Z</time></trkpt><trkpt lat="45.819860238918906" lon="8.47657414569082"><ele>600.0</ele><time>2026-04-11T14:46:08.001Z</time></trkpt><trkpt lat="45.81994065587821" lon="8.476524195422657"><ele>600.0</ele><time>2026-04-11T14:46:09.001Z</time></trkpt><trkpt lat="45.81999497168496" lon="8.476398866169236"><ele>600.0</ele><time>2026-04-11T14:46:10.001Z</time></trkpt><trkpt lat="45.81997673677705" lon="8.47625246465336"><ele>600.0</ele><time>2026-04-11T14:46:11.001Z</time></trkpt><trkpt lat="45.8198867875184" lon="8.476149855708211"><ele>600.0</ele><time>2026-04-11T14:46:12.001Z</time></trkpt><trkpt lat="45.8197549549451" lon="8.4760625888999"><ele>600.0</ele><time>2026-04-11T14:46:13.001Z</time></trkpt><trkpt lat="45.819653060810715" lon="8.475941106437483"><ele>600.0</ele><time>2026-04-11T14:46:14.001Z</time></trkpt><trkpt lat="45.8195720536454" lon="8.475807723992183"><ele>600.0</ele><time>2026-04-11T14:46:15.001Z</time></trkpt><trkpt lat="45.81951522291895" lon="8.475679744957691"><ele>600.0</ele><time>2026-04-11T14:46:16.001Z</time></trkpt><trkpt lat="45.819506846040696" lon="8.475552305314688"><ele>600.0</ele><time>2026-04-11T14:46:17.001Z</time></trkpt><trkpt lat="45.81955662827069" lon="8.475469937972072"><ele>600.0</ele><time>2026-04-11T14:46:18.001Z</time></trkpt><trkpt lat="45.81963833990888" lon="8.47545869584532"><ele>600.0</ele><time>2026-04-11T14:46:19.001Z</time></trkpt><trkpt lat="45.81971226779021" lon="8.4755222438566"><ele>600.0</ele><time>2026-04-11T14:46:20.001Z</time></trkpt><trkpt lat="45.81975990197925" lon="8.475659308097054"><ele>600.0</ele><time>2026-04-11T14:46:21.001Z</time></trkpt><trkpt lat="45.81980427973792" lon="8.475805284602552"><ele>600.0</ele><time>2026-04-11T14:46:22.001Z</time></trkpt><trkpt lat="45.81987966063119" lon="8.475945884319435"><ele>600.0</ele><time>2026-04-11T14:46:23.001Z</time></trkpt><trkpt lat="45.819981835323205" lon="8.476068682179712"><ele>600.0</ele><time>2026-04-11T14:46:24.001Z</time></trkpt><trkpt lat="45.82010419565006" lon="8.476143312133974"><ele>601.5</ele><time>2026-04-11T14:46:25.001Z</time></trkpt><trkpt lat="45.82023735857263" lon="8.476126834032826"><ele>603.0</ele><time>2026-04-11T14:46:26.001Z</time></trkpt><trkpt lat="45.820353869395504" lon="8.47605188909436"><ele>604.5</ele><time>2026-04-11T14:46:27.001Z</time></trkpt><trkpt lat="45.820471328335735" lon="8.475961487945469"><ele>606.0</ele><time>2026-04-11T14:46:28.001Z</time></trkpt><trkpt lat="45.82059311354507" lon="8.475885889255709"><ele>606.0</ele><time>2026-04-11T14:46:29.001Z</time></trkpt><trkpt lat="45.820731072527124" lon="8.475850914556414"><ele>606.0</ele><time>2026-04-11T14:46:30.001Z</time></trkpt><trkpt lat="45.820870570948216" lon="8.475846427847141"><ele>606.0</ele><time>2026-04-11T14:46:31.001Z</time></trkpt><trkpt lat="45.821006685103" lon="8.475862080621644"><ele>606.0</ele><time>2026-04-11T14:46:32Z</time></trkpt><trkpt lat="45.82114476437159" lon="8.47589269994253"><ele>607.75</ele><time>2026-04-11T14:46:33Z</time></trkpt><trkpt lat="45.82127077876384" lon="8.475923093337581"><ele>609.5</ele><time>2026-04-11T14:46:34Z</time></trkpt><trkpt lat="45.82138989845112" lon="8.475960680959266"><ele>611.25</ele><time>2026-04-11T14:46:35Z</time></trkpt><trkpt lat="45.82150968195387" lon="8.476023306342267"><ele>613.0</ele><time>2026-04-11T14:46:36Z</time></trkpt><trkpt lat="45.82162608473137" lon="8.47610408115029"><ele>613.0</ele><time>2026-04-11T14:46:37Z</time></trkpt><trkpt lat="45.82174197356724" lon="8.476158959566373"><ele>613.0</ele><time>2026-04-11T14:46:38Z</time></trkpt><trkpt lat="45.82186290212828" lon="8.476158185147975"><ele>613.0</ele><time>2026-04-11T14:46:39Z</time></trkpt><trkpt lat="45.82198045502948" lon="8.476108881974353"><ele>613.0</ele><time>2026-04-11T14:46:40Z</time></trkpt><trkpt lat="45.822092566199444" lon="8.47605586021962"><ele>611.6</ele><time>2026-04-11T14:46:41Z</time></trkpt><trkpt lat="45.82220449008923" lon="8.476012320290415"><ele>610.1999999999999</ele><time>2026-04-11T14:46:42Z</time></trkpt><trkpt lat="45.82230021401809" lon="8.475983109979197"><ele>608.8</ele><time>2026-04-11T14:46:43Z</time></trkpt><trkpt lat="45.82237748343085" lon="8.475956373949556"><ele>607.4</ele><time>2026-04-11T14:46:44Z</time></trkpt><trkpt lat="45.82245754489444" lon="8.475931132035859"><ele>606.0</ele><time>2026-04-11T14:46:45Z</time></trkpt><trkpt lat="45.82254039934211" lon="8.475893478824872"><ele>605.5</ele><time>2026-04-11T14:46:46Z</time></trkpt><trkpt lat="45.82264929414972" lon="8.475826274201612"><ele>605.0</ele><time>2026-04-11T14:46:47Z</time></trkpt><trkpt lat="45.822792017059285" lon="8.47577708038305"><ele>604.5</ele><time>2026-04-11T14:46:48Z</time></trkpt><trkpt lat="45.822960584003326" lon="8.475769880239014"><ele>604.0</ele><time>2026-04-11T14:46:49Z</time></trkpt><trkpt lat="45.82314353237021" lon="8.475746809270083"><ele>604.0</ele><time>2026-04-11T14:46:50Z</time></trkpt><trkpt lat="45.8233132344474" lon="8.475743613688321"><ele>604.0</ele><time>2026-04-11T14:46:51Z</time></trkpt><trkpt lat="45.82347971946664" lon="8.475783113930218"><ele>604.0</ele><time>2026-04-11T14:46:52Z</time></trkpt><trkpt lat="45.82364951241321" lon="8.475856469841135"><ele>608.0</ele><time>2026-04-11T14:46:53Z</time></trkpt><trkpt lat="45.82380990899166" lon="8.475982144150066"><ele>612.0</ele><time>2026-04-11T14:46:54Z</time></trkpt><trkpt lat="45.823959146133596" lon="8.476121218650206"><ele>616.0</ele><time>2026-04-11T14:46:55Z</time></trkpt><trkpt lat="45.824104557113756" lon="8.476265689644764"><ele>613.0</ele><time>2026-04-11T14:46:56Z</time></trkpt><trkpt lat="45.82424359520522" lon="8.476421407683953"><ele>610.0</ele><time>2026-04-11T14:46:57Z</time></trkpt><trkpt lat="45.82439605912336" lon="8.476610542027338"><ele>607.0</ele><time>2026-04-11T14:46:58Z</time></trkpt><trkpt lat="45.82454945846403" lon="8.47684538705054"><ele>595.5</ele><time>2026-04-11T14:46:59Z</time></trkpt><trkpt lat="45.82470480341748" lon="8.477107531844673"><ele>584.0</ele><time>2026-04-11T14:47:00Z</time></trkpt><trkpt lat="45.82487259267866" lon="8.47735861626061"><ele>584.0</ele><time>2026-04-11T14:47:01Z</time></trkpt><trkpt lat="45.825037615258516" lon="8.477578292289703"><ele>584.0</ele><time>2026-04-11T14:47:02Z</time></trkpt><trkpt lat="45.82518007967022" lon="8.477762358224668"><ele>584.0</ele><time>2026-04-11T14:47:03Z</time></trkpt><trkpt lat="45.82528141940164" lon="8.477908382633805"><ele>582.0</ele><time>2026-04-11T14:47:04Z</time></trkpt><trkpt lat="45.82536019036201" lon="8.478028063530267"><ele>580.0</ele><time>2026-04-11T14:47:05Z</time></trkpt><trkpt lat="45.82544061422181" lon="8.478110895499883"><ele>578.0</ele><time>2026-04-11T14:47:06Z</time></trkpt><trkpt lat="45.8255378811885" lon="8.478124595836585"><ele>576.0</ele><time>2026-04-11T14:47:07Z</time></trkpt><trkpt lat="45.825649131465276" lon="8.478073410851017"><ele>574.0</ele><time>2026-04-11T14:47:08Z</time></trkpt><trkpt lat="45.825751055917564" lon="8.478055220225379"><ele>574.0</ele><time>2026-04-11T14:47:09Z</time></trkpt><trkpt lat="45.825837352470266" lon="8.478016908461194"><ele>574.0</ele><time>2026-04-11T14:47:10Z</time></trkpt><trkpt lat="45.82591945920322" lon="8.47795722887892"><ele>574.0</ele><time>2026-04-11T14:47:11Z</time></trkpt><trkpt lat="45.825995513030385" lon="8.477889671142648"><ele>574.0</ele><time>2026-04-11T14:47:12Z</time></trkpt><trkpt lat="45.82606941365305" lon="8.477859499138944"><ele>574.0</ele><time>2026-04-11T14:47:13Z</time></trkpt><trkpt lat="45.826162652896606" lon="8.47785301302958"><ele>574.0</ele><time>2026-04-11T14:47:14Z</time></trkpt><trkpt lat="45.826251977974295" lon="8.477869003178517"><ele>577.8333333333334</ele><time>2026-04-11T14:47:15Z</time></trkpt><trkpt lat="45.82634029405439" lon="8.477892029525021"><ele>581.6666666666667</ele><time>2026-04-11T14:47:16Z</time></trkpt><trkpt lat="45.82642300045182" lon="8.477899734883808"><ele>585.5</ele><time>2026-04-11T14:47:17Z</time></trkpt><trkpt lat="45.826505700528756" lon="8.477878612269894"><ele>589.3333333333334</ele><time>2026-04-11T14:47:18Z</time></trkpt><trkpt lat="45.82657752502262" lon="8.477854273750726"><ele>593.1666666666666</ele><time>2026-04-11T14:47:19Z</time></trkpt><trkpt lat="45.82665193648158" lon="8.477824398904831"><ele>597.0</ele><time>2026-04-11T14:47:20Z</time></trkpt><trkpt lat="45.82674536890907" lon="8.477794430468359"><ele>600.2</ele><time>2026-04-11T14:47:21Z</time></trkpt><trkpt lat="45.826835569406505" lon="8.47777708896168"><ele>603.4000000000001</ele><time>2026-04-11T14:47:22Z</time></trkpt><trkpt lat="45.82693622983581" lon="8.47779989556525"><ele>606.5999999999999</ele><time>2026-04-11T14:47:23Z</time></trkpt><trkpt lat="45.827035271090516" lon="8.477891531009186"><ele>609.8</ele><time>2026-04-11T14:47:24Z</time></trkpt><trkpt lat="45.82711427417843" lon="8.4780364105035"><ele>613.0</ele><time>2026-04-11T14:47:25Z</time></trkpt><trkpt lat="45.82717003680162" lon="8.47824309292719"><ele>613.0</ele><time>2026-04-11T14:47:26Z</time></trkpt><trkpt lat="45.827234973066155" lon="8.478483574637632"><ele>613.0</ele><time>2026-04-11T14:47:27Z</time></trkpt><trkpt lat="45.82730886760681" lon="8.478777281177491"><ele>613.0</ele><time>2026-04-11T14:47:28Z</time></trkpt><trkpt lat="45.82736776248139" lon="8.479113411558906"><ele>606.0</ele><time>2026-04-11T14:47:29Z</time></trkpt><trkpt lat="45.82743533570084" lon="8.479455265922196"><ele>599.0</ele><time>2026-04-11T14:47:30Z</time></trkpt><trkpt lat="45.82751340202333" lon="8.479776988759012"><ele>599.3333333333333</ele><time>2026-04-11T14:47:31Z</time></trkpt><trkpt lat="45.82758306814627" lon="8.480073957986082"><ele>599.6666666666666</ele><time>2026-04-11T14:47:32Z</time></trkpt><trkpt lat="45.82763244743527" lon="8.480342117357122"><ele>600.0</ele><time>2026-04-11T14:47:33Z</time></trkpt><trkpt lat="45.827703632949934" lon="8.480575744215296"><ele>600.0</ele><time>2026-04-11T14:47:34Z</time></trkpt><trkpt lat="45.82782693526181" lon="8.48078100708263"><ele>600.0</ele><time>2026-04-11T14:47:35Z</time></trkpt><trkpt lat="45.82798088925185" lon="8.480957858052518"><ele>600.0</ele><time>2026-04-11T14:47:36Z</time></trkpt><trkpt lat="45.82815031042364" lon="8.48106201814489"><ele>600.0</ele><time>2026-04-11T14:47:37Z</time></trkpt><trkpt lat="45.82833327388164" lon="8.481108654649248"><ele>600.0</ele><time>2026-04-11T14:47:38.001Z</time></trkpt><trkpt lat="45.828520933127805" lon="8.481113204741053"><ele>600.0</ele><time>2026-04-11T14:47:39.001Z</time></trkpt><trkpt lat="45.82866526763044" lon="8.481201389679402"><ele>600.0</ele><time>2026-04-11T14:47:40.001Z</time></trkpt><trkpt lat="45.82877429130714" lon="8.48136902282738"><ele>600.0</ele><time>2026-04-11T14:47:41.001Z</time></trkpt><trkpt lat="45.82886257502385" lon="8.481586321812363"><ele>600.0</ele><time>2026-04-11T14:47:42.001Z</time></trkpt><trkpt lat="45.828934198065916" lon="8.481803950047349"><ele>600.0</ele><time>2026-04-11T14:47:43.001Z</time></trkpt><trkpt lat="45.828970710021146" lon="8.482011703855463"><ele>600.0</ele><time>2026-04-11T14:47:44.001Z</time></trkpt><trkpt lat="45.828977925672625" lon="8.482249659153638"><ele>600.0</ele><time>2026-04-11T14:47:45.001Z</time></trkpt><trkpt lat="45.828960452768804" lon="8.482458818685009"><ele>598.0</ele><time>2026-04-11T14:47:46.001Z</time></trkpt><trkpt lat="45.82887898366361" lon="8.482650897549362"><ele>596.0</ele><time>2026-04-11T14:47:47.001Z</time></trkpt><trkpt lat="45.828831778095626" lon="8.48286316448323"><ele>594.0</ele><time>2026-04-11T14:47:48.001Z</time></trkpt><trkpt lat="45.828821374639205" lon="8.48306970064162"><ele>594.0</ele><time>2026-04-11T14:47:49.001Z</time></trkpt><trkpt lat="45.828852153114276" lon="8.48325991259542"><ele>594.0</ele><time>2026-04-11T14:47:50.001Z</time></trkpt><trkpt lat="45.82897906638271" lon="8.483423806472153"><ele>594.0</ele><time>2026-04-11T14:47:51.001Z</time></trkpt><trkpt lat="45.82909225404728" lon="8.483618212404512"><ele>594.3333333333334</ele><time>2026-04-11T14:47:52.001Z</time></trkpt><trkpt lat="45.82915681633471" lon="8.483839839127347"><ele>594.6666666666667</ele><time>2026-04-11T14:47:53.001Z</time></trkpt><trkpt lat="45.829207386952426" lon="8.48406241817808"><ele>595.0</ele><time>2026-04-11T14:47:54.001Z</time></trkpt><trkpt lat="45.829227088474056" lon="8.48426614578933"><ele>595.0</ele><time>2026-04-11T14:47:55.001Z</time></trkpt><trkpt lat="45.829211811766896" lon="8.48447065879422"><ele>595.0</ele><time>2026-04-11T14:47:56.001Z</time></trkpt><trkpt lat="45.82917781428786" lon="8.484664663489234"><ele>595.0</ele><time>2026-04-11T14:47:57.001Z</time></trkpt><trkpt lat="45.829123468837594" lon="8.484874141785012"><ele>595.0</ele><time>2026-04-11T14:47:58.001Z</time></trkpt><trkpt lat="45.82904046808368" lon="8.485086211621907"><ele>597.0</ele><time>2026-04-11T14:47:59.001Z</time></trkpt><trkpt lat="45.82894376033032" lon="8.485286966773069"><ele>599.0</ele><time>2026-04-11T14:48:00.001Z</time></trkpt><trkpt lat="45.82886431585704" lon="8.485479590359166"><ele>601.0</ele><time>2026-04-11T14:48:01.001Z</time></trkpt><trkpt lat="45.82882810192662" lon="8.48570466441384"><ele>599.3333333333334</ele><time>2026-04-11T14:48:02.001Z</time></trkpt><trkpt lat="45.82883851893115" lon="8.485949393728278"><ele>597.6666666666666</ele><time>2026-04-11T14:48:03.001Z</time></trkpt><trkpt lat="45.828886066106655" lon="8.486218547871488"><ele>596.0</ele><time>2026-04-11T14:48:04.001Z</time></trkpt><trkpt lat="45.828986489225436" lon="8.486477163267184"><ele>596.0</ele><time>2026-04-11T14:48:05.001Z</time></trkpt><trkpt lat="45.82911788689287" lon="8.486725075527987"><ele>596.0</ele><time>2026-04-11T14:48:06.001Z</time></trkpt><trkpt lat="45.82925294468308" lon="8.486937768054723"><ele>596.0</ele><time>2026-04-11T14:48:07.001Z</time></trkpt><trkpt lat="45.829340157719045" lon="8.487185669564346"><ele>605.0</ele><time>2026-04-11T14:48:08.001Z</time></trkpt><trkpt lat="45.82939034774748" lon="8.487504634288662"><ele>614.0</ele><time>2026-04-11T14:48:09.001Z</time></trkpt><trkpt lat="45.82943160817583" lon="8.48785114052251"><ele>612.5</ele><time>2026-04-11T14:48:10.001Z</time></trkpt><trkpt lat="45.82947971608016" lon="8.488210305666648"><ele>611.0</ele><time>2026-04-11T14:48:11.001Z</time></trkpt><trkpt lat="45.82952355205936" lon="8.488569974271595"><ele>610.5</ele><time>2026-04-11T14:48:12.001Z</time></trkpt><trkpt lat="45.829569624483" lon="8.488939477121802"><ele>610.0</ele><time>2026-04-11T14:48:13.001Z</time></trkpt><trkpt lat="45.82959903988937" lon="8.489296768061605"><ele>611.3333333333334</ele><time>2026-04-11T14:48:14.001Z</time></trkpt><trkpt lat="45.82958316961361" lon="8.489621956844164"><ele>612.6666666666666</ele><time>2026-04-11T14:48:15.001Z</time></trkpt><trkpt lat="45.82953238465307" lon="8.489930961333167"><ele>614.0</ele><time>2026-04-11T14:48:16.001Z</time></trkpt><trkpt lat="45.82946528913784" lon="8.490208875460308"><ele>617.3333333333333</ele><time>2026-04-11T14:48:17.001Z</time></trkpt><trkpt lat="45.82942118137561" lon="8.490456084571525"><ele>620.6666666666666</ele><time>2026-04-11T14:48:18.001Z</time></trkpt><trkpt lat="45.8294298992356" lon="8.490711270346171"><ele>624.0</ele><time>2026-04-11T14:48:19.001Z</time></trkpt><trkpt lat="45.8294817301093" lon="8.490973177616773"><ele>624.0</ele><time>2026-04-11T14:48:20.001Z</time></trkpt><trkpt lat="45.829509830541724" lon="8.491203647240026"><ele>624.0</ele><time>2026-04-11T14:48:21.001Z</time></trkpt><trkpt lat="45.829550853149485" lon="8.491350023815535"><ele>624.0</ele><time>2026-04-11T14:48:22.001Z</time></trkpt><trkpt lat="45.82965396670819" lon="8.491464127917183"><ele>624.0</ele><time>2026-04-11T14:48:23.001Z</time></trkpt><trkpt lat="45.82979247838011" lon="8.49160209622237"><ele>627.0</ele><time>2026-04-11T14:48:24.001Z</time></trkpt><trkpt lat="45.82994457000541" lon="8.491753593462468"><ele>630.0</ele><time>2026-04-11T14:48:25.001Z</time></trkpt><trkpt lat="45.83013220175428" lon="8.491864192998678"><ele>633.0</ele><time>2026-04-11T14:48:26.001Z</time></trkpt><trkpt lat="45.83033268447196" lon="8.49198791307534"><ele>626.0</ele><time>2026-04-11T14:48:27.001Z</time></trkpt><trkpt lat="45.83051975649733" lon="8.49212895017634"><ele>619.0</ele><time>2026-04-11T14:48:28.001Z</time></trkpt><trkpt lat="45.83070150194536" lon="8.492282043323192"><ele>612.0</ele><time>2026-04-11T14:48:29.001Z</time></trkpt><trkpt lat="45.8308881493232" lon="8.492433853145823"><ele>618.3333333333334</ele><time>2026-04-11T14:48:30.001Z</time></trkpt><trkpt lat="45.83107716854228" lon="8.492566641991965"><ele>624.6666666666667</ele><time>2026-04-11T14:48:31.001Z</time></trkpt><trkpt lat="45.83127309671863" lon="8.49269443472017"><ele>631.0</ele><time>2026-04-11T14:48:32.001Z</time></trkpt><trkpt lat="45.83146994254145" lon="8.492829082533536"><ele>631.3333333333334</ele><time>2026-04-11T14:48:33.001Z</time></trkpt><trkpt lat="45.83166496687699" lon="8.492984000194793"><ele>631.6666666666666</ele><time>2026-04-11T14:48:34.001Z</time></trkpt><trkpt lat="45.83185006199041" lon="8.493139917346548"><ele>632.0</ele><time>2026-04-11T14:48:35.001Z</time></trkpt><trkpt lat="45.832028247964516" lon="8.493267156036724"><ele>632.0</ele><time>2026-04-11T14:48:36.001Z</time></trkpt><trkpt lat="45.83219507338134" lon="8.493362595318208"><ele>632.0</ele><time>2026-04-11T14:48:37.001Z</time></trkpt><trkpt lat="45.832327870280174" lon="8.493415931592613"><ele>632.0</ele><time>2026-04-11T14:48:38.001Z</time></trkpt><trkpt lat="45.832441766182306" lon="8.49345279399163"><ele>632.0</ele><time>2026-04-11T14:48:39.001Z</time></trkpt><trkpt lat="45.832538709073994" lon="8.493511407306599"><ele>632.0</ele><time>2026-04-11T14:48:40.001Z</time></trkpt><trkpt lat="45.83263389271941" lon="8.493610004243683"><ele>632.0</ele><time>2026-04-11T14:48:41.001Z</time></trkpt><trkpt lat="45.83272479018435" lon="8.49378239536044"><ele>632.0</ele><time>2026-04-11T14:48:42.001Z</time></trkpt><trkpt lat="45.832814500537175" lon="8.493970154690897"><ele>632.0</ele><time>2026-04-11T14:48:43.001Z</time></trkpt><trkpt lat="45.8329254299257" lon="8.494116988854824"><ele>632.3333333333333</ele><time>2026-04-11T14:48:44.001Z</time></trkpt><trkpt lat="45.83308025732471" lon="8.494227312751995"><ele>632.6666666666666</ele><time>2026-04-11T14:48:45.001Z</time></trkpt><trkpt lat="45.833274665676676" lon="8.494287734463386"><ele>633.0</ele><time>2026-04-11T14:48:46.001Z</time></trkpt><trkpt lat="45.833473485062456" lon="8.494342002721428"><ele>634.0</ele><time>2026-04-11T14:48:47.001Z</time></trkpt><trkpt lat="45.833634514244615" lon="8.494401856898786"><ele>635.0</ele><time>2026-04-11T14:48:48.001Z</time></trkpt><trkpt lat="45.83377420208011" lon="8.49450387696749"><ele>636.0</ele><time>2026-04-11T14:48:49.001Z</time></trkpt><trkpt lat="45.833897569524396" lon="8.494635055007294"><ele>636.0</ele><time>2026-04-11T14:48:50.001Z</time></trkpt><trkpt lat="45.83403006028921" lon="8.494801344252132"><ele>636.0</ele><time>2026-04-11T14:48:51.001Z</time></trkpt><trkpt lat="45.83417256148043" lon="8.494983922389109"><ele>636.0</ele><time>2026-04-11T14:48:52.001Z</time></trkpt><trkpt lat="45.834335569434785" lon="8.495115511901474"><ele>632.3333333333334</ele><time>2026-04-11T14:48:53.001Z</time></trkpt><trkpt lat="45.83453494880383" lon="8.49522443024881"><ele>628.6666666666667</ele><time>2026-04-11T14:48:54Z</time></trkpt><trkpt lat="45.83474622646215" lon="8.495331699325206"><ele>625.0</ele><time>2026-04-11T14:48:55Z</time></trkpt><trkpt lat="45.834961514595285" lon="8.4954830851875"><ele>640.0</ele><time>2026-04-11T14:48:56Z</time></trkpt><trkpt lat="45.835152494689076" lon="8.495659061174594"><ele>655.0</ele><time>2026-04-11T14:48:57Z</time></trkpt><trkpt lat="45.835346839300975" lon="8.495848145566782"><ele>655.0</ele><time>2026-04-11T14:48:58Z</time></trkpt><trkpt lat="45.83553771580099" lon="8.496007270127253"><ele>655.0</ele><time>2026-04-11T14:48:59Z</time></trkpt><trkpt lat="45.83572927591412" lon="8.496124664047542"><ele>655.0</ele><time>2026-04-11T14:49:00Z</time></trkpt><trkpt lat="45.83591881083303" lon="8.496172459460016"><ele>649.6666666666667</ele><time>2026-04-11T14:49:01Z</time></trkpt><trkpt lat="45.83609795384947" lon="8.496227517962934"><ele>644.3333333333334</ele><time>2026-04-11T14:49:02Z</time></trkpt><trkpt lat="45.83626582471986" lon="8.496351025419676"><ele>639.0</ele><time>2026-04-11T14:49:03Z</time></trkpt><trkpt lat="45.83642540617054" lon="8.496521184795217"><ele>639.0</ele><time>2026-04-11T14:49:04Z</time></trkpt><trkpt lat="45.836628980625676" lon="8.496622233115152"><ele>639.0</ele><time>2026-04-11T14:49:05Z</time></trkpt><trkpt lat="45.83685765081771" lon="8.49668007893966"><ele>639.0</ele><time>2026-04-11T14:49:06Z</time></trkpt><trkpt lat="45.837087701397564" lon="8.496733352899051"><ele>641.6666666666666</ele><time>2026-04-11T14:49:07Z</time></trkpt><trkpt lat="45.837293295460334" lon="8.49678504946447"><ele>644.3333333333333</ele><time>2026-04-11T14:49:08Z</time></trkpt><trkpt lat="45.83748175786088" lon="8.496805337594331"><ele>647.0</ele><time>2026-04-11T14:49:09Z</time></trkpt><trkpt lat="45.837676683828" lon="8.496761750377939"><ele>647.6666666666666</ele><time>2026-04-11T14:49:10Z</time></trkpt><trkpt lat="45.83788381625932" lon="8.4967090049309"><ele>648.3333333333334</ele><time>2026-04-11T14:49:11Z</time></trkpt><trkpt lat="45.838098290131754" lon="8.496729741316154"><ele>649.0</ele><time>2026-04-11T14:49:12Z</time></trkpt><trkpt lat="45.838309738716895" lon="8.496807403591179"><ele>645.6666666666667</ele><time>2026-04-11T14:49:13Z</time></trkpt><trkpt lat="45.83850251187481" lon="8.496909254134724"><ele>642.3333333333334</ele><time>2026-04-11T14:49:14Z</time></trkpt><trkpt lat="45.83866878589884" lon="8.49703018400403"><ele>639.0</ele><time>2026-04-11T14:49:15Z</time></trkpt><trkpt lat="45.83880683501732" lon="8.49717225068046"><ele>639.0</ele><time>2026-04-11T14:49:16Z</time></trkpt><trkpt lat="45.838964546205716" lon="8.497298091348739"><ele>639.0</ele><time>2026-04-11T14:49:17Z</time></trkpt><trkpt lat="45.8391576993529" lon="8.497329271739122"><ele>639.0</ele><time>2026-04-11T14:49:18Z</time></trkpt><trkpt lat="45.83937598470929" lon="8.497324327745746"><ele>641.0</ele><time>2026-04-11T14:49:19Z</time></trkpt><trkpt lat="45.83961281624912" lon="8.49730649184756"><ele>643.0</ele><time>2026-04-11T14:49:20Z</time></trkpt><trkpt lat="45.839853707179266" lon="8.497302732923329"><ele>643.0</ele><time>2026-04-11T14:49:21Z</time></trkpt><trkpt lat="45.84008526126638" lon="8.497288175038301"><ele>643.0</ele><time>2026-04-11T14:49:22Z</time></trkpt><trkpt lat="45.84032672217818" lon="8.497245263829756"><ele>644.3333333333334</ele><time>2026-04-11T14:49:23Z</time></trkpt><trkpt lat="45.840555929977846" lon="8.49724330711592"><ele>645.6666666666666</ele><time>2026-04-11T14:49:24Z</time></trkpt><trkpt lat="45.8407614986162" lon="8.497272819431885"><ele>647.0</ele><time>2026-04-11T14:49:25Z</time></trkpt><trkpt lat="45.84095462401645" lon="8.4972985887375"><ele>648.3333333333333</ele><time>2026-04-11T14:49:26Z</time></trkpt><trkpt lat="45.84113030871405" lon="8.497321092068358"><ele>649.6666666666666</ele><time>2026-04-11T14:49:27Z</time></trkpt><trkpt lat="45.84130098213887" lon="8.497325389811083"><ele>651.0</ele><time>2026-04-11T14:49:28Z</time></trkpt><trkpt lat="45.841459202589" lon="8.497281561141868"><ele>651.0</ele><time>2026-04-11T14:49:29Z</time></trkpt><trkpt lat="45.84164448095351" lon="8.497183173796659"><ele>651.0</ele><time>2026-04-11T14:49:30Z</time></trkpt><trkpt lat="45.84183762090944" lon="8.497110142561375"><ele>651.0</ele><time>2026-04-11T14:49:31Z</time></trkpt><trkpt lat="45.84203972522114" lon="8.49707255782913"><ele>651.0</ele><time>2026-04-11T14:49:32Z</time></trkpt><trkpt lat="45.842247212512426" lon="8.497064966187567"><ele>651.0</ele><time>2026-04-11T14:49:33Z</time></trkpt><trkpt lat="45.842461143337715" lon="8.497115533276475"><ele>651.0</ele><time>2026-04-11T14:49:34Z</time></trkpt><trkpt lat="45.84266961178726" lon="8.497168135564758"><ele>653.3333333333334</ele><time>2026-04-11T14:49:35Z</time></trkpt><trkpt lat="45.842884036869805" lon="8.497221446808272"><ele>655.6666666666667</ele><time>2026-04-11T14:49:36Z</time></trkpt><trkpt lat="45.84309939127292" lon="8.497256347229262"><ele>658.0</ele><time>2026-04-11T14:49:37Z</time></trkpt><trkpt lat="45.84331817584617" lon="8.497273399002008"><ele>665.0</ele><time>2026-04-11T14:49:38Z</time></trkpt><trkpt lat="45.84352989389112" lon="8.497295761327042"><ele>672.0</ele><time>2026-04-11T14:49:39Z</time></trkpt><trkpt lat="45.84374658847241" lon="8.497341435712357"><ele>679.0</ele><time>2026-04-11T14:49:40Z</time></trkpt><trkpt lat="45.843937340314" lon="8.49743242869285"><ele>679.0</ele><time>2026-04-11T14:49:41Z</time></trkpt><trkpt lat="45.84410029150111" lon="8.497543649413819"><ele>679.0</ele><time>2026-04-11T14:49:42Z</time></trkpt><trkpt lat="45.844229400401524" lon="8.497676802616551"><ele>679.0</ele><time>2026-04-11T14:49:43Z</time></trkpt><trkpt lat="45.84434185801013" lon="8.49782014161713"><ele>676.3333333333334</ele><time>2026-04-11T14:49:44Z</time></trkpt><trkpt lat="45.8444739868453" lon="8.497918581681187"><ele>673.6666666666666</ele><time>2026-04-11T14:49:45Z</time></trkpt><trkpt lat="45.84463470750259" lon="8.497974721097293"><ele>671.0</ele><time>2026-04-11T14:49:46Z</time></trkpt><trkpt lat="45.84481329166159" lon="8.498007583604949"><ele>671.0</ele><time>2026-04-11T14:49:47Z</time></trkpt><trkpt lat="45.8449885621175" lon="8.498108593094987"><ele>671.0</ele><time>2026-04-11T14:49:48Z</time></trkpt><trkpt lat="45.845161733728034" lon="8.498250812021572"><ele>671.0</ele><time>2026-04-11T14:49:49Z</time></trkpt><trkpt lat="45.845350031301" lon="8.498340650092546"><ele>673.6666666666666</ele><time>2026-04-11T14:49:50Z</time></trkpt><trkpt lat="45.84553686922085" lon="8.498414489547766"><ele>676.3333333333334</ele><time>2026-04-11T14:49:51Z</time></trkpt><trkpt lat="45.845691535261764" lon="8.498482675035268"><ele>679.0</ele><time>2026-04-11T14:49:52Z</time></trkpt><trkpt lat="45.84584905862142" lon="8.49851182787918"><ele>680.3333333333334</ele><time>2026-04-11T14:49:53Z</time></trkpt><trkpt lat="45.846026893567405" lon="8.498489938981999"><ele>681.6666666666666</ele><time>2026-04-11T14:49:54Z</time></trkpt><trkpt lat="45.84622496610676" lon="8.49844564995512"><ele>683.0</ele><time>2026-04-11T14:49:55Z</time></trkpt><trkpt lat="45.84642049890168" lon="8.498392100309909"><ele>683.0</ele><time>2026-04-11T14:49:56Z</time></trkpt><trkpt lat="45.84660518256326" lon="8.498333409778633"><ele>683.0</ele><time>2026-04-11T14:49:57Z</time></trkpt><trkpt lat="45.84677455928582" lon="8.498338047698702"><ele>683.0</ele><time>2026-04-11T14:49:58Z</time></trkpt><trkpt lat="45.84692702089481" lon="8.49841217192137"><ele>685.0</ele><time>2026-04-11T14:49:59Z</time></trkpt><trkpt lat="45.84707057843795" lon="8.498527614554105"><ele>687.0</ele><time>2026-04-11T14:50:00Z</time></trkpt><trkpt lat="45.84720961799323" lon="8.498651697126931"><ele>689.0</ele><time>2026-04-11T14:50:01Z</time></trkpt><trkpt lat="45.847340742211045" lon="8.498757943955702"><ele>686.25</ele><time>2026-04-11T14:50:02Z</time></trkpt><trkpt lat="45.84745475485367" lon="8.498827037812507"><ele>683.5</ele><time>2026-04-11T14:50:03Z</time></trkpt><trkpt lat="45.84758238498804" lon="8.498813009864657"><ele>680.75</ele><time>2026-04-11T14:50:04Z</time></trkpt><trkpt lat="45.847717026768144" lon="8.49871580284529"><ele>678.0</ele><time>2026-04-11T14:50:05Z</time></trkpt><trkpt lat="45.847857058797096" lon="8.498535719132244"><ele>678.0</ele><time>2026-04-11T14:50:06Z</time></trkpt><trkpt lat="45.84801228721978" lon="8.498353754161974"><ele>678.0</ele><time>2026-04-11T14:50:07Z</time></trkpt><trkpt lat="45.84816582547329" lon="8.498182452729987"><ele>678.0</ele><time>2026-04-11T14:50:08Z</time></trkpt><trkpt lat="45.848324740726994" lon="8.49801792783212"><ele>685.0</ele><time>2026-04-11T14:50:09Z</time></trkpt><trkpt lat="45.84848079690146" lon="8.497895892963479"><ele>692.0</ele><time>2026-04-11T14:50:10Z</time></trkpt><trkpt lat="45.8486618418737" lon="8.49781891208618"><ele>699.0</ele><time>2026-04-11T14:50:11Z</time></trkpt><trkpt lat="45.848857884399095" lon="8.497785038862595"><ele>699.0</ele><time>2026-04-11T14:50:12Z</time></trkpt><trkpt lat="45.84905846702425" lon="8.49773935757683"><ele>699.0</ele><time>2026-04-11T14:50:13Z</time></trkpt><trkpt lat="45.84923872320114" lon="8.497626171370076"><ele>699.0</ele><time>2026-04-11T14:50:14Z</time></trkpt><trkpt lat="45.849433069776" lon="8.49754911580389"><ele>695.6666666666666</ele><time>2026-04-11T14:50:15Z</time></trkpt><trkpt lat="45.84964483220701" lon="8.497533094112732"><ele>692.3333333333333</ele><time>2026-04-11T14:50:16Z</time></trkpt><trkpt lat="45.849852403578616" lon="8.497545286845739"><ele>689.0</ele><time>2026-04-11T14:50:17Z</time></trkpt><trkpt lat="45.850060422633476" lon="8.497541852023527"><ele>686.6666666666666</ele><time>2026-04-11T14:50:18Z</time></trkpt><trkpt lat="45.850256247244594" lon="8.49747862279293"><ele>684.3333333333334</ele><time>2026-04-11T14:50:19Z</time></trkpt><trkpt lat="45.85043646839072" lon="8.497420788763213"><ele>682.0</ele><time>2026-04-11T14:50:20Z</time></trkpt><trkpt lat="45.85058834102698" lon="8.497337736428218"><ele>682.0</ele><time>2026-04-11T14:50:21.001Z</time></trkpt><trkpt lat="45.85073204958139" lon="8.497186978447107"><ele>682.0</ele><time>2026-04-11T14:50:22.001Z</time></trkpt><trkpt lat="45.850895954537165" lon="8.49698246394765"><ele>682.0</ele><time>2026-04-11T14:50:23.001Z</time></trkpt><trkpt lat="45.85107708754769" lon="8.496816245885862"><ele>685.5</ele><time>2026-04-11T14:50:24.001Z</time></trkpt><trkpt lat="45.85128887289959" lon="8.496667473292462"><ele>689.0</ele><time>2026-04-11T14:50:25.001Z</time></trkpt><trkpt lat="45.85150670737572" lon="8.496531787863589"><ele>689.0</ele><time>2026-04-11T14:50:26.001Z</time></trkpt><trkpt lat="45.85173045790237" lon="8.496434524004068"><ele>689.0</ele><time>2026-04-11T14:50:27.001Z</time></trkpt><trkpt lat="45.8519250422784" lon="8.496334938519045"><ele>689.0</ele><time>2026-04-11T14:50:28.001Z</time></trkpt><trkpt lat="45.852092718133484" lon="8.496223289865481"><ele>688.0</ele><time>2026-04-11T14:50:29.001Z</time></trkpt><trkpt lat="45.852242401829706" lon="8.49618793539762"><ele>687.0</ele><time>2026-04-11T14:50:30.001Z</time></trkpt><trkpt lat="45.852385191278124" lon="8.496202648680876"><ele>686.0</ele><time>2026-04-11T14:50:31.001Z</time></trkpt><trkpt lat="45.85251575753858" lon="8.49625378391514"><ele>685.0</ele><time>2026-04-11T14:50:32.001Z</time></trkpt><trkpt lat="45.852617224017216" lon="8.496340725407908"><ele>686.0</ele><time>2026-04-11T14:50:33.001Z</time></trkpt><trkpt lat="45.85270365292708" lon="8.496458829194276"><ele>687.0</ele><time>2026-04-11T14:50:34.001Z</time></trkpt><trkpt lat="45.85276844114413" lon="8.496614021756793"><ele>688.0</ele><time>2026-04-11T14:50:35.001Z</time></trkpt><trkpt lat="45.85280474843121" lon="8.496801095179615"><ele>689.0</ele><time>2026-04-11T14:50:36.001Z</time></trkpt><trkpt lat="45.852823118601954" lon="8.497000884817018"><ele>692.2</ele><time>2026-04-11T14:50:37.001Z</time></trkpt><trkpt lat="45.852839834257225" lon="8.497184611075323"><ele>695.4000000000001</ele><time>2026-04-11T14:50:38.001Z</time></trkpt><trkpt lat="45.85287480446053" lon="8.49730855803193"><ele>698.6</ele><time>2026-04-11T14:50:39.001Z</time></trkpt><trkpt lat="45.85295847650905" lon="8.497364789933782"><ele>701.8</ele><time>2026-04-11T14:50:40.001Z</time></trkpt><trkpt lat="45.85308177467259" lon="8.497363135942742"><ele>705.0</ele><time>2026-04-11T14:50:41.001Z</time></trkpt><trkpt lat="45.85323703049312" lon="8.49731210965968"><ele>705.0</ele><time>2026-04-11T14:50:42.001Z</time></trkpt><trkpt lat="45.853417304576816" lon="8.497290055202349"><ele>705.0</ele><time>2026-04-11T14:50:43.001Z</time></trkpt><trkpt lat="45.85361189096335" lon="8.497317505486464"><ele>705.0</ele><time>2026-04-11T14:50:44.001Z</time></trkpt><trkpt lat="45.85377203384075" lon="8.49737179491141"><ele>705.0</ele><time>2026-04-11T14:50:45.001Z</time></trkpt><trkpt lat="45.85391513442791" lon="8.49734189138815"><ele>705.0</ele><time>2026-04-11T14:50:46.001Z</time></trkpt><trkpt lat="45.854048108139" lon="8.497241659717254"><ele>705.0</ele><time>2026-04-11T14:50:47.001Z</time></trkpt><trkpt lat="45.85416161552187" lon="8.497137151612684"><ele>705.0</ele><time>2026-04-11T14:50:48.001Z</time></trkpt><trkpt lat="45.854270292531425" lon="8.497096469387381"><ele>702.75</ele><time>2026-04-11T14:50:49.001Z</time></trkpt><trkpt lat="45.85437239495126" lon="8.497153475529391"><ele>700.5</ele><time>2026-04-11T14:50:50.001Z</time></trkpt><trkpt lat="45.85446629368374" lon="8.497298999430162"><ele>698.25</ele><time>2026-04-11T14:50:51.001Z</time></trkpt><trkpt lat="45.85458708441339" lon="8.497515082098834"><ele>696.0</ele><time>2026-04-11T14:50:52.001Z</time></trkpt><trkpt lat="45.854737240286916" lon="8.497663831236672"><ele>696.0</ele><time>2026-04-11T14:50:53.001Z</time></trkpt><trkpt lat="45.85487774727649" lon="8.497827070540891"><ele>696.0</ele><time>2026-04-11T14:50:54.001Z</time></trkpt><trkpt lat="45.85501639634938" lon="8.49800438786074"><ele>696.0</ele><time>2026-04-11T14:50:55.001Z</time></trkpt><trkpt lat="45.855155299121954" lon="8.498164806074385"><ele>695.6666666666666</ele><time>2026-04-11T14:50:56.001Z</time></trkpt><trkpt lat="45.85530062101301" lon="8.498330027122929"><ele>695.3333333333333</ele><time>2026-04-11T14:50:57.001Z</time></trkpt><trkpt lat="45.85544438683378" lon="8.498503023359488"><ele>695.0</ele><time>2026-04-11T14:50:58.001Z</time></trkpt><trkpt lat="45.85558945773402" lon="8.498676737532106"><ele>694.6666666666666</ele><time>2026-04-11T14:50:59.001Z</time></trkpt><trkpt lat="45.85573578627732" lon="8.498844282553666"><ele>694.3333333333334</ele><time>2026-04-11T14:51:00.001Z</time></trkpt><trkpt lat="45.855882272156116" lon="8.499024679571242"><ele>694.0</ele><time>2026-04-11T14:51:01.001Z</time></trkpt><trkpt lat="45.856012100057455" lon="8.499200373585714"><ele>693.6666666666667</ele><time>2026-04-11T14:51:02.001Z</time></trkpt><trkpt lat="45.85614888796778" lon="8.499351175654366"><ele>693.3333333333334</ele><time>2026-04-11T14:51:03.001Z</time></trkpt><trkpt lat="45.856256353276315" lon="8.499504266321368"><ele>693.0</ele><time>2026-04-11T14:51:04.001Z</time></trkpt><trkpt lat="45.85633900954306" lon="8.499688511785065"><ele>692.3333333333334</ele><time>2026-04-11T14:51:05.001Z</time></trkpt><trkpt lat="45.856386943390895" lon="8.499893749776614"><ele>691.6666666666667</ele><time>2026-04-11T14:51:06Z</time></trkpt><trkpt lat="45.85642015730909" lon="8.500125605083085"><ele>691.0</ele><time>2026-04-11T14:51:07Z</time></trkpt><trkpt lat="45.85643332127703" lon="8.500366321286174"><ele>690.5</ele><time>2026-04-11T14:51:08Z</time></trkpt><trkpt lat="45.8564532721163" lon="8.500598149187704"><ele>690.0</ele><time>2026-04-11T14:51:09Z</time></trkpt><trkpt lat="45.85649190911428" lon="8.500800856552411"><ele>689.5</ele><time>2026-04-11T14:51:10Z</time></trkpt><trkpt lat="45.8565508853878" lon="8.500977949673311"><ele>689.0</ele><time>2026-04-11T14:51:11Z</time></trkpt><trkpt lat="45.85664262886871" lon="8.501132809234212"><ele>688.75</ele><time>2026-04-11T14:51:12Z</time></trkpt><trkpt lat="45.856768594529306" lon="8.50125283182618"><ele>688.5</ele><time>2026-04-11T14:51:13Z</time></trkpt><trkpt lat="45.856879797239095" lon="8.501364589448244"><ele>688.25</ele><time>2026-04-11T14:51:14Z</time></trkpt><trkpt lat="45.856964865164244" lon="8.501463954441613"><ele>688.0</ele><time>2026-04-11T14:51:15Z</time></trkpt><trkpt lat="45.85704792114567" lon="8.501607961055862"><ele>685.0</ele><time>2026-04-11T14:51:16Z</time></trkpt><trkpt lat="45.8571185818051" lon="8.501695574453098"><ele>682.0</ele><time>2026-04-11T14:51:17Z</time></trkpt><trkpt lat="45.857227683533274" lon="8.50171585749036"><ele>679.0</ele><time>2026-04-11T14:51:18Z</time></trkpt><trkpt lat="45.857349008711346" lon="8.501706399265277"><ele>676.0</ele><time>2026-04-11T14:51:19Z</time></trkpt><trkpt lat="45.85744457893832" lon="8.501755416360128"><ele>673.0</ele><time>2026-04-11T14:51:20Z</time></trkpt><trkpt lat="45.85751611669135" lon="8.501904686003426"><ele>673.0</ele><time>2026-04-11T14:51:21Z</time></trkpt><trkpt lat="45.85756584071925" lon="8.502024934210079"><ele>673.0</ele><time>2026-04-11T14:51:22Z</time></trkpt><trkpt lat="45.85764755074605" lon="8.502189292223767"><ele>673.0</ele><time>2026-04-11T14:51:23Z</time></trkpt><trkpt lat="45.857739872598806" lon="8.502371180826499"><ele>673.0</ele><time>2026-04-11T14:51:24Z</time></trkpt><trkpt lat="45.85783657544095" lon="8.50255869515926"><ele>675.0</ele><time>2026-04-11T14:51:25Z</time></trkpt><trkpt lat="45.8579489367012" lon="8.502739277497534"><ele>677.0</ele><time>2026-04-11T14:51:26Z</time></trkpt><trkpt lat="45.858042479448216" lon="8.502919439379673"><ele>679.0</ele><time>2026-04-11T14:51:27Z</time></trkpt><trkpt lat="45.85812205524571" lon="8.50307863781807"><ele>679.0</ele><time>2026-04-11T14:51:28Z</time></trkpt><trkpt lat="45.85816462915852" lon="8.503209371760649"><ele>679.0</ele><time>2026-04-11T14:51:29Z</time></trkpt><trkpt lat="45.85817133253023" lon="8.50337728957551"><ele>679.0</ele><time>2026-04-11T14:51:31Z</time></trkpt><trkpt lat="45.85810553627126" lon="8.503517857695883"><ele>679.0</ele><time>2026-04-11T14:51:32Z</time></trkpt><trkpt lat="45.858062780062795" lon="8.503715164062301"><ele>679.5</ele><time>2026-04-11T14:51:33Z</time></trkpt><trkpt lat="45.858025743651716" lon="8.503892591699813"><ele>680.0</ele><time>2026-04-11T14:51:34Z</time></trkpt><trkpt lat="45.858018040363106" lon="8.504057421020443"><ele>680.5</ele><time>2026-04-11T14:51:35Z</time></trkpt><trkpt lat="45.857996091902514" lon="8.504247013293686"><ele>681.0</ele><time>2026-04-11T14:51:36Z</time></trkpt><trkpt lat="45.858009543389635" lon="8.504463499410857"><ele>678.6666666666666</ele><time>2026-04-11T14:51:37Z</time></trkpt><trkpt lat="45.858044265632685" lon="8.504691220041236"><ele>676.3333333333333</ele><time>2026-04-11T14:51:38Z</time></trkpt><trkpt lat="45.858098114869236" lon="8.504920634206552"><ele>674.0</ele><time>2026-04-11T14:51:39Z</time></trkpt><trkpt lat="45.85814808237064" lon="8.505157802167844"><ele>674.0</ele><time>2026-04-11T14:51:40Z</time></trkpt><trkpt lat="45.858215975383125" lon="8.505397505792304"><ele>674.0</ele><time>2026-04-11T14:51:41Z</time></trkpt><trkpt lat="45.8582907456971" lon="8.505636046096983"><ele>674.0</ele><time>2026-04-11T14:51:42Z</time></trkpt><trkpt lat="45.858369659965746" lon="8.505866651227095"><ele>676.0</ele><time>2026-04-11T14:51:43Z</time></trkpt><trkpt lat="45.858459667940224" lon="8.506091619450618"><ele>678.0</ele><time>2026-04-11T14:51:44Z</time></trkpt><trkpt lat="45.85854904015083" lon="8.506314413669564"><ele>680.0</ele><time>2026-04-11T14:51:45Z</time></trkpt><trkpt lat="45.85863977535302" lon="8.506539253835179"><ele>680.0</ele><time>2026-04-11T14:51:46Z</time></trkpt><trkpt lat="45.858718199859105" lon="8.506756205608786"><ele>680.0</ele><time>2026-04-11T14:51:47Z</time></trkpt><trkpt lat="45.858799765882345" lon="8.50697257506896"><ele>680.0</ele><time>2026-04-11T14:51:48Z</time></trkpt><trkpt lat="45.85887470851101" lon="8.507189076833129"><ele>677.3333333333333</ele><time>2026-04-11T14:51:49Z</time></trkpt><trkpt lat="45.85895647096541" lon="8.507398427260647"><ele>674.6666666666666</ele><time>2026-04-11T14:51:50Z</time></trkpt><trkpt lat="45.859040566781054" lon="8.5075847952851"><ele>672.0</ele><time>2026-04-11T14:51:51Z</time></trkpt><trkpt lat="45.859137297179835" lon="8.507742520037553"><ele>672.0</ele><time>2026-04-11T14:51:52Z</time></trkpt><trkpt lat="45.8592641645527" lon="8.50787981238064"><ele>672.0</ele><time>2026-04-11T14:51:53Z</time></trkpt><trkpt lat="45.85941561017475" lon="8.508007004642955"><ele>672.0</ele><time>2026-04-11T14:51:54Z</time></trkpt><trkpt lat="45.85955372382546" lon="8.508132783808643"><ele>672.2</ele><time>2026-04-11T14:51:55Z</time></trkpt><trkpt lat="45.85966042511112" lon="8.508231624931504"><ele>672.4000000000001</ele><time>2026-04-11T14:51:56Z</time></trkpt><trkpt lat="45.85974221540371" lon="8.508306508724067"><ele>672.5999999999999</ele><time>2026-04-11T14:51:57Z</time></trkpt><trkpt lat="45.85981509419927" lon="8.508376613271443"><ele>672.8</ele><time>2026-04-11T14:51:58Z</time></trkpt><trkpt lat="45.859895862702636" lon="8.508454790785649"><ele>673.0</ele><time>2026-04-11T14:51:59Z</time></trkpt><trkpt lat="45.860010499067236" lon="8.508565911780979"><ele>674.25</ele><time>2026-04-11T14:52:00Z</time></trkpt><trkpt lat="45.86013111092219" lon="8.508680555937628"><ele>675.5</ele><time>2026-04-11T14:52:01Z</time></trkpt><trkpt lat="45.860248880426234" lon="8.50878464058893"><ele>676.75</ele><time>2026-04-11T14:52:02Z</time></trkpt><trkpt lat="45.860359521012064" lon="8.508884617369187"><ele>678.0</ele><time>2026-04-11T14:52:03Z</time></trkpt><trkpt lat="45.86045320684856" lon="8.50897416330341"><ele>678.0</ele><time>2026-04-11T14:52:04Z</time></trkpt><trkpt lat="45.860539623881195" lon="8.50906259777717"><ele>678.0</ele><time>2026-04-11T14:52:05Z</time></trkpt><trkpt lat="45.860614697444284" lon="8.50914313627776"><ele>678.0</ele><time>2026-04-11T14:52:06Z</time></trkpt><trkpt lat="45.86068969254666" lon="8.509215840041264"><ele>678.0</ele><time>2026-04-11T14:52:07Z</time></trkpt><trkpt lat="45.86074766200499" lon="8.509278147811232"><ele>678.0</ele><time>2026-04-11T14:52:08Z</time></trkpt><trkpt lat="45.860800774124236" lon="8.509338851580976"><ele>678.0</ele><time>2026-04-11T14:52:09Z</time></trkpt><trkpt lat="45.86086634242952" lon="8.509404418812434"><ele>678.0</ele><time>2026-04-11T14:52:10Z</time></trkpt><trkpt lat="45.86093152337135" lon="8.509470840411518"><ele>678.0</ele><time>2026-04-11T14:52:11Z</time></trkpt><trkpt lat="45.860990639079" lon="8.509539390520812"><ele>678.0</ele><time>2026-04-11T14:52:12Z</time></trkpt><trkpt lat="45.86104474239114" lon="8.509594625927125"><ele>678.0</ele><time>2026-04-11T14:52:13Z</time></trkpt><trkpt lat="45.86111660075099" lon="8.509679172226445"><ele>678.0</ele><time>2026-04-11T14:52:15Z</time></trkpt><trkpt lat="45.86115652151608" lon="8.509754758238795"><ele>678.0</ele><time>2026-04-11T14:52:19Z</time></trkpt><trkpt lat="45.86125599409378" lon="8.509799101880121"><ele>677.25</ele><time>2026-04-11T14:53:48Z</time></trkpt><trkpt lat="45.861322425147144" lon="8.509784787504515"><ele>676.5</ele><time>2026-04-11T14:53:49Z</time></trkpt><trkpt lat="45.86145986673992" lon="8.509725141260912"><ele>675.75</ele><time>2026-04-11T14:53:51Z</time></trkpt><trkpt lat="45.86158447073471" lon="8.509701951368609"><ele>675.0</ele><time>2026-04-11T14:53:53Z</time></trkpt><trkpt lat="45.86170219520311" lon="8.509748381540483"><ele>675.0</ele><time>2026-04-11T14:53:55Z</time></trkpt><trkpt lat="45.86175635793226" lon="8.509887379713366"><ele>675.0</ele><time>2026-04-11T14:53:56Z</time></trkpt><trkpt lat="45.861828657470625" lon="8.51002816430456"><ele>675.0</ele><time>2026-04-11T14:53:57Z</time></trkpt><trkpt lat="45.86193885257803" lon="8.510146420649635"><ele>675.0</ele><time>2026-04-11T14:53:58Z</time></trkpt><trkpt lat="45.862031395753704" lon="8.510260267745766"><ele>675.0</ele><time>2026-04-11T14:53:59Z</time></trkpt><trkpt lat="45.86213372569409" lon="8.510355638143588"><ele>675.0</ele><time>2026-04-11T14:54:00Z</time></trkpt><trkpt lat="45.86222401901331" lon="8.510432781180098"><ele>675.0</ele><time>2026-04-11T14:54:01Z</time></trkpt><trkpt lat="45.862311787485154" lon="8.510527847770847"><ele>675.0</ele><time>2026-04-11T14:54:02Z</time></trkpt><trkpt lat="45.86239955918469" lon="8.510620080693322"><ele>675.0</ele><time>2026-04-11T14:54:03Z</time></trkpt><trkpt lat="45.86247952905352" lon="8.51070840092077"><ele>675.2</ele><time>2026-04-11T14:54:04Z</time></trkpt><trkpt lat="45.86255333613389" lon="8.510793317019811"><ele>675.4</ele><time>2026-04-11T14:54:05Z</time></trkpt><trkpt lat="45.86262496052493" lon="8.510870559409648"><ele>675.5999999999999</ele><time>2026-04-11T14:54:06Z</time></trkpt><trkpt lat="45.86269265515782" lon="8.51094804099212"><ele>675.8</ele><time>2026-04-11T14:54:07Z</time></trkpt><trkpt lat="45.862764618798714" lon="8.511027906404378"><ele>676.0</ele><time>2026-04-11T14:54:08Z</time></trkpt><trkpt lat="45.86283888274083" lon="8.511105133388295"><ele>676.0</ele><time>2026-04-11T14:54:09Z</time></trkpt><trkpt lat="45.8629055821208" lon="8.511173133411493"><ele>676.0</ele><time>2026-04-11T14:54:10Z</time></trkpt><trkpt lat="45.86296977084454" lon="8.51124125614187"><ele>676.0</ele><time>2026-04-11T14:54:11Z</time></trkpt><trkpt lat="45.863031239552384" lon="8.511303941951372"><ele>676.0</ele><time>2026-04-11T14:54:12Z</time></trkpt><trkpt lat="45.86308989127046" lon="8.511363029732992"><ele>676.0</ele><time>2026-04-11T14:54:13Z</time></trkpt><trkpt lat="45.863148141209834" lon="8.511424639258081"><ele>676.0</ele><time>2026-04-11T14:54:14Z</time></trkpt><trkpt lat="45.86320608944678" lon="8.511480185601565"><ele>676.3333333333334</ele><time>2026-04-11T14:54:15Z</time></trkpt><trkpt lat="45.86326557759048" lon="8.511539675741826"><ele>676.6666666666667</ele><time>2026-04-11T14:54:16Z</time></trkpt><trkpt lat="45.86332327882369" lon="8.511601576158704"><ele>677.0</ele><time>2026-04-11T14:54:17Z</time></trkpt><trkpt lat="45.86338110718917" lon="8.511660931712882"><ele>677.3333333333334</ele><time>2026-04-11T14:54:18Z</time></trkpt><trkpt lat="45.863439925461385" lon="8.511721145853313"><ele>677.6666666666666</ele><time>2026-04-11T14:54:19Z</time></trkpt><trkpt lat="45.863497178998635" lon="8.51177166859722"><ele>678.0</ele><time>2026-04-11T14:54:20Z</time></trkpt><trkpt lat="45.863593928066976" lon="8.511869338095805"><ele>678.0</ele><time>2026-04-11T14:54:22Z</time></trkpt><trkpt lat="45.86368249484598" lon="8.511963884421958"><ele>678.0</ele><time>2026-04-11T14:54:24Z</time></trkpt><trkpt lat="45.863742623936645" lon="8.512022583636531"><ele>678.0</ele><time>2026-04-11T14:54:25Z</time></trkpt><trkpt lat="45.863816161289606" lon="8.51207469823316"><ele>678.0</ele><time>2026-04-11T14:54:26Z</time></trkpt><trkpt lat="45.86388318560678" lon="8.512130608657731"><ele>678.0</ele><time>2026-04-11T14:54:27Z</time></trkpt><trkpt lat="45.86394660786603" lon="8.512179888153831"><ele>678.0</ele><time>2026-04-11T14:54:28Z</time></trkpt><trkpt lat="45.86402397566151" lon="8.512238252133596"><ele>677.8</ele><time>2026-04-11T14:54:29Z</time></trkpt><trkpt lat="45.86409987017999" lon="8.512302158215382"><ele>677.5999999999999</ele><time>2026-04-11T14:54:30Z</time></trkpt><trkpt lat="45.86417539808253" lon="8.512363756894207"><ele>677.4000000000001</ele><time>2026-04-11T14:54:31Z</time></trkpt><trkpt lat="45.864268440409646" lon="8.512435450265805"><ele>677.2</ele><time>2026-04-11T14:54:32Z</time></trkpt><trkpt lat="45.86436653664041" lon="8.51252190251515"><ele>677.0</ele><time>2026-04-11T14:54:33Z</time></trkpt><trkpt lat="45.864472782475055" lon="8.512609774802055"><ele>677.0</ele><time>2026-04-11T14:54:34Z</time></trkpt><trkpt lat="45.86458502728488" lon="8.512690146898176"><ele>677.0</ele><time>2026-04-11T14:54:35Z</time></trkpt><trkpt lat="45.86469981649055" lon="8.512780603399557"><ele>677.0</ele><time>2026-04-11T14:54:36Z</time></trkpt><trkpt lat="45.864826170722594" lon="8.512880229681127"><ele>677.0</ele><time>2026-04-11T14:54:37Z</time></trkpt><trkpt lat="45.86495035623204" lon="8.512986906186697"><ele>672.75</ele><time>2026-04-11T14:54:38Z</time></trkpt><trkpt lat="45.865075764166534" lon="8.513089557856512"><ele>668.5</ele><time>2026-04-11T14:54:39Z</time></trkpt><trkpt lat="45.86520510946686" lon="8.513185186802927"><ele>664.25</ele><time>2026-04-11T14:54:40Z</time></trkpt><trkpt lat="45.865320932439225" lon="8.513287211568288"><ele>660.0</ele><time>2026-04-11T14:54:41Z</time></trkpt><trkpt lat="45.86544408735022" lon="8.513383348613987"><ele>659.5</ele><time>2026-04-11T14:54:42.001Z</time></trkpt><trkpt lat="45.86556836074542" lon="8.513478712819031"><ele>659.0</ele><time>2026-04-11T14:54:43.001Z</time></trkpt><trkpt lat="45.86570004565041" lon="8.513578297953044"><ele>658.5</ele><time>2026-04-11T14:54:44.001Z</time></trkpt><trkpt lat="45.86583625609388" lon="8.513679777052792"><ele>658.0</ele><time>2026-04-11T14:54:45.001Z</time></trkpt><trkpt lat="45.86597539174813" lon="8.513766044721516"><ele>656.3333333333334</ele><time>2026-04-11T14:54:46.001Z</time></trkpt><trkpt lat="45.866124424340285" lon="8.513834579476892"><ele>654.6666666666666</ele><time>2026-04-11T14:54:47.001Z</time></trkpt><trkpt lat="45.866280891779354" lon="8.513885409562432"><ele>653.0</ele><time>2026-04-11T14:54:48.001Z</time></trkpt><trkpt lat="45.86647770602856" lon="8.513902723536711"><ele>653.0</ele><time>2026-04-11T14:54:49.001Z</time></trkpt><trkpt lat="45.86668440911548" lon="8.513897544276691"><ele>653.0</ele><time>2026-04-11T14:54:50.001Z</time></trkpt><trkpt lat="45.866903779759596" lon="8.513901526910132"><ele>653.0</ele><time>2026-04-11T14:54:51.001Z</time></trkpt><trkpt lat="45.86712538683202" lon="8.513905957999707"><ele>652.3333333333333</ele><time>2026-04-11T14:54:52.001Z</time></trkpt><trkpt lat="45.867349376865675" lon="8.513914180041013"><ele>651.6666666666666</ele><time>2026-04-11T14:54:53.001Z</time></trkpt><trkpt lat="45.86756951481527" lon="8.51392813426569"><ele>651.0</ele><time>2026-04-11T14:54:54.001Z</time></trkpt><trkpt lat="45.86778452563542" lon="8.513928457143185"><ele>651.0</ele><time>2026-04-11T14:54:55.001Z</time></trkpt><trkpt lat="45.86800416877797" lon="8.513901406236084"><ele>651.0</ele><time>2026-04-11T14:54:56.001Z</time></trkpt><trkpt lat="45.86820588920122" lon="8.513859959490807"><ele>651.0</ele><time>2026-04-11T14:54:57.001Z</time></trkpt><trkpt lat="45.86839373716085" lon="8.51383417974347"><ele>649.6666666666666</ele><time>2026-04-11T14:54:58.001Z</time></trkpt><trkpt lat="45.86857874295582" lon="8.513777337727909"><ele>648.3333333333333</ele><time>2026-04-11T14:54:59.001Z</time></trkpt><trkpt lat="45.86874595757326" lon="8.513755271895093"><ele>647.0</ele><time>2026-04-11T14:55:00Z</time></trkpt><trkpt lat="45.86891054162232" lon="8.513726885722193"><ele>648.0</ele><time>2026-04-11T14:55:01Z</time></trkpt><trkpt lat="45.86907100789521" lon="8.513696263405867"><ele>649.0</ele><time>2026-04-11T14:55:02Z</time></trkpt><trkpt lat="45.869223712970665" lon="8.513665994234737"><ele>650.0</ele><time>2026-04-11T14:55:03Z</time></trkpt><trkpt lat="45.869361177181055" lon="8.513622636194185"><ele>650.0</ele><time>2026-04-11T14:55:04Z</time></trkpt><trkpt lat="45.86949152891174" lon="8.513583288039761"><ele>650.0</ele><time>2026-04-11T14:55:05Z</time></trkpt><trkpt lat="45.869621921863754" lon="8.513557466989893"><ele>650.0</ele><time>2026-04-11T14:55:06Z</time></trkpt><trkpt lat="45.8697668909469" lon="8.513563883693543"><ele>650.0</ele><time>2026-04-11T14:55:07Z</time></trkpt><trkpt lat="45.86991112296472" lon="8.513594738195264"><ele>650.0</ele><time>2026-04-11T14:55:08Z</time></trkpt><trkpt lat="45.87006510172722" lon="8.513636537534907"><ele>650.0</ele><time>2026-04-11T14:55:09Z</time></trkpt><trkpt lat="45.87024353463119" lon="8.51371334565532"><ele>650.0</ele><time>2026-04-11T14:55:10Z</time></trkpt><trkpt lat="45.870413196752935" lon="8.513773093166"><ele>647.0</ele><time>2026-04-11T14:55:11Z</time></trkpt><trkpt lat="45.87057120295662" lon="8.513832657740737"><ele>644.0</ele><time>2026-04-11T14:55:12Z</time></trkpt><trkpt lat="45.87071180506548" lon="8.513881165863292"><ele>641.0</ele><time>2026-04-11T14:55:13Z</time></trkpt><trkpt lat="45.87081821410111" lon="8.513940518622567"><ele>638.0</ele><time>2026-04-11T14:55:14Z</time></trkpt><trkpt lat="45.87092506146984" lon="8.514059089593735"><ele>637.0</ele><time>2026-04-11T14:55:15Z</time></trkpt><trkpt lat="45.87102579202059" lon="8.514206363031615"><ele>636.0</ele><time>2026-04-11T14:55:16Z</time></trkpt><trkpt lat="45.87113119156972" lon="8.514367564621601"><ele>635.0</ele><time>2026-04-11T14:55:17Z</time></trkpt><trkpt lat="45.87123222233955" lon="8.514504858802107"><ele>634.0</ele><time>2026-04-11T14:55:18Z</time></trkpt><trkpt lat="45.871328994736714" lon="8.514633594888098"><ele>632.75</ele><time>2026-04-11T14:55:19Z</time></trkpt><trkpt lat="45.871421934988405" lon="8.514733169852295"><ele>631.5</ele><time>2026-04-11T14:55:20Z</time></trkpt><trkpt lat="45.87153221046435" lon="8.514775191158977"><ele>630.25</ele><time>2026-04-11T14:55:21Z</time></trkpt><trkpt lat="45.871667886756" lon="8.514771719715384"><ele>629.0</ele><time>2026-04-11T14:55:22Z</time></trkpt><trkpt lat="45.871798489643986" lon="8.514761571199665"><ele>627.0</ele><time>2026-04-11T14:55:23Z</time></trkpt><trkpt lat="45.87191789201578" lon="8.514764264562006"><ele>625.0</ele><time>2026-04-11T14:55:24Z</time></trkpt><trkpt lat="45.8720147910838" lon="8.514825332102728"><ele>623.0</ele><time>2026-04-11T14:55:25Z</time></trkpt><trkpt lat="45.87207176403924" lon="8.51495165703862"><ele>621.0</ele><time>2026-04-11T14:55:26Z</time></trkpt><trkpt lat="45.87210322747021" lon="8.515094040870117"><ele>619.0</ele><time>2026-04-11T14:55:27Z</time></trkpt><trkpt lat="45.87214566211067" lon="8.515258995770843"><ele>618.6666666666667</ele><time>2026-04-11T14:55:28Z</time></trkpt><trkpt lat="45.872179451760154" lon="8.515446732458765"><ele>618.3333333333334</ele><time>2026-04-11T14:55:29Z</time></trkpt><trkpt lat="45.87220311479496" lon="8.515664159456417"><ele>618.0</ele><time>2026-04-11T14:55:30Z</time></trkpt><trkpt lat="45.87221160713385" lon="8.515897017553959"><ele>618.0</ele><time>2026-04-11T14:55:31Z</time></trkpt><trkpt lat="45.872190351156284" lon="8.516144548972171"><ele>618.0</ele><time>2026-04-11T14:55:32Z</time></trkpt><trkpt lat="45.87216540087669" lon="8.5163979593088"><ele>618.0</ele><time>2026-04-11T14:55:33Z</time></trkpt><trkpt lat="45.872147940581534" lon="8.516665303246652"><ele>616.6666666666666</ele><time>2026-04-11T14:55:34Z</time></trkpt><trkpt lat="45.872103705242196" lon="8.516946750073162"><ele>615.3333333333333</ele><time>2026-04-11T14:55:35Z</time></trkpt><trkpt lat="45.87206640284649" lon="8.517234856198298"><ele>614.0</ele><time>2026-04-11T14:55:36Z</time></trkpt><trkpt lat="45.87203599070102" lon="8.51750984061973"><ele>611.3333333333333</ele><time>2026-04-11T14:55:37Z</time></trkpt><trkpt lat="45.87203070601088" lon="8.517773807715908"><ele>608.6666666666666</ele><time>2026-04-11T14:55:38Z</time></trkpt><trkpt lat="45.872057971571806" lon="8.518022348700942"><ele>606.0</ele><time>2026-04-11T14:55:39Z</time></trkpt><trkpt lat="45.8721218767824" lon="8.518257640738792"><ele>604.3333333333334</ele><time>2026-04-11T14:55:40Z</time></trkpt><trkpt lat="45.872192348742956" lon="8.518494289123558"><ele>602.6666666666667</ele><time>2026-04-11T14:55:41Z</time></trkpt><trkpt lat="45.87225700201833" lon="8.51872599702873"><ele>601.0</ele><time>2026-04-11T14:55:42Z</time></trkpt><trkpt lat="45.87231163094365" lon="8.518968761963725"><ele>601.0</ele><time>2026-04-11T14:55:43Z</time></trkpt><trkpt lat="45.87236580754408" lon="8.5192130782049"><ele>601.0</ele><time>2026-04-11T14:55:44Z</time></trkpt><trkpt lat="45.8724216785532" lon="8.519448237815752"><ele>601.0</ele><time>2026-04-11T14:55:45Z</time></trkpt><trkpt lat="45.87247786982403" lon="8.519680874965626"><ele>599.25</ele><time>2026-04-11T14:55:46Z</time></trkpt><trkpt lat="45.8725256298898" lon="8.519898657440056"><ele>597.5</ele><time>2026-04-11T14:55:47Z</time></trkpt><trkpt lat="45.87256351144658" lon="8.520071299387387"><ele>595.75</ele><time>2026-04-11T14:55:48Z</time></trkpt><trkpt lat="45.872554141950545" lon="8.520234024303214"><ele>594.0</ele><time>2026-04-11T14:55:49Z</time></trkpt><trkpt lat="45.87252302985734" lon="8.520391121951665"><ele>591.25</ele><time>2026-04-11T14:55:50Z</time></trkpt><trkpt lat="45.87244665613151" lon="8.520524819653163"><ele>588.5</ele><time>2026-04-11T14:55:51Z</time></trkpt><trkpt lat="45.87234700641369" lon="8.520618190292282"><ele>585.75</ele><time>2026-04-11T14:55:52Z</time></trkpt><trkpt lat="45.87224386106271" lon="8.520720426758103"><ele>583.0</ele><time>2026-04-11T14:55:53Z</time></trkpt><trkpt lat="45.87213096011293" lon="8.520873747433033"><ele>583.0</ele><time>2026-04-11T14:55:54Z</time></trkpt><trkpt lat="45.87202645669726" lon="8.521010975373267"><ele>583.0</ele><time>2026-04-11T14:55:55Z</time></trkpt><trkpt lat="45.87195751009037" lon="8.521191257076183"><ele>583.0</ele><time>2026-04-11T14:55:56Z</time></trkpt><trkpt lat="45.87192357145076" lon="8.521410156641497"><ele>583.0</ele><time>2026-04-11T14:55:57Z</time></trkpt><trkpt lat="45.8718855539936" lon="8.521636798282183"><ele>580.75</ele><time>2026-04-11T14:55:58Z</time></trkpt><trkpt lat="45.8718370002503" lon="8.521812586353631"><ele>578.5</ele><time>2026-04-11T14:55:59Z</time></trkpt><trkpt lat="45.87177673172865" lon="8.52195750234516"><ele>576.25</ele><time>2026-04-11T14:56:00Z</time></trkpt><trkpt lat="45.871690577320514" lon="8.522079706169633"><ele>574.0</ele><time>2026-04-11T14:56:01Z</time></trkpt><trkpt lat="45.871581544242446" lon="8.522222855699075"><ele>573.0</ele><time>2026-04-11T14:56:02Z</time></trkpt><trkpt lat="45.87145896996936" lon="8.522364059397392"><ele>572.0</ele><time>2026-04-11T14:56:03Z</time></trkpt><trkpt lat="45.87134646035574" lon="8.522527583746"><ele>571.0</ele><time>2026-04-11T14:56:04Z</time></trkpt><trkpt lat="45.87124410815361" lon="8.522689124981802"><ele>571.0</ele><time>2026-04-11T14:56:05Z</time></trkpt><trkpt lat="45.87115377168602" lon="8.522851831699088"><ele>571.0</ele><time>2026-04-11T14:56:06Z</time></trkpt><trkpt lat="45.87106080401275" lon="8.523019412268212"><ele>571.0</ele><time>2026-04-11T14:56:07Z</time></trkpt><trkpt lat="45.870960746975626" lon="8.52319092829919"><ele>568.6666666666667</ele><time>2026-04-11T14:56:08Z</time></trkpt><trkpt lat="45.87086315872919" lon="8.52336772366945"><ele>566.3333333333334</ele><time>2026-04-11T14:56:09Z</time></trkpt><trkpt lat="45.870765456094816" lon="8.523555082819778"><ele>564.0</ele><time>2026-04-11T14:56:10Z</time></trkpt><trkpt lat="45.870669885472246" lon="8.523735276631413"><ele>562.0</ele><time>2026-04-11T14:56:11Z</time></trkpt><trkpt lat="45.87057785842569" lon="8.523917218797724"><ele>560.0</ele><time>2026-04-11T14:56:12Z</time></trkpt><trkpt lat="45.87047796405189" lon="8.524098683364517"><ele>558.0</ele><time>2026-04-11T14:56:13Z</time></trkpt><trkpt lat="45.87036163544846" lon="8.524270557881128"><ele>558.0</ele><time>2026-04-11T14:56:14Z</time></trkpt><trkpt lat="45.87023767838474" lon="8.524422046326938"><ele>558.0</ele><time>2026-04-11T14:56:15Z</time></trkpt><trkpt lat="45.870108901524326" lon="8.524567051205773"><ele>558.0</ele><time>2026-04-11T14:56:16Z</time></trkpt><trkpt lat="45.86998303473688" lon="8.524708268016765"><ele>556.3333333333334</ele><time>2026-04-11T14:56:17Z</time></trkpt><trkpt lat="45.86985669577199" lon="8.524854503192062"><ele>554.6666666666667</ele><time>2026-04-11T14:56:18Z</time></trkpt><trkpt lat="45.869739067624764" lon="8.524999212148643"><ele>553.0</ele><time>2026-04-11T14:56:19Z</time></trkpt><trkpt lat="45.86963550820074" lon="8.525131843695366"><ele>553.0</ele><time>2026-04-11T14:56:20Z</time></trkpt><trkpt lat="45.86954863981981" lon="8.525231025270498"><ele>553.0</ele><time>2026-04-11T14:56:21Z</time></trkpt><trkpt lat="45.86948021413193" lon="8.525322197090748"><ele>553.0</ele><time>2026-04-11T14:56:22Z</time></trkpt><trkpt lat="45.86940951357804" lon="8.525412175308947"><ele>553.0</ele><time>2026-04-11T14:56:23Z</time></trkpt><trkpt lat="45.869334112099644" lon="8.525501422506526"><ele>553.0</ele><time>2026-04-11T14:56:24Z</time></trkpt><trkpt lat="45.86924984053674" lon="8.525590151943641"><ele>553.25</ele><time>2026-04-11T14:56:25Z</time></trkpt><trkpt lat="45.86915706886559" lon="8.525671731828169"><ele>553.5</ele><time>2026-04-11T14:56:26Z</time></trkpt><trkpt lat="45.86904943744897" lon="8.52573381710226"><ele>553.75</ele><time>2026-04-11T14:56:27Z</time></trkpt><trkpt lat="45.86893483943914" lon="8.525767049696347"><ele>554.0</ele><time>2026-04-11T14:56:28Z</time></trkpt><trkpt lat="45.86882313244864" lon="8.525807780067277"><ele>554.0</ele><time>2026-04-11T14:56:29Z</time></trkpt><trkpt lat="45.86872166750781" lon="8.525898957890526"><ele>554.0</ele><time>2026-04-11T14:56:30Z</time></trkpt><trkpt lat="45.86863762124057" lon="8.526033466701017"><ele>554.0</ele><time>2026-04-11T14:56:31Z</time></trkpt><trkpt lat="45.868561682674724" lon="8.526184389052991"><ele>554.0</ele><time>2026-04-11T14:56:32Z</time></trkpt><trkpt lat="45.868475532001014" lon="8.526319575664454"><ele>554.0</ele><time>2026-04-11T14:56:33Z</time></trkpt><trkpt lat="45.86836349528113" lon="8.526427683138436"><ele>554.0</ele><time>2026-04-11T14:56:34Z</time></trkpt><trkpt lat="45.86825089238451" lon="8.526513576685126"><ele>554.0</ele><time>2026-04-11T14:56:35Z</time></trkpt><trkpt lat="45.86812864793599" lon="8.526599610454234"><ele>554.0</ele><time>2026-04-11T14:56:36Z</time></trkpt><trkpt lat="45.86802555875326" lon="8.526721025894544"><ele>554.0</ele><time>2026-04-11T14:56:37Z</time></trkpt><trkpt lat="45.86793729973629" lon="8.52687279410808"><ele>554.0</ele><time>2026-04-11T14:56:38Z</time></trkpt><trkpt lat="45.8678579822202" lon="8.527037785420015"><ele>554.0</ele><time>2026-04-11T14:56:39Z</time></trkpt><trkpt lat="45.8677898788724" lon="8.527207853522842"><ele>554.0</ele><time>2026-04-11T14:56:40Z</time></trkpt><trkpt lat="45.86774179041356" lon="8.527397010612429"><ele>555.25</ele><time>2026-04-11T14:56:41Z</time></trkpt><trkpt lat="45.86768391860328" lon="8.527569168056962"><ele>556.5</ele><time>2026-04-11T14:56:42Z</time></trkpt><trkpt lat="45.867620139281804" lon="8.527719955482125"><ele>557.75</ele><time>2026-04-11T14:56:43Z</time></trkpt><trkpt lat="45.86754787154588" lon="8.527867544323756"><ele>559.0</ele><time>2026-04-11T14:56:44Z</time></trkpt><trkpt lat="45.86746112710488" lon="8.52798962229754"><ele>555.25</ele><time>2026-04-11T14:56:45Z</time></trkpt><trkpt lat="45.86735488300475" lon="8.52811140768515"><ele>551.5</ele><time>2026-04-11T14:56:46Z</time></trkpt><trkpt lat="45.86724229417846" lon="8.528243263476064"><ele>547.75</ele><time>2026-04-11T14:56:47Z</time></trkpt><trkpt lat="45.867126451121514" lon="8.528387540410247"><ele>544.0</ele><time>2026-04-11T14:56:48Z</time></trkpt><trkpt lat="45.86701734666783" lon="8.528532364111175"><ele>544.0</ele><time>2026-04-11T14:56:49Z</time></trkpt><trkpt lat="45.866899928161196" lon="8.52867074679456"><ele>544.0</ele><time>2026-04-11T14:56:50Z</time></trkpt><trkpt lat="45.86679184387119" lon="8.528801875990707"><ele>544.0</ele><time>2026-04-11T14:56:51Z</time></trkpt><trkpt lat="45.86670910858201" lon="8.528933081614923"><ele>544.0</ele><time>2026-04-11T14:56:52Z</time></trkpt><trkpt lat="45.86667576080575" lon="8.529101361456943"><ele>542.5</ele><time>2026-04-11T14:56:53Z</time></trkpt><trkpt lat="45.86667647303573" lon="8.529295780468034"><ele>541.0</ele><time>2026-04-11T14:56:54Z</time></trkpt><trkpt lat="45.866643100144344" lon="8.529488748237782"><ele>539.5</ele><time>2026-04-11T14:56:55Z</time></trkpt><trkpt lat="45.86655183016708" lon="8.52963191584306"><ele>538.0</ele><time>2026-04-11T14:56:56Z</time></trkpt><trkpt lat="45.866440928899735" lon="8.529743295444673"><ele>538.0</ele><time>2026-04-11T14:56:57Z</time></trkpt><trkpt lat="45.866299296560825" lon="8.529851276785612"><ele>538.0</ele><time>2026-04-11T14:56:58Z</time></trkpt><trkpt lat="45.866162826281055" lon="8.529980508571594"><ele>538.0</ele><time>2026-04-11T14:56:59Z</time></trkpt><trkpt lat="45.86602299258161" lon="8.530145485882265"><ele>537.0</ele><time>2026-04-11T14:57:00Z</time></trkpt><trkpt lat="45.865919454384965" lon="8.53034829137569"><ele>536.0</ele><time>2026-04-11T14:57:01Z</time></trkpt><trkpt lat="45.86586275562216" lon="8.530540634955232"><ele>535.0</ele><time>2026-04-11T14:57:02Z</time></trkpt><trkpt lat="45.86581974895642" lon="8.530716648161672"><ele>535.0</ele><time>2026-04-11T14:57:03Z</time></trkpt><trkpt lat="45.865807232685285" lon="8.53089745126762"><ele>535.0</ele><time>2026-04-11T14:57:04Z</time></trkpt><trkpt lat="45.86581930439407" lon="8.531088074414907"><ele>535.0</ele><time>2026-04-11T14:57:05Z</time></trkpt><trkpt lat="45.86583344298879" lon="8.531282089239602"><ele>535.0</ele><time>2026-04-11T14:57:06Z</time></trkpt><trkpt lat="45.86583863616505" lon="8.531467983515832"><ele>535.2</ele><time>2026-04-11T14:57:07Z</time></trkpt><trkpt lat="45.865842356363274" lon="8.531633180740268"><ele>535.4</ele><time>2026-04-11T14:57:08Z</time></trkpt><trkpt lat="45.865847845987474" lon="8.531784025992163"><ele>535.6</ele><time>2026-04-11T14:57:09Z</time></trkpt><trkpt lat="45.86585852194847" lon="8.531927520250054"><ele>535.8</ele><time>2026-04-11T14:57:10Z</time></trkpt><trkpt lat="45.86588397015" lon="8.532050718603612"><ele>536.0</ele><time>2026-04-11T14:57:11Z</time></trkpt><trkpt lat="45.86593039266696" lon="8.53217125472952"><ele>535.8</ele><time>2026-04-11T14:57:12Z</time></trkpt><trkpt lat="45.865993269563134" lon="8.532273931219404"><ele>535.6</ele><time>2026-04-11T14:57:13Z</time></trkpt><trkpt lat="45.866078810250194" lon="8.532361323992868"><ele>535.4</ele><time>2026-04-11T14:57:14Z</time></trkpt><trkpt lat="45.86616847148207" lon="8.532415880245125"><ele>535.2</ele><time>2026-04-11T14:57:15Z</time></trkpt><trkpt lat="45.86627331776244" lon="8.532450064497574"><ele>535.0</ele><time>2026-04-11T14:57:16Z</time></trkpt><trkpt lat="45.86637774926754" lon="8.532447336938422"><ele>535.0</ele><time>2026-04-11T14:57:17Z</time></trkpt><trkpt lat="45.866493360807134" lon="8.53241573365176"><ele>535.0</ele><time>2026-04-11T14:57:18Z</time></trkpt><trkpt lat="45.866599020302104" lon="8.532375445147588"><ele>535.0</ele><time>2026-04-11T14:57:19Z</time></trkpt><trkpt lat="45.866712217893614" lon="8.532358606797624"><ele>535.0</ele><time>2026-04-11T14:57:20Z</time></trkpt><trkpt lat="45.866830470503224" lon="8.532375624151477"><ele>534.6</ele><time>2026-04-11T14:57:21Z</time></trkpt><trkpt lat="45.866945989974056" lon="8.532354392665574"><ele>534.2</ele><time>2026-04-11T14:57:22Z</time></trkpt><trkpt lat="45.86704947604674" lon="8.53238464253786"><ele>533.8</ele><time>2026-04-11T14:57:23Z</time></trkpt><trkpt lat="45.86715237327632" lon="8.532375870837354"><ele>533.4</ele><time>2026-04-11T14:57:24Z</time></trkpt><trkpt lat="45.867247228388074" lon="8.532397350529306"><ele>533.0</ele><time>2026-04-11T14:57:25Z</time></trkpt><trkpt lat="45.86733755590261" lon="8.53243420053382"><ele>533.0</ele><time>2026-04-11T14:57:26Z</time></trkpt><trkpt lat="45.867438426169294" lon="8.532464695754216"><ele>533.0</ele><time>2026-04-11T14:57:27Z</time></trkpt><trkpt lat="45.86753747719983" lon="8.532515394003042"><ele>533.0</ele><time>2026-04-11T14:57:28Z</time></trkpt><trkpt lat="45.86764617784975" lon="8.53258331866562"><ele>533.0</ele><time>2026-04-11T14:57:29Z</time></trkpt><trkpt lat="45.86775057066408" lon="8.532673355113937"><ele>533.0</ele><time>2026-04-11T14:57:30Z</time></trkpt><trkpt lat="45.86785666615294" lon="8.532755322617446"><ele>534.25</ele><time>2026-04-11T14:57:31Z</time></trkpt><trkpt lat="45.86796563413962" lon="8.532823079161954"><ele>535.5</ele><time>2026-04-11T14:57:32Z</time></trkpt><trkpt lat="45.86807673916906" lon="8.532879204486694"><ele>536.75</ele><time>2026-04-11T14:57:33Z</time></trkpt><trkpt lat="45.868197777478755" lon="8.532929083461093"><ele>538.0</ele><time>2026-04-11T14:57:34Z</time></trkpt><trkpt lat="45.86833833489475" lon="8.532953093417849"><ele>532.0</ele><time>2026-04-11T14:57:35Z</time></trkpt><trkpt lat="45.86852602211123" lon="8.532991559854187"><ele>526.0</ele><time>2026-04-11T14:57:36Z</time></trkpt><trkpt lat="45.868714205758444" lon="8.53299040679507"><ele>520.0</ele><time>2026-04-11T14:57:37Z</time></trkpt><trkpt lat="45.86888724788572" lon="8.532978446507586"><ele>520.0</ele><time>2026-04-11T14:57:38Z</time></trkpt><trkpt lat="45.86910472384819" lon="8.532948773863705"><ele>520.0</ele><time>2026-04-11T14:57:39Z</time></trkpt><trkpt lat="45.869326793934874" lon="8.532937278164916"><ele>520.0</ele><time>2026-04-11T14:57:40Z</time></trkpt><trkpt lat="45.86957980391475" lon="8.532898579362811"><ele>530.0</ele><time>2026-04-11T14:57:41Z</time></trkpt><trkpt lat="45.86981158828706" lon="8.532839678723214"><ele>540.0</ele><time>2026-04-11T14:57:42Z</time></trkpt><trkpt lat="45.8700269897595" lon="8.532823593279156"><ele>535.6666666666666</ele><time>2026-04-11T14:57:43Z</time></trkpt><trkpt lat="45.87024192796724" lon="8.532786778476574"><ele>531.3333333333333</ele><time>2026-04-11T14:57:44Z</time></trkpt><trkpt lat="45.870444059012456" lon="8.53275727885416"><ele>527.0</ele><time>2026-04-11T14:57:45Z</time></trkpt><trkpt lat="45.87062250816449" lon="8.532730659235195"><ele>527.0</ele><time>2026-04-11T14:57:46Z</time></trkpt><trkpt lat="45.870769064042314" lon="8.532697420271429"><ele>527.0</ele><time>2026-04-11T14:57:47Z</time></trkpt><trkpt lat="45.87088063880398" lon="8.532692289289985"><ele>527.0</ele><time>2026-04-11T14:57:48Z</time></trkpt><trkpt lat="45.87097936018566" lon="8.532735327759301"><ele>527.0</ele><time>2026-04-11T14:57:49Z</time></trkpt><trkpt lat="45.87104515881961" lon="8.532846004625567"><ele>522.6</ele><time>2026-04-11T14:57:50Z</time></trkpt><trkpt lat="45.87104076690326" lon="8.532977740541046"><ele>518.2</ele><time>2026-04-11T14:57:51Z</time></trkpt><trkpt lat="45.87101540375431" lon="8.533091009715319"><ele>513.8</ele><time>2026-04-11T14:57:52Z</time></trkpt><trkpt lat="45.870951312157345" lon="8.533176255909483"><ele>509.4</ele><time>2026-04-11T14:57:53Z</time></trkpt><trkpt lat="45.87084877638628" lon="8.533276622882143"><ele>505.0</ele><time>2026-04-11T14:57:54Z</time></trkpt><trkpt lat="45.87071449967164" lon="8.533406704913448"><ele>504.0</ele><time>2026-04-11T14:57:55Z</time></trkpt><trkpt lat="45.87056494624139" lon="8.533549555991309"><ele>503.0</ele><time>2026-04-11T14:57:56Z</time></trkpt><trkpt lat="45.870401537138235" lon="8.533705641729755"><ele>502.0</ele><time>2026-04-11T14:57:57Z</time></trkpt><trkpt lat="45.870255272220305" lon="8.533848245000296"><ele>498.6666666666667</ele><time>2026-04-11T14:57:58Z</time></trkpt><trkpt lat="45.87013133714055" lon="8.533997029955714"><ele>495.33333333333337</ele><time>2026-04-11T14:57:59Z</time></trkpt><trkpt lat="45.87000044773498" lon="8.534107711001864"><ele>492.0</ele><time>2026-04-11T14:58:00Z</time></trkpt><trkpt lat="45.869884321138606" lon="8.5342206680272"><ele>492.0</ele><time>2026-04-11T14:58:01Z</time></trkpt><trkpt lat="45.86977477935511" lon="8.534334763059592"><ele>492.0</ele><time>2026-04-11T14:58:02Z</time></trkpt><trkpt lat="45.8696697858338" lon="8.534437646513446"><ele>492.0</ele><time>2026-04-11T14:58:03Z</time></trkpt><trkpt lat="45.86958149263247" lon="8.534555819855633"><ele>492.0</ele><time>2026-04-11T14:58:04Z</time></trkpt><trkpt lat="45.86953932121419" lon="8.534708304393604"><ele>491.25</ele><time>2026-04-11T14:58:05Z</time></trkpt><trkpt lat="45.86956051085935" lon="8.534874546026451"><ele>490.5</ele><time>2026-04-11T14:58:06Z</time></trkpt><trkpt lat="45.86962081440433" lon="8.535025762412587"><ele>489.75</ele><time>2026-04-11T14:58:07Z</time></trkpt><trkpt lat="45.86970677188947" lon="8.535156407100345"><ele>489.0</ele><time>2026-04-11T14:58:08Z</time></trkpt><trkpt lat="45.86979646569229" lon="8.53524363354809"><ele>489.0</ele><time>2026-04-11T14:58:09Z</time></trkpt><trkpt lat="45.869891788122175" lon="8.535277157878586"><ele>489.0</ele><time>2026-04-11T14:58:10Z</time></trkpt><trkpt lat="45.8700069234592" lon="8.53527880268548"><ele>489.0</ele><time>2026-04-11T14:58:11Z</time></trkpt><trkpt lat="45.87015836819359" lon="8.535278493714628"><ele>489.0</ele><time>2026-04-11T14:58:12Z</time></trkpt><trkpt lat="45.8703708719142" lon="8.53527753935348"><ele>487.33333333333337</ele><time>2026-04-11T14:58:13Z</time></trkpt><trkpt lat="45.870549787169416" lon="8.535303611494216"><ele>485.6666666666667</ele><time>2026-04-11T14:58:14Z</time></trkpt><trkpt lat="45.870753451169755" lon="8.535340231878724"><ele>484.0</ele><time>2026-04-11T14:58:15Z</time></trkpt><trkpt lat="45.8709728168773" lon="8.535374184476886"><ele>484.0</ele><time>2026-04-11T14:58:16Z</time></trkpt><trkpt lat="45.87118176165115" lon="8.535402693686539"><ele>484.0</ele><time>2026-04-11T14:58:17Z</time></trkpt><trkpt lat="45.87138157887563" lon="8.535433556304389"><ele>484.0</ele><time>2026-04-11T14:58:18Z</time></trkpt><trkpt lat="45.87156378717923" lon="8.535457745233026"><ele>484.0</ele><time>2026-04-11T14:58:19Z</time></trkpt><trkpt lat="45.8717419177942" lon="8.535480988016891"><ele>484.0</ele><time>2026-04-11T14:58:20Z</time></trkpt><trkpt lat="45.87191935937643" lon="8.535503704908423"><ele>484.0</ele><time>2026-04-11T14:58:21Z</time></trkpt><trkpt lat="45.87208907366853" lon="8.535527670114176"><ele>482.0</ele><time>2026-04-11T14:58:22Z</time></trkpt><trkpt lat="45.872248854781205" lon="8.535604569899323"><ele>480.0</ele><time>2026-04-11T14:58:23Z</time></trkpt><trkpt lat="45.87241035709638" lon="8.53568270837838"><ele>478.0</ele><time>2026-04-11T14:58:24Z</time></trkpt><trkpt lat="45.87257980883354" lon="8.535749778566684"><ele>475.33333333333337</ele><time>2026-04-11T14:58:25Z</time></trkpt><trkpt lat="45.87274312001054" lon="8.535857756168598"><ele>472.66666666666663</ele><time>2026-04-11T14:58:25.999Z</time></trkpt><trkpt lat="45.872893615941145" lon="8.53597633598976"><ele>470.0</ele><time>2026-04-11T14:58:26.999Z</time></trkpt><trkpt lat="45.87304012344419" lon="8.536127410822903"><ele>468.0</ele><time>2026-04-11T14:58:27.999Z</time></trkpt><trkpt lat="45.873185482714426" lon="8.536305664983685"><ele>466.0</ele><time>2026-04-11T14:58:28.999Z</time></trkpt><trkpt lat="45.873328369614576" lon="8.536522943393377"><ele>464.0</ele><time>2026-04-11T14:58:29.999Z</time></trkpt><trkpt lat="45.87346601709535" lon="8.536746657188624"><ele>461.0</ele><time>2026-04-11T14:58:30.999Z</time></trkpt><trkpt lat="45.873596881298695" lon="8.536980710118389"><ele>458.0</ele><time>2026-04-11T14:58:31.999Z</time></trkpt><trkpt lat="45.87373726071269" lon="8.53722042386465"><ele>455.0</ele><time>2026-04-11T14:58:32.999Z</time></trkpt><trkpt lat="45.87387575975972" lon="8.537446390383396"><ele>454.66666666666663</ele><time>2026-04-11T14:58:33.999Z</time></trkpt><trkpt lat="45.87400511235232" lon="8.537660493970526"><ele>454.33333333333337</ele><time>2026-04-11T14:58:34.999Z</time></trkpt><trkpt lat="45.87412811418104" lon="8.537874342186072"><ele>454.0</ele><time>2026-04-11T14:58:35.999Z</time></trkpt><trkpt lat="45.87424224954516" lon="8.538059044138619"><ele>449.25</ele><time>2026-04-11T14:58:36.999Z</time></trkpt><trkpt lat="45.87434081654197" lon="8.538222541338053"><ele>444.5</ele><time>2026-04-11T14:58:37.999Z</time></trkpt><trkpt lat="45.874428043716094" lon="8.538378649534742"><ele>439.75</ele><time>2026-04-11T14:58:38.999Z</time></trkpt><trkpt lat="45.87448411566888" lon="8.538566006225857"><ele>435.0</ele><time>2026-04-11T14:58:39.999Z</time></trkpt><trkpt lat="45.87455292747746" lon="8.538763565070598"><ele>435.0</ele><time>2026-04-11T14:58:40.999Z</time></trkpt><trkpt lat="45.87460314552377" lon="8.539011960720016"><ele>435.0</ele><time>2026-04-11T14:58:41.999Z</time></trkpt><trkpt lat="45.874660134158404" lon="8.539246840254304"><ele>435.0</ele><time>2026-04-11T14:58:42.999Z</time></trkpt><trkpt lat="45.87472011730985" lon="8.539471237860369"><ele>435.0</ele><time>2026-04-11T14:58:43.999Z</time></trkpt><trkpt lat="45.87476984557736" lon="8.53968850692237"><ele>435.0</ele><time>2026-04-11T14:58:44.999Z</time></trkpt><trkpt lat="45.87481058199603" lon="8.539902332977418"><ele>435.0</ele><time>2026-04-11T14:58:45.999Z</time></trkpt><trkpt lat="45.87480695874764" lon="8.54012429278996"><ele>435.0</ele><time>2026-04-11T14:58:46.999Z</time></trkpt><trkpt lat="45.874804500267615" lon="8.540352731301741"><ele>435.0</ele><time>2026-04-11T14:58:47.999Z</time></trkpt><trkpt lat="45.874796456788886" lon="8.540601846564938"><ele>435.0</ele><time>2026-04-11T14:58:48.999Z</time></trkpt><trkpt lat="45.87480920158336" lon="8.540863021942966"><ele>434.0</ele><time>2026-04-11T14:58:49.999Z</time></trkpt><trkpt lat="45.87480987282823" lon="8.541128259057997"><ele>433.0</ele><time>2026-04-11T14:58:50.999Z</time></trkpt><trkpt lat="45.87480110052107" lon="8.541397829104117"><ele>432.0</ele><time>2026-04-11T14:58:51.999Z</time></trkpt><trkpt lat="45.874802036793696" lon="8.541641636498866"><ele>430.33333333333337</ele><time>2026-04-11T14:58:52.999Z</time></trkpt><trkpt lat="45.87480744214162" lon="8.541883742421064"><ele>428.6666666666667</ele><time>2026-04-11T14:58:54Z</time></trkpt><trkpt lat="45.87482465843782" lon="8.54211634320129"><ele>427.0</ele><time>2026-04-11T14:58:55Z</time></trkpt><trkpt lat="45.87485142968888" lon="8.542352489686598"><ele>424.33333333333337</ele><time>2026-04-11T14:58:56Z</time></trkpt><trkpt lat="45.874844606039694" lon="8.542580951421673"><ele>421.66666666666663</ele><time>2026-04-11T14:58:57Z</time></trkpt><trkpt lat="45.87483073293207" lon="8.542812845223064"><ele>419.0</ele><time>2026-04-11T14:58:58Z</time></trkpt><trkpt lat="45.87479107282531" lon="8.543032381107846"><ele>415.0</ele><time>2026-04-11T14:58:59Z</time></trkpt><trkpt lat="45.87473564102106" lon="8.543259762642315"><ele>411.0</ele><time>2026-04-11T14:59:00Z</time></trkpt><trkpt lat="45.87469331491991" lon="8.543505195345796"><ele>407.0</ele><time>2026-04-11T14:59:01Z</time></trkpt><trkpt lat="45.874636084753476" lon="8.543737702837381"><ele>402.66666666666663</ele><time>2026-04-11T14:59:02Z</time></trkpt><trkpt lat="45.87458473928504" lon="8.54396672303207"><ele>398.33333333333337</ele><time>2026-04-11T14:59:03Z</time></trkpt><trkpt lat="45.874534503508976" lon="8.544188405528528"><ele>394.0</ele><time>2026-04-11T14:59:04Z</time></trkpt><trkpt lat="45.87448549955479" lon="8.544402913235766"><ele>391.0</ele><time>2026-04-11T14:59:05Z</time></trkpt><trkpt lat="45.8744357044822" lon="8.54461609311342"><ele>388.0</ele><time>2026-04-11T14:59:06Z</time></trkpt><trkpt lat="45.87438863560969" lon="8.54481489657858"><ele>385.0</ele><time>2026-04-11T14:59:07Z</time></trkpt><trkpt lat="45.874341815192885" lon="8.545015397000853"><ele>385.0</ele><time>2026-04-11T14:59:08Z</time></trkpt><trkpt lat="45.87428239202183" lon="8.545206048121585"><ele>385.0</ele><time>2026-04-11T14:59:09Z</time></trkpt><trkpt lat="45.87425158036381" lon="8.545388391349926"><ele>385.0</ele><time>2026-04-11T14:59:10Z</time></trkpt><trkpt lat="45.874217993492394" lon="8.545525140072193"><ele>385.0</ele><time>2026-04-11T14:59:11Z</time></trkpt><trkpt lat="45.87419342239271" lon="8.54562019138306"><ele>385.0</ele><time>2026-04-11T14:59:12Z</time></trkpt><trkpt lat="45.87415760391886" lon="8.54576971888538"><ele>385.33333333333337</ele><time>2026-04-11T14:59:14Z</time></trkpt><trkpt lat="45.87410642620927" lon="8.545927582974057"><ele>385.6666666666667</ele><time>2026-04-11T14:59:16Z</time></trkpt><trkpt lat="45.874068449712084" lon="8.546001247943458"><ele>386.0</ele><time>2026-04-11T14:59:17Z</time></trkpt><trkpt lat="45.87401130856839" lon="8.546052595962948"><ele>386.33333333333337</ele><time>2026-04-11T14:59:18Z</time></trkpt><trkpt lat="45.873976308218765" lon="8.546130161831394"><ele>386.6666666666667</ele><time>2026-04-11T14:59:19Z</time></trkpt><trkpt lat="45.873911348014225" lon="8.546275098555917"><ele>387.0</ele><time>2026-04-11T14:59:21Z</time></trkpt><trkpt lat="45.87390669186501" lon="8.546367368687495"><ele>387.0</ele><time>2026-04-11T14:59:22Z</time></trkpt><trkpt lat="45.873933725806054" lon="8.54646264043528"><ele>387.0</ele><time>2026-04-11T14:59:23Z</time></trkpt><trkpt lat="45.87399898260762" lon="8.546525893452657"><ele>387.0</ele><time>2026-04-11T14:59:24Z</time></trkpt><trkpt lat="45.87408024771692" lon="8.546521914831384"><ele>387.0</ele><time>2026-04-11T14:59:25Z</time></trkpt><trkpt lat="45.87416955014377" lon="8.546440745557836"><ele>387.0</ele><time>2026-04-11T14:59:26Z</time></trkpt><trkpt lat="45.87424790134601" lon="8.546304359957125"><ele>385.20000000000005</ele><time>2026-04-11T14:59:27Z</time></trkpt><trkpt lat="45.874309195173296" lon="8.546165483333002"><ele>383.4</ele><time>2026-04-11T14:59:28Z</time></trkpt><trkpt lat="45.87437595347458" lon="8.546048189525829"><ele>381.6</ele><time>2026-04-11T14:59:29Z</time></trkpt><trkpt lat="45.87444371119463" lon="8.545941873008157"><ele>379.79999999999995</ele><time>2026-04-11T14:59:30Z</time></trkpt><trkpt lat="45.87450999851166" lon="8.54583416887644"><ele>378.0</ele><time>2026-04-11T14:59:31Z</time></trkpt><trkpt lat="45.874572844588535" lon="8.545726679941895"><ele>378.0</ele><time>2026-04-11T14:59:32Z</time></trkpt><trkpt lat="45.87463698041115" lon="8.545617311662086"><ele>378.0</ele><time>2026-04-11T14:59:33Z</time></trkpt><trkpt lat="45.874696516741956" lon="8.545516014362425"><ele>378.0</ele><time>2026-04-11T14:59:34Z</time></trkpt><trkpt lat="45.87476262594646" lon="8.545423188991256"><ele>378.0</ele><time>2026-04-11T14:59:35Z</time></trkpt><trkpt lat="45.87481806742374" lon="8.545320098428487"><ele>378.0</ele><time>2026-04-11T14:59:36Z</time></trkpt><trkpt lat="45.87488048044498" lon="8.545220421668072"><ele>379.4</ele><time>2026-04-11T14:59:37Z</time></trkpt><trkpt lat="45.87494771841265" lon="8.545124354681024"><ele>380.79999999999995</ele><time>2026-04-11T14:59:38Z</time></trkpt><trkpt lat="45.875002328671805" lon="8.545018787162727"><ele>382.2</ele><time>2026-04-11T14:59:39Z</time></trkpt><trkpt lat="45.87507478597319" lon="8.544926517567143"><ele>383.6</ele><time>2026-04-11T14:59:40Z</time></trkpt><trkpt lat="45.875146991692546" lon="8.544807870464298"><ele>385.0</ele><time>2026-04-11T14:59:41Z</time></trkpt><trkpt lat="45.875205648850894" lon="8.544681507690836"><ele>382.0</ele><time>2026-04-11T14:59:42Z</time></trkpt><trkpt lat="45.87525462000659" lon="8.544558051201799"><ele>379.0</ele><time>2026-04-11T14:59:43Z</time></trkpt><trkpt lat="45.875281814392956" lon="8.544425904352682"><ele>376.0</ele><time>2026-04-11T14:59:44Z</time></trkpt><trkpt lat="45.87533373535121" lon="8.54431128609643"><ele>373.0</ele><time>2026-04-11T14:59:45Z</time></trkpt><trkpt lat="45.87536397616497" lon="8.544200198707987"><ele>370.0</ele><time>2026-04-11T14:59:46Z</time></trkpt><trkpt lat="45.87540170477123" lon="8.544091053376528"><ele>370.0</ele><time>2026-04-11T14:59:47Z</time></trkpt><trkpt lat="45.87544749731871" lon="8.544006459087466"><ele>370.0</ele><time>2026-04-11T14:59:48Z</time></trkpt><trkpt lat="45.87553920517409" lon="8.544033738089244"><ele>370.0</ele><time>2026-04-11T14:59:49Z</time></trkpt><trkpt lat="45.8756098730764" lon="8.54408629282374"><ele>370.0</ele><time>2026-04-11T14:59:50Z</time></trkpt><trkpt lat="45.87564907011806" lon="8.544198905210477"><ele>370.0</ele><time>2026-04-11T14:59:51Z</time></trkpt><trkpt lat="45.87564666470813" lon="8.544318091197917"><ele>370.0</ele><time>2026-04-11T14:59:52Z</time></trkpt><trkpt lat="45.87561256907103" lon="8.544427164932387"><ele>369.99999999999994</ele><time>2026-04-11T14:59:53Z</time></trkpt><trkpt lat="45.875570385756674" lon="8.544523527364191"><ele>370.0</ele><time>2026-04-11T14:59:54Z</time></trkpt><trkpt lat="45.87554770772325" lon="8.544610869835914"><ele>370.0</ele><time>2026-04-11T14:59:55Z</time></trkpt><trkpt lat="45.87553094710328" lon="8.544710778232362"><ele>370.0</ele><time>2026-04-11T14:59:56Z</time></trkpt><trkpt lat="45.875512893710216" lon="8.544806109195777"><ele>370.0</ele><time>2026-04-11T14:59:57Z</time></trkpt><trkpt lat="45.87549164711366" lon="8.544891834318905"><ele>369.99999999999994</ele><time>2026-04-11T14:59:58Z</time></trkpt><trkpt lat="45.875470035118255" lon="8.544993131895131"><ele>370.0</ele><time>2026-04-11T14:59:59Z</time></trkpt><trkpt lat="45.875450676619565" lon="8.54509460578148"><ele>369.2857142857143</ele><time>2026-04-11T15:00:00Z</time></trkpt><trkpt lat="45.87543112636616" lon="8.545189204612184"><ele>368.57142857142856</ele><time>2026-04-11T15:00:01Z</time></trkpt><trkpt lat="45.87540916376871" lon="8.545280960179477"><ele>367.8571428571429</ele><time>2026-04-11T15:00:02Z</time></trkpt><trkpt lat="45.87538662902814" lon="8.5453677501971"><ele>367.1428571428571</ele><time>2026-04-11T15:00:03Z</time></trkpt><trkpt lat="45.87537025668995" lon="8.545455952072615"><ele>366.42857142857144</ele><time>2026-04-11T15:00:04Z</time></trkpt><trkpt lat="45.875328075629355" lon="8.545611793264426"><ele>365.7142857142857</ele><time>2026-04-11T15:00:06Z</time></trkpt><trkpt lat="45.87530755617414" lon="8.545700877257373"><ele>365.0</ele><time>2026-04-11T15:00:08Z</time></trkpt><trkpt lat="45.8752809325143" lon="8.545813647334372"><ele>364.5714285714286</ele><time>2026-04-11T15:00:11Z</time></trkpt><trkpt lat="45.875262229740315" lon="8.545905119012557"><ele>364.14285714285717</ele><time>2026-04-11T15:00:13Z</time></trkpt><trkpt lat="45.87522868326872" lon="8.546018506948915"><ele>363.7142857142857</ele><time>2026-04-11T15:00:16Z</time></trkpt><trkpt lat="45.87520982720855" lon="8.546108240055482"><ele>363.28571428571433</ele><time>2026-04-11T15:00:19Z</time></trkpt><trkpt lat="45.87519364468758" lon="8.546217955316177"><ele>362.85714285714283</ele><time>2026-04-11T15:00:23Z</time></trkpt><trkpt lat="45.87519236584325" lon="8.546318047944375"><ele>362.42857142857144</ele><time>2026-04-11T15:00:27Z</time></trkpt><trkpt lat="45.87523757970103" lon="8.546398769646306"><ele>362.0</ele><time>2026-04-11T15:00:30Z</time></trkpt><trkpt lat="45.87527299453901" lon="8.546508899781163"><ele>360.75</ele><time>2026-04-11T15:00:34Z</time></trkpt><trkpt lat="45.875412217959365" lon="8.546450151230566"><ele>359.5</ele><time>2026-04-11T15:00:36Z</time></trkpt><trkpt lat="45.87549948016126" lon="8.546437879117846"><ele>358.25</ele><time>2026-04-11T15:00:37Z</time></trkpt><trkpt lat="45.87560598168926" lon="8.546408911044137"><ele>357.0</ele><time>2026-04-11T15:00:39Z</time></trkpt><trkpt lat="45.87571584378246" lon="8.5463605852339"><ele>357.0</ele><time>2026-04-11T15:00:41Z</time></trkpt><trkpt lat="45.875783361198344" lon="8.54633198348423"><ele>357.0</ele><time>2026-04-11T15:00:42Z</time></trkpt><trkpt lat="45.87589881325747" lon="8.546288252421814"><ele>357.0</ele><time>2026-04-11T15:00:44Z</time></trkpt><trkpt lat="45.876022041522226" lon="8.546237001801826"><ele>357.0</ele><time>2026-04-11T15:00:46Z</time></trkpt><trkpt lat="45.87608457439086" lon="8.546199134390138"><ele>357.0</ele><time>2026-04-11T15:00:47Z</time></trkpt><trkpt lat="45.87614638712191" lon="8.546145209975856"><ele>354.1666666666667</ele><time>2026-04-11T15:00:48Z</time></trkpt><trkpt lat="45.876207446218196" lon="8.546086934308763"><ele>351.3333333333333</ele><time>2026-04-11T15:00:49Z</time></trkpt><trkpt lat="45.87626798192822" lon="8.546017014281578"><ele>348.5</ele><time>2026-04-11T15:00:50Z</time></trkpt><trkpt lat="45.87632380672905" lon="8.54593580240087"><ele>345.66666666666663</ele><time>2026-04-11T15:00:51Z</time></trkpt><trkpt lat="45.87638383200618" lon="8.545848482291396"><ele>342.8333333333333</ele><time>2026-04-11T15:00:52Z</time></trkpt><trkpt lat="45.87644310695722" lon="8.545748260777549"><ele>340.0</ele><time>2026-04-11T15:00:53Z</time></trkpt><trkpt lat="45.876498476079576" lon="8.545633591182593"><ele>340.0</ele><time>2026-04-11T15:00:54Z</time></trkpt><trkpt lat="45.87653893345193" lon="8.545513045987063"><ele>340.0</ele><time>2026-04-11T15:00:55Z</time></trkpt><trkpt lat="45.876578006866886" lon="8.545396690132218"><ele>340.0</ele><time>2026-04-11T15:00:56Z</time></trkpt><trkpt lat="45.87661217168905" lon="8.545276117844478"><ele>340.0</ele><time>2026-04-11T15:00:57Z</time></trkpt><trkpt lat="45.876635621141816" lon="8.545164332653552"><ele>340.0</ele><time>2026-04-11T15:00:58Z</time></trkpt><trkpt lat="45.87666429445969" lon="8.545060117978785"><ele>340.0</ele><time>2026-04-11T15:00:58.999Z</time></trkpt><trkpt lat="45.87669350235742" lon="8.544954059377718"><ele>341.16666666666663</ele><time>2026-04-11T15:01:00.001Z</time></trkpt><trkpt lat="45.87672269295647" lon="8.544850168413548"><ele>342.3333333333333</ele><time>2026-04-11T15:01:01.001Z</time></trkpt><trkpt lat="45.876752768302644" lon="8.544747929396092"><ele>343.5</ele><time>2026-04-11T15:01:02.001Z</time></trkpt><trkpt lat="45.87677867841548" lon="8.544648351176251"><ele>344.6666666666667</ele><time>2026-04-11T15:01:03.001Z</time></trkpt><trkpt lat="45.87679160389983" lon="8.544539470700704"><ele>345.83333333333337</ele><time>2026-04-11T15:01:04Z</time></trkpt><trkpt lat="45.876795430288745" lon="8.544405350083716"><ele>347.0</ele><time>2026-04-11T15:01:05Z</time></trkpt><trkpt lat="45.87678871032464" lon="8.54427395699813"><ele>347.1666666666667</ele><time>2026-04-11T15:01:06Z</time></trkpt><trkpt lat="45.876770767025896" lon="8.54415432395247"><ele>347.33333333333337</ele><time>2026-04-11T15:01:07Z</time></trkpt><trkpt lat="45.87674708781197" lon="8.544057918911403"><ele>347.5</ele><time>2026-04-11T15:01:08Z</time></trkpt><trkpt lat="45.87671423993101" lon="8.54397448542859"><ele>347.6666666666667</ele><time>2026-04-11T15:01:09Z</time></trkpt><trkpt lat="45.87667723131106" lon="8.543900866738383"><ele>347.8333333333333</ele><time>2026-04-11T15:01:10Z</time></trkpt><trkpt lat="45.87665142288342" lon="8.543777719679047"><ele>348.0</ele><time>2026-04-11T15:01:12Z</time></trkpt><trkpt lat="45.87665109719432" lon="8.543671097869522"><ele>348.0</ele><time>2026-04-11T15:01:14Z</time></trkpt><trkpt lat="45.87666427144028" lon="8.54354605681198"><ele>348.0</ele><time>2026-04-11T15:01:15Z</time></trkpt><trkpt lat="45.87671669728754" lon="8.543421239283127"><ele>348.0</ele><time>2026-04-11T15:01:16Z</time></trkpt><trkpt lat="45.8768441953363" lon="8.543453548029944"><ele>348.0</ele><time>2026-04-11T15:01:18Z</time></trkpt><trkpt lat="45.8768963735121" lon="8.543556265148215"><ele>348.0</ele><time>2026-04-11T15:01:19Z</time></trkpt><trkpt lat="45.87693803093055" lon="8.543664786573354"><ele>344.85714285714283</ele><time>2026-04-11T15:01:20Z</time></trkpt><trkpt lat="45.87697214503243" lon="8.543769591246065"><ele>341.7142857142857</ele><time>2026-04-11T15:01:21Z</time></trkpt><trkpt lat="45.87700378363261" lon="8.543863149124542"><ele>338.57142857142856</ele><time>2026-04-11T15:01:22Z</time></trkpt><trkpt lat="45.87704013255823" lon="8.543952777923378"><ele>335.42857142857144</ele><time>2026-04-11T15:01:23Z</time></trkpt><trkpt lat="45.87706101350944" lon="8.544056463281468"><ele>332.2857142857143</ele><time>2026-04-11T15:01:24Z</time></trkpt><trkpt lat="45.87710469240832" lon="8.544137741234003"><ele>329.14285714285717</ele><time>2026-04-11T15:01:25Z</time></trkpt><trkpt lat="45.87711157651315" lon="8.544243796721194"><ele>326.0</ele><time>2026-04-11T15:01:26Z</time></trkpt><trkpt lat="45.877125192203636" lon="8.544345193282812"><ele>326.0</ele><time>2026-04-11T15:01:27Z</time></trkpt><trkpt lat="45.877136615924016" lon="8.544451172316787"><ele>326.0</ele><time>2026-04-11T15:01:28Z</time></trkpt><trkpt lat="45.87713883789284" lon="8.544552777769791"><ele>326.0</ele><time>2026-04-11T15:01:29Z</time></trkpt><trkpt lat="45.877148338430786" lon="8.544658222606373"><ele>326.0</ele><time>2026-04-11T15:01:30Z</time></trkpt><trkpt lat="45.87713882233112" lon="8.544767096566458"><ele>326.0</ele><time>2026-04-11T15:01:31Z</time></trkpt><trkpt lat="45.877128858359654" lon="8.54487506392639"><ele>326.0</ele><time>2026-04-11T15:01:32Z</time></trkpt><trkpt lat="45.87712212283556" lon="8.544991088803547"><ele>324.83333333333337</ele><time>2026-04-11T15:01:33Z</time></trkpt><trkpt lat="45.87711457007194" lon="8.545112870185973"><ele>323.6666666666667</ele><time>2026-04-11T15:01:34Z</time></trkpt><trkpt lat="45.877106363230205" lon="8.545226001346066"><ele>322.5</ele><time>2026-04-11T15:01:35Z</time></trkpt><trkpt lat="45.87709569888938" lon="8.545345436475243"><ele>321.3333333333333</ele><time>2026-04-11T15:01:36Z</time></trkpt><trkpt lat="45.87709205682297" lon="8.545462224711741"><ele>320.16666666666663</ele><time>2026-04-11T15:01:37Z</time></trkpt><trkpt lat="45.87708635080318" lon="8.545580683450224"><ele>319.0</ele><time>2026-04-11T15:01:38Z</time></trkpt><trkpt lat="45.87707000633232" lon="8.54568629580209"><ele>318.66666666666663</ele><time>2026-04-11T15:01:39Z</time></trkpt><trkpt lat="45.87705358742456" lon="8.545798867211635"><ele>318.3333333333333</ele><time>2026-04-11T15:01:40Z</time></trkpt><trkpt lat="45.87704329574024" lon="8.545918212163565"><ele>318.0</ele><time>2026-04-11T15:01:41Z</time></trkpt><trkpt lat="45.877028876713105" lon="8.546020521708487"><ele>317.6666666666667</ele><time>2026-04-11T15:01:42Z</time></trkpt><trkpt lat="45.87702871113079" lon="8.54614037290455"><ele>317.33333333333337</ele><time>2026-04-11T15:01:43Z</time></trkpt><trkpt lat="45.87702425035259" lon="8.546250386239473"><ele>317.0</ele><time>2026-04-11T15:01:44Z</time></trkpt><trkpt lat="45.87702286591563" lon="8.546372575601389"><ele>316.0</ele><time>2026-04-11T15:01:45Z</time></trkpt><trkpt lat="45.87701475561894" lon="8.546481384879101"><ele>315.0</ele><time>2026-04-11T15:01:46Z</time></trkpt><trkpt lat="45.877009804244075" lon="8.546605390379973"><ele>314.0</ele><time>2026-04-11T15:01:47Z</time></trkpt><trkpt lat="45.877001024624626" lon="8.546732929860083"><ele>313.0</ele><time>2026-04-11T15:01:48Z</time></trkpt><trkpt lat="45.87699188382708" lon="8.546855273133401"><ele>312.0</ele><time>2026-04-11T15:01:49Z</time></trkpt><trkpt lat="45.87697731678693" lon="8.546980645521916"><ele>311.0</ele><time>2026-04-11T15:01:50Z</time></trkpt><trkpt lat="45.87698027202886" lon="8.547111435845315"><ele>311.0</ele><time>2026-04-11T15:01:51Z</time></trkpt><trkpt lat="45.87702404290461" lon="8.547229028860427"><ele>311.0</ele><time>2026-04-11T15:01:52Z</time></trkpt><trkpt lat="45.87710449862511" lon="8.547281020207011"><ele>311.0</ele><time>2026-04-11T15:01:53Z</time></trkpt><trkpt lat="45.877222994573906" lon="8.54725879249152"><ele>311.0</ele><time>2026-04-11T15:01:54Z</time></trkpt><trkpt lat="45.87729060386814" lon="8.54715458056139"><ele>311.0</ele><time>2026-04-11T15:01:55Z</time></trkpt><trkpt lat="45.877320428919674" lon="8.547022917448766"><ele>311.0</ele><time>2026-04-11T15:01:56Z</time></trkpt><trkpt lat="45.87733691100904" lon="8.546906335676859"><ele>311.0</ele><time>2026-04-11T15:01:57Z</time></trkpt><trkpt lat="45.87737032697063" lon="8.546789103530953"><ele>311.0</ele><time>2026-04-11T15:01:58Z</time></trkpt><trkpt lat="45.87741397389381" lon="8.546645835066098"><ele>311.0</ele><time>2026-04-11T15:01:59Z</time></trkpt><trkpt lat="45.87746740526854" lon="8.546483828686851"><ele>311.0</ele><time>2026-04-11T15:02:00Z</time></trkpt><trkpt lat="45.8775220038943" lon="8.546312182832109"><ele>313.0</ele><time>2026-04-11T15:02:01Z</time></trkpt><trkpt lat="45.87759586382212" lon="8.546137373418526"><ele>315.0</ele><time>2026-04-11T15:02:02Z</time></trkpt><trkpt lat="45.87765944036596" lon="8.54592923525725"><ele>317.0</ele><time>2026-04-11T15:02:03Z</time></trkpt><trkpt lat="45.87772234838123" lon="8.545698805405529"><ele>310.0</ele><time>2026-04-11T15:02:04Z</time></trkpt><trkpt lat="45.87777527017102" lon="8.545448262222028"><ele>303.0</ele><time>2026-04-11T15:02:05Z</time></trkpt><trkpt lat="45.877832193229345" lon="8.545223188527121"><ele>296.0</ele><time>2026-04-11T15:02:06Z</time></trkpt><trkpt lat="45.87790543781585" lon="8.545020713016703"><ele>296.0</ele><time>2026-04-11T15:02:07Z</time></trkpt><trkpt lat="45.87797282971165" lon="8.544827772748578"><ele>296.0</ele><time>2026-04-11T15:02:08Z</time></trkpt><trkpt lat="45.87805146135131" lon="8.544638108679807"><ele>296.0</ele><time>2026-04-11T15:02:09Z</time></trkpt><trkpt lat="45.87812828229288" lon="8.544463767800911"><ele>296.0</ele><time>2026-04-11T15:02:10Z</time></trkpt><trkpt lat="45.87820972961606" lon="8.544305691718009"><ele>297.25</ele><time>2026-04-11T15:02:11Z</time></trkpt><trkpt lat="45.8782994553211" lon="8.544155271326261"><ele>298.5</ele><time>2026-04-11T15:02:12Z</time></trkpt><trkpt lat="45.878396824308595" lon="8.544015486593938"><ele>299.75</ele><time>2026-04-11T15:02:13Z</time></trkpt><trkpt lat="45.87848823649447" lon="8.54386379258791"><ele>301.0</ele><time>2026-04-11T15:02:14Z</time></trkpt><trkpt lat="45.87859527931924" lon="8.543748882131895"><ele>296.75</ele><time>2026-04-11T15:02:15Z</time></trkpt><trkpt lat="45.87867273297701" lon="8.543605755614337"><ele>292.5</ele><time>2026-04-11T15:02:16Z</time></trkpt><trkpt lat="45.87875707750326" lon="8.5434692747282"><ele>288.25</ele><time>2026-04-11T15:02:17Z</time></trkpt><trkpt lat="45.87883859800488" lon="8.543333022090305"><ele>284.0</ele><time>2026-04-11T15:02:18Z</time></trkpt><trkpt lat="45.878905881600154" lon="8.543191092167376"><ele>284.0</ele><time>2026-04-11T15:02:19Z</time></trkpt><trkpt lat="45.87895716776291" lon="8.543037651577874"><ele>284.0</ele><time>2026-04-11T15:02:20Z</time></trkpt><trkpt lat="45.878992351342994" lon="8.542881855394482"><ele>284.0</ele><time>2026-04-11T15:02:21Z</time></trkpt><trkpt lat="45.87901973484406" lon="8.542708066761435"><ele>284.0</ele><time>2026-04-11T15:02:22Z</time></trkpt><trkpt lat="45.879041567112736" lon="8.542537534114748"><ele>283.8</ele><time>2026-04-11T15:02:23Z</time></trkpt><trkpt lat="45.87906079106155" lon="8.542370927377666"><ele>283.59999999999997</ele><time>2026-04-11T15:02:24Z</time></trkpt><trkpt lat="45.879078348408974" lon="8.542211330261914"><ele>283.4</ele><time>2026-04-11T15:02:25Z</time></trkpt><trkpt lat="45.879098465096334" lon="8.542054073192425"><ele>283.2</ele><time>2026-04-11T15:02:26Z</time></trkpt><trkpt lat="45.87912082091737" lon="8.541913816222248"><ele>283.0</ele><time>2026-04-11T15:02:27Z</time></trkpt><trkpt lat="45.87914522420627" lon="8.541787645264975"><ele>283.4</ele><time>2026-04-11T15:02:28Z</time></trkpt><trkpt lat="45.87916154956282" lon="8.54165225263858"><ele>283.8</ele><time>2026-04-11T15:02:29Z</time></trkpt><trkpt lat="45.87916186452863" lon="8.541535110532454"><ele>284.2</ele><time>2026-04-11T15:02:30Z</time></trkpt><trkpt lat="45.879190176799725" lon="8.541431536457312"><ele>284.6</ele><time>2026-04-11T15:02:31Z</time></trkpt><trkpt lat="45.87925370553342" lon="8.541397108154476"><ele>285.0</ele><time>2026-04-11T15:02:33Z</time></trkpt><trkpt lat="45.879316815887826" lon="8.541565748975271"><ele>285.0</ele><time>2026-04-11T15:02:35Z</time></trkpt><trkpt lat="45.87927713841089" lon="8.541683765314302"><ele>285.0</ele><time>2026-04-11T15:02:36Z</time></trkpt><trkpt lat="45.87925724183282" lon="8.5417886595662"><ele>285.0</ele><time>2026-04-11T15:02:37Z</time></trkpt><trkpt lat="45.87923833179093" lon="8.541875228529905"><ele>285.0</ele><time>2026-04-11T15:02:38Z</time></trkpt><trkpt lat="45.87922677480484" lon="8.541968914136067"><ele>285.0</ele><time>2026-04-11T15:02:39Z</time></trkpt><trkpt lat="45.87921250313943" lon="8.542059042687619"><ele>285.0</ele><time>2026-04-11T15:02:40Z</time></trkpt><trkpt lat="45.8791885698779" lon="8.54221296913087"><ele>284.5</ele><time>2026-04-11T15:02:42Z</time></trkpt><trkpt lat="45.87916480503345" lon="8.54237241629976"><ele>284.0</ele><time>2026-04-11T15:02:44Z</time></trkpt><trkpt lat="45.87916518746934" lon="8.542544122630218"><ele>283.5</ele><time>2026-04-11T15:02:46Z</time></trkpt><trkpt lat="45.87924236812822" lon="8.542654274598895"><ele>283.0</ele><time>2026-04-11T15:02:48Z</time></trkpt><trkpt lat="45.87935826784569" lon="8.54256540989641"><ele>277.4</ele><time>2026-04-11T15:02:50Z</time></trkpt><trkpt lat="45.87938264246107" lon="8.542474913632347"><ele>271.8</ele><time>2026-04-11T15:02:51Z</time></trkpt><trkpt lat="45.8793836026349" lon="8.542339334141134"><ele>266.2</ele><time>2026-04-11T15:02:52Z</time></trkpt><trkpt lat="45.87939786166968" lon="8.542221793869814"><ele>260.6</ele><time>2026-04-11T15:02:53Z</time></trkpt><trkpt lat="45.8794190335017" lon="8.542048694211333"><ele>255.0</ele><time>2026-04-11T15:02:54Z</time></trkpt><trkpt lat="45.879475587606" lon="8.541832085764888"><ele>255.0</ele><time>2026-04-11T15:02:55Z</time></trkpt><trkpt lat="45.879549751182346" lon="8.541593778293079"><ele>255.0</ele><time>2026-04-11T15:02:56Z</time></trkpt><trkpt lat="45.87960393173064" lon="8.541367740828278"><ele>255.0</ele><time>2026-04-11T15:02:57Z</time></trkpt><trkpt lat="45.87964514352437" lon="8.541163219031901"><ele>255.0</ele><time>2026-04-11T15:02:58Z</time></trkpt><trkpt lat="45.87964745795708" lon="8.540965566919434"><ele>255.0</ele><time>2026-04-11T15:02:59Z</time></trkpt><trkpt lat="45.879657444020566" lon="8.540769070469867"><ele>255.0</ele><time>2026-04-11T15:03:00Z</time></trkpt><trkpt lat="45.87969879047234" lon="8.540591950305386"><ele>255.0</ele><time>2026-04-11T15:03:01Z</time></trkpt><trkpt lat="45.87974946124189" lon="8.540433000897904"><ele>255.75</ele><time>2026-04-11T15:03:02Z</time></trkpt><trkpt lat="45.8797962732062" lon="8.540268745643985"><ele>256.5</ele><time>2026-04-11T15:03:03Z</time></trkpt><trkpt lat="45.879838945645076" lon="8.540114178779808"><ele>257.25</ele><time>2026-04-11T15:03:04Z</time></trkpt><trkpt lat="45.879844817686674" lon="8.539947426245272"><ele>258.0</ele><time>2026-04-11T15:03:05Z</time></trkpt><trkpt lat="45.87982842249343" lon="8.53976868242998"><ele>258.0</ele><time>2026-04-11T15:03:06.001Z</time></trkpt><trkpt lat="45.87984763326908" lon="8.539609584860399"><ele>258.0</ele><time>2026-04-11T15:03:07.001Z</time></trkpt><trkpt lat="45.8798840237332" lon="8.539468461232051"><ele>258.0</ele><time>2026-04-11T15:03:08.001Z</time></trkpt><trkpt lat="45.8799565748939" lon="8.53934145726478"><ele>258.0</ele><time>2026-04-11T15:03:09.001Z</time></trkpt><trkpt lat="45.88002644966419" lon="8.53918763793368"><ele>256.5</ele><time>2026-04-11T15:03:10.001Z</time></trkpt><trkpt lat="45.88010373474494" lon="8.539027607864394"><ele>255.0</ele><time>2026-04-11T15:03:11.001Z</time></trkpt><trkpt lat="45.880145947268645" lon="8.53885653726613"><ele>253.5</ele><time>2026-04-11T15:03:12.001Z</time></trkpt><trkpt lat="45.8801338509617" lon="8.538674420929972"><ele>252.0</ele><time>2026-04-11T15:03:13.001Z</time></trkpt><trkpt lat="45.880066462473636" lon="8.53852232332992"><ele>252.0</ele><time>2026-04-11T15:03:14.001Z</time></trkpt><trkpt lat="45.87996192642582" lon="8.538383866579043"><ele>252.0</ele><time>2026-04-11T15:03:15.001Z</time></trkpt><trkpt lat="45.87987531304809" lon="8.538302070461603"><ele>252.0</ele><time>2026-04-11T15:03:16.001Z</time></trkpt><trkpt lat="45.87978827454945" lon="8.538188609635917"><ele>252.0</ele><time>2026-04-11T15:03:17.001Z</time></trkpt><trkpt lat="45.8797322591092" lon="8.538083259857588"><ele>252.0</ele><time>2026-04-11T15:03:18Z</time></trkpt><trkpt lat="45.87976752326844" lon="8.53794532091493"><ele>252.0</ele><time>2026-04-11T15:03:19Z</time></trkpt><trkpt lat="45.8798439551605" lon="8.53785790184858"><ele>252.0</ele><time>2026-04-11T15:03:20Z</time></trkpt><trkpt lat="45.87995148170264" lon="8.537840662661633"><ele>252.0</ele><time>2026-04-11T15:03:21Z</time></trkpt><trkpt lat="45.88006570554972" lon="8.537943146723638"><ele>252.0</ele><time>2026-04-11T15:03:22Z</time></trkpt><trkpt lat="45.88017803611639" lon="8.5380452200915"><ele>247.0</ele><time>2026-04-11T15:03:23Z</time></trkpt><trkpt lat="45.88028033077763" lon="8.538182055548567"><ele>242.0</ele><time>2026-04-11T15:03:24Z</time></trkpt><trkpt lat="45.88036038978328" lon="8.538322244165647"><ele>237.0</ele><time>2026-04-11T15:03:25Z</time></trkpt><trkpt lat="45.88044081360324" lon="8.53845189743803"><ele>232.0</ele><time>2026-04-11T15:03:26Z</time></trkpt><trkpt lat="45.88049095208811" lon="8.538617422470157"><ele>232.0</ele><time>2026-04-11T15:03:27Z</time></trkpt><trkpt lat="45.88053328981891" lon="8.538798356180394"><ele>232.0</ele><time>2026-04-11T15:03:28Z</time></trkpt><trkpt lat="45.8805289916629" lon="8.538991458823215"><ele>232.0</ele><time>2026-04-11T15:03:29Z</time></trkpt><trkpt lat="45.88051937006387" lon="8.53917490095241"><ele>232.0</ele><time>2026-04-11T15:03:30Z</time></trkpt><trkpt lat="45.88052102278034" lon="8.539369653776863"><ele>232.5</ele><time>2026-04-11T15:03:31Z</time></trkpt><trkpt lat="45.88050216337312" lon="8.539553963798749"><ele>233.0</ele><time>2026-04-11T15:03:32Z</time></trkpt><trkpt lat="45.88050392150824" lon="8.539734163293652"><ele>233.5</ele><time>2026-04-11T15:03:33Z</time></trkpt><trkpt lat="45.880512741082114" lon="8.53990548767985"><ele>234.0</ele><time>2026-04-11T15:03:34Z</time></trkpt><trkpt lat="45.880526552335155" lon="8.540071333859311"><ele>234.0</ele><time>2026-04-11T15:03:35Z</time></trkpt><trkpt lat="45.88055646841571" lon="8.540228444896758"><ele>234.0</ele><time>2026-04-11T15:03:36Z</time></trkpt><trkpt lat="45.880588377980075" lon="8.540391966155635"><ele>234.0</ele><time>2026-04-11T15:03:37Z</time></trkpt><trkpt lat="45.88062510049521" lon="8.540558435592303"><ele>234.0</ele><time>2026-04-11T15:03:38Z</time></trkpt><trkpt lat="45.88065650451846" lon="8.540723063046588"><ele>233.6</ele><time>2026-04-11T15:03:39Z</time></trkpt><trkpt lat="45.880684736702364" lon="8.540886395627618"><ele>233.2</ele><time>2026-04-11T15:03:40Z</time></trkpt><trkpt lat="45.88071223627308" lon="8.541036617948901"><ele>232.79999999999998</ele><time>2026-04-11T15:03:41Z</time></trkpt><trkpt lat="45.8807291977299" lon="8.541195129071749"><ele>232.39999999999998</ele><time>2026-04-11T15:03:42Z</time></trkpt><trkpt lat="45.88075320747037" lon="8.541339637628418"><ele>232.0</ele><time>2026-04-11T15:03:43Z</time></trkpt><trkpt lat="45.88077925242269" lon="8.54146559335319"><ele>232.8</ele><time>2026-04-11T15:03:44Z</time></trkpt><trkpt lat="45.88086398463921" lon="8.541559429257545"><ele>233.6</ele><time>2026-04-11T15:03:45Z</time></trkpt><trkpt lat="45.880951032282105" lon="8.54162105452016"><ele>234.40000000000003</ele><time>2026-04-11T15:03:46Z</time></trkpt><trkpt lat="45.88105324109914" lon="8.541620932681735"><ele>235.20000000000002</ele><time>2026-04-11T15:03:47Z</time></trkpt><trkpt lat="45.88115921427569" lon="8.541562057948267"><ele>236.0</ele><time>2026-04-11T15:03:48Z</time></trkpt><trkpt lat="45.88123555567211" lon="8.541452136183183"><ele>232.5</ele><time>2026-04-11T15:03:49Z</time></trkpt><trkpt lat="45.881282503399405" lon="8.541327972249835"><ele>229.0</ele><time>2026-04-11T15:03:50Z</time></trkpt><trkpt lat="45.88132772095996" lon="8.541181919405481"><ele>225.5</ele><time>2026-04-11T15:03:51Z</time></trkpt><trkpt lat="45.88137708801907" lon="8.541023013900944"><ele>222.0</ele><time>2026-04-11T15:03:52Z</time></trkpt><trkpt lat="45.88142903984633" lon="8.540852027840598"><ele>220.5</ele><time>2026-04-11T15:03:53Z</time></trkpt><trkpt lat="45.881471493731766" lon="8.540680141313699"><ele>219.0</ele><time>2026-04-11T15:03:54Z</time></trkpt><trkpt lat="45.88150955183408" lon="8.540523272928702"><ele>217.5</ele><time>2026-04-11T15:03:55Z</time></trkpt><trkpt lat="45.88154012550284" lon="8.540343473987786"><ele>216.0</ele><time>2026-04-11T15:03:56Z</time></trkpt><trkpt lat="45.88156256404371" lon="8.540169130852277"><ele>215.75</ele><time>2026-04-11T15:03:57Z</time></trkpt><trkpt lat="45.8815679883691" lon="8.539995462938796"><ele>215.5</ele><time>2026-04-11T15:03:58Z</time></trkpt><trkpt lat="45.88157137149984" lon="8.539824730547434"><ele>215.25</ele><time>2026-04-11T15:03:59Z</time></trkpt><trkpt lat="45.88157438413796" lon="8.539663786194424"><ele>215.0</ele><time>2026-04-11T15:04:00Z</time></trkpt><trkpt lat="45.881579482248114" lon="8.539510638803844"><ele>215.0</ele><time>2026-04-11T15:04:01Z</time></trkpt><trkpt lat="45.88158287913423" lon="8.539363521766584"><ele>215.0</ele><time>2026-04-11T15:04:02Z</time></trkpt><trkpt lat="45.88158910311765" lon="8.539205820507952"><ele>215.0</ele><time>2026-04-11T15:04:03Z</time></trkpt><trkpt lat="45.88160410974143" lon="8.539053380150532"><ele>215.0</ele><time>2026-04-11T15:04:04Z</time></trkpt><trkpt lat="45.8816409797967" lon="8.5388934862417"><ele>215.0</ele><time>2026-04-11T15:04:05Z</time></trkpt><trkpt lat="45.88166891514509" lon="8.538746893150755"><ele>215.6</ele><time>2026-04-11T15:04:06Z</time></trkpt><trkpt lat="45.88170979776749" lon="8.538615365569909"><ele>216.2</ele><time>2026-04-11T15:04:07Z</time></trkpt><trkpt lat="45.88178633469741" lon="8.538518479486294"><ele>216.8</ele><time>2026-04-11T15:04:08Z</time></trkpt><trkpt lat="45.881870746279645" lon="8.538459432543727"><ele>217.4</ele><time>2026-04-11T15:04:09Z</time></trkpt><trkpt lat="45.881877559364405" lon="8.53829870180397"><ele>218.0</ele><time>2026-04-11T15:04:10Z</time></trkpt><trkpt lat="45.88189075812968" lon="8.538156305939633"><ele>216.8</ele><time>2026-04-11T15:04:11Z</time></trkpt><trkpt lat="45.881911205244194" lon="8.538018746007433"><ele>215.60000000000002</ele><time>2026-04-11T15:04:12Z</time></trkpt><trkpt lat="45.88194752439122" lon="8.537872371998647"><ele>214.39999999999998</ele><time>2026-04-11T15:04:13Z</time></trkpt><trkpt lat="45.88198261778539" lon="8.537741934106169"><ele>213.2</ele><time>2026-04-11T15:04:14Z</time></trkpt><trkpt lat="45.8820106202286" lon="8.537624931202464"><ele>212.0</ele><time>2026-04-11T15:04:15Z</time></trkpt><trkpt lat="45.88200573497305" lon="8.537514684773418"><ele>212.0</ele><time>2026-04-11T15:04:16Z</time></trkpt><trkpt lat="45.8819768030813" lon="8.5374044810049"><ele>212.0</ele><time>2026-04-11T15:04:17Z</time></trkpt><trkpt lat="45.88192635248345" lon="8.537344221159803"><ele>212.0</ele><time>2026-04-11T15:04:18Z</time></trkpt><trkpt lat="45.88191069861494" lon="8.537232708354411"><ele>212.0</ele><time>2026-04-11T15:04:19Z</time></trkpt><trkpt lat="45.881941332634035" lon="8.537087879625362"><ele>212.0</ele><time>2026-04-11T15:04:20Z</time></trkpt><trkpt lat="45.88201356345712" lon="8.536934751467712"><ele>212.25</ele><time>2026-04-11T15:04:21Z</time></trkpt><trkpt lat="45.882097777032214" lon="8.536769040152434"><ele>212.5</ele><time>2026-04-11T15:04:22Z</time></trkpt><trkpt lat="45.88216635861068" lon="8.536588031811052"><ele>212.75</ele><time>2026-04-11T15:04:23Z</time></trkpt><trkpt lat="45.882234870885675" lon="8.536424975087144"><ele>213.0</ele><time>2026-04-11T15:04:24Z</time></trkpt><trkpt lat="45.88228750213078" lon="8.53629583075281"><ele>213.14285714285714</ele><time>2026-04-11T15:04:25Z</time></trkpt><trkpt lat="45.88231642983819" lon="8.536206702372898"><ele>213.28571428571428</ele><time>2026-04-11T15:04:26Z</time></trkpt><trkpt lat="45.882349105695354" lon="8.536110640018881"><ele>213.42857142857144</ele><time>2026-04-11T15:04:28Z</time></trkpt><trkpt lat="45.88237896410379" lon="8.536021899848162"><ele>213.57142857142856</ele><time>2026-04-11T15:04:32Z</time></trkpt><trkpt lat="45.88241178712178" lon="8.535928259658581"><ele>213.71428571428572</ele><time>2026-04-11T15:04:36Z</time></trkpt><trkpt lat="45.882447750321134" lon="8.5358335157438"><ele>213.85714285714286</ele><time>2026-04-11T15:04:38Z</time></trkpt><trkpt lat="45.882479817388024" lon="8.53574904352657"><ele>214.0</ele><time>2026-04-11T15:04:40Z</time></trkpt><trkpt lat="45.8825119028591" lon="8.535670939912123"><ele>214.0</ele><time>2026-04-11T15:04:42Z</time></trkpt><trkpt lat="45.88254216306944" lon="8.535585771165813"><ele>213.99999999999997</ele><time>2026-04-11T15:04:44Z</time></trkpt><trkpt lat="45.8826288530897" lon="8.535545997034406"><ele>213.99999999999997</ele><time>2026-04-11T15:04:47Z</time></trkpt><trkpt lat="45.88267764891339" lon="8.535648063714078"><ele>214.0</ele><time>2026-04-11T15:04:48Z</time></trkpt><trkpt lat="45.8827717237821" lon="8.535766764401437"><ele>214.0</ele><time>2026-04-11T15:04:49Z</time></trkpt><trkpt lat="45.882893087070045" lon="8.53591315369841"><ele>213.0</ele><time>2026-04-11T15:04:50Z</time></trkpt><trkpt lat="45.8830048697781" lon="8.536034591290676"><ele>212.0</ele><time>2026-04-11T15:04:51Z</time></trkpt><trkpt lat="45.88311023004794" lon="8.536116451757183"><ele>211.0</ele><time>2026-04-11T15:04:52Z</time></trkpt><trkpt lat="45.8831917283868" lon="8.536231669603904"><ele>210.0</ele><time>2026-04-11T15:04:53Z</time></trkpt><trkpt lat="45.88328851176179" lon="8.536342040386991"><ele>210.0</ele><time>2026-04-11T15:04:54Z</time></trkpt><trkpt lat="45.88338193637828" lon="8.536450674494763"><ele>210.0</ele><time>2026-04-11T15:04:55Z</time></trkpt><trkpt lat="45.88348114612818" lon="8.536536805872215"><ele>210.0</ele><time>2026-04-11T15:04:56Z</time></trkpt><trkpt lat="45.88357029509252" lon="8.536616727001377"><ele>210.0</ele><time>2026-04-11T15:04:57Z</time></trkpt><trkpt lat="45.883659271802166" lon="8.536696047538976"><ele>210.0</ele><time>2026-04-11T15:04:58Z</time></trkpt><trkpt lat="45.88375982085566" lon="8.536784882381784"><ele>209.8</ele><time>2026-04-11T15:04:59Z</time></trkpt><trkpt lat="45.8838627002803" lon="8.536873688922018"><ele>209.6</ele><time>2026-04-11T15:05:00Z</time></trkpt><trkpt lat="45.883953164346565" lon="8.536954404601937"><ele>209.39999999999998</ele><time>2026-04-11T15:05:01Z</time></trkpt><trkpt lat="45.884031689650925" lon="8.537032259452296"><ele>209.2</ele><time>2026-04-11T15:05:02Z</time></trkpt><trkpt lat="45.884106499656276" lon="8.537100905968622"><ele>209.0</ele><time>2026-04-11T15:05:03Z</time></trkpt><trkpt lat="45.88418879339224" lon="8.537183513728175"><ele>209.00000000000003</ele><time>2026-04-11T15:05:05Z</time></trkpt><trkpt lat="45.88423224920885" lon="8.537254442230603"><ele>209.0</ele><time>2026-04-11T15:05:07Z</time></trkpt><trkpt lat="45.88429825310567" lon="8.537305748479897"><ele>209.0</ele><time>2026-04-11T15:05:11Z</time></trkpt><trkpt lat="45.88437869049911" lon="8.537441142079548"><ele>209.0</ele><time>2026-04-11T15:05:13.001Z</time></trkpt><trkpt lat="45.8844395709206" lon="8.537507525011394"><ele>209.00000000000003</ele><time>2026-04-11T15:05:14.001Z</time></trkpt><trkpt lat="45.884507960379665" lon="8.537577857274298"><ele>209.0</ele><time>2026-04-11T15:05:15.001Z</time></trkpt><trkpt lat="45.88458556774832" lon="8.537663247302719"><ele>208.79999999999998</ele><time>2026-04-11T15:05:16.001Z</time></trkpt><trkpt lat="45.88466148745688" lon="8.537750855958684"><ele>208.6</ele><time>2026-04-11T15:05:17.001Z</time></trkpt><trkpt lat="45.88473337911891" lon="8.537832884324358"><ele>208.4</ele><time>2026-04-11T15:05:18.001Z</time></trkpt><trkpt lat="45.88479865664905" lon="8.537910385069386"><ele>208.2</ele><time>2026-04-11T15:05:19.001Z</time></trkpt><trkpt lat="45.88485763803292" lon="8.537983284912052"><ele>208.0</ele><time>2026-04-11T15:05:20.001Z</time></trkpt><trkpt lat="45.88495393362807" lon="8.538095217679324"><ele>207.16666666666666</ele><time>2026-04-11T15:05:22Z</time></trkpt><trkpt lat="45.88500849075646" lon="8.538163850177904"><ele>206.33333333333331</ele><time>2026-04-11T15:05:25Z</time></trkpt><trkpt lat="45.88497679734937" lon="8.538329468259775"><ele>205.5</ele><time>2026-04-11T15:05:27Z</time></trkpt><trkpt lat="45.88493718290187" lon="8.538430339775953"><ele>204.66666666666669</ele><time>2026-04-11T15:05:28Z</time></trkpt><trkpt lat="45.88490422628524" lon="8.538541098063881"><ele>203.83333333333334</ele><time>2026-04-11T15:05:29Z</time></trkpt><trkpt lat="45.88487675409815" lon="8.538665359593415"><ele>203.0</ele><time>2026-04-11T15:05:30Z</time></trkpt><trkpt lat="45.88484965375732" lon="8.53877978635896"><ele>202.66666666666669</ele><time>2026-04-11T15:05:31Z</time></trkpt><trkpt lat="45.884822105489" lon="8.538879437612259"><ele>202.33333333333334</ele><time>2026-04-11T15:05:32Z</time></trkpt><trkpt lat="45.884796137623304" lon="8.538974199156014"><ele>202.0</ele><time>2026-04-11T15:05:33Z</time></trkpt><trkpt lat="45.88474874764655" lon="8.539141063316698"><ele>201.66666666666669</ele><time>2026-04-11T15:05:35Z</time></trkpt><trkpt lat="45.88471887267115" lon="8.539240688451605"><ele>201.33333333333334</ele><time>2026-04-11T15:05:36Z</time></trkpt><trkpt lat="45.884693427222686" lon="8.539346592340884"><ele>201.0</ele><time>2026-04-11T15:05:37Z</time></trkpt><trkpt lat="45.88466303406081" lon="8.539460010877026"><ele>200.83333333333334</ele><time>2026-04-11T15:05:38Z</time></trkpt><trkpt lat="45.88463496645481" lon="8.539558047297755"><ele>200.66666666666669</ele><time>2026-04-11T15:05:39Z</time></trkpt><trkpt lat="45.884610651391604" lon="8.53967871903247"><ele>200.5</ele><time>2026-04-11T15:05:40Z</time></trkpt><trkpt lat="45.88457942009717" lon="8.539784157382165"><ele>200.33333333333334</ele><time>2026-04-11T15:05:41Z</time></trkpt><trkpt lat="45.88455238952777" lon="8.539888652174978"><ele>200.16666666666669</ele><time>2026-04-11T15:05:42Z</time></trkpt><trkpt lat="45.884521563324455" lon="8.539998190639212"><ele>200.0</ele><time>2026-04-11T15:05:43Z</time></trkpt><trkpt lat="45.8844987890715" lon="8.54008751358222"><ele>200.0</ele><time>2026-04-11T15:05:44Z</time></trkpt><trkpt lat="45.88446480172387" lon="8.5401974230735"><ele>200.0</ele><time>2026-04-11T15:05:45Z</time></trkpt><trkpt lat="45.88443427125057" lon="8.540289566813678"><ele>200.0</ele><time>2026-04-11T15:05:46Z</time></trkpt><trkpt lat="45.884391370692555" lon="8.540377549676734"><ele>200.0</ele><time>2026-04-11T15:05:47Z</time></trkpt><trkpt lat="45.88435959384478" lon="8.540499188876435"><ele>200.0</ele><time>2026-04-11T15:05:49Z</time></trkpt><trkpt lat="45.88452831206128" lon="8.540601438641543"><ele>199.66666666666669</ele><time>2026-04-11T15:05:50Z</time></trkpt><trkpt lat="45.884618044821494" lon="8.54068283762141"><ele>199.33333333333334</ele><time>2026-04-11T15:05:52Z</time></trkpt><trkpt lat="45.88469490300381" lon="8.540611042252229"><ele>199.0</ele><time>2026-04-11T15:05:54Z</time></trkpt><trkpt lat="45.8847558087801" lon="8.540587957908112"><ele>198.66666666666669</ele><time>2026-04-11T15:05:58Z</time></trkpt><trkpt lat="45.884736400202534" lon="8.540496390403186"><ele>198.33333333333334</ele><time>2026-04-11T15:06:01Z</time></trkpt><trkpt lat="45.884771608375985" lon="8.540410313632611"><ele>198.0</ele><time>2026-04-11T15:06:08Z</time></trkpt><trkpt lat="45.884856506960084" lon="8.540484545043006"><ele>198.0</ele><time>2026-04-11T15:06:10Z</time></trkpt></trkseg></trk></gpx>